ECMWFFLT2_sfc_thetae_000.txt.gz
Theta_e
338 340 342 344 345 346 347 349 349 349 347 346 346 345 344 344 347 343 346 347 344 340 340 341 346 343 346 345 345 347 346 347 347 345 347 346 346 346 345 345 342 344 342 340 340 340 339 340 341 339 337 337 339 333 330 329 330 332 331 334 336 331
334 336 339 342 344 346 347 345 340 342 344 343 344 342 342 342 346 338 346 339 337 342 337 334 337 343 343 344 345 347 345 345 344 340 341 346 346 346 345 345 343 343 342 340 340 331 335 340 340 339 337 335 329 329 329 330 330 331 332 333 334 333
331 331 334 339 342 346 345 345 343 342 342 344 345 345 340 341 335 339 337 336 336 334 336 335 338 341 340 341 343 346 346 345 342 340 341 345 346 345 345 344 344 342 342 338 329 326 326 326 332 336 333 328 328 328 329 329 329 330 331 333 332 336
332 330 332 334 340 342 343 344 345 344 341 340 338 340 340 336 339 340 337 333 331 333 335 335 340 339 339 337 339 344 344 342 344 341 343 345 345 344 344 343 342 342 338 332 328 328 326 325 325 324 326 326 327 328 328 329 329 330 330 335 331 337
332 331 331 334 339 340 340 342 344 346 343 340 340 338 337 337 338 338 337 332 330 332 331 334 334 336 333 335 335 334 336 338 339 338 343 338 339 340 339 335 335 335 332 332 329 326 326 327 326 325 325 325 326 327 328 329 329 329 330 333 334 337
332 330 331 332 334 339 340 339 340 343 345 344 342 338 336 336 335 337 336 333 332 330 331 333 332 332 333 334 333 333 335 336 339 339 340 337 336 336 334 333 333 333 332 332 330 329 330 328 325 326 326 325 325 327 328 328 328 329 330 331 335 338
328 327 329 332 334 334 334 336 340 340 341 342 344 342 335 333 335 338 336 335 329 329 331 331 332 331 332 332 336 335 338 341 340 338 337 338 337 336 335 333 331 332 331 331 331 330 326 325 327 328 326 327 326 326 326 327 328 329 329 331 334 338
326 326 327 329 329 332 332 334 339 343 338 345 341 337 334 332 332 334 336 335 335 333 333 333 334 332 334 333 335 340 344 343 341 338 337 337 336 335 334 332 330 327 330 329 330 328 326 326 325 326 327 326 326 325 326 327 328 328 329 330 332 337
326 327 325 328 329 331 332 331 334 334 332 344 330 333 335 333 331 332 334 335 339 336 337 336 332 334 333 332 332 339 345 344 341 339 336 334 336 334 332 330 329 328 326 325 325 325 325 326 325 325 326 326 326 326 325 326 327 327 328 329 330 333
325 326 325 326 325 327 327 329 329 331 331 337 327 332 337 334 334 333 332 334 336 337 338 335 329 329 332 332 332 333 342 343 340 338 335 334 334 333 331 329 328 327 326 324 325 325 326 324 325 326 326 326 325 327 326 325 326 327 328 329 330 332
325 331 323 324 322 323 325 328 333 332 332 330 330 334 334 336 335 333 333 335 336 338 339 337 327 324 331 331 331 333 336 340 339 338 336 334 334 334 332 330 329 327 326 324 325 325 326 325 324 326 328 327 326 326 327 326 326 326 327 329 330 331
321 324 324 323 326 324 325 328 329 327 330 333 334 332 330 331 334 333 334 334 334 334 336 335 330 321 326 328 331 332 334 338 338 338 336 334 333 333 332 331 330 329 327 326 326 325 325 324 324 324 326 327 327 326 326 326 325 326 327 328 329 330
319 319 320 319 319 318 319 322 323 323 328 333 332 330 329 330 328 331 333 334 332 334 334 331 330 331 328 330 332 332 335 337 339 337 336 334 334 332 331 330 329 331 329 328 328 327 328 325 325 325 326 327 326 326 326 325 326 326 326 328 328 329
317 318 317 315 316 316 315 318 321 319 328 324 324 327 331 327 329 329 332 331 331 331 333 334 331 330 328 327 329 333 335 335 337 336 335 334 333 332 331 330 330 330 333 329 328 328 327 327 325 325 326 327 326 327 325 325 326 326 326 327 328 328
319 316 318 316 314 314 314 312 311 314 318 320 322 323 324 325 324 324 330 333 334 332 332 331 332 330 326 328 330 332 334 334 335 335 334 334 333 333 332 331 330 330 330 330 329 328 326 324 324 325 326 327 327 326 325 326 325 325 326 326 327 328
315 314 313 314 309 310 309 311 316 324 315 315 318 318 318 322 325 324 327 330 331 333 333 332 332 330 327 329 330 331 333 336 336 335 335 334 334 332 332 331 332 331 329 329 328 328 326 326 325 325 326 326 327 327 326 325 325 325 326 326 326 328
314 314 312 309 308 308 308 308 310 311 312 314 314 316 319 320 321 322 322 325 331 336 332 332 331 331 329 331 330 330 333 334 332 332 332 334 334 332 331 333 330 332 331 330 331 329 329 325 324 324 324 326 327 326 326 326 325 326 326 326 326 327
313 313 311 309 308 308 310 311 312 314 322 314 314 316 318 319 319 319 322 325 331 336 337 334 333 334 332 330 330 330 331 331 332 331 331 333 332 332 330 331 330 330 331 330 329 330 329 328 326 325 325 324 326 326 326 326 326 327 326 326 326 326
312 310 308 309 310 309 309 311 310 312 313 313 314 314 315 317 317 319 320 325 330 332 334 334 334 334 330 329 329 329 330 331 331 331 331 329 330 331 329 330 330 329 331 330 330 331 330 329 328 328 327 326 325 326 327 327 326 326 326 326 327 327
310 309 309 310 310 309 310 311 312 312 313 312 312 316 313 312 315 317 320 321 323 324 326 327 325 327 328 329 328 328 330 330 331 331 328 326 327 326 328 328 328 329 329 331 332 332 332 330 330 328 326 326 325 325 326 326 326 325 326 326 327 328
308 309 311 309 308 307 307 305 306 307 308 306 312 312 312 311 313 314 315 317 318 317 317 320 320 319 321 326 322 322 325 327 328 329 327 326 328 330 331 330 329 327 329 328 329 332 332 331 327 324 323 324 324 325 325 326 325 325 325 326 326 326
307 309 310 310 310 308 304 307 306 307 305 307 309 309 310 309 312 314 313 312 313 312 312 315 321 318 317 317 319 320 321 322 324 325 327 327 327 328 330 329 328 325 327 327 325 329 329 329 324 321 319 320 321 323 323 323 323 324 325 325 326 325
308 309 309 311 310 308 306 307 305 304 309 306 304 307 306 312 313 310 309 310 312 310 312 313 315 321 317 316 316 317 317 319 320 323 322 322 324 324 326 328 327 325 324 326 326 329 327 327 323 323 322 320 316 314 319 321 322 322 323 324 325 325
309 309 310 313 314 308 309 306 307 308 306 306 307 315 308 308 308 309 309 309 311 309 311 312 313 316 315 314 314 315 316 317 317 319 319 319 320 322 323 323 327 328 326 321 322 325 329 327 325 323 317 317 316 313 311 315 315 320 321 323 323 324
309 309 310 316 312 310 311 309 309 308 309 308 308 306 308 307 308 315 311 308 309 309 310 311 312 314 318 313 313 314 315 315 316 316 317 316 316 318 320 323 325 327 327 325 324 324 326 328 327 328 322 317 314 312 313 315 316 319 319 320 321 322
308 309 310 311 310 311 311 309 309 307 304 303 303 304 304 306 307 307 307 307 308 308 309 311 311 312 317 316 313 313 314 315 315 315 315 315 315 316 316 317 319 323 325 327 327 324 324 327 328 328 327 324 321 316 315 318 318 313 319 319 321 322
309 309 310 310 309 312 308 309 310 309 306 304 304 303 302 303 307 305 306 308 306 307 309 310 312 312 313 315 312 312 313 314 314 315 317 314 314 314 315 316 317 317 319 322 325 323 322 324 325 324 325 325 324 323 323 319 314 315 314 319 321 321
310 312 310 310 309 310 309 308 308 307 308 304 304 305 304 303 304 307 305 307 307 307 308 310 310 312 313 315 312 310 311 312 313 314 314 312 312 312 313 314 315 315 316 317 319 320 319 321 320 321 323 323 323 324 324 323 322 319 317 314 316 323
310 311 310 310 310 308 311 309 309 308 307 307 305 306 308 310 307 308 305 306 308 306 307 308 309 311 312 313 314 310 310 311 311 312 314 310 310 311 311 311 312 312 313 313 316 317 317 317 319 318 319 320 323 323 323 323 324 323 319 315 315 317
309 310 310 309 310 308 308 310 307 307 308 306 307 305 305 305 305 304 305 305 306 306 306 307 308 309 310 310 310 311 310 310 310 312 312 308 308 309 309 309 310 311 311 311 312 313 313 314 315 316 318 318 317 317 318 320 321 319 320 321 314 315
309 310 310 309 309 308 307 308 308 307 308 307 306 305 305 304 304 303 305 305 305 305 305 306 308 308 308 310 311 313 309 309 310 313 310 308 308 308 308 308 308 309 309 309 310 310 311 311 312 313 314 315 315 315 315 314 314 316 316 315 316 317
308 309 309 309 308 308 307 308 308 308 308 308 307 307 306 306 305 305 305 305 304 304 306 306 305 307 307 308 309 308 310 307 308 307 307 307 307 307 307 307 307 308 308 308 309 310 309 309 309 310 311 313 314 315 315 315 316 317 316 316 315 314
308 308 309 309 308 307 307 308 308 308 308 308 307 307 307 306 306 306 305 304 304 305 304 307 306 307 307 306 308 305 305 306 307 308 307 306 306 306 306 306 306 306 306 306 306 307 307 307 307 308 309 310 311 312 312 314 315 315 316 317 316 314
308 309 309 308 308 306 307 308 308 308 308 309 307 307 307 307 306 306 306 306 306 307 307 308 307 307 307 307 308 309 307 306 307 307 307 306 306 306 306 305 305 305 305 305 306 306 306 306 306 306 308 308 309 310 310 312 312 314 313 312 312 311
308 308 308 308 308 307 307 307 308 308 309 308 308 307 307 307 307 306 305 306 307 306 307 307 307 308 307 307 306 305 306 306 305 305 305 305 305 304 305 305 306 305 306 304 304 306 305 305 305 305 305 306 308 308 308 310 311 311 311 311 311 311
308 309 309 309 308 308 307 307 307 308 308 309 310 308 307 307 307 307 306 306 307 306 307 307 306 307 306 307 306 306 307 304 304 304 305 304 304 304 304 304 302 303 304 307 303 303 304 303 304 304 304 305 305 305 306 307 308 309 309 310 310 311
308 308 309 309 308 308 307 306 306 307 308 308 307 306 306 306 306 306 306 306 307 307 307 306 306 307 307 305 305 306 305 304 304 304 304 304 304 303 303 303 302 302 302 303 305 303 303 303 303 303 303 303 303 304 305 306 306 307 307 308 309 310

ECMWFFLT2_sfc_thetae_003.txt.gz
Theta_e
345 347 348 349 350 351 351 350 349 347 346 344 345 343 344 343 343 346 346 345 345 349 353 354 350 341 349 347 346 347 347 348 348 348 347 346 346 343 343 344 343 342 341 340 340 339 340 340 340 340 340 340 339 340 343 341 340 339 339 338 339 337
342 345 347 348 349 350 351 350 352 351 350 348 346 345 346 349 347 351 347 347 350 351 350 350 350 344 345 346 346 347 347 346 347 347 347 347 347 346 342 343 343 341 341 342 341 339 340 340 339 339 338 339 342 342 343 341 341 339 338 339 339 339
341 342 345 346 348 350 349 349 350 351 350 347 348 347 346 348 348 349 350 349 350 349 347 348 348 346 347 344 349 346 347 344 345 345 345 346 346 346 343 342 342 342 340 338 339 338 339 339 339 335 337 340 341 341 341 341 341 341 338 339 339 338
342 342 342 344 346 346 347 349 348 350 351 351 350 349 349 348 348 349 347 349 348 348 348 349 345 343 343 347 346 339 338 343 344 342 341 346 346 345 344 342 341 341 339 336 338 336 334 335 337 338 340 341 340 340 341 341 339 340 340 338 337 337
341 343 343 343 342 342 344 347 348 350 349 348 349 350 349 348 347 349 349 348 346 348 347 348 348 347 346 345 345 346 344 341 340 339 343 341 342 339 342 342 340 340 340 338 336 337 336 335 337 337 337 339 340 341 340 340 339 339 340 340 340 337
340 340 343 344 343 343 343 341 344 347 348 349 348 347 346 347 347 348 348 346 346 347 346 344 345 346 344 343 340 341 343 342 340 340 342 340 338 340 340 339 341 338 338 338 338 338 337 336 335 335 335 338 339 340 340 339 339 340 341 341 342 337
340 341 340 341 343 344 343 343 342 343 345 348 349 347 346 348 348 347 347 346 344 344 343 341 341 342 342 340 338 334 338 339 341 340 343 338 338 340 340 341 340 337 336 337 337 337 336 335 336 334 334 334 337 338 340 339 339 340 340 340 341 338
341 341 342 342 343 342 343 342 343 345 345 347 348 347 346 346 347 346 345 347 348 345 341 339 339 340 341 340 336 338 340 340 341 339 342 339 338 339 340 340 339 336 336 336 336 336 335 333 336 337 334 334 335 338 339 339 340 341 340 340 341 339
341 340 342 342 341 342 342 342 343 343 344 344 345 346 345 345 345 345 345 347 348 345 342 340 340 339 341 340 339 339 342 343 341 341 342 340 339 339 339 338 338 336 337 336 336 336 334 334 336 336 334 332 333 335 337 339 340 340 340 340 341 340
341 341 341 342 342 341 341 342 342 343 345 349 344 344 344 344 344 344 344 345 346 348 344 342 340 340 340 340 340 339 341 345 344 344 342 340 339 339 337 336 336 334 332 334 333 335 334 334 332 334 334 333 332 334 336 337 338 338 339 340 341 341
340 342 341 340 342 340 341 341 342 342 344 346 343 340 345 344 343 342 342 343 343 343 343 341 339 340 340 339 340 339 338 343 343 343 343 342 345 338 337 334 334 334 334 333 333 334 333 333 333 331 333 332 333 334 335 337 337 338 338 339 340 341
339 341 342 340 341 339 340 340 340 342 342 343 342 341 341 342 342 342 340 340 341 341 341 340 340 341 342 340 339 337 337 339 339 344 342 344 344 344 338 335 337 339 337 335 334 334 335 333 333 332 334 333 334 334 334 336 335 337 338 339 339 341
338 340 340 339 338 338 340 339 339 340 341 341 340 339 338 337 339 337 339 339 339 339 339 338 338 339 340 339 338 333 334 338 339 345 342 342 345 344 343 340 339 339 337 336 335 335 334 335 335 336 337 334 336 334 334 335 336 336 337 338 339 339
336 337 337 336 337 336 337 337 338 339 339 340 339 338 337 335 337 339 340 340 340 339 339 340 339 339 338 337 338 335 334 335 340 341 343 342 343 343 342 340 336 336 335 335 335 337 336 335 336 336 337 335 337 337 337 334 336 337 338 339 338 340
335 336 335 334 333 333 334 334 336 338 338 338 339 338 337 336 335 337 340 342 342 339 339 339 338 338 338 337 336 337 337 338 337 337 340 341 342 341 341 340 340 335 338 336 342 337 339 337 336 335 337 337 336 335 337 336 337 337 336 339 340 339
334 333 331 330 330 330 330 333 334 334 335 336 335 336 338 339 339 338 340 341 339 339 339 338 338 338 338 337 336 336 336 335 334 331 336 341 339 337 338 338 338 339 337 337 335 335 337 335 335 335 335 336 337 337 337 337 337 336 337 338 337 338
332 330 328 326 326 326 328 329 331 330 332 334 334 335 334 335 336 338 338 338 339 339 337 336 337 336 336 335 335 335 336 334 335 332 332 332 338 337 338 337 337 338 338 337 335 332 333 335 335 334 335 335 337 337 337 337 338 338 335 337 338 337
330 328 327 326 326 326 327 328 329 329 331 332 333 332 333 334 335 336 336 336 339 340 339 339 338 338 337 337 335 334 333 334 333 333 332 332 334 335 335 335 337 336 336 335 333 332 331 330 331 333 334 334 337 337 337 338 339 337 336 336 338 337
328 325 323 324 325 326 327 328 327 329 330 331 331 331 333 333 334 337 335 335 336 337 336 336 336 337 337 335 334 334 334 333 334 333 331 331 331 332 332 333 335 335 334 334 333 332 332 331 329 330 331 332 333 334 337 337 338 337 337 338 337 337
326 323 323 324 325 325 326 326 324 326 327 328 329 329 331 331 334 334 335 335 334 334 333 334 335 336 336 334 333 332 333 333 335 335 332 331 331 332 331 330 329 332 331 332 334 333 333 331 331 330 332 334 332 333 333 335 337 336 337 338 339 338
323 322 322 322 323 323 323 322 325 326 325 327 327 329 328 330 331 331 329 327 327 326 328 330 330 333 334 332 333 334 335 334 334 333 332 332 332 332 333 331 330 330 329 328 330 333 333 333 329 328 331 331 332 331 333 334 334 335 335 337 337 337
321 322 323 325 324 325 326 324 324 323 325 325 326 325 326 327 329 327 327 326 327 324 323 328 331 331 331 330 330 330 333 332 333 333 333 332 332 332 332 331 330 328 330 329 329 334 333 333 329 326 325 325 328 330 331 332 330 331 333 333 335 336
321 322 322 324 324 322 323 324 326 324 325 322 320 323 325 326 327 324 325 325 326 327 326 327 330 329 329 330 330 330 331 331 332 332 331 331 331 330 332 331 330 328 326 329 329 332 331 333 327 327 328 323 322 321 327 328 330 330 331 332 332 332
321 322 323 324 323 325 324 324 324 324 323 324 321 323 324 324 324 323 321 324 325 326 326 327 327 325 328 329 330 329 329 329 329 331 330 328 328 327 329 329 329 328 329 323 326 328 333 332 331 327 321 321 320 320 318 323 324 328 331 330 329 328
321 322 323 324 324 325 324 323 322 322 323 321 321 322 321 321 323 323 321 321 322 324 324 325 327 328 326 327 328 329 328 329 328 329 328 326 325 324 326 328 329 331 328 330 326 331 332 332 329 332 325 320 317 317 318 321 322 326 330 329 327 327
320 321 323 325 324 324 323 322 321 318 316 316 317 318 317 318 320 321 318 322 321 323 324 326 327 327 326 326 327 328 329 327 327 326 326 325 325 324 324 324 326 328 328 330 330 329 329 333 332 328 327 329 326 321 320 321 320 318 329 329 328 327
320 321 324 324 324 324 324 324 323 321 319 317 317 320 322 323 324 321 322 322 322 325 325 326 326 326 326 326 327 326 326 325 324 324 324 324 322 323 321 321 324 324 325 327 329 327 326 325 326 326 328 328 329 329 327 322 319 321 318 324 329 329
320 321 323 324 324 325 324 324 324 323 320 318 320 320 320 321 323 322 321 321 322 323 325 325 325 324 325 324 325 324 323 323 320 319 318 318 319 320 321 321 323 324 324 324 324 324 323 324 324 322 329 330 330 330 328 326 325 321 319 316 319 326
319 321 322 324 324 324 325 325 324 323 321 319 319 318 318 320 321 322 321 321 322 322 323 325 324 324 324 323 322 321 321 319 318 317 316 316 317 318 320 320 320 320 321 321 322 322 321 320 321 320 322 324 325 325 327 327 325 324 319 316 317 320
319 320 322 323 324 324 325 324 324 323 323 321 319 318 319 320 321 321 320 321 322 322 322 323 323 323 322 321 320 320 319 319 319 317 315 315 316 316 317 317 318 318 319 318 320 320 319 319 320 320 321 321 320 320 321 321 322 320 320 321 315 316
319 320 321 323 323 323 324 324 324 324 324 323 321 319 318 319 319 319 320 319 320 321 322 322 322 323 322 320 321 320 320 319 319 317 315 314 314 313 314 315 315 315 316 316 315 317 316 317 317 317 318 318 317 318 316 315 316 317 317 316 316 316
319 320 320 322 323 323 322 323 325 325 324 324 323 319 319 320 319 320 320 319 320 321 321 322 323 321 321 321 320 320 320 319 317 317 315 315 314 313 313 313 313 313 313 314 314 314 314 313 314 314 315 315 315 316 316 315 315 316 315 315 315 315
318 320 320 321 322 323 322 322 322 323 324 324 323 321 320 321 322 321 320 320 319 319 320 320 321 321 321 321 318 319 319 317 316 317 316 314 314 313 313 312 312 312 312 312 312 312 310 311 311 310 310 312 311 312 312 314 315 314 313 313 314 312
318 320 321 320 321 322 321 322 323 322 323 322 322 322 321 321 322 322 321 320 320 319 320 321 321 322 321 320 318 319 319 318 317 317 316 315 314 313 313 311 311 311 311 311 312 311 310 311 311 310 310 308 309 309 310 311 312 312 311 310 310 310
317 319 319 320 320 321 321 322 322 322 322 322 322 321 321 321 322 321 321 321 322 322 321 323 322 323 322 321 320 320 319 318 317 317 316 315 314 314 313 311 311 312 311 311 311 311 310 310 309 308 309 308 308 308 308 308 309 310 310 310 309 310
317 318 319 320 320 320 321 321 321 321 321 322 321 321 320 320 320 322 322 321 321 322 323 323 324 323 322 321 319 319 319 318 317 317 316 314 313 312 313 311 311 311 311 312 311 311 310 310 309 309 308 308 308 306 308 308 309 308 309 310 310 310
315 317 318 318 319 318 320 319 320 320 321 321 321 320 320 321 321 321 321 321 321 322 324 323 322 323 322 321 320 319 318 317 317 316 315 314 313 313 312 311 311 310 310 311 310 310 309 309 309 309 308 308 307 307 307 308 308 309 310 310 310 310

ECMWFFLT2_sfc_thetae_006.txt.gz
Theta_e
349 347 350 348 347 346 344 342 341 342 340 339 342 338 341 346 348 349 349 345 345 348 350 351 351 342 349 348 347 346 347 348 348 346 347 345 344 344 344 343 343 342 341 340 340 340 340 340 339 340 340 340 341 340 342 341 341 339 339 337 339 340
347 349 347 348 346 345 344 342 344 344 342 341 342 343 348 352 347 354 348 350 349 347 345 345 343 340 342 343 346 345 347 348 348 348 347 346 345 344 342 343 342 341 341 340 338 335 337 339 338 339 340 341 341 341 344 342 342 338 338 339 340 339
344 347 350 349 351 350 348 343 345 348 348 345 346 346 345 350 348 351 350 349 346 348 347 346 348 341 342 347 345 347 346 347 348 348 347 347 345 344 341 340 341 341 340 339 334 335 336 336 337 335 338 343 341 339 341 342 342 340 338 339 340 339
343 346 349 350 351 352 350 353 348 344 345 347 348 345 347 344 346 348 342 347 346 347 346 347 346 348 345 342 346 343 343 343 345 346 347 347 346 343 343 340 338 342 340 335 336 335 332 334 336 338 341 339 339 339 341 342 339 340 339 337 337 340
343 345 346 349 350 349 351 348 349 348 344 343 344 344 348 349 349 349 348 349 345 347 343 346 347 344 341 344 345 344 345 342 342 339 343 339 339 336 343 342 342 337 337 337 336 336 336 335 337 337 338 338 338 339 340 341 339 338 340 341 340 340
342 342 345 346 344 346 350 347 348 348 347 346 345 346 348 349 349 351 348 346 346 345 340 344 346 346 346 347 345 342 344 344 342 340 339 337 336 337 337 338 340 339 339 339 338 338 337 336 335 335 336 338 338 339 340 338 339 339 341 340 343 339
340 342 342 342 344 345 344 348 348 347 346 345 346 347 347 348 349 350 349 348 344 338 338 342 345 346 346 347 346 345 344 346 345 340 342 338 337 338 336 336 337 339 338 338 337 336 335 336 336 333 335 335 337 338 339 339 338 340 340 340 342 340
340 341 343 341 343 342 344 344 347 346 346 345 344 345 348 348 349 350 350 349 344 342 338 337 339 341 341 347 346 347 347 343 343 339 340 338 336 335 335 335 338 336 335 336 335 336 334 333 335 336 334 335 336 337 338 337 340 340 341 341 341 340
338 340 341 341 340 340 343 343 343 343 345 345 346 346 348 350 349 348 349 349 348 345 341 339 338 343 342 346 347 347 346 344 342 339 341 337 336 335 334 336 336 336 337 335 334 335 334 333 336 336 334 334 335 334 337 338 339 337 340 338 341 341
337 336 338 339 339 338 339 340 342 342 344 347 347 350 351 347 347 349 347 347 346 347 344 339 343 343 344 344 345 348 346 347 343 339 341 339 337 335 334 335 333 333 333 333 332 333 334 334 333 334 333 333 333 335 337 336 336 336 338 338 341 343
335 340 336 333 337 339 340 338 339 342 347 347 348 347 346 347 345 343 346 347 345 347 348 347 345 344 344 343 343 344 347 348 347 345 340 337 338 337 335 334 333 331 331 333 332 333 332 333 333 331 333 331 332 335 335 337 335 335 336 337 338 340
338 344 340 332 337 337 337 337 339 340 345 344 347 343 344 348 348 346 346 348 348 348 346 347 347 345 344 342 343 343 345 344 343 344 342 338 336 336 335 332 332 335 335 335 334 334 335 334 333 331 332 331 332 333 334 335 334 335 335 337 337 339
338 343 339 335 334 336 337 336 337 339 343 346 346 346 345 345 345 347 347 345 346 346 347 347 347 346 342 342 344 342 342 343 344 342 342 340 337 337 335 333 334 334 334 335 334 334 333 334 334 334 334 333 333 331 332 332 335 336 334 335 335 336
341 338 339 335 337 334 336 337 337 339 341 344 344 343 344 344 345 345 345 343 343 344 345 346 344 345 345 343 342 341 340 339 341 341 341 341 335 336 336 333 333 333 332 333 333 334 333 332 333 334 336 335 334 334 333 332 333 335 335 335 335 337
344 339 340 337 335 336 337 334 335 337 338 338 339 341 343 345 343 343 344 342 344 344 342 342 342 345 343 343 341 340 340 340 341 340 341 340 338 335 336 335 333 332 334 333 332 334 334 336 337 336 336 337 334 333 334 332 333 334 333 335 336 336
342 341 340 339 339 338 337 336 335 334 336 337 334 337 340 342 341 341 341 342 343 343 344 344 343 344 342 341 341 340 340 340 341 341 341 341 339 335 333 337 339 338 335 333 334 334 336 336 334 335 336 337 336 336 334 333 332 332 333 334 333 335
340 340 339 337 336 338 337 335 335 335 335 335 333 333 333 336 337 339 341 339 343 343 344 343 344 343 342 341 339 340 340 342 342 339 339 341 341 337 334 333 339 340 340 338 333 333 331 333 334 332 335 336 335 336 333 332 332 332 330 332 333 333
342 340 336 334 335 334 335 334 332 333 335 332 333 332 332 332 333 336 337 339 341 341 342 342 343 342 342 341 340 339 339 340 341 340 340 340 340 340 340 340 340 342 338 338 336 334 334 335 334 334 334 335 335 338 334 333 334 333 331 331 332 332
341 337 334 335 336 335 335 334 333 333 332 331 332 331 332 332 332 334 333 335 335 336 335 336 339 341 342 340 340 339 338 339 340 340 339 338 338 339 340 340 337 337 339 338 336 337 336 335 333 333 333 334 335 334 336 337 335 334 333 333 333 335
337 334 333 332 330 328 327 325 326 328 328 329 331 329 332 330 332 330 333 333 333 334 333 334 335 336 336 338 337 337 338 339 339 340 339 337 336 336 337 338 338 337 338 337 337 336 336 333 333 334 333 334 334 334 334 337 337 336 335 335 337 337
335 334 330 328 326 325 323 323 324 325 324 327 328 329 328 330 330 330 330 328 328 329 331 332 332 333 334 334 335 338 340 339 340 340 338 338 338 338 339 340 340 340 337 335 335 337 334 335 333 330 334 333 333 332 333 334 336 336 335 335 337 336
333 332 330 329 326 325 326 323 323 323 322 322 322 322 325 327 327 328 326 325 325 325 328 330 330 333 334 332 332 332 335 337 338 338 339 338 338 336 337 337 336 336 337 334 334 336 335 334 328 327 325 327 330 331 331 332 331 332 335 335 337 338
332 331 330 330 327 325 327 328 326 323 322 324 328 329 325 325 326 323 327 325 326 328 328 328 329 329 330 331 331 330 332 332 334 336 336 336 336 337 338 337 335 333 333 334 334 337 336 333 330 330 331 325 322 322 329 328 331 331 333 332 333 332
333 332 330 330 326 328 329 331 330 329 328 324 322 325 326 327 326 325 324 326 328 329 328 328 327 326 327 328 329 330 330 330 332 334 332 332 333 332 333 334 333 332 331 329 330 332 336 336 332 330 322 323 323 322 317 322 326 328 331 329 330 330
332 331 330 329 329 331 329 328 329 329 328 326 324 323 323 322 325 324 324 325 327 327 327 327 327 327 325 326 328 329 330 330 330 330 330 328 328 329 330 332 332 333 330 329 329 331 333 332 333 334 329 322 320 318 320 323 324 326 330 327 331 329
332 331 329 330 330 326 324 323 321 319 316 317 318 320 319 320 321 323 320 325 325 326 326 327 327 327 325 325 327 328 330 328 328 328 328 327 327 327 327 328 330 330 330 333 332 330 330 333 329 331 331 331 327 323 322 324 322 317 330 330 328 327
331 330 329 329 329 325 325 323 322 319 318 317 316 319 322 324 323 321 324 325 325 329 327 328 327 326 325 324 326 327 328 327 326 326 327 327 326 326 324 325 328 328 329 329 330 326 324 328 326 324 327 332 330 332 330 325 318 321 317 323 329 331
331 329 330 330 328 326 324 324 323 320 318 317 318 320 323 325 325 324 323 324 326 327 328 327 326 326 326 325 325 325 326 326 324 324 323 324 325 325 325 327 328 328 327 327 327 325 325 326 323 322 327 324 324 327 327 328 326 322 321 316 320 328
330 329 329 330 328 326 325 324 323 321 318 319 321 321 322 323 323 324 324 324 326 325 326 326 325 326 326 323 321 321 321 320 319 318 318 319 322 324 326 326 326 325 325 324 325 325 324 323 324 322 323 324 325 325 327 328 326 324 321 318 318 321
329 328 330 330 328 326 326 326 323 321 320 319 320 320 320 321 323 324 322 324 324 323 322 323 324 323 321 318 318 318 317 318 318 317 317 317 319 320 321 322 324 325 325 324 324 324 322 321 322 323 322 321 320 320 321 322 321 319 320 321 316 316
329 327 329 329 327 326 327 327 324 323 322 320 320 320 320 322 321 323 321 322 322 321 322 321 322 322 320 319 320 320 319 318 319 319 317 316 317 316 318 319 320 321 322 322 321 321 322 322 322 321 321 319 318 319 318 316 317 317 316 315 314 314
328 327 329 328 327 326 327 326 326 325 322 322 322 321 320 320 321 321 321 320 321 321 321 320 321 319 319 320 320 319 320 319 318 318 318 318 317 317 317 317 318 318 318 319 319 318 318 318 319 319 319 318 318 318 319 316 316 317 316 314 314 312
326 327 328 328 327 327 327 327 326 326 324 324 324 322 321 321 322 320 321 320 320 319 320 319 319 319 319 321 320 320 320 318 317 318 318 316 317 317 318 317 317 317 318 318 317 318 315 316 316 316 315 316 315 316 316 317 317 317 316 315 314 311
325 327 327 327 326 326 327 328 328 327 326 324 325 324 322 322 323 321 321 321 319 319 319 321 320 319 319 320 320 321 321 320 318 318 317 318 318 318 318 315 317 317 317 317 317 317 316 316 316 315 315 313 314 313 314 316 316 315 314 313 312 312
325 326 326 326 327 326 326 328 328 329 328 327 325 323 322 323 325 322 322 322 320 321 319 321 321 322 320 321 322 322 321 320 319 319 318 318 317 317 318 316 317 318 317 318 317 316 316 316 315 313 313 313 313 312 312 313 313 314 313 313 312 312
325 327 326 326 326 326 326 327 329 330 330 330 327 325 323 323 325 325 325 322 321 321 320 321 323 324 322 322 322 322 321 321 319 319 318 318 318 317 317 316 316 317 316 316 317 317 316 316 315 314 314 313 313 311 312 311 312 312 312 314 313 313
325 326 326 327 327 327 327 328 329 330 330 330 330 328 325 327 328 328 327 324 322 322 322 322 323 325 323 323 323 322 321 321 320 319 319 317 317 317 317 317 316 316 316 317 317 315 315 315 315 315 314 313 312 313 313 313 312 313 314 314 314 313

ECMWFFLT2_sfc_thetae_009.txt.gz
Theta_e
349 351 349 349 348 349 349 346 345 344 344 347 345 344 344 344 345 346 347 349 349 347 348 346 350 346 348 348 346 349 346 345 345 345 346 345 344 343 343 344 344 343 341 340 339 339 340 339 340 338 339 343 341 341 342 339 338 337 337 329 338 338
348 346 347 348 347 347 347 347 350 348 348 347 344 344 346 349 348 346 343 347 343 347 347 346 343 344 345 345 346 348 348 347 345 345 345 345 344 343 344 343 343 342 341 340 340 335 337 340 339 337 338 340 341 341 341 341 339 336 335 336 339 339
345 351 345 345 345 350 348 349 349 348 347 345 348 349 350 349 347 346 346 346 348 346 346 345 344 340 340 343 339 347 348 348 347 346 346 345 344 344 342 343 342 341 340 340 335 331 333 334 334 339 341 341 340 339 341 341 339 338 334 339 338 339
345 345 347 347 348 346 347 347 348 347 347 345 346 347 348 347 346 348 343 345 345 344 344 347 344 344 346 342 344 346 347 347 347 346 346 345 345 343 343 342 341 341 340 335 332 330 331 334 335 334 335 338 338 340 341 341 338 338 338 336 335 340
344 346 346 347 345 345 347 347 347 346 345 345 344 346 347 346 346 346 344 345 342 342 344 344 344 341 338 339 345 345 345 341 342 341 346 337 341 343 343 342 340 338 335 334 333 335 333 332 336 335 337 338 338 340 341 341 339 336 338 338 338 339
344 344 344 344 343 345 344 342 342 346 344 344 344 346 346 346 344 344 345 343 346 339 339 342 344 343 339 348 342 340 343 344 339 339 340 336 340 337 337 339 339 337 336 337 337 337 334 334 333 333 334 338 339 339 340 339 339 339 339 340 338 340
342 344 343 340 343 342 344 340 343 343 344 344 342 344 345 346 346 345 345 344 344 342 337 340 343 341 343 342 343 344 342 342 344 338 338 339 337 337 336 338 341 339 338 337 336 336 334 333 334 331 332 333 335 337 339 339 339 338 340 340 339 341
340 341 343 341 342 340 341 339 340 341 344 345 341 342 341 341 343 341 342 338 344 343 341 336 341 343 341 341 341 343 344 345 346 340 339 338 336 335 335 335 337 335 336 335 338 335 335 332 333 334 332 333 334 336 338 338 341 341 340 339 338 341
338 338 341 340 340 342 342 342 339 339 343 343 343 342 343 344 341 343 341 342 344 343 340 339 337 339 340 341 342 342 342 343 343 341 340 339 337 336 335 336 336 336 337 336 334 335 334 333 335 335 332 331 333 333 335 338 340 338 339 338 341 339
333 334 337 337 338 339 341 342 343 341 342 340 344 344 344 342 343 345 345 345 345 344 343 338 340 340 340 342 340 342 344 342 342 340 338 340 336 336 335 335 334 334 332 333 333 334 335 334 334 335 331 331 331 332 336 335 336 337 338 338 340 340
332 336 332 330 336 338 339 338 339 342 346 345 346 344 346 343 344 343 342 346 344 344 344 341 341 341 342 338 339 345 343 346 345 342 343 339 338 338 336 337 334 332 332 331 331 331 330 333 334 333 332 330 330 332 332 336 335 336 336 337 338 341
332 337 337 331 332 335 334 334 337 338 345 344 345 344 343 343 346 341 344 344 345 342 343 341 344 342 341 340 337 339 344 344 344 343 343 339 337 337 336 333 332 332 333 331 333 333 334 332 333 331 331 330 330 331 331 333 333 334 335 338 336 340
333 335 334 334 334 335 337 335 334 336 342 345 345 345 342 342 344 344 344 345 345 345 343 343 342 341 341 337 340 341 341 343 344 344 343 341 339 337 336 334 332 333 333 334 334 333 331 333 333 332 332 330 331 329 330 330 333 334 334 334 335 335
335 332 336 334 333 333 335 336 335 335 341 346 344 342 342 345 344 343 345 346 346 345 343 342 339 339 341 341 339 342 342 343 344 344 343 340 338 337 335 335 333 331 331 332 332 334 331 331 329 331 333 333 334 333 332 329 331 332 334 335 335 336
339 337 334 334 332 334 336 334 334 335 337 340 344 342 341 342 342 344 343 342 344 343 343 341 341 342 339 338 338 342 343 343 344 344 342 339 338 336 335 334 333 332 332 332 333 332 332 336 337 335 335 337 335 333 334 332 332 331 332 335 336 335
340 339 339 336 339 338 335 336 335 334 336 338 337 340 340 342 341 341 341 338 341 342 342 341 341 341 343 339 337 340 342 344 344 342 339 340 338 337 336 336 335 333 334 330 331 331 335 335 337 336 338 337 337 335 334 333 332 331 332 334 333 335
341 339 337 336 336 337 335 335 335 335 334 335 334 334 337 339 340 337 336 339 341 341 341 341 341 341 342 342 341 341 342 343 344 342 342 341 338 337 337 334 337 336 335 337 333 334 335 333 336 336 336 336 337 337 335 334 332 333 330 331 332 332
341 339 336 335 335 334 335 331 330 332 335 332 332 332 332 333 336 337 337 335 338 339 340 340 342 342 342 342 342 341 340 342 342 342 342 342 339 339 338 336 335 337 337 334 333 332 332 335 336 335 336 336 337 338 337 336 336 333 331 330 331 331
340 337 335 336 336 336 334 335 330 330 328 328 332 331 331 331 332 334 336 337 338 338 338 338 337 339 341 340 340 340 339 340 341 339 340 340 340 339 338 339 338 338 335 336 335 333 331 334 334 333 332 335 338 336 338 339 337 335 334 331 329 330
339 335 335 335 332 329 329 328 327 329 328 330 330 329 332 330 332 329 333 333 334 334 334 336 338 337 340 338 338 338 339 340 340 338 338 332 336 336 337 338 338 335 333 334 334 337 336 335 335 334 334 334 335 337 336 338 337 334 333 334 332 332
338 335 332 330 328 327 326 326 326 327 326 327 327 327 328 330 330 330 330 328 329 331 332 332 332 331 332 333 335 337 339 339 338 333 332 334 334 335 337 339 340 337 335 331 329 335 337 337 334 330 332 332 332 335 336 334 334 336 335 333 333 333
335 333 331 330 328 327 328 326 324 326 325 323 321 323 323 326 327 327 327 326 327 327 329 330 330 332 332 330 330 331 338 337 337 335 332 333 332 334 335 337 334 333 331 329 327 330 335 334 329 325 323 324 328 334 335 336 335 333 336 335 334 335
335 330 329 331 327 327 328 328 328 324 324 324 328 327 324 324 325 323 327 327 328 329 328 328 329 330 329 330 330 329 331 333 337 337 335 334 335 331 330 330 330 329 329 329 330 333 332 334 329 327 326 322 323 322 327 330 331 330 333 335 334 333
334 331 330 330 327 330 331 330 329 327 327 326 324 326 326 326 325 325 326 329 330 331 330 329 328 327 328 329 330 329 330 331 333 332 334 334 334 333 332 330 332 333 333 324 327 328 332 333 332 327 319 321 322 322 318 322 327 332 334 331 330 331
333 331 329 329 329 331 331 330 329 329 327 323 322 321 322 322 324 324 326 328 328 329 327 326 327 327 325 326 327 328 329 331 330 331 331 329 328 328 331 334 334 333 332 330 328 328 329 332 332 332 327 323 320 319 320 323 323 328 332 328 331 328
333 331 329 329 331 330 327 326 323 320 316 317 317 319 320 319 321 322 321 327 327 327 328 328 327 326 325 325 326 327 328 328 329 329 328 329 327 326 326 327 330 330 330 333 332 327 325 328 329 330 330 330 328 322 320 323 321 317 332 333 330 329
332 331 330 329 332 326 324 323 322 319 318 318 318 321 324 325 323 322 326 326 326 329 328 327 327 326 326 325 326 326 327 327 326 327 327 327 325 326 325 325 328 328 328 329 330 327 323 323 329 328 328 329 329 327 325 321 318 321 317 326 332 330
332 329 330 330 330 326 325 323 322 321 320 319 321 322 323 324 325 325 324 326 327 327 328 327 327 325 326 326 326 326 326 326 324 324 324 324 325 325 326 326 327 328 327 328 328 326 325 326 324 325 329 328 327 326 327 327 325 319 318 314 322 330
332 330 329 330 328 326 326 324 322 322 319 322 323 322 323 322 322 324 324 325 325 325 326 327 327 325 324 322 322 322 322 320 320 320 319 320 322 323 325 326 326 326 326 326 327 327 324 323 323 323 325 326 326 326 326 326 325 324 317 315 316 321
332 330 329 329 328 326 327 325 323 322 321 321 321 320 321 321 322 323 324 324 324 323 322 324 324 321 320 319 319 319 318 318 319 317 316 317 318 321 322 323 325 326 326 324 324 324 323 323 323 323 322 321 320 320 322 322 321 320 320 322 317 317
331 330 329 329 328 327 327 326 323 322 322 323 322 321 321 321 321 323 321 322 322 321 323 322 321 321 321 320 321 320 320 319 320 320 318 318 319 318 320 320 321 322 322 321 321 322 322 322 321 320 319 318 317 318 316 315 316 317 316 314 313 314
331 329 330 329 328 327 326 326 325 325 322 323 323 321 322 321 321 321 321 321 321 321 321 321 321 320 322 321 321 319 320 320 319 320 319 319 319 318 319 320 320 320 320 321 321 319 319 318 319 318 318 316 317 317 318 316 316 315 315 314 313 310
329 329 330 329 327 328 327 326 325 324 324 324 323 322 323 322 322 321 321 321 321 320 319 319 319 319 320 322 321 321 320 319 319 320 320 317 318 319 319 319 319 319 320 319 318 318 316 317 316 314 314 316 315 316 316 316 316 315 314 315 313 309
329 330 331 329 326 326 327 327 327 325 324 323 323 323 323 323 323 322 321 321 320 321 319 321 320 320 320 321 321 322 321 320 320 320 320 321 321 320 320 317 319 320 319 320 320 319 318 318 317 317 315 314 312 313 314 316 315 315 315 313 311 311
329 329 330 328 325 326 326 328 326 326 324 325 322 322 322 323 323 323 322 322 321 321 320 322 320 321 320 322 322 322 321 320 319 320 319 320 320 320 320 318 319 320 320 320 319 317 316 317 316 315 316 313 314 314 312 313 313 314 313 313 312 312
330 329 330 328 325 326 326 328 327 327 326 325 324 324 322 323 323 324 324 322 321 322 322 322 323 322 321 323 322 321 321 320 320 319 320 319 319 318 319 318 318 319 318 318 320 319 318 318 317 317 315 315 314 313 314 312 313 313 312 314 313 312
329 330 329 329 327 326 326 327 328 327 327 326 325 325 322 324 326 325 326 324 321 322 324 324 323 323 321 323 323 322 321 320 320 320 319 319 319 319 319 319 319 319 319 319 318 316 317 317 317 316 315 315 313 314 313 313 315 315 314 314 314 313

ECMWFFLT2_sfc_thetae_012.txt.gz
Theta_e
346 347 348 348 348 348 348 349 349 349 349 349 348 348 347 348 349 349 350 349 349 347 346 346 348 343 346 347 347 347 346 346 346 345 345 345 344 344 344 343 343 344 342 341 340 340 340 339 340 340 342 343 342 339 338 339 338 337 337 337 336 336
346 346 347 349 348 348 347 348 347 348 348 347 347 348 346 347 348 347 348 348 347 347 347 345 345 345 345 344 346 347 346 346 346 345 345 345 345 344 343 343 343 344 342 341 341 336 337 339 340 337 340 341 340 337 338 340 339 337 336 335 337 339
347 347 347 346 347 347 346 347 346 347 346 347 349 349 347 345 345 345 346 344 347 347 343 343 347 343 344 344 345 347 346 346 345 346 345 345 345 343 344 343 343 343 342 341 338 333 333 333 335 339 340 338 336 337 339 341 339 339 335 335 335 341
344 346 345 345 347 347 347 346 345 346 345 346 346 346 345 344 345 345 344 345 346 346 343 343 344 342 341 343 345 347 347 347 345 346 345 344 344 343 343 343 343 343 341 339 333 331 330 332 329 333 335 335 336 338 341 339 339 337 335 337 336 341
345 345 345 345 346 346 347 346 346 345 344 345 344 345 345 341 341 343 344 345 342 344 342 342 343 343 342 342 340 343 346 343 342 341 345 340 341 341 341 340 340 340 336 332 330 329 329 331 331 332 331 333 335 340 338 340 338 335 333 335 338 341
344 343 345 344 345 346 346 345 345 345 345 345 344 344 344 343 343 342 343 343 344 345 344 343 343 342 341 345 341 339 340 341 340 338 343 337 336 334 338 337 336 335 331 331 331 331 332 336 332 333 332 333 337 336 337 336 339 336 335 335 338 341
341 341 343 346 345 345 345 346 346 345 343 343 344 344 342 343 343 344 343 343 342 343 341 342 342 341 342 342 338 340 345 344 342 342 340 336 336 336 338 336 338 335 333 333 332 332 336 333 333 331 333 334 335 335 336 337 337 335 334 335 340 341
342 341 340 341 344 343 344 344 345 345 346 347 344 343 343 343 341 341 343 344 345 343 339 339 338 342 340 340 339 340 343 344 342 342 340 339 336 336 337 336 338 337 336 335 333 337 334 332 333 333 333 332 334 340 338 341 340 337 335 334 338 341
341 342 342 342 341 341 342 342 342 342 343 343 341 342 343 343 343 342 342 342 340 339 337 338 339 338 340 338 337 339 340 340 339 338 336 338 337 335 335 335 336 335 334 333 334 335 334 332 336 334 331 330 334 332 335 336 340 337 336 334 334 340
341 340 340 339 340 341 341 342 341 341 346 343 343 343 341 340 341 341 343 341 340 338 338 340 341 339 336 338 339 340 340 339 338 339 337 337 338 338 339 337 335 333 331 332 331 333 334 332 331 333 331 328 331 332 336 334 335 336 336 335 334 338
331 342 337 334 337 338 340 341 341 343 342 341 342 344 343 341 342 341 342 342 338 338 336 340 337 338 340 338 337 337 339 340 341 342 346 343 341 343 341 339 335 334 332 331 329 332 332 331 331 329 329 327 328 330 331 335 332 334 334 336 335 336
333 338 348 334 337 335 336 337 339 338 340 339 340 343 340 340 343 341 340 339 339 338 337 339 339 338 336 334 335 335 341 341 341 344 345 343 339 338 339 335 337 335 338 332 334 330 332 333 329 329 330 328 327 329 328 331 332 333 333 335 335 334
331 342 336 335 333 335 336 337 336 337 336 338 339 338 337 337 338 338 337 340 340 339 336 337 337 339 338 336 337 337 338 340 342 342 344 342 338 341 338 340 333 335 336 335 334 338 333 335 333 331 331 328 331 327 326 327 331 333 333 334 337 336
334 332 336 332 342 334 339 334 342 336 337 336 339 337 338 338 339 337 336 337 338 337 339 335 335 336 336 338 340 339 335 338 340 342 343 345 342 340 338 337 336 334 335 333 332 334 332 331 332 333 334 333 333 333 331 327 329 332 334 336 334 337
338 335 333 334 334 335 338 335 333 335 339 337 334 334 334 336 335 335 335 337 337 338 338 339 341 341 341 339 339 339 340 338 340 341 341 342 341 340 339 336 338 332 335 334 333 334 332 333 335 334 335 335 334 333 333 332 331 329 330 331 335 333
339 339 338 338 338 339 339 339 337 336 338 343 337 334 334 334 335 336 335 334 334 336 339 339 344 342 343 342 339 339 341 343 340 340 341 340 337 338 337 340 336 336 336 329 330 332 335 335 333 333 335 335 334 334 333 331 331 330 329 334 331 334
338 338 338 338 337 339 339 337 336 336 334 337 337 337 338 337 336 339 336 335 336 337 337 338 339 342 345 342 341 342 343 341 343 340 340 342 339 341 339 335 334 336 337 333 333 332 333 333 334 333 334 334 335 335 334 333 333 333 333 330 335 332
338 337 338 338 337 340 332 335 336 334 338 335 337 337 333 333 336 337 337 339 339 340 340 338 337 339 341 339 337 338 338 338 340 338 338 340 340 339 337 333 333 336 336 333 334 331 331 331 330 332 332 334 335 335 335 336 335 335 332 331 330 330
337 336 336 338 339 335 336 328 331 331 332 333 331 333 336 331 333 335 338 338 337 338 340 338 339 340 341 341 337 338 338 338 340 338 337 336 336 333 331 331 330 332 336 335 333 333 332 332 331 331 331 334 334 335 335 337 336 334 333 333 333 333
336 336 337 337 334 331 334 332 330 331 328 328 328 330 334 332 333 332 335 335 334 338 336 338 338 341 340 342 340 339 341 340 338 337 336 333 332 332 330 329 329 329 332 333 333 331 332 330 331 331 330 331 334 333 334 335 334 334 334 333 332 331
334 335 333 331 331 330 330 331 335 328 327 332 325 328 328 329 327 327 326 325 329 333 334 334 338 337 335 336 338 339 342 339 337 334 332 333 335 334 331 330 328 329 329 329 328 331 329 329 326 325 327 328 329 333 333 332 332 334 334 334 332 331
334 334 334 335 338 335 334 327 333 327 327 325 321 323 323 325 325 327 328 330 333 334 335 336 337 336 337 339 335 336 337 337 335 334 333 335 333 333 331 329 329 329 329 328 326 328 327 328 322 322 321 323 326 330 332 332 332 334 335 336 334 334
333 332 334 335 332 333 333 336 335 333 327 322 323 325 322 324 326 325 334 332 335 335 334 330 333 333 335 334 332 334 335 334 332 334 333 333 333 331 330 329 328 328 328 329 328 331 329 328 322 325 325 321 319 319 324 327 331 332 334 336 335 333
332 332 333 332 332 333 333 332 331 327 328 326 322 325 327 329 328 328 326 329 330 332 329 328 327 333 328 329 332 336 331 331 335 335 333 331 332 330 330 329 328 328 327 323 325 325 329 326 327 324 316 318 318 318 315 318 322 329 334 335 333 331
331 331 331 331 332 331 330 329 327 325 323 323 325 325 326 325 326 327 327 329 331 332 329 329 332 326 325 328 328 330 330 331 333 333 333 330 330 329 331 330 329 327 327 325 322 325 327 330 329 329 323 318 316 315 316 319 321 322 330 330 333 334
331 330 329 332 332 330 330 327 325 321 320 321 321 324 321 321 326 325 323 330 326 327 327 329 326 326 327 328 331 329 330 330 330 332 334 329 326 327 329 329 327 324 325 326 324 323 325 326 327 327 328 327 324 318 318 320 319 314 326 329 330 332
330 329 330 331 331 330 328 326 325 322 322 321 321 325 327 327 324 325 327 327 329 331 327 328 328 327 325 325 326 327 327 326 328 328 329 327 325 324 322 323 326 326 326 326 326 322 322 322 326 325 326 327 327 325 325 321 315 318 316 323 329 329
330 329 329 331 329 328 326 325 324 323 323 324 324 322 326 326 329 327 328 327 327 331 327 330 330 326 326 325 325 325 324 322 324 322 322 321 322 323 324 325 326 326 326 327 326 324 322 323 322 321 327 324 324 325 326 325 324 319 316 313 318 328
330 329 330 330 327 327 326 324 325 323 324 325 323 324 323 323 325 327 327 329 329 325 327 327 323 322 322 321 322 322 321 320 317 317 318 318 320 321 323 324 325 324 323 323 323 325 325 323 323 323 323 324 325 324 325 325 324 323 317 313 314 316
329 328 330 329 326 327 326 324 325 324 325 322 322 322 321 323 324 327 326 326 325 325 325 326 323 322 321 319 322 321 320 321 321 319 318 317 319 320 321 321 322 322 323 321 322 321 319 320 319 318 320 324 322 323 322 321 321 321 320 319 313 314
329 328 330 327 326 326 326 323 324 325 325 322 322 322 321 322 323 325 323 324 325 325 325 322 324 324 323 322 322 322 321 320 320 321 319 318 319 318 322 322 321 320 320 320 319 318 318 318 319 316 315 316 313 315 314 313 312 313 312 312 311 310
328 328 329 327 326 326 325 324 326 325 325 322 322 322 321 320 321 321 322 323 324 323 322 323 324 324 324 323 323 323 323 322 323 323 322 322 321 319 319 320 321 320 319 319 319 317 316 314 315 315 315 315 316 316 313 311 313 314 312 312 311 307
328 328 328 327 325 326 326 323 325 324 326 324 323 323 321 322 322 322 321 322 320 320 320 320 322 322 323 324 324 323 322 321 320 321 320 317 318 319 319 318 318 318 318 317 317 317 315 314 314 313 314 314 313 314 313 316 315 314 316 316 314 309
328 328 327 326 326 326 326 324 327 324 327 324 323 324 322 322 323 323 324 323 321 320 319 320 320 321 323 324 325 325 324 322 321 321 323 322 322 322 321 317 319 318 318 318 318 317 316 316 315 314 314 313 314 312 313 315 313 315 313 311 310 309
328 327 327 326 326 326 326 325 327 325 326 325 324 325 324 324 324 324 324 324 324 322 321 320 320 321 322 324 324 323 322 322 322 321 320 321 323 321 320 317 318 320 319 318 316 316 316 316 316 314 314 315 318 312 313 311 313 313 311 312 310 310
326 328 327 326 326 326 326 326 327 325 326 326 324 325 325 325 325 328 325 324 326 324 324 324 322 321 322 323 322 322 321 322 321 321 322 321 320 319 320 318 317 318 317 320 320 318 317 316 316 315 314 316 314 312 312 312 315 313 313 314 313 312
325 329 327 325 326 326 327 327 327 327 325 326 324 324 324 325 325 329 328 324 327 326 326 324 323 322 322 324 323 321 320 320 321 321 321 322 320 320 320 319 318 318 318 319 317 315 316 316 316 316 315 314 315 314 311 316 314 314 314 315 314 313

ECMWFFLT2_sfc_thetae_015.txt.gz
Theta_e
346 347 347 347 347 348 350 351 350 351 351 351 351 350 350 351 350 350 349 349 348 345 344 345 345 345 348 345 346 348 347 346 346 346 346 345 344 344 343 343 343 343 343 340 340 340 340 340 341 340 342 342 343 339 336 336 334 335 334 336 336 335
345 346 346 346 347 347 348 348 346 347 348 348 350 350 348 347 351 346 348 346 344 345 342 343 342 348 344 346 346 348 347 346 346 346 346 345 344 345 343 344 344 344 343 341 341 334 335 340 341 342 341 342 335 334 334 335 334 334 334 334 335 338
344 345 345 346 346 346 345 345 345 345 346 349 349 348 345 347 344 344 345 344 343 340 341 341 341 345 344 347 346 347 347 346 346 345 346 345 345 344 344 343 344 344 343 343 336 331 329 328 330 340 342 337 331 332 333 334 333 333 334 335 335 341
344 344 344 344 344 344 343 344 344 344 344 344 344 345 343 343 343 343 343 341 341 342 339 336 344 344 345 343 345 346 346 347 346 345 345 345 345 344 344 343 343 344 343 340 332 329 329 328 329 328 330 330 330 330 332 332 332 332 334 338 337 342
345 344 343 343 343 342 342 342 342 342 342 342 342 341 340 340 341 341 340 341 342 340 338 338 337 339 337 339 340 340 343 340 339 339 345 336 337 341 341 337 338 339 333 332 331 329 327 326 330 329 329 329 330 332 332 333 332 333 334 335 337 341
344 343 343 343 342 343 344 340 340 341 341 341 341 340 339 338 339 340 340 342 341 338 338 337 334 334 337 336 335 338 339 337 337 338 342 336 335 336 336 337 336 336 334 330 329 328 326 327 326 327 326 327 327 330 332 332 332 333 334 335 338 342
342 342 342 344 343 344 341 341 341 340 339 340 339 339 339 339 338 338 337 339 336 336 336 336 336 335 336 336 335 335 336 335 335 335 340 334 333 333 335 335 334 334 333 330 328 328 327 328 328 327 327 326 328 330 331 332 332 333 334 336 340 342
341 341 340 343 343 342 341 341 342 345 341 344 340 338 338 338 337 336 336 335 340 337 336 334 333 335 335 335 334 334 336 338 337 337 337 335 333 332 334 334 333 333 332 330 329 329 329 328 327 327 327 326 329 331 334 332 331 332 334 335 337 341
340 340 339 342 341 341 341 340 341 340 340 346 339 338 338 337 337 338 339 337 339 334 334 335 334 335 333 335 333 334 336 336 336 337 334 333 334 332 333 333 332 333 333 332 330 330 329 330 329 326 327 327 328 329 332 332 332 333 334 335 336 339
340 339 339 339 339 339 339 338 338 339 340 342 337 338 338 335 335 337 336 337 338 334 333 334 335 333 331 332 335 335 336 335 335 334 334 333 334 333 332 332 333 333 333 331 330 330 330 329 328 327 327 326 325 327 330 332 332 332 333 334 335 338
340 342 339 338 337 338 339 337 337 339 340 338 339 338 337 335 334 335 338 337 336 335 333 334 333 332 333 334 334 334 334 336 334 335 334 333 334 334 333 331 333 331 330 329 328 328 330 329 329 327 328 325 324 326 328 331 332 332 332 332 334 337
339 339 337 336 338 337 337 337 339 338 337 338 340 337 337 337 338 336 338 335 334 334 333 334 331 332 333 332 332 333 334 335 336 336 338 336 334 335 332 333 333 332 330 328 327 328 329 328 327 326 327 326 325 325 325 329 330 332 332 332 333 336
336 336 332 333 333 334 335 337 336 335 336 337 335 335 334 334 333 334 335 336 335 334 332 331 333 332 333 330 332 333 330 333 336 337 337 338 338 334 333 334 329 330 329 327 329 329 329 327 326 329 331 331 331 331 330 327 327 330 332 332 332 334
330 330 330 331 331 330 333 333 334 334 337 333 333 334 335 333 334 332 333 334 335 335 335 334 332 332 331 331 332 331 330 331 334 337 337 337 335 334 333 332 331 328 334 325 326 328 330 330 330 331 331 332 331 330 330 329 328 328 331 332 331 332
327 327 329 328 328 329 330 332 333 332 331 331 332 331 332 332 332 332 333 333 334 336 335 333 332 331 331 333 333 331 331 333 333 333 336 333 331 330 330 332 331 326 327 327 328 331 331 329 330 331 329 331 331 332 330 329 329 330 328 330 332 331
330 328 328 330 329 329 330 331 333 335 329 330 331 331 332 332 332 331 332 331 330 332 335 334 332 332 331 333 333 331 331 333 333 333 331 329 328 329 331 330 332 331 327 327 327 327 330 329 330 329 329 330 331 332 330 331 331 331 331 328 330 333
329 329 329 327 326 326 327 331 332 331 330 328 328 329 330 331 331 330 331 331 332 332 334 335 333 332 331 330 333 332 332 331 331 333 331 330 329 329 331 331 331 332 329 326 328 328 326 326 326 328 329 330 332 332 331 332 330 331 332 329 328 328
329 329 327 326 327 323 325 325 328 330 332 328 328 329 329 330 329 330 331 330 331 332 331 334 334 334 332 334 331 332 332 331 332 330 330 331 330 330 329 329 329 331 331 328 326 327 325 324 327 327 326 330 331 331 330 331 331 332 330 330 329 328
329 327 326 328 325 321 320 320 321 324 326 328 329 328 329 329 329 329 329 330 331 332 332 333 334 332 331 332 331 329 330 329 332 330 326 329 329 329 327 328 326 329 330 330 328 327 325 324 326 327 330 329 330 330 330 331 330 331 330 330 330 331
326 326 325 322 321 317 317 318 318 319 321 324 325 326 325 326 328 328 330 329 329 328 332 334 334 333 333 334 332 330 329 329 329 329 325 324 325 328 326 324 325 326 326 327 326 328 326 326 326 325 324 327 329 329 330 329 329 330 331 332 329 329
326 326 323 321 320 319 318 319 317 317 318 319 321 321 321 320 319 320 323 327 330 329 331 330 332 332 331 337 331 329 330 330 329 329 326 326 327 328 327 326 324 323 324 321 322 324 323 324 321 319 322 323 323 328 331 330 327 328 330 330 329 329
325 325 324 322 321 321 320 319 316 316 315 319 317 315 314 317 319 321 321 321 322 323 324 325 326 327 328 329 331 330 330 330 330 329 330 330 328 328 327 324 324 322 323 322 321 323 324 321 318 316 316 317 319 323 329 328 328 329 329 330 328 328
325 324 324 325 323 321 320 322 320 316 317 316 317 317 317 318 321 320 321 324 325 323 322 320 322 324 325 325 328 329 328 326 329 329 328 328 327 325 324 324 324 322 321 322 321 324 323 321 317 319 319 315 314 313 318 321 325 327 328 331 328 328
325 325 324 323 323 321 321 321 320 318 318 317 316 320 320 320 320 320 320 321 321 320 320 319 321 322 322 322 325 326 326 326 328 329 328 328 325 325 325 325 324 323 322 319 318 320 324 321 321 317 312 312 313 311 308 313 317 322 329 330 326 327
325 324 322 325 322 320 319 317 318 318 318 317 317 316 316 316 318 321 321 321 321 321 321 320 320 320 321 320 322 323 323 323 325 327 327 327 326 325 324 322 323 323 321 319 318 320 325 327 325 325 318 314 309 308 310 314 315 316 324 325 329 330
324 323 324 322 321 318 316 314 313 312 311 312 313 312 312 314 315 316 317 319 320 320 321 320 319 320 322 322 320 319 321 321 319 320 321 324 327 326 324 324 322 322 321 320 319 318 321 324 324 322 323 322 318 313 313 316 312 310 318 325 326 327
324 322 324 322 322 320 315 313 312 312 312 313 312 312 314 317 318 318 320 319 319 319 320 318 319 319 318 319 316 315 314 318 320 320 322 320 319 319 321 324 324 321 321 322 321 318 318 318 321 321 322 321 323 322 321 315 310 312 310 314 319 323
324 323 324 323 322 320 316 314 313 313 314 315 315 314 315 317 318 319 318 318 319 319 318 316 316 315 316 316 315 313 313 314 317 318 320 319 319 320 321 322 321 321 322 321 320 319 318 319 317 316 319 318 320 320 320 321 320 314 311 309 311 318
324 322 323 323 322 320 318 314 313 314 316 317 316 316 318 319 319 319 317 318 316 316 316 314 314 313 313 314 317 314 313 311 312 314 318 317 317 318 317 317 317 317 316 316 318 318 318 316 317 317 318 317 319 319 321 320 321 318 311 307 309 311
323 323 323 322 321 319 317 316 313 315 316 316 316 315 316 317 317 318 317 316 316 314 313 312 313 313 314 315 314 313 312 313 313 315 315 314 314 314 314 314 315 315 315 313 313 314 315 314 312 314 316 319 316 317 316 315 316 316 316 313 308 310
323 323 323 321 319 318 316 316 315 317 316 314 314 314 315 315 316 315 314 314 314 313 312 313 313 314 313 313 314 316 313 313 315 317 315 313 313 314 314 314 315 314 313 312 311 310 310 311 311 310 310 310 310 310 309 308 307 310 308 305 304 305
323 323 322 320 318 317 316 316 316 317 315 315 314 315 314 314 315 314 314 314 314 312 312 314 313 312 312 313 314 314 315 314 314 312 313 314 314 314 315 314 313 312 312 311 311 311 308 308 308 308 308 309 309 309 309 308 309 309 308 307 306 304
323 323 323 319 318 317 315 316 318 317 315 316 315 315 314 315 315 314 315 314 312 311 312 312 312 311 311 312 314 312 312 311 311 313 312 313 313 314 313 313 313 311 311 310 309 309 307 307 307 307 307 308 307 309 309 308 309 308 308 309 308 302
322 323 322 319 319 317 315 316 318 317 316 317 315 315 315 315 315 315 315 314 313 312 311 311 312 311 313 314 315 315 314 312 313 313 314 313 313 313 314 313 312 312 311 310 310 309 308 308 307 307 308 306 306 307 306 308 308 308 307 306 305 303
321 322 322 319 319 317 316 316 319 318 316 317 316 315 315 316 315 315 315 314 314 313 313 313 312 313 314 314 313 313 312 312 312 311 312 313 315 313 313 314 314 312 311 310 310 311 308 308 309 307 307 307 307 305 305 307 307 308 308 307 307 306
321 321 321 319 319 318 316 317 320 318 316 318 318 316 316 317 316 316 316 316 314 314 314 314 314 314 314 314 313 312 313 312 312 312 312 311 312 312 311 311 311 310 310 315 311 310 309 308 307 307 306 306 307 305 306 309 309 308 307 309 308 307
319 320 321 320 319 320 319 318 319 318 317 318 318 316 316 316 316 316 317 316 315 315 315 315 315 314 315 314 313 312 312 311 311 312 311 312 312 312 311 312 311 310 310 311 311 310 309 308 308 307 307 306 307 305 306 308 307 309 309 308 309 307

ECMWFFLT2_sfc_thetae_018.txt.gz
Theta_e
346 346 346 346 347 347 350 351 350 351 351 351 350 350 349 350 350 349 348 349 347 343 343 344 345 343 347 345 346 346 345 345 345 345 345 344 344 344 344 344 343 342 342 340 339 340 340 340 341 341 342 343 341 332 332 332 332 333 333 335 336 333
345 345 345 346 347 347 348 349 345 347 347 348 350 350 348 346 350 345 348 345 341 344 341 340 341 348 343 345 345 346 346 345 345 345 344 344 344 344 343 343 343 343 342 340 340 328 331 337 338 338 339 341 332 329 330 332 331 332 334 333 334 336
344 344 344 344 345 346 344 344 344 344 346 349 349 348 343 347 343 343 341 341 341 341 340 340 340 345 345 347 345 346 346 346 345 345 344 344 344 344 344 343 344 343 342 342 332 326 325 324 325 336 336 329 328 328 330 332 331 332 332 333 332 340
344 344 343 343 344 343 343 343 343 343 343 343 343 343 342 342 342 342 340 338 337 339 338 337 349 348 346 344 344 346 346 345 345 345 345 344 344 343 343 343 343 344 343 338 329 326 327 325 325 324 325 325 326 328 329 331 331 331 332 337 334 341
344 343 343 343 343 341 342 342 341 342 342 341 340 339 340 340 341 340 338 338 338 336 335 333 334 335 337 339 337 338 340 338 337 336 344 334 337 340 339 334 335 337 330 330 329 326 326 327 327 327 326 326 326 328 329 331 331 331 333 335 336 342
343 343 342 342 341 343 343 340 339 340 340 340 339 337 338 338 338 338 337 339 338 335 334 333 332 333 336 336 337 336 337 336 335 335 338 334 333 334 332 333 332 332 329 329 329 328 325 327 325 324 325 325 324 326 329 329 331 332 333 334 337 342
342 342 342 343 342 344 340 340 339 339 339 338 338 337 336 336 337 336 336 338 335 333 333 332 331 332 333 334 335 335 335 335 335 335 336 333 332 333 334 333 332 333 332 330 330 328 326 325 324 324 325 325 325 326 329 329 330 332 332 334 339 342
342 341 341 343 342 341 339 339 340 344 341 342 339 336 336 336 336 334 335 336 338 333 332 331 332 332 332 332 332 332 333 333 333 333 337 333 332 330 332 332 331 331 332 331 330 328 326 326 325 324 325 325 325 326 329 330 330 332 332 334 336 341
341 341 341 342 341 341 340 340 341 340 338 345 337 336 336 335 334 334 333 335 337 332 331 332 332 332 331 331 332 332 332 332 333 333 334 331 332 330 331 331 331 331 330 330 328 327 327 327 326 324 324 325 325 328 329 329 330 332 333 334 335 339
341 341 341 342 340 339 339 339 339 338 338 342 336 336 335 333 333 334 333 334 336 332 332 331 331 332 331 329 330 331 332 331 332 331 331 331 331 330 330 330 331 331 331 330 330 329 329 327 326 323 324 325 324 329 328 328 330 331 333 333 334 336
341 343 341 340 339 339 339 338 338 338 340 337 337 337 334 333 333 333 334 334 334 333 332 332 331 330 329 330 329 330 330 331 331 330 330 331 331 332 331 331 331 331 330 330 330 329 329 327 325 325 325 324 322 325 328 328 329 331 332 333 333 334
340 341 339 339 341 338 338 338 339 338 336 336 337 335 333 332 338 334 335 334 333 332 332 330 331 329 329 329 329 329 330 330 330 331 331 330 330 332 332 332 332 332 331 330 329 328 327 326 325 324 325 326 325 324 325 327 328 330 331 332 333 334
339 340 337 338 339 338 337 339 337 336 336 338 336 335 333 332 333 333 334 333 332 331 330 331 329 330 332 328 328 328 328 329 331 332 332 332 332 330 330 330 330 331 330 328 326 325 329 325 326 327 328 329 328 328 326 326 328 329 329 331 332 334
338 338 336 336 335 336 336 336 335 334 337 334 333 333 334 332 333 332 333 332 332 331 330 330 331 330 329 327 327 328 328 328 330 330 330 329 329 328 328 330 329 326 330 325 324 324 326 328 327 327 328 329 328 327 327 327 326 328 329 329 330 331
337 335 336 332 333 333 333 335 334 333 332 332 332 332 331 331 331 331 332 332 333 333 333 331 330 329 328 328 328 326 327 329 331 330 329 328 329 328 328 329 329 325 325 327 327 327 327 327 328 328 327 328 329 329 329 328 328 327 329 328 328 330
332 329 329 329 329 332 333 332 332 334 329 330 330 329 329 329 330 329 330 329 330 334 330 330 329 329 327 328 329 328 329 330 330 329 327 326 327 327 328 328 331 327 326 325 328 326 327 327 327 327 326 328 328 329 329 327 328 329 327 329 328 329
327 326 326 327 327 330 330 330 330 330 328 328 327 327 327 327 327 327 328 327 328 331 330 330 329 329 327 327 329 329 329 329 330 328 327 325 324 326 327 329 329 329 325 325 325 325 324 324 326 326 326 326 328 329 330 330 329 329 329 326 326 329
326 326 325 326 328 329 329 330 328 327 330 327 326 325 326 327 326 327 328 327 328 330 330 330 329 329 326 329 330 330 328 327 329 327 327 326 325 325 326 328 327 328 327 325 323 324 322 322 323 324 325 326 327 327 328 329 329 331 329 328 327 325
324 324 324 325 326 327 328 326 326 326 325 324 325 324 325 325 326 326 326 326 328 329 329 330 330 330 328 330 327 327 327 328 328 325 324 325 325 325 324 325 326 326 328 327 325 323 323 322 325 326 326 326 326 326 327 327 329 329 329 328 330 329
323 324 322 321 321 320 321 322 322 322 324 323 323 325 322 324 324 324 326 327 328 328 329 329 328 327 326 328 326 326 326 327 327 325 322 323 322 324 323 325 325 325 324 325 326 326 325 325 323 322 323 323 323 326 328 327 327 328 328 329 328 327
323 321 319 317 316 317 317 317 318 321 320 318 319 318 318 318 321 323 326 326 327 326 327 329 331 328 327 332 325 324 325 326 327 326 323 322 324 325 323 323 323 324 323 320 323 324 323 321 320 317 316 318 321 326 330 327 324 325 327 328 328 327
322 319 318 316 316 316 316 318 319 318 317 317 317 315 315 316 317 320 320 321 322 323 325 327 331 329 328 327 324 323 324 324 325 324 323 324 325 327 324 323 322 321 322 319 319 322 322 319 315 313 314 314 316 322 327 325 325 326 327 326 325 326
322 319 318 319 318 317 316 317 318 316 318 313 314 314 314 317 319 318 317 319 320 319 318 318 321 323 327 328 327 326 324 323 324 327 326 325 324 323 321 321 321 322 321 321 321 322 320 318 315 314 313 313 310 310 313 314 318 322 326 326 324 324
321 319 319 322 321 318 319 316 317 317 315 314 313 318 316 316 317 317 317 318 318 316 317 317 318 321 323 326 326 325 325 323 322 325 325 325 322 321 321 321 322 321 321 320 320 321 321 318 316 315 312 310 309 306 304 310 313 317 324 326 322 323
321 320 320 323 320 319 317 316 316 316 317 316 316 314 314 314 316 319 317 316 316 316 317 317 317 318 321 318 319 320 322 323 323 323 324 322 321 321 321 320 321 321 320 319 319 322 324 323 321 320 315 311 307 305 306 310 311 313 319 320 324 326
320 320 320 319 319 318 316 314 314 313 312 312 311 311 312 312 313 313 314 315 315 316 317 316 315 316 316 316 314 316 317 321 323 323 324 322 321 322 321 321 320 321 319 317 320 320 321 324 324 322 319 317 312 308 309 315 312 309 313 320 320 322
321 320 319 318 318 318 315 314 314 313 313 312 311 309 311 312 313 314 314 315 315 315 315 313 313 312 312 314 314 317 317 318 320 321 322 321 320 319 321 321 320 319 318 319 319 318 320 319 321 321 321 320 320 318 315 312 309 307 306 310 315 317
321 320 318 317 316 316 314 313 312 312 314 311 311 312 313 314 314 316 314 314 313 311 312 312 312 311 313 315 314 314 315 317 318 319 320 317 317 317 319 319 318 318 319 318 317 318 316 317 316 317 319 316 318 318 317 316 314 311 306 306 309 313
320 320 318 317 316 315 315 313 313 313 313 312 313 314 315 317 315 315 314 311 311 310 310 310 311 311 312 314 315 312 312 314 315 316 318 316 315 316 315 314 314 314 313 314 316 315 315 313 312 316 317 317 318 317 317 315 316 312 308 304 305 307
320 320 319 317 316 315 314 314 313 314 314 313 315 314 314 314 313 313 311 310 309 308 308 310 310 310 310 311 311 313 313 313 313 315 315 313 312 313 313 313 312 311 311 311 311 312 311 308 310 311 314 317 314 313 311 308 308 310 310 309 307 307
320 320 320 318 316 314 313 313 314 315 314 313 314 314 313 313 313 311 310 308 307 307 308 308 309 309 311 312 313 314 312 312 313 316 313 312 311 312 311 311 311 310 310 309 308 308 309 308 308 308 308 308 308 309 307 305 305 306 304 302 302 302
320 320 320 319 316 315 313 313 315 316 314 314 314 315 314 313 313 311 309 307 307 307 307 308 307 308 309 310 312 310 312 310 312 310 311 311 312 312 311 311 310 310 309 308 308 308 306 306 306 306 306 307 306 307 306 306 306 306 304 304 303 301
320 319 319 319 317 315 313 314 316 316 315 315 315 315 315 314 312 311 309 308 307 308 307 308 306 308 308 308 309 308 309 309 310 311 310 310 309 310 310 309 309 308 307 306 305 306 305 304 305 305 304 304 305 305 305 305 306 305 305 304 302 299
318 318 318 319 318 316 315 316 317 316 315 315 315 315 315 314 312 311 310 308 308 308 307 307 307 307 308 309 309 310 310 310 309 309 310 309 309 309 309 310 308 309 308 306 306 305 305 304 304 303 303 303 303 304 304 306 305 305 304 303 301 300
317 319 319 319 318 317 315 317 317 316 316 315 315 315 315 315 313 312 310 309 308 308 308 308 307 307 310 308 309 309 309 308 309 310 310 310 312 309 309 311 310 308 308 307 308 307 305 306 307 304 303 302 305 304 304 305 305 305 306 305 304 302
318 319 319 319 319 318 314 316 317 315 316 316 316 315 315 315 313 314 312 310 310 309 310 309 309 310 309 310 308 309 309 308 308 309 309 310 310 310 308 308 307 307 308 311 308 306 305 305 305 303 303 302 303 303 304 305 305 304 304 305 305 304
318 319 319 319 319 318 316 316 317 316 316 316 315 314 315 315 314 314 313 311 310 310 311 310 311 311 310 308 309 309 308 307 308 308 309 309 309 308 308 308 308 306 307 307 309 306 305 306 304 304 303 302 302 303 303 304 304 306 305 303 304 304

ECMWFFLT2_sfc_thetae_021.txt.gz
Theta_e
347 348 347 347 347 347 349 351 349 350 350 350 349 350 349 350 350 349 349 349 347 342 340 340 343 341 346 343 346 345 344 344 345 345 345 344 344 344 343 343 342 341 341 340 340 342 340 338 338 339 341 339 338 329 331 330 331 333 331 332 334 328
346 346 346 347 347 347 348 349 346 347 347 348 349 349 348 345 350 342 348 345 340 344 339 336 338 346 341 343 343 345 344 345 344 344 344 344 344 344 343 343 343 342 342 340 340 325 326 334 336 338 337 336 328 327 330 330 330 331 332 330 331 332
345 345 345 346 346 346 345 344 344 345 346 348 348 348 343 347 340 340 341 340 340 340 338 338 339 344 343 346 343 344 344 344 344 344 344 344 344 343 343 343 343 343 342 341 326 321 322 321 321 334 334 327 323 326 328 329 329 331 331 330 329 338
344 344 344 344 345 344 343 344 343 343 344 343 343 344 342 341 340 339 339 336 336 338 337 335 347 347 346 343 342 345 344 344 344 344 344 343 344 343 343 343 343 343 340 334 325 324 325 323 323 322 322 323 323 325 328 329 329 330 330 335 330 340
343 343 342 344 344 343 343 343 342 341 341 340 340 340 340 339 339 338 336 335 336 336 334 333 332 336 337 338 335 336 337 336 335 335 343 332 333 336 337 332 334 334 328 327 327 325 324 326 324 324 323 323 325 324 328 329 329 329 330 333 332 340
342 341 342 343 342 344 344 342 342 342 341 339 339 338 338 338 338 336 335 335 335 332 333 331 330 332 336 335 334 334 333 332 332 333 335 331 332 332 331 331 329 329 327 325 326 325 323 326 325 323 322 322 323 325 328 328 329 330 331 331 334 341
340 340 341 342 342 343 341 342 342 342 340 338 336 337 336 335 336 335 336 337 333 331 330 328 329 331 332 333 334 332 332 331 330 331 333 332 331 331 331 330 329 329 327 326 327 327 325 324 322 323 322 323 323 324 327 328 329 330 330 330 335 342
340 340 339 341 341 340 339 339 341 343 340 342 337 335 335 334 335 334 335 334 335 331 329 328 328 329 330 330 332 331 330 331 331 331 334 332 331 329 330 330 329 327 328 328 328 328 325 325 323 322 323 323 322 323 327 328 329 330 330 331 333 341
340 340 339 340 340 338 338 337 340 342 339 344 335 334 335 334 333 334 334 336 336 330 328 330 329 328 328 328 330 331 331 330 329 330 332 331 332 330 329 330 329 329 327 328 325 327 326 326 322 322 321 323 323 323 326 327 328 329 330 330 333 338
340 340 340 339 338 338 337 337 338 339 338 342 335 334 334 332 332 332 331 334 335 331 330 329 330 328 328 328 328 329 329 331 330 330 331 332 330 329 328 328 328 328 329 327 328 328 326 326 326 324 321 322 322 326 327 328 328 329 330 331 332 333
341 343 340 339 338 337 338 337 337 337 338 338 336 336 334 333 331 331 332 332 333 332 330 330 329 328 327 328 327 327 328 328 329 330 329 329 329 329 327 327 328 329 329 328 329 327 327 326 323 323 322 322 320 326 326 327 328 329 330 330 331 331
340 341 339 339 340 337 337 337 338 336 337 336 337 334 333 332 335 331 332 331 330 330 331 329 328 328 327 327 328 327 328 328 329 327 328 328 327 328 329 329 330 329 330 328 328 326 324 324 321 324 324 325 323 326 325 326 328 329 329 329 329 329
340 340 338 338 338 337 336 338 336 336 336 337 336 333 332 331 332 331 330 330 328 330 329 328 329 330 333 327 327 326 326 328 328 328 327 329 328 326 326 328 327 329 328 327 326 324 326 323 325 325 326 327 325 324 326 327 327 328 329 329 328 329
338 337 336 336 336 335 335 335 335 333 336 334 333 332 333 329 331 330 332 330 329 330 330 329 329 329 328 326 327 326 325 326 327 326 326 325 325 325 326 328 328 324 329 327 324 323 324 326 326 325 326 325 326 324 324 325 325 326 326 327 328 328
337 336 337 336 336 334 333 335 333 333 333 332 331 330 329 329 329 329 330 330 329 330 331 329 330 329 326 326 327 325 325 326 327 328 326 325 326 325 327 328 328 323 324 324 325 326 325 326 325 326 325 325 327 327 327 326 324 325 326 325 326 328
335 333 332 333 331 333 332 331 332 334 330 328 329 327 327 328 327 328 329 327 329 329 328 328 328 326 326 326 327 325 326 326 328 326 325 325 326 326 327 327 328 324 324 325 327 324 325 325 325 326 324 326 326 328 326 326 326 325 325 326 326 326
333 332 329 329 328 328 329 329 330 330 328 328 327 326 326 326 327 327 326 326 327 330 328 328 329 328 326 326 326 325 327 325 328 325 324 323 325 326 327 328 326 326 323 324 325 325 324 325 325 325 326 325 325 327 326 327 326 326 326 323 323 325
330 329 327 326 327 327 327 328 326 326 330 326 325 326 325 325 325 325 325 325 328 329 329 329 329 328 325 327 327 325 325 325 326 325 324 323 324 325 325 325 325 325 324 323 323 324 323 322 324 325 325 325 325 326 325 326 327 329 326 326 323 324
326 324 324 325 327 326 325 324 324 324 323 323 323 322 323 323 323 324 323 325 329 329 330 328 329 329 326 327 325 324 324 325 325 324 323 323 323 324 323 324 324 325 327 326 323 321 322 323 324 324 325 324 324 324 324 326 327 327 326 326 328 328
323 323 324 325 326 324 324 323 322 321 321 321 320 324 321 322 321 321 325 326 328 327 329 329 328 328 325 326 324 323 324 324 324 322 322 321 321 322 323 323 322 324 324 324 325 325 323 323 321 320 320 320 323 326 326 323 324 326 325 326 326 326
322 323 324 323 323 323 321 318 318 319 318 317 319 318 318 319 321 321 324 324 327 327 327 330 329 326 325 330 323 323 323 323 324 322 321 321 320 321 322 323 324 322 321 321 322 323 322 320 320 318 315 315 319 326 330 326 325 325 326 324 324 325
320 320 322 323 323 321 319 320 319 317 315 315 317 316 315 315 317 320 321 321 323 322 323 326 328 326 326 326 323 322 321 323 326 322 320 321 321 325 321 321 322 321 321 319 319 322 321 319 315 313 314 313 314 316 321 323 325 327 326 325 323 322
318 318 317 319 320 319 316 318 318 315 316 311 312 314 314 317 318 316 314 316 317 316 318 319 325 327 326 326 324 322 322 321 322 322 321 322 324 322 320 320 320 321 320 322 322 322 319 315 314 313 313 311 308 308 312 314 318 324 326 323 321 323
317 316 316 319 319 317 318 317 317 315 313 312 312 318 315 314 314 315 315 315 315 314 315 316 318 324 326 325 323 322 321 321 320 323 325 324 323 321 318 319 318 318 321 318 320 321 321 318 315 314 310 308 308 302 302 308 309 317 323 323 320 323
317 316 317 321 317 318 317 315 315 315 316 315 315 313 313 313 313 318 314 314 313 313 315 316 316 319 324 320 319 320 321 321 322 323 324 323 322 322 321 319 319 319 318 319 318 321 324 324 321 317 314 310 305 303 303 308 310 314 317 320 321 322
317 317 318 316 316 317 317 314 313 313 311 310 311 310 309 310 311 311 311 312 312 313 313 312 312 314 316 316 314 317 319 321 321 321 320 319 322 322 320 318 317 318 316 316 319 321 321 323 321 320 317 315 310 307 307 314 311 307 311 318 318 321
319 318 317 316 316 318 314 314 314 313 312 312 311 308 308 309 310 310 311 311 310 310 310 311 311 311 313 315 314 315 317 319 319 318 321 317 316 316 318 319 318 316 316 318 319 318 320 319 318 320 321 320 321 316 313 310 307 304 306 309 312 316
319 319 317 316 315 317 315 312 312 311 312 310 311 310 311 311 310 312 310 309 309 308 309 310 311 312 313 315 314 314 316 317 317 317 317 314 313 314 316 316 316 316 317 316 317 319 319 320 316 316 320 316 318 319 316 316 313 308 304 305 308 311
319 317 315 315 315 314 315 313 313 312 311 311 310 311 313 313 311 310 308 307 307 307 308 309 309 311 311 313 316 313 314 315 314 314 317 314 313 313 313 313 313 314 314 314 315 315 319 318 315 316 318 318 318 316 314 313 313 310 305 302 304 304
317 315 314 313 314 313 313 314 313 312 311 311 312 311 310 310 308 307 307 305 306 307 307 308 308 308 310 311 312 314 313 313 313 314 314 311 311 311 310 310 310 311 311 310 309 312 314 311 314 316 318 317 316 313 307 305 305 307 308 305 304 303
316 315 314 312 311 311 312 313 313 312 313 313 312 312 310 308 308 306 306 305 305 305 306 306 309 308 309 310 311 313 312 312 313 316 312 310 309 309 308 308 308 308 308 307 306 307 308 308 308 309 310 312 310 308 304 303 303 304 303 300 300 301
317 316 315 314 312 311 311 312 312 313 314 315 314 313 312 310 308 306 304 304 305 305 305 306 306 307 307 309 311 310 311 310 311 309 309 309 309 308 308 308 308 307 306 306 306 307 305 305 305 305 304 304 304 305 305 304 303 302 303 301 300 299
316 317 316 316 314 313 312 314 314 314 315 316 315 314 313 311 309 307 305 304 304 305 304 305 305 307 306 306 309 308 309 309 308 310 307 307 306 307 307 307 307 305 305 304 303 304 303 302 303 303 302 302 303 304 303 302 303 303 301 300 299 296
317 317 317 316 315 314 314 315 315 315 316 316 314 314 314 313 309 307 306 305 304 305 304 304 304 305 306 306 307 308 308 307 307 307 307 307 307 307 307 307 307 306 305 303 304 304 303 303 302 301 302 303 303 303 302 303 302 303 301 301 299 298
318 317 316 316 315 314 315 316 316 317 316 315 315 314 314 313 310 308 306 305 305 304 304 304 304 305 308 305 306 306 307 307 307 307 308 308 309 307 308 308 307 306 306 304 305 305 302 303 303 301 300 303 303 301 301 301 303 302 303 303 301 300
318 318 317 317 316 315 315 315 315 315 315 316 316 315 314 313 311 309 307 307 306 305 305 305 304 306 306 306 306 307 306 305 305 306 307 307 307 307 306 306 305 306 306 307 304 304 302 302 301 300 300 300 302 300 300 301 302 301 302 303 303 300
317 316 317 317 317 317 316 316 315 314 314 314 315 314 314 312 311 310 308 307 307 307 306 306 306 307 305 305 306 305 305 305 305 306 306 306 306 305 304 306 306 304 305 303 306 303 302 302 300 301 300 301 302 302 301 301 302 304 303 301 302 300

ECMWFFLT2_sfc_thetae_024.txt.gz
Theta_e
347 347 347 347 346 346 348 350 349 350 350 350 349 349 349 349 349 349 348 348 346 342 342 342 343 342 345 344 345 345 344 345 345 344 344 344 344 343 342 342 342 341 341 341 340 339 338 337 339 338 337 338 340 335 332 332 333 336 334 337 338 331
346 346 346 346 346 346 347 348 346 346 347 347 348 349 347 345 347 343 347 344 341 344 339 339 341 346 343 344 343 344 344 345 345 345 344 344 344 343 343 343 343 343 341 341 338 328 328 334 336 336 336 336 330 331 332 332 333 333 335 335 335 334
345 345 345 345 346 346 345 345 345 345 346 348 348 347 343 345 340 341 342 341 341 339 339 341 342 343 344 346 343 344 344 344 344 344 344 344 344 343 343 343 343 342 342 336 328 325 325 324 327 334 334 328 328 330 331 332 332 333 333 335 333 336
344 345 345 345 346 345 346 346 345 344 343 343 343 343 340 340 340 340 340 339 338 340 338 338 344 343 343 343 341 344 343 344 344 343 343 344 343 343 343 342 343 343 338 330 326 327 327 327 326 325 325 326 328 330 330 331 332 332 332 336 331 337
345 345 345 345 345 344 345 345 344 343 341 340 341 340 339 339 339 338 338 337 338 338 336 334 334 338 337 337 335 336 338 337 336 337 341 331 331 333 334 333 332 334 330 330 329 327 327 329 327 325 326 326 328 329 330 332 332 332 332 335 334 338
344 344 344 344 344 344 345 343 342 343 342 339 340 341 341 340 337 336 336 337 337 334 333 331 333 335 337 335 335 335 333 332 333 335 337 334 333 332 329 330 329 330 331 330 329 329 328 330 326 324 324 325 326 330 330 331 332 332 332 333 336 339
343 343 343 344 344 344 343 343 343 342 341 340 340 340 339 338 336 335 336 337 334 332 330 329 331 334 335 335 335 335 334 333 333 334 337 335 335 333 331 330 329 330 329 330 330 330 327 327 325 325 325 325 325 329 330 330 331 332 332 333 335 339
342 342 342 343 343 342 342 342 343 343 341 342 339 338 338 337 335 334 335 336 336 331 330 329 330 332 333 334 335 335 333 333 333 334 337 334 334 332 332 332 331 329 329 330 330 330 327 326 324 324 326 326 325 327 330 330 331 332 332 333 334 339
341 341 341 342 341 341 341 341 340 341 339 343 337 337 336 335 334 334 334 335 336 331 330 330 330 330 330 333 334 335 334 333 331 332 336 335 333 330 331 331 330 330 328 328 328 328 329 327 326 324 324 325 325 325 328 330 331 331 332 333 334 338
339 340 340 341 340 339 339 339 340 341 340 341 335 334 334 334 333 333 333 334 334 331 330 330 330 329 330 329 331 332 333 332 331 330 333 333 331 330 329 329 330 330 330 329 329 329 329 328 327 325 323 325 325 326 328 329 330 331 332 333 335 337
339 341 339 340 339 338 339 339 340 341 340 338 335 335 334 333 332 332 333 333 332 333 330 328 329 329 328 329 329 330 330 331 331 329 330 330 331 330 329 329 330 330 330 329 329 329 328 328 324 326 325 323 324 327 329 330 331 332 333 333 334 335
338 339 338 338 339 337 337 338 339 339 339 337 335 333 332 332 333 331 333 331 330 331 331 329 328 328 328 329 329 329 328 329 329 329 330 329 330 329 330 330 331 331 330 330 329 327 327 325 325 327 327 325 325 328 328 329 330 331 333 333 333 334
339 338 336 336 337 336 336 337 337 337 337 338 335 333 331 331 331 330 329 328 329 331 330 328 327 328 329 328 328 327 328 330 330 327 328 330 330 327 328 329 329 329 329 329 328 326 328 327 327 327 328 327 326 327 327 328 329 331 332 333 332 334
337 337 336 335 334 334 334 335 335 333 337 336 332 331 332 329 331 330 331 329 330 331 330 330 329 328 328 327 327 326 326 327 328 328 327 327 327 327 328 329 329 325 332 328 326 325 327 327 328 328 328 328 327 326 327 328 328 330 331 332 332 333
338 336 337 335 336 334 334 335 332 333 333 333 332 329 327 327 330 331 332 329 330 331 330 329 329 328 327 327 327 326 325 327 328 328 326 327 326 326 328 328 327 325 325 325 325 327 327 327 327 328 327 328 328 327 328 327 327 329 329 330 331 332
337 336 336 335 334 333 333 331 333 335 331 330 331 331 330 329 329 330 331 329 330 331 330 330 329 327 327 326 327 326 327 327 328 327 326 326 326 326 327 327 327 325 325 325 326 325 327 326 327 327 328 328 328 329 327 327 327 328 328 329 330 331
335 334 333 333 332 330 329 331 333 332 331 330 329 329 330 329 329 329 329 329 329 331 330 329 328 328 326 327 327 326 327 328 328 326 324 324 325 326 327 327 326 327 325 326 326 326 326 327 327 327 327 328 328 328 328 328 327 327 327 327 327 329
332 331 330 330 330 330 330 330 330 331 332 329 328 327 328 328 328 329 330 329 329 329 329 328 328 327 326 327 327 326 326 328 327 325 324 324 324 325 326 325 324 325 326 325 325 326 325 326 327 327 326 327 327 327 327 328 329 329 327 327 327 329
330 327 326 326 328 328 328 327 327 327 327 327 326 325 325 324 325 326 327 329 330 329 329 328 328 327 325 328 326 325 325 326 326 325 324 323 323 325 324 323 325 325 326 326 325 325 326 326 326 327 326 326 326 326 326 328 328 328 328 329 329 329
325 324 325 325 325 325 326 325 324 322 322 322 322 325 321 321 322 323 327 328 330 329 329 328 327 327 326 327 325 324 325 325 325 324 323 322 322 323 324 324 324 324 323 324 325 325 325 324 322 321 322 324 327 327 327 326 326 327 327 327 328 328
322 323 325 324 322 322 319 318 317 317 317 316 319 319 319 318 321 323 325 326 327 328 329 328 327 326 325 329 325 324 324 325 324 323 323 322 323 323 323 324 323 323 322 321 323 324 323 323 322 320 319 319 322 327 329 326 326 326 326 325 326 327
321 322 324 324 324 320 317 318 318 317 315 315 319 318 317 315 317 320 321 322 324 324 325 327 327 325 326 326 323 323 323 325 326 323 323 323 323 326 324 322 322 322 321 320 320 322 322 321 318 318 316 314 318 321 324 325 326 326 326 325 325 327
320 321 321 323 322 319 316 318 316 314 315 311 312 315 315 317 318 315 314 316 318 318 322 325 326 326 325 326 323 322 321 323 324 325 322 322 324 323 321 322 322 321 319 321 321 322 320 318 315 313 314 313 310 312 316 317 322 325 326 325 323 327
319 318 320 322 321 317 317 315 314 313 313 312 315 317 315 315 314 314 314 314 315 314 316 320 324 326 326 324 321 321 322 323 324 326 323 322 323 322 320 320 321 322 321 318 319 320 322 318 317 317 312 311 310 307 308 314 314 320 323 324 324 325
317 317 319 321 318 318 317 314 314 315 316 315 315 313 313 312 313 318 314 312 312 313 315 317 320 324 326 321 320 322 323 323 324 326 326 324 322 322 321 320 321 321 321 320 317 320 323 322 320 320 317 311 309 307 307 312 314 318 319 323 322 324
315 316 317 317 318 318 318 315 314 313 311 311 311 310 310 310 311 310 311 311 310 310 311 313 316 319 322 321 320 322 323 325 325 325 325 324 323 322 321 321 321 320 319 318 320 320 319 321 321 321 319 317 316 312 311 314 314 310 316 318 318 322
316 316 316 316 317 318 315 315 314 313 312 312 311 309 307 309 310 310 310 309 308 309 310 311 313 314 316 318 316 320 323 324 324 324 324 323 323 322 322 322 321 321 320 320 321 318 319 319 321 321 321 321 320 316 316 314 311 308 313 316 317 318
315 316 315 316 316 317 315 313 312 311 313 311 311 310 309 310 310 311 308 308 308 308 309 311 312 313 315 317 317 318 319 319 319 319 322 320 320 319 319 319 319 318 318 319 320 320 319 321 317 318 320 319 319 318 318 315 313 313 310 311 312 315
315 315 314 315 316 315 317 314 313 312 311 310 311 311 312 312 310 309 307 306 307 308 309 309 310 312 313 316 319 316 316 316 317 318 318 315 315 315 316 317 316 317 316 316 318 320 321 319 317 318 320 319 319 316 313 313 314 313 310 307 308 307
314 313 313 314 315 313 314 314 312 311 311 312 313 310 309 308 307 306 306 305 306 307 307 309 309 310 312 313 315 316 314 315 314 316 316 312 312 312 312 312 312 313 313 314 314 318 320 318 318 319 321 320 317 313 310 310 312 311 308 310 309 304
313 313 312 312 313 312 313 313 312 312 312 312 311 310 309 306 306 306 306 305 305 306 307 307 309 310 310 312 313 316 313 313 315 317 313 311 311 310 310 310 309 309 309 310 311 312 313 314 315 316 315 317 316 311 309 308 307 308 307 305 304 303
312 311 310 310 311 311 312 312 312 312 313 313 312 312 310 308 306 305 305 305 305 306 306 306 307 309 309 311 312 311 313 311 311 310 309 309 309 309 309 308 308 308 307 307 309 309 307 307 307 306 306 307 307 307 307 308 306 306 306 304 303 302
312 311 310 310 310 311 312 312 312 313 314 314 313 312 310 309 307 306 305 305 304 304 304 306 306 307 308 308 310 309 309 310 309 310 309 308 308 308 307 307 307 306 306 306 306 306 305 305 306 306 305 305 306 307 306 305 306 304 303 302 302 301
311 311 311 311 311 312 312 313 314 315 315 315 314 313 312 312 309 307 306 305 305 305 304 304 305 306 305 308 307 309 308 307 307 308 308 307 307 308 308 307 307 306 306 305 305 305 304 304 304 304 305 306 305 306 305 305 305 305 304 304 303 302
311 311 312 312 313 314 314 315 315 316 317 316 316 315 315 314 310 307 305 305 304 303 304 304 304 307 309 306 307 307 307 306 307 308 309 309 309 308 309 308 307 306 306 305 305 305 304 305 305 304 305 305 305 305 304 305 306 306 306 306 304 302
313 313 313 315 315 315 314 315 316 316 317 317 316 316 315 314 311 308 306 306 305 304 304 304 306 307 307 307 306 306 307 306 306 307 307 307 307 307 307 307 306 306 306 308 304 304 304 304 304 304 304 304 306 304 305 305 305 305 305 305 305 303
313 314 315 315 314 315 315 315 315 315 315 316 315 314 314 312 310 309 307 307 307 306 305 306 308 309 306 305 306 306 305 305 306 306 306 307 306 305 306 307 306 305 305 305 305 303 304 304 303 303 304 305 305 305 305 306 306 306 306 305 304 304

ECMWFFLT2_sfc_thetae_027.txt.gz
Theta_e
350 350 350 350 351 350 349 351 351 350 350 349 350 349 349 349 349 348 348 347 347 351 351 350 348 347 346 347 346 345 344 345 345 345 344 343 343 343 342 342 342 341 342 341 340 339 338 338 338 337 339 341 343 346 346 344 343 341 340 340 341 339
349 349 349 349 350 350 350 350 350 351 351 351 350 350 349 349 348 350 347 350 351 351 351 350 348 346 346 346 345 344 345 345 345 345 344 343 343 343 343 343 342 342 341 339 338 340 339 336 336 337 338 337 344 345 346 345 343 340 340 341 341 340
346 348 348 348 349 350 349 349 348 352 350 349 350 349 348 347 348 350 350 350 350 350 350 349 348 345 345 345 346 344 344 345 344 344 344 343 343 343 342 342 343 342 340 337 341 339 337 337 336 334 336 342 344 344 345 345 343 342 340 341 340 339
346 348 348 348 349 348 349 350 350 350 350 349 349 348 348 348 347 348 349 350 350 350 350 350 344 345 345 346 346 344 344 344 343 343 343 343 343 343 341 341 342 341 340 342 341 338 336 336 336 338 341 342 343 344 344 344 342 341 341 339 338 338
346 348 347 348 347 346 346 348 347 348 349 349 346 347 347 347 347 346 347 347 346 348 348 347 347 345 345 346 346 346 345 343 344 343 344 343 342 342 343 344 343 341 341 340 339 340 339 337 338 337 338 341 343 343 343 344 342 341 342 342 342 338
345 346 347 347 345 342 344 344 345 349 349 348 347 346 346 345 346 346 345 345 345 346 345 346 348 347 345 346 344 343 343 344 343 343 344 341 341 341 341 339 340 339 340 340 339 339 340 339 337 337 336 338 342 343 343 341 342 342 343 342 342 339
343 345 345 347 346 343 344 345 347 348 344 344 346 343 344 345 344 346 346 345 343 343 344 346 346 345 345 346 345 344 343 344 342 341 342 341 340 340 339 340 340 340 340 340 338 339 338 338 338 335 336 334 339 341 342 342 342 342 343 342 341 339
343 345 344 346 346 341 344 343 343 341 340 341 342 342 341 341 343 344 345 345 345 345 344 344 345 344 343 345 345 345 343 343 342 341 341 340 339 338 340 340 341 340 338 338 337 338 337 337 338 338 335 336 336 340 342 340 342 342 342 342 341 341
341 342 342 343 340 342 342 343 342 342 342 342 340 341 342 343 343 345 343 344 344 345 345 344 344 344 344 344 343 342 343 341 341 340 340 339 339 338 339 339 339 338 339 338 337 338 337 337 338 338 335 334 335 336 340 341 342 341 341 341 341 341
337 337 339 336 339 340 339 342 342 343 342 342 341 341 342 343 343 342 342 344 346 346 344 343 342 343 343 343 343 343 343 341 340 340 340 339 340 340 339 339 338 338 335 336 336 338 337 337 334 336 335 334 335 335 339 340 341 341 341 342 343 343
336 339 340 337 338 337 337 340 342 341 341 342 342 341 342 343 338 335 335 337 342 342 342 343 341 342 344 344 342 342 341 341 340 340 341 341 343 342 342 340 340 338 337 336 336 338 337 336 335 333 335 332 333 337 338 340 340 340 340 341 342 343
337 340 339 336 335 334 335 338 342 343 343 344 343 340 336 337 335 332 334 337 338 340 340 340 339 340 341 341 341 341 339 340 339 341 342 341 341 341 341 339 340 340 341 340 339 339 339 336 335 333 334 332 334 336 337 338 339 340 340 342 341 342
339 339 338 336 335 336 338 339 342 341 342 343 341 335 333 334 331 332 335 334 333 335 336 338 337 338 339 339 339 338 338 339 340 341 342 343 342 342 341 341 341 340 340 341 340 339 336 338 337 336 336 333 336 335 336 336 339 341 341 341 341 341
340 339 338 337 337 338 339 340 342 341 341 341 335 333 334 335 332 332 334 333 332 334 334 338 337 337 337 338 338 338 339 338 339 340 342 342 341 341 340 339 338 338 337 337 337 338 337 336 335 336 337 335 337 340 338 336 338 340 341 341 341 341
338 339 338 338 338 338 340 340 341 341 341 338 331 331 334 333 334 333 333 332 332 334 333 335 335 336 336 336 337 338 338 339 338 339 340 341 341 341 340 338 337 336 337 337 336 336 336 337 336 335 338 340 336 336 339 339 339 339 339 342 342 340
337 336 331 334 338 339 340 341 341 340 340 335 332 331 333 334 334 335 333 332 332 334 336 336 336 335 335 335 336 337 337 337 338 339 339 340 339 339 340 340 339 338 335 334 335 336 337 336 337 336 338 339 339 338 338 339 339 337 339 340 338 341
335 332 329 332 336 339 339 339 339 339 338 336 333 333 334 336 336 334 334 335 334 335 336 335 336 335 335 335 335 335 336 337 338 338 338 339 339 340 340 339 339 339 338 336 335 337 338 337 337 338 338 339 338 338 337 338 339 339 336 339 339 338
336 332 332 334 336 336 337 337 337 337 337 335 335 334 335 336 336 335 335 335 335 335 335 335 335 335 337 335 336 336 335 336 336 336 336 337 339 339 340 340 338 338 338 336 336 336 334 336 336 335 336 336 336 335 335 337 338 338 338 337 339 338
335 336 336 337 337 336 335 334 335 335 335 334 334 335 336 336 336 336 335 335 335 336 335 335 333 333 336 336 336 335 335 335 335 336 336 336 337 337 338 340 338 335 336 338 337 337 336 335 334 333 331 332 334 334 334 335 337 336 336 337 337 336
337 337 336 336 336 335 335 334 332 333 333 332 334 334 335 335 335 335 335 335 336 337 336 336 335 334 334 335 335 335 334 334 335 335 336 336 335 336 337 336 336 334 333 333 334 334 335 332 331 330 329 332 332 332 332 333 336 335 336 336 336 336
336 336 335 334 334 334 332 331 333 333 332 333 333 333 332 332 334 334 336 336 337 337 337 336 335 335 335 335 334 335 334 333 334 335 335 336 336 335 336 336 334 335 333 331 330 332 332 333 328 326 329 330 330 331 331 331 332 335 335 335 336 335
336 337 337 336 335 334 334 333 332 332 333 332 333 333 332 333 333 333 334 335 336 336 336 336 335 335 335 336 335 334 334 333 333 334 333 333 333 333 333 334 334 331 334 333 329 330 328 329 322 322 322 323 326 330 330 331 330 330 333 335 336 336
337 338 338 338 336 335 333 333 333 331 332 328 329 332 332 331 332 331 332 333 335 335 335 335 336 335 335 335 334 334 333 332 331 332 331 332 332 332 333 333 335 333 329 331 329 330 329 332 323 325 326 322 319 320 325 327 330 330 331 332 333 333
336 338 337 336 336 335 333 332 332 330 329 330 328 327 328 328 328 328 328 328 331 333 335 335 335 335 336 335 335 333 332 331 331 332 331 331 330 331 332 333 333 334 333 329 328 327 329 329 326 323 317 319 318 319 316 319 324 327 330 330 331 331
334 335 336 334 332 330 328 328 327 328 328 327 327 327 326 325 327 327 326 327 326 328 331 333 336 336 335 334 333 332 331 331 331 331 330 330 329 329 330 331 333 332 332 331 327 328 327 329 327 330 324 316 315 315 317 320 322 323 328 328 329 330
332 333 334 333 331 330 329 327 326 326 325 325 323 324 324 323 324 325 323 324 324 326 329 332 334 335 335 333 331 330 331 331 330 330 330 329 328 329 330 331 332 332 330 331 330 327 326 326 326 328 330 329 326 322 319 322 323 315 326 327 327 325
332 333 333 331 331 331 329 330 331 330 328 326 324 324 324 325 325 322 323 324 324 327 327 331 333 334 335 333 331 331 331 332 331 330 330 330 329 329 330 331 332 331 331 330 330 326 327 326 326 326 325 325 325 326 331 322 319 322 317 319 319 320
331 331 331 331 330 331 330 330 329 329 329 327 326 323 324 324 323 322 322 323 325 325 327 328 330 330 333 334 333 331 332 332 332 331 330 330 329 329 330 330 331 333 332 332 331 328 326 327 326 322 325 324 325 328 330 329 328 324 319 313 311 316
329 329 329 330 330 330 330 329 329 328 326 326 326 324 323 322 320 322 322 322 324 323 325 326 326 328 330 332 333 333 333 333 333 332 330 330 330 329 330 330 330 331 331 330 330 329 327 325 328 326 326 327 328 327 327 328 327 326 321 315 312 311
326 327 327 328 329 329 329 329 328 328 326 324 324 323 322 320 320 322 321 322 323 323 323 325 326 327 328 330 331 332 331 331 331 329 328 329 329 329 329 330 330 331 330 328 328 328 327 326 328 328 328 328 326 325 326 325 324 322 321 320 313 311
324 324 326 327 328 327 327 329 328 329 328 325 324 323 320 320 319 321 321 321 322 322 324 324 325 326 326 327 329 328 329 328 329 329 327 328 329 328 329 329 328 329 329 329 327 325 324 325 326 327 328 328 326 325 324 323 322 321 320 316 312 311
323 324 325 325 326 326 326 326 327 329 328 326 325 323 322 320 320 320 321 320 320 322 323 324 325 325 325 325 326 326 326 326 327 328 328 327 327 326 326 325 326 327 327 327 328 326 325 324 326 326 324 321 321 322 321 319 318 320 319 316 315 312
321 322 323 324 324 324 324 324 325 327 327 326 325 324 323 321 321 320 320 320 321 321 322 323 323 323 322 323 324 325 326 325 325 325 324 324 324 323 323 323 323 324 326 327 326 327 325 324 325 320 318 320 318 318 316 318 318 316 318 318 316 311
320 321 322 323 324 324 324 325 326 327 327 325 325 324 323 322 322 322 322 321 321 321 322 322 322 321 321 322 323 323 324 324 323 322 322 322 322 321 322 320 322 323 322 321 322 322 320 321 321 321 321 318 318 317 317 319 318 316 314 314 311 311
319 319 321 323 324 325 325 326 327 328 328 328 327 325 327 326 322 320 321 321 319 320 321 320 320 321 321 322 323 323 323 323 322 322 322 322 321 321 322 320 320 320 319 319 320 320 320 320 318 318 321 318 318 317 316 315 315 314 313 315 314 313
317 317 319 322 325 327 328 325 326 327 327 327 326 327 324 321 321 321 321 322 321 321 321 321 321 321 322 322 322 322 322 321 321 321 321 320 320 320 321 321 319 320 317 317 320 319 318 319 319 319 319 319 316 315 317 315 315 315 314 315 315 315
317 318 320 322 324 328 327 324 325 326 325 325 325 325 322 320 321 321 322 323 321 321 322 323 322 323 322 322 322 323 322 321 321 320 320 319 319 319 319 320 319 318 317 318 319 318 319 318 318 319 319 319 316 315 315 318 316 316 317 317 316 315

ECMWFFLT2_sfc_thetae_030.txt.gz
Theta_e
347 350 347 353 354 351 351 346 348 350 347 349 349 349 349 348 348 348 348 348 347 350 351 349 348 346 346 348 346 345 345 345 344 344 344 344 343 342 342 342 342 342 340 340 340 339 339 338 338 338 339 343 344 347 346 345 345 343 342 340 341 341
350 347 348 346 352 352 348 344 346 349 348 348 349 349 347 345 347 348 347 348 351 350 349 349 350 344 347 344 346 345 345 344 344 343 343 343 342 343 342 342 342 341 338 339 339 340 338 338 337 338 340 342 347 346 346 344 344 341 343 343 342 339
347 348 349 347 346 348 344 345 346 343 348 345 347 346 345 344 345 345 343 348 350 351 347 348 345 345 346 343 348 345 345 344 343 343 343 343 343 343 343 343 342 341 342 336 341 336 335 335 338 337 339 344 346 345 344 344 343 342 342 342 342 341
346 348 349 349 346 343 344 342 348 344 342 342 343 344 343 343 345 347 349 349 349 349 348 349 345 345 345 346 347 345 345 344 344 343 344 344 344 343 343 343 342 340 342 341 339 335 335 334 336 342 344 343 344 344 344 344 341 342 343 339 339 341
347 348 348 350 347 343 345 348 346 342 340 341 340 343 347 346 347 346 347 348 347 348 348 347 346 345 345 346 341 344 344 341 343 343 343 340 341 340 344 340 341 340 341 338 337 338 338 336 338 341 341 342 343 344 344 343 342 341 343 343 341 341
346 347 347 342 340 343 342 341 339 341 341 339 342 344 347 346 344 342 346 346 347 347 346 346 346 345 345 347 345 343 342 344 340 342 342 341 339 339 342 341 340 339 338 338 337 337 338 337 338 339 338 342 344 345 343 343 341 341 344 343 342 341
344 345 339 337 336 338 341 342 344 342 342 340 342 343 344 344 339 341 341 342 344 342 341 345 345 345 344 347 346 345 343 342 342 341 340 340 339 339 337 338 338 339 338 337 335 336 336 336 338 336 339 339 343 342 343 341 342 342 343 342 341 341
345 342 342 341 340 340 342 341 342 343 343 343 344 343 344 344 342 342 340 343 342 340 337 336 340 345 345 346 346 346 344 341 342 339 339 339 338 339 338 338 340 338 336 336 335 336 334 333 336 338 337 338 342 342 343 341 343 344 344 343 341 342
341 343 345 343 341 342 343 344 341 343 342 341 345 345 344 343 346 346 346 345 343 341 341 337 343 344 345 345 345 344 342 341 342 340 340 338 341 342 342 340 339 338 338 335 335 336 333 333 335 338 337 336 338 340 342 343 344 343 342 342 341 342
343 345 345 344 344 343 344 344 346 343 340 341 341 339 341 343 345 345 346 345 344 342 340 338 337 340 342 343 343 343 344 342 341 342 341 340 342 342 342 341 340 339 335 335 335 335 334 334 333 335 335 335 336 337 342 341 342 340 342 343 342 342
342 345 343 341 343 342 343 344 344 341 339 337 340 337 340 343 343 344 345 347 346 344 341 339 337 339 344 343 342 344 341 342 344 341 342 342 343 344 344 342 340 337 336 334 335 334 333 334 333 332 333 333 335 338 339 341 339 340 340 342 343 343
343 345 345 341 342 340 341 341 344 341 339 338 338 339 341 341 342 341 343 345 345 345 344 347 344 343 344 343 339 339 337 338 341 341 340 341 343 344 343 341 341 340 339 338 337 336 336 334 333 332 332 332 334 337 336 340 339 340 340 343 342 344
341 344 343 342 341 341 342 342 342 344 341 338 336 339 340 342 338 342 344 344 342 342 343 342 343 342 342 341 338 337 340 340 338 339 341 345 342 343 341 342 342 341 338 339 339 337 333 335 334 333 334 332 334 332 333 334 339 341 340 341 341 342
341 341 342 340 341 340 342 344 343 342 341 340 341 341 341 342 341 340 342 341 341 340 339 340 340 341 341 338 340 338 336 336 342 344 343 342 342 343 340 338 339 340 335 337 338 338 335 335 334 334 335 334 336 338 336 334 338 341 342 340 339 341
342 342 340 341 340 343 345 343 341 343 342 343 342 342 343 342 339 340 340 339 339 339 338 337 337 337 340 341 339 340 342 342 336 343 340 340 338 338 339 339 338 337 338 336 336 337 336 337 335 335 337 338 335 334 337 337 339 338 339 342 343 340
343 342 341 341 345 345 344 346 343 340 342 342 339 338 340 339 340 340 340 339 340 339 340 339 338 337 338 340 338 338 340 340 339 338 341 347 344 339 339 341 341 340 336 335 334 335 338 337 337 336 337 339 339 338 337 336 338 336 337 339 338 342
342 343 342 341 343 344 346 344 344 340 343 343 340 340 339 341 340 340 340 339 339 340 340 339 338 339 340 340 339 339 340 341 343 342 343 346 343 343 339 339 340 340 338 339 333 336 338 339 339 339 340 340 339 338 340 340 338 340 336 338 339 339
344 342 341 340 342 343 344 344 344 342 342 341 341 340 340 341 340 340 341 341 340 341 341 340 340 340 340 340 340 340 340 342 342 341 343 342 340 341 340 337 334 339 340 336 336 337 336 338 338 338 338 338 339 339 340 341 340 337 338 336 336 338
341 341 341 343 343 343 343 342 343 342 342 340 340 340 341 340 339 340 340 340 340 341 341 340 340 340 340 339 339 340 341 342 341 341 340 333 333 334 336 337 337 336 339 341 337 337 337 339 338 337 337 339 338 337 339 339 341 339 338 337 338 337
341 341 343 343 342 341 341 339 338 340 338 338 339 337 338 337 339 338 339 339 339 341 340 340 340 340 340 341 340 340 342 342 341 340 338 332 332 334 331 333 336 338 338 337 340 340 341 339 338 338 337 338 336 336 337 338 338 337 338 337 338 339
342 343 342 340 340 339 338 337 338 336 334 336 335 336 336 337 337 338 338 338 340 341 341 340 340 340 342 340 341 341 341 340 340 339 338 334 333 334 336 336 339 338 336 336 337 339 339 339 335 334 335 335 334 336 337 337 336 336 335 337 337 337
342 343 343 342 341 340 339 336 335 334 333 333 332 332 335 335 336 338 338 339 339 340 341 340 339 340 340 340 340 340 339 338 337 336 336 337 336 336 338 338 338 336 337 335 335 337 337 337 333 330 329 329 332 334 336 336 333 333 334 335 336 336
342 342 343 343 341 339 339 339 339 336 335 332 336 337 335 335 335 334 338 338 338 339 337 338 340 340 339 340 340 339 338 337 338 338 338 337 337 336 337 336 337 334 333 335 335 337 337 337 329 332 333 329 325 324 329 332 333 333 334 336 335 334
344 344 343 343 342 341 340 340 341 340 339 335 333 336 337 337 336 335 335 337 337 337 337 336 336 336 340 341 340 339 339 338 338 339 338 337 336 335 335 335 335 335 334 330 331 331 337 338 335 331 324 322 325 324 319 322 326 330 334 334 335 333
343 343 343 343 341 340 339 338 338 341 339 336 335 332 330 329 331 331 331 334 334 337 336 334 336 335 334 335 335 336 335 335 336 337 337 336 336 336 336 336 336 331 332 329 327 331 334 337 336 337 330 322 320 320 320 321 325 325 331 329 331 332
344 342 341 342 341 339 338 336 334 330 328 328 327 327 325 325 327 329 325 330 331 333 334 335 334 334 333 333 334 334 335 332 333 334 334 335 335 336 336 335 336 334 330 331 328 327 330 334 336 336 336 335 331 322 321 325 322 315 327 329 329 327
344 341 341 341 341 340 339 336 334 332 330 329 327 328 328 329 328 327 328 328 328 334 333 333 334 333 333 332 334 334 334 333 333 334 335 334 333 334 334 335 336 335 333 333 333 329 330 330 331 333 334 334 332 331 331 327 318 319 316 322 326 327
344 342 342 342 340 340 337 336 335 332 331 329 329 328 330 330 330 328 327 328 330 330 332 332 333 332 333 332 333 333 333 334 332 331 331 331 332 332 334 334 336 338 337 336 335 331 330 331 328 328 331 332 333 331 332 331 326 320 319 317 317 322
343 342 341 341 340 339 338 336 335 333 330 330 330 330 329 328 327 328 327 329 330 329 331 333 332 331 332 331 332 332 334 332 332 331 329 330 331 332 333 333 333 333 337 337 337 335 332 330 331 329 330 331 331 328 330 330 329 327 320 317 316 317
339 340 341 340 339 339 338 337 334 334 332 329 330 328 328 327 327 327 327 328 328 328 328 329 331 332 332 331 332 332 331 331 332 330 329 331 331 331 332 332 332 332 334 332 332 334 333 332 332 332 332 331 327 326 327 327 327 325 323 323 317 315
338 339 340 339 339 338 338 336 334 335 333 331 330 328 326 326 325 325 324 326 326 326 328 328 329 332 332 331 332 332 331 330 331 331 329 328 329 329 330 330 332 333 332 332 332 332 331 332 331 329 330 329 326 325 326 322 323 323 323 321 319 318
332 336 338 338 340 338 336 336 335 335 333 332 331 327 326 324 324 324 324 324 324 325 326 327 329 328 331 331 331 330 331 330 330 330 329 329 328 328 329 329 329 330 330 332 331 330 331 331 331 330 330 329 328 328 327 326 325 325 324 323 322 318
322 324 326 333 338 337 337 336 335 335 334 333 330 327 325 324 325 324 324 323 323 323 324 326 327 327 330 330 328 329 329 328 328 328 328 326 328 329 328 328 328 328 329 328 329 330 331 332 333 330 327 327 325 326 325 325 327 327 327 324 321 318
322 324 324 329 334 334 336 335 336 336 334 332 330 328 326 325 326 324 324 323 323 322 324 326 327 327 327 327 326 327 327 327 326 326 328 330 329 328 328 325 326 326 326 327 329 329 329 329 328 327 327 324 324 322 321 321 321 322 322 320 317 316
321 322 325 328 331 332 334 334 334 336 334 332 330 327 326 327 327 325 324 325 324 324 324 326 325 326 327 326 326 326 326 325 326 327 328 328 327 327 327 323 323 325 325 325 325 326 326 327 326 325 325 321 319 317 317 316 316 316 315 319 319 318
322 323 326 327 329 332 332 334 334 335 333 332 329 329 328 327 326 326 325 324 324 324 325 325 325 325 326 325 324 324 323 323 324 326 327 326 326 325 325 322 322 323 322 322 323 323 322 323 323 323 321 320 318 316 318 316 317 317 317 318 319 317
325 325 325 327 329 331 333 333 334 335 333 331 330 329 326 326 325 327 326 324 323 323 325 325 325 326 326 325 324 324 321 321 322 324 325 324 324 324 323 322 321 321 321 322 321 320 320 320 321 321 321 320 317 318 319 321 319 318 319 318 318 318

ECMWFFLT2_sfc_thetae_033.txt.gz
Theta_e
350 351 347 344 345 345 342 340 341 337 342 342 347 348 348 349 349 349 349 348 348 346 347 346 347 344 347 347 347 346 345 345 344 344 343 341 341 341 341 341 340 340 340 341 340 340 340 340 339 338 342 342 344 347 346 345 342 340 338 337 339 338
346 348 348 342 343 344 340 343 344 343 345 346 346 347 348 348 347 346 345 347 345 348 346 344 345 345 345 347 346 345 345 345 344 343 342 342 342 341 341 341 340 339 339 341 340 337 337 341 341 339 339 343 346 344 345 344 342 340 339 340 340 340
348 345 341 342 346 342 341 341 343 344 346 345 345 345 347 347 345 343 342 342 341 342 345 343 344 343 341 345 345 345 345 344 344 344 343 343 342 342 342 342 340 341 340 339 339 336 335 334 337 341 340 343 344 343 343 342 342 341 338 339 338 341
346 342 346 343 345 348 347 346 341 343 345 350 348 346 346 343 342 341 343 342 343 342 341 340 340 340 339 343 345 344 344 344 343 344 343 343 343 343 342 342 342 340 340 338 338 338 334 335 337 339 341 341 340 343 345 342 338 341 339 339 338 341
342 343 345 344 341 343 344 344 342 346 346 346 344 345 346 345 344 343 342 342 341 341 341 341 340 341 339 343 341 341 343 343 343 343 343 342 341 342 342 339 337 338 337 337 337 338 337 336 340 338 340 341 342 343 343 342 340 339 339 340 339 341
345 344 344 344 344 344 345 344 344 346 345 347 347 346 344 344 343 343 344 344 344 341 338 341 340 340 341 340 341 338 339 339 340 339 342 341 341 340 340 339 335 335 337 339 337 337 337 337 336 337 340 343 343 343 342 339 342 340 341 340 340 341
341 345 345 347 346 345 346 345 345 346 345 342 344 343 343 343 344 344 344 344 341 342 341 343 342 342 340 338 337 341 344 343 338 340 340 340 339 339 340 342 341 339 339 338 335 335 334 334 338 334 339 339 342 342 342 340 341 341 342 340 340 341
344 345 346 349 348 346 347 345 346 346 344 342 341 340 341 342 343 344 344 344 347 347 344 342 342 343 341 340 338 340 340 340 343 345 338 340 339 338 338 344 339 338 337 336 335 334 333 333 335 337 337 339 341 341 342 340 341 340 341 340 339 342
345 345 344 346 345 346 345 346 345 345 344 345 345 345 344 343 343 344 344 343 345 346 344 342 342 341 343 340 338 338 339 338 338 336 337 338 338 338 340 343 341 338 338 336 335 336 334 333 334 339 336 334 338 338 340 340 341 341 343 342 339 340
342 343 341 344 341 344 343 343 345 345 344 346 345 345 345 344 344 344 344 341 343 344 345 342 341 341 342 342 340 339 341 342 342 342 340 340 339 341 340 338 341 337 335 335 334 335 333 333 332 335 337 336 338 337 339 339 338 339 338 340 340 339
343 344 340 342 345 345 345 344 345 343 344 343 343 343 344 344 343 344 341 341 344 345 347 345 343 341 341 341 340 339 341 342 343 341 343 343 342 338 341 336 337 341 334 335 334 333 333 332 332 332 335 335 336 338 338 339 339 338 338 340 340 339
342 344 344 343 343 344 343 340 343 344 343 344 346 344 343 344 345 344 344 344 346 344 344 344 343 342 341 341 340 341 341 341 340 342 342 342 342 339 338 338 339 338 340 336 335 334 335 332 331 330 331 333 334 336 338 337 336 338 341 341 340 338
343 344 342 342 341 342 342 342 341 343 344 345 344 343 342 344 344 344 344 343 344 343 341 342 344 341 339 338 338 337 340 340 342 343 342 341 340 338 338 338 337 337 338 338 335 335 331 335 334 332 332 332 333 333 333 336 338 340 338 340 342 340
343 342 344 341 342 340 340 339 341 344 345 344 344 343 344 344 344 342 343 343 343 343 342 342 340 340 339 341 341 342 341 342 344 344 343 341 340 341 338 338 335 335 335 339 337 334 334 333 333 332 334 332 332 335 333 332 334 336 339 338 339 340
343 342 341 341 341 342 343 343 341 342 343 345 345 344 343 344 343 342 343 343 345 343 342 343 343 342 341 340 339 339 339 342 343 342 341 342 340 340 339 337 339 334 333 335 333 332 332 334 333 330 334 336 333 333 335 333 333 339 340 338 339 338
343 342 343 342 345 342 343 342 342 342 345 346 344 343 343 343 343 342 343 343 345 343 343 343 343 341 341 340 340 338 339 341 339 344 342 341 340 338 339 336 336 336 333 336 331 331 337 333 335 334 335 336 338 336 332 336 332 334 336 337 336 337
341 341 342 343 345 345 345 344 344 344 344 345 342 341 341 342 342 342 341 341 344 344 342 342 342 342 342 340 338 335 338 339 340 341 339 339 336 337 336 336 337 336 337 334 333 333 334 333 335 336 337 338 338 336 336 341 336 336 340 337 337 338
340 342 342 342 344 346 346 345 343 343 343 342 342 340 340 340 340 340 341 341 343 343 342 340 340 341 341 339 336 334 338 337 336 338 336 336 336 336 337 338 336 339 338 335 335 334 332 335 335 335 337 338 337 335 337 338 338 337 336 335 337 336
342 340 342 344 346 348 347 345 343 343 342 342 341 339 338 337 337 339 339 344 343 344 342 341 340 341 340 339 338 337 333 335 337 340 339 336 337 337 338 338 337 337 337 339 336 335 333 335 331 333 333 337 338 339 339 339 339 338 338 337 334 334
340 342 342 343 345 344 342 340 338 338 337 336 337 336 338 336 337 335 338 338 339 343 343 343 341 341 341 340 339 338 338 336 338 339 339 334 335 338 337 337 336 335 335 334 336 331 334 334 333 333 335 336 336 337 337 338 338 336 336 336 338 336
337 337 338 339 340 337 337 335 335 335 333 335 333 336 336 337 336 336 337 336 339 340 340 342 341 340 339 339 338 339 335 336 337 337 338 338 338 339 340 340 337 334 334 331 332 333 334 335 332 331 331 333 334 335 336 335 337 337 336 337 337 336
338 338 339 342 339 339 337 335 334 332 332 332 331 331 330 335 337 338 339 338 338 341 340 340 340 341 341 339 338 338 337 337 337 336 339 339 339 337 337 336 335 332 332 329 328 332 334 332 328 328 326 325 328 331 333 332 331 333 336 336 336 338
340 341 341 340 337 336 336 337 336 333 333 331 334 337 333 332 333 335 339 338 339 339 338 339 339 341 341 340 339 338 336 337 338 336 336 338 338 338 337 335 332 329 330 330 328 333 333 336 329 329 328 324 323 320 326 330 330 333 332 333 338 334
343 342 338 338 338 339 339 340 339 337 336 336 335 335 335 335 334 332 335 336 337 338 336 336 335 335 339 340 341 339 338 338 339 340 336 335 335 335 335 334 332 330 330 326 328 330 336 338 332 330 321 321 320 324 319 321 326 328 332 332 333 333
340 337 334 330 339 339 339 339 337 337 336 333 331 330 331 330 332 331 330 334 335 337 335 334 335 335 334 335 335 335 336 337 339 339 337 333 333 332 331 332 332 333 330 327 328 332 334 335 334 335 328 320 320 317 317 322 324 325 331 331 330 330
336 334 331 330 339 337 337 336 334 331 326 325 326 327 326 326 325 328 328 330 330 332 333 334 333 334 333 334 333 332 331 331 333 335 336 337 336 333 332 332 335 335 330 332 333 330 330 335 335 335 333 331 329 320 319 324 322 317 327 331 329 330
335 333 332 330 337 338 335 335 334 330 328 328 326 327 328 330 330 326 327 330 330 333 332 333 333 333 331 330 332 333 334 333 331 332 333 334 334 336 333 334 336 335 333 335 335 330 330 331 334 334 334 334 332 331 330 323 319 321 317 325 327 326
332 330 329 329 336 338 335 334 333 331 330 329 328 327 330 330 330 328 328 329 330 331 331 331 331 330 332 331 333 333 333 333 331 330 329 329 330 332 334 336 336 336 335 333 334 329 327 330 328 328 332 331 329 331 331 331 328 323 319 317 318 323
331 330 332 331 333 336 334 334 333 331 330 331 328 328 328 327 326 329 329 329 331 330 331 332 332 330 331 330 332 333 333 332 331 330 329 329 331 331 333 335 334 334 333 334 335 334 331 331 330 328 329 331 329 328 330 329 329 325 321 317 316 317
328 328 326 329 336 335 335 335 332 332 330 327 327 326 326 325 326 328 329 331 330 329 329 330 332 331 331 330 331 332 331 331 331 330 330 330 331 331 332 333 334 334 335 334 335 335 333 333 329 331 329 330 328 327 327 325 326 325 325 324 316 316
323 328 326 325 325 330 336 334 332 331 329 328 328 327 325 326 324 326 326 327 328 329 329 329 330 332 332 331 332 331 331 331 332 332 329 329 329 328 331 332 332 333 333 334 334 335 334 334 332 331 330 328 328 326 326 321 323 323 322 321 319 317
327 326 327 325 326 327 335 335 333 333 330 330 329 327 325 325 325 325 326 326 326 327 328 329 330 330 331 331 331 330 331 331 330 331 329 330 330 329 330 330 330 330 332 333 333 333 334 332 332 331 331 330 328 329 328 325 325 325 322 322 320 317
330 330 327 327 327 328 335 335 333 331 332 331 329 326 326 325 326 325 325 325 324 324 325 327 328 329 329 329 329 329 330 329 328 328 328 326 328 329 330 329 329 330 329 329 330 332 333 333 332 330 326 327 327 327 326 328 329 327 325 326 322 317
331 332 330 330 329 331 335 335 334 332 332 330 328 327 326 325 326 325 325 325 325 324 325 328 328 328 327 328 329 330 329 327 326 328 328 330 329 327 328 326 328 327 328 329 330 330 329 329 328 327 327 324 324 322 322 323 325 324 322 321 318 316
334 334 334 333 335 335 333 333 333 333 331 331 328 326 325 327 327 326 325 325 325 326 327 327 327 327 326 325 326 326 326 326 328 328 328 327 327 327 326 325 326 327 327 327 328 328 328 328 326 323 323 321 319 318 318 317 317 318 320 321 319 318
331 333 336 336 337 336 335 333 334 334 332 332 329 327 326 327 328 327 327 326 326 327 328 327 327 325 324 324 324 323 324 326 327 327 327 326 325 324 323 322 322 323 323 323 324 324 323 323 322 322 321 320 319 317 319 318 318 318 318 319 320 318
330 334 336 337 337 334 335 334 333 333 333 332 330 328 327 328 328 328 328 327 326 326 328 327 325 325 323 323 323 322 323 324 325 326 326 324 323 323 323 322 322 322 322 323 323 320 321 321 322 321 320 320 318 318 319 321 319 319 319 320 319 318

ECMWFFLT2_sfc_thetae_036.txt.gz
Theta_e
342 339 341 344 342 340 343 345 344 344 342 340 340 343 343 346 348 348 348 347 345 340 339 339 336 339 344 345 347 345 344 344 343 342 341 341 340 341 341 341 341 341 342 342 342 342 342 341 340 341 340 342 343 342 343 344 340 338 337 336 337 337
339 342 343 343 342 341 343 343 343 342 343 341 343 348 348 346 347 346 346 343 341 340 338 339 340 344 340 344 345 345 344 344 343 342 340 340 340 340 340 339 340 340 341 341 342 340 338 342 341 338 342 342 341 342 343 344 338 336 337 336 338 341
341 343 342 341 341 341 343 341 342 343 344 344 346 345 345 345 345 345 344 343 342 341 340 341 343 340 339 343 345 345 344 344 343 342 342 340 341 340 339 340 339 340 339 340 339 337 334 334 337 342 341 339 339 341 342 342 338 336 335 337 337 343
341 341 340 340 341 341 342 342 343 344 343 342 344 345 345 345 344 344 344 343 342 341 341 342 343 343 342 344 344 344 344 344 344 343 342 341 341 341 340 340 341 340 339 337 333 332 332 333 334 336 335 338 338 340 342 341 336 336 336 338 338 344
343 343 342 342 341 342 343 343 343 343 343 343 345 345 345 344 344 344 342 343 343 341 340 341 342 342 342 343 344 343 343 342 342 341 342 340 341 340 341 338 336 337 336 334 332 333 334 334 335 335 335 337 338 341 342 341 338 339 336 337 340 343
342 344 344 343 342 343 343 341 342 345 344 345 344 344 345 344 344 343 343 342 342 339 340 341 340 340 341 342 344 343 344 343 341 341 342 342 341 339 337 335 334 332 332 333 334 335 335 335 335 335 335 336 339 341 342 336 337 336 336 339 340 342
343 343 344 343 343 342 342 342 343 344 343 343 345 343 343 343 344 344 344 343 340 339 339 340 339 339 340 341 341 342 342 342 340 339 337 339 337 338 336 338 336 333 334 336 336 332 333 333 337 333 336 337 339 338 339 336 337 337 336 338 341 342
342 343 343 344 342 342 342 342 342 344 344 345 344 344 344 345 344 344 343 342 341 339 339 339 340 339 339 340 340 340 340 340 340 339 338 338 336 337 337 339 337 335 334 334 333 331 332 329 334 337 335 336 338 337 337 339 339 337 335 337 340 342
342 343 344 343 342 342 342 342 342 342 343 344 342 343 342 344 343 343 343 341 339 338 338 337 338 339 340 340 340 339 340 339 340 339 339 338 337 336 337 337 336 337 336 333 332 331 331 331 336 335 335 335 337 339 336 337 340 337 335 336 338 340
342 342 343 343 342 342 342 342 342 343 344 344 343 343 343 343 344 342 342 340 339 338 337 336 334 339 340 340 339 340 339 340 340 342 340 337 338 337 336 338 337 339 338 337 334 331 331 331 329 331 333 334 336 337 337 337 336 337 336 336 338 340
341 343 342 341 342 343 343 342 342 343 343 342 343 343 342 342 342 342 343 340 336 336 336 337 337 339 339 340 340 338 336 338 339 339 340 339 341 341 339 339 337 336 337 336 336 333 331 329 328 330 333 331 334 337 333 334 338 340 337 336 337 338
341 342 342 341 342 342 342 341 341 341 341 341 343 341 341 341 342 341 340 341 336 336 336 337 340 339 340 340 339 339 340 340 340 339 339 342 341 339 340 339 339 339 336 338 337 334 333 330 331 329 331 332 334 339 332 334 336 338 334 336 335 335
340 343 342 341 341 341 342 340 340 340 341 342 342 342 341 341 343 341 341 340 338 338 340 340 340 341 340 340 340 339 340 341 340 341 342 343 341 340 339 340 338 339 340 338 335 332 332 331 331 329 331 330 334 332 333 334 335 337 335 337 338 334
341 342 342 341 342 341 341 340 341 341 342 342 341 341 341 343 345 342 341 342 339 337 340 341 340 340 340 339 340 339 339 339 342 342 342 343 341 341 339 338 336 335 336 335 334 333 333 332 333 330 332 336 332 333 333 334 336 337 338 335 339 337
341 340 340 340 340 340 341 339 339 340 341 342 342 342 343 344 343 343 341 340 342 342 340 341 340 341 339 339 338 338 338 341 341 341 340 341 341 340 339 338 337 336 335 335 335 334 334 333 336 330 334 331 330 334 332 332 335 336 337 336 338 336
342 342 341 341 342 342 341 342 341 341 343 344 342 343 344 342 341 342 342 341 342 341 341 341 339 340 339 338 339 338 340 339 340 341 339 341 341 338 339 337 337 336 334 335 334 334 336 332 334 333 332 331 332 334 332 333 334 334 334 336 336 336
341 338 342 342 342 344 344 341 342 341 342 345 343 341 343 344 343 343 342 339 340 341 340 340 339 340 339 338 337 337 338 339 339 339 338 339 337 339 338 336 336 336 337 334 334 333 335 334 333 332 332 332 334 331 334 334 334 334 338 334 334 334
341 341 343 343 343 345 343 342 342 342 343 341 341 342 341 339 341 345 342 339 341 342 341 338 340 340 339 338 337 336 337 338 340 339 337 338 337 338 338 339 337 337 337 337 334 333 332 333 332 333 331 332 332 334 335 332 334 338 333 334 334 334
340 342 342 343 344 344 345 344 343 343 342 342 344 343 341 340 339 341 342 343 341 341 341 339 339 335 333 334 335 336 336 336 336 338 337 336 335 336 338 338 337 336 338 337 335 334 332 331 332 331 330 330 334 333 335 335 334 335 334 334 334 335
341 343 343 343 342 342 341 339 338 339 338 340 338 338 342 338 338 338 338 340 341 344 340 341 338 333 332 332 334 333 335 335 336 337 336 333 334 334 335 336 336 336 335 334 336 333 332 330 330 327 330 331 330 332 333 336 334 332 333 333 333 332
340 339 338 339 339 337 336 336 338 337 337 340 334 339 339 340 342 338 338 336 339 339 341 339 338 336 334 336 333 333 333 336 337 335 333 333 334 336 336 337 336 334 334 333 333 334 332 331 327 326 329 327 329 333 333 333 332 335 332 333 331 331
340 341 341 342 342 343 338 337 337 334 333 333 331 333 333 337 337 339 340 340 341 341 339 340 338 337 335 333 333 334 335 336 336 335 333 335 336 337 336 337 335 331 333 331 330 332 331 329 323 322 321 323 326 330 332 331 332 332 332 333 331 331
339 339 339 342 344 343 344 341 344 338 337 330 333 338 331 333 336 335 341 339 341 340 339 337 339 335 333 336 335 335 336 337 336 336 335 335 336 335 335 335 334 332 329 330 329 332 331 329 324 326 326 323 319 318 323 327 330 331 332 333 333 329
339 340 340 337 335 340 345 348 345 343 339 337 332 333 333 338 336 334 335 337 338 341 337 336 336 336 339 336 337 336 339 337 338 338 337 335 334 335 334 334 333 332 331 326 327 329 332 330 327 324 317 318 319 318 314 318 322 326 331 331 329 330
339 338 336 334 335 334 341 341 338 335 334 333 335 334 333 331 335 335 334 336 337 340 337 334 335 335 335 335 335 335 334 335 336 337 335 334 334 334 335 334 332 331 330 328 326 327 330 330 328 330 326 319 316 314 314 318 321 322 329 329 328 329
336 335 333 333 333 332 333 341 334 331 329 328 328 331 331 331 330 331 329 334 334 339 335 339 335 333 333 333 334 334 333 334 336 334 335 336 333 335 334 333 332 332 331 330 329 328 329 330 331 331 330 329 324 318 317 321 319 313 325 330 328 327
334 333 333 332 332 331 330 337 336 332 332 331 329 333 333 335 335 329 331 335 333 337 335 338 333 332 336 336 337 336 336 335 333 335 335 335 336 335 332 332 334 333 332 331 330 326 326 326 327 328 329 330 330 330 327 320 316 317 314 321 325 325
332 333 334 332 331 332 333 337 336 333 332 332 334 330 334 334 332 331 333 332 335 337 335 335 335 329 332 335 335 337 337 337 334 331 331 333 337 334 336 337 336 336 335 333 332 328 325 328 324 323 328 327 328 330 330 329 324 319 316 313 316 324
331 331 332 332 333 332 331 334 336 335 333 334 329 332 330 328 330 332 333 334 333 331 334 337 334 337 333 332 337 336 336 336 338 331 328 330 335 333 333 335 335 334 333 332 332 330 327 324 324 323 324 323 327 328 328 328 326 323 318 315 314 316
328 330 330 330 332 332 329 330 333 333 334 328 330 330 329 329 330 334 333 335 334 334 332 335 338 336 334 333 332 333 333 334 332 330 330 330 331 333 334 334 334 335 334 331 334 333 330 330 328 328 327 327 324 324 324 324 324 323 322 322 315 314
327 328 329 329 329 330 329 331 333 335 328 328 330 330 327 327 330 332 333 333 333 333 332 333 335 335 334 333 334 332 331 331 332 334 330 332 331 329 333 333 333 333 332 332 330 330 331 330 329 328 326 326 326 324 320 320 320 322 321 320 316 315
327 327 328 329 329 329 329 332 334 334 329 330 331 329 327 327 328 328 330 331 334 333 332 331 334 334 335 335 335 334 334 333 332 334 334 334 330 330 331 331 331 332 331 332 332 332 331 329 329 328 328 325 325 326 326 323 323 325 322 320 318 314
326 326 326 328 328 329 330 331 335 331 332 333 332 329 329 329 329 329 330 331 330 331 329 329 331 330 332 333 333 333 333 330 329 331 330 329 329 330 330 330 330 329 330 329 330 330 329 329 329 326 325 328 326 326 325 326 325 325 327 324 321 313
326 327 327 328 328 329 331 333 337 334 332 331 332 330 331 328 331 330 332 332 330 330 329 330 329 329 331 332 331 327 327 326 329 330 330 330 330 330 329 326 328 328 328 329 330 329 327 328 328 328 328 325 323 323 325 327 326 325 322 323 317 316
326 328 328 328 329 330 331 335 336 334 332 331 331 331 331 333 332 331 333 329 334 332 330 329 328 327 327 327 329 329 329 330 328 328 329 329 327 325 326 325 326 328 328 328 328 327 326 324 322 321 321 319 319 320 322 323 324 325 323 322 321 315
327 328 329 329 330 331 334 334 335 333 333 333 329 330 331 332 335 337 334 334 332 332 329 328 326 326 327 327 325 325 327 327 328 329 329 328 325 323 325 324 324 325 322 325 325 323 321 323 322 322 319 319 318 317 318 320 319 319 319 321 317 322
328 329 330 330 331 333 332 332 333 333 333 333 329 330 329 332 331 335 336 335 332 331 329 326 325 326 325 326 327 326 325 326 327 326 323 323 324 324 324 324 324 322 319 320 321 320 321 320 321 321 320 319 319 319 319 320 319 319 320 320 321 318

ECMWFFLT2_sfc_thetae_039.txt.gz
Theta_e
342 343 343 342 342 343 346 347 347 347 346 345 344 344 346 348 348 348 348 346 342 339 339 340 341 342 347 346 346 345 345 344 343 342 342 341 341 340 341 341 340 341 341 342 342 342 342 342 343 342 343 343 344 339 339 336 335 336 335 336 336 336
340 342 342 340 341 343 343 344 341 342 343 343 344 345 345 345 349 344 345 340 337 339 336 334 336 345 343 346 345 345 344 344 343 342 341 341 341 340 340 340 340 339 339 339 340 335 337 341 342 342 342 343 339 335 338 335 334 334 335 335 337 339
339 340 340 339 340 341 340 339 339 339 340 344 345 345 343 346 342 341 339 338 338 337 337 338 339 340 341 346 345 345 344 344 342 341 341 340 340 340 339 339 339 340 339 340 336 334 333 331 333 342 343 337 333 334 337 334 333 334 335 337 336 342
340 341 339 338 339 338 337 338 339 340 340 341 343 343 340 341 340 339 337 337 337 338 339 338 344 344 347 344 343 344 344 344 343 342 341 340 340 340 340 340 339 339 340 338 330 329 329 328 329 332 333 332 333 334 336 333 333 334 336 339 338 343
341 339 338 338 338 337 337 338 339 339 338 338 339 339 339 339 339 338 337 338 338 338 337 338 338 340 339 341 340 340 341 340 339 338 341 336 336 338 337 334 332 334 332 332 332 329 330 329 331 331 331 331 332 334 335 334 334 334 335 337 339 342
340 338 338 337 337 339 339 338 338 338 337 340 340 338 339 338 338 338 338 339 338 336 337 338 338 338 338 339 339 339 338 337 336 337 339 338 335 332 332 332 332 331 331 330 331 331 331 331 330 331 330 330 333 334 333 334 334 335 336 337 340 343
339 338 338 338 339 340 338 338 338 339 338 338 339 338 338 339 339 338 338 338 334 334 335 334 335 335 336 337 337 337 336 336 335 334 335 335 334 333 332 334 334 333 332 332 332 332 331 329 331 332 330 333 333 330 329 332 335 336 336 337 341 343
339 339 338 339 339 338 337 338 340 342 340 343 341 339 339 339 340 338 339 338 337 333 334 334 334 334 335 336 335 335 334 335 335 335 335 335 333 334 334 334 332 332 333 333 332 331 329 329 329 331 330 331 329 329 330 332 334 336 336 336 338 341
340 339 339 339 338 338 338 339 340 338 338 343 339 339 339 340 339 340 338 338 337 333 332 333 334 335 335 335 335 335 335 335 335 335 335 333 332 331 333 333 331 333 332 333 332 331 329 329 328 328 330 331 333 330 330 331 335 335 336 335 336 340
340 339 339 339 338 338 338 338 339 338 339 341 338 339 339 338 340 339 337 337 337 333 333 331 332 333 334 334 334 336 335 334 333 335 335 332 332 332 331 331 331 334 335 334 333 331 330 328 328 328 330 330 332 333 332 334 333 334 334 336 337 338
340 340 339 339 338 338 338 338 338 339 340 339 339 339 338 338 337 339 338 336 335 334 333 331 330 333 334 335 335 334 332 333 333 333 335 334 335 333 332 331 332 331 331 332 333 332 330 328 328 329 332 331 332 333 333 334 337 337 335 336 336 335
340 340 339 339 339 338 338 339 339 339 338 339 339 338 338 336 338 338 337 333 332 332 332 332 332 333 335 335 334 333 332 331 333 331 333 334 335 334 334 334 333 333 332 334 333 331 330 328 328 329 331 333 334 333 333 334 337 335 335 335 335 335
340 339 339 338 339 339 339 339 338 338 338 340 338 337 336 336 337 337 337 334 333 334 332 331 333 333 336 333 332 332 333 333 334 334 334 336 337 334 333 333 331 333 332 333 332 331 331 329 327 328 330 332 333 333 333 335 334 334 334 334 333 334
339 338 338 339 339 338 337 337 338 337 339 338 336 336 336 336 337 337 336 334 333 334 336 335 334 332 333 332 332 331 332 332 335 335 336 336 335 334 332 331 329 330 335 332 330 330 330 329 329 330 330 333 333 331 332 333 333 333 334 334 333 332
339 338 339 339 338 338 337 337 337 337 338 337 336 336 336 336 336 336 336 332 332 332 334 336 336 333 333 332 331 330 332 333 334 334 333 332 333 333 333 332 330 331 330 330 330 331 330 329 329 328 329 331 332 333 333 333 334 334 334 334 334 335
337 337 338 338 337 337 337 337 336 340 338 337 336 337 337 336 336 335 336 334 333 334 336 335 335 335 332 331 331 330 332 332 334 333 332 332 332 332 333 332 331 330 328 330 331 329 330 329 328 328 329 329 331 333 332 332 335 333 333 334 334 334
334 335 337 337 337 336 336 335 337 338 338 337 336 337 335 335 335 335 335 334 335 335 335 335 334 334 332 332 331 331 332 332 333 330 330 330 330 330 332 331 330 331 330 328 331 330 329 328 328 329 330 330 330 331 331 330 331 332 331 332 332 332
333 334 336 337 337 336 336 336 337 337 339 336 336 335 335 335 335 333 332 332 336 336 334 335 335 334 332 333 331 331 330 331 331 331 329 329 328 330 330 331 331 330 331 331 329 329 328 328 329 328 329 330 331 331 330 331 331 332 331 332 331 331
332 333 335 338 338 337 337 336 336 336 335 335 335 335 334 334 334 335 334 335 335 335 337 335 334 333 331 331 330 329 328 330 330 329 328 327 327 328 330 329 330 329 332 333 330 328 328 329 328 327 327 329 330 329 329 331 331 331 331 331 334 334
329 331 333 337 337 335 335 334 333 334 333 332 333 333 332 333 333 333 335 336 336 336 336 335 332 330 329 330 328 327 328 329 329 329 328 326 326 328 328 328 330 331 330 331 330 329 328 326 325 326 326 326 328 329 328 329 330 329 329 331 330 330
330 331 329 331 334 334 332 332 332 332 330 329 329 330 331 331 332 333 335 335 337 336 335 335 332 330 328 333 328 327 327 329 329 329 327 326 328 329 329 329 328 329 329 328 326 327 328 326 322 321 323 325 327 329 328 329 329 329 330 329 328 329
330 330 329 331 335 334 333 333 331 330 329 328 328 327 327 329 332 334 334 334 335 334 333 333 334 332 330 329 327 327 326 328 329 328 327 328 329 331 329 330 328 325 326 325 324 326 326 322 319 318 319 320 323 324 326 327 327 326 328 328 327 327
330 328 327 328 334 332 332 333 331 328 327 325 327 329 329 331 333 332 332 333 334 334 332 333 333 333 331 330 328 328 328 329 330 330 327 327 328 328 327 328 327 325 323 323 324 327 325 322 319 320 319 318 314 314 318 323 326 327 329 329 327 327
329 330 329 330 333 334 332 333 331 330 326 324 324 328 330 331 331 331 330 333 332 333 333 333 333 332 332 332 330 329 330 331 331 331 329 327 327 327 325 326 326 325 324 322 320 323 325 324 322 320 313 312 314 313 311 315 319 324 327 327 327 326
330 333 330 330 330 332 329 327 327 326 326 324 324 323 325 325 328 330 330 329 330 332 333 332 331 332 333 331 331 330 329 329 330 329 329 327 326 327 328 326 326 325 323 321 320 321 324 324 324 323 318 314 311 310 310 314 317 319 324 324 325 325
330 330 329 329 329 331 328 324 322 321 320 320 319 318 318 320 325 326 327 328 330 332 332 331 330 330 331 330 329 328 327 329 328 330 329 327 329 330 330 328 327 326 324 322 322 323 322 324 325 324 324 320 318 311 314 317 315 311 321 324 324 326
331 328 328 327 328 330 328 324 322 321 320 319 320 322 322 321 322 323 325 325 325 326 329 329 328 329 329 329 328 327 326 327 328 327 330 328 327 329 331 330 330 327 325 324 323 320 321 320 320 321 325 325 325 324 321 317 312 315 312 318 321 321
329 329 328 327 328 330 327 323 321 321 322 321 321 320 323 321 323 324 322 324 325 325 326 325 324 323 325 327 327 326 327 329 329 330 330 328 329 330 330 330 330 330 328 326 324 322 321 321 318 318 323 321 322 325 325 322 320 316 314 312 313 320
329 328 327 327 327 328 329 325 322 322 324 324 323 321 322 322 322 323 321 321 322 324 325 325 325 324 325 327 328 326 325 325 326 326 328 328 328 330 329 329 329 327 327 326 325 323 322 320 321 319 319 318 322 323 322 321 321 319 314 311 312 313
327 326 326 326 327 326 326 325 326 324 322 321 320 320 320 320 320 320 320 322 323 322 322 324 326 323 323 326 324 325 324 324 323 325 326 326 327 326 326 328 328 327 326 325 325 324 322 321 322 322 321 320 319 318 319 318 319 318 316 316 312 312
326 325 325 325 326 325 325 325 326 323 321 320 320 319 319 319 320 322 322 321 321 322 323 322 324 324 325 325 325 325 323 323 325 326 325 324 324 326 326 326 326 327 326 325 323 325 324 323 323 323 322 321 320 319 316 315 316 317 315 312 311 311
324 324 324 324 325 325 324 325 325 322 321 321 320 319 318 318 319 321 320 321 322 322 322 323 323 323 323 324 324 324 323 320 322 323 324 324 324 325 326 325 325 324 325 324 324 325 323 323 323 322 321 320 320 321 320 319 319 319 316 314 313 311
323 324 324 324 325 324 324 325 327 321 322 322 320 319 319 318 319 319 319 321 321 320 320 322 321 320 321 322 322 321 322 321 321 322 322 322 323 324 324 323 322 323 324 324 324 324 323 322 323 322 319 320 322 322 321 321 322 320 317 316 314 311
323 323 324 323 324 323 323 324 327 322 323 322 320 320 319 319 320 319 320 320 321 320 321 321 320 318 321 319 320 320 320 321 321 320 320 320 321 322 323 323 322 323 323 322 322 322 323 322 321 321 321 320 320 320 320 322 322 321 317 315 312 310
322 322 322 322 323 324 324 326 326 324 323 322 321 320 320 321 321 320 320 319 321 321 322 321 319 319 320 320 320 321 321 319 318 318 319 319 321 320 320 321 322 320 320 320 319 318 316 316 317 315 314 316 319 320 321 321 320 321 320 317 315 310
321 321 321 322 323 325 325 327 326 323 323 323 322 322 321 323 323 320 319 322 322 321 319 318 318 319 319 318 318 319 319 318 319 319 317 316 318 318 318 317 317 318 318 321 316 316 314 313 312 312 312 312 313 314 317 319 320 318 319 320 318 310
321 322 323 322 323 324 325 326 324 324 323 321 321 321 320 320 321 321 323 322 321 319 318 317 319 318 316 316 317 318 318 317 316 315 314 316 317 317 316 314 313 313 313 314 315 313 313 314 312 313 314 313 313 313 313 313 314 315 316 314 315 313

ECMWFFLT2_sfc_thetae_042.txt.gz
Theta_e
344 345 346 345 345 345 348 349 348 348 348 349 348 349 349 349 349 349 347 346 343 341 339 340 342 343 347 345 346 345 344 344 344 343 343 343 343 342 342 342 341 341 341 341 341 342 342 342 342 342 343 343 341 336 334 331 331 333 333 334 335 334
344 344 345 345 345 345 346 345 342 343 344 345 347 348 346 346 349 344 344 339 337 339 334 334 339 347 343 345 344 344 344 343 343 343 342 342 341 341 341 341 340 340 340 339 340 331 334 340 340 340 342 342 334 333 332 332 332 332 333 332 335 339
342 342 343 343 344 344 340 339 339 340 342 345 347 345 344 344 338 337 336 336 336 334 334 336 338 343 343 344 344 344 344 342 342 342 342 342 341 341 340 340 340 340 339 339 333 329 328 327 327 339 341 333 331 332 332 332 332 333 333 334 333 341
341 341 341 341 341 339 337 337 337 338 339 341 341 341 340 338 336 335 334 334 335 336 334 335 345 346 347 342 342 344 344 342 342 341 341 341 341 340 341 341 340 339 338 334 325 325 326 325 325 325 329 330 331 332 331 332 332 333 334 337 336 342
340 339 340 340 338 337 336 336 336 337 339 339 338 337 337 336 335 335 335 335 336 336 334 334 336 338 338 339 337 338 339 338 337 337 340 334 333 335 334 331 330 331 329 330 329 327 327 327 328 328 329 329 332 332 332 332 333 333 334 335 337 341
338 337 338 338 336 338 338 336 336 337 337 337 337 337 336 335 335 335 335 336 337 335 335 335 335 336 337 337 337 336 336 334 334 335 337 333 332 331 331 331 331 331 330 330 331 331 329 331 328 328 329 330 331 332 331 332 332 332 333 334 338 341
337 335 336 336 337 337 336 337 336 336 337 336 337 336 335 335 335 335 335 336 334 333 333 333 334 333 333 334 334 332 333 332 332 331 334 332 331 331 331 332 331 330 328 330 331 330 328 327 326 329 329 330 329 331 331 332 333 333 332 334 340 342
336 335 335 337 337 336 335 336 337 341 338 342 338 336 336 335 335 335 335 335 336 332 332 332 332 333 333 333 332 330 330 331 330 331 332 333 331 331 331 331 331 330 331 331 330 330 328 327 327 329 328 328 327 328 330 332 334 334 332 334 337 341
336 335 336 337 336 336 336 337 337 337 338 343 336 336 337 336 335 335 335 336 336 332 331 331 331 332 332 332 331 331 331 330 329 330 330 330 330 329 330 330 330 332 330 330 328 328 328 328 329 329 329 328 328 328 330 332 333 334 333 333 335 339
336 336 337 337 336 336 336 336 336 337 338 340 336 336 337 335 335 335 334 334 334 332 332 332 331 331 331 330 330 331 331 329 329 331 330 329 330 330 330 329 329 331 331 329 328 329 327 327 329 329 329 329 328 329 329 332 332 333 333 333 335 338
337 338 338 336 336 336 336 336 336 337 338 337 337 337 336 335 335 334 334 334 333 333 331 330 331 332 330 330 330 331 331 331 332 331 331 330 330 331 330 330 329 329 330 329 328 327 327 327 327 328 328 330 330 330 331 332 333 333 334 333 333 335
338 338 337 337 337 336 336 337 337 337 337 337 337 336 335 335 336 334 334 332 331 332 332 329 330 331 332 331 330 329 329 330 330 330 332 332 332 332 331 331 332 330 331 330 328 326 327 327 327 329 330 331 331 331 331 333 333 334 333 332 333 333
338 338 337 337 337 337 337 338 337 337 337 337 336 335 334 334 335 334 333 331 331 331 331 330 329 332 335 331 329 328 328 329 330 330 332 334 334 333 333 331 328 333 331 328 327 326 328 327 326 327 330 331 331 332 333 333 333 333 333 333 332 333
338 337 337 337 337 337 337 337 337 337 337 336 335 334 335 334 335 334 332 331 331 331 331 330 331 331 331 331 330 330 329 329 330 330 331 333 332 332 333 331 328 329 331 327 326 325 326 327 328 328 329 330 330 330 332 332 332 332 331 331 331 331
338 337 338 337 337 336 337 337 336 336 336 335 334 334 333 334 334 334 332 330 331 332 332 332 332 332 331 331 330 329 329 330 332 332 333 332 333 333 332 330 329 328 326 327 327 326 327 327 327 328 328 329 329 331 331 331 332 332 332 331 331 330
336 336 336 337 336 336 336 336 336 339 335 335 334 333 333 334 334 334 332 330 330 332 333 333 332 332 331 330 329 328 329 330 333 332 332 331 332 330 329 329 328 328 326 325 327 325 326 326 327 327 328 329 329 329 329 329 331 332 332 333 333 331
335 336 336 336 335 335 335 335 335 337 335 334 333 333 333 333 333 333 332 330 330 332 332 332 332 331 331 330 328 329 328 331 331 330 329 328 328 329 329 329 328 327 327 325 325 325 325 326 327 327 328 328 328 328 328 328 329 330 332 332 332 332
333 331 329 330 333 335 335 335 335 336 336 334 334 334 333 333 332 332 331 331 332 333 332 331 331 330 329 330 329 329 329 330 330 329 329 327 328 328 328 328 327 328 329 327 325 325 325 326 327 327 327 328 328 328 328 328 329 332 330 330 330 331
330 328 328 329 328 329 334 335 335 335 335 333 333 333 332 331 331 331 329 330 330 332 333 330 331 330 330 330 328 328 329 328 330 329 328 327 327 328 328 326 327 328 329 327 325 325 326 326 326 327 327 327 327 327 328 328 328 328 329 330 333 333
329 329 328 328 327 327 329 333 331 331 332 332 332 332 331 331 331 330 330 330 330 331 332 331 329 328 329 328 327 327 328 328 328 328 326 326 325 326 327 328 326 328 326 327 327 326 325 325 324 324 325 326 326 327 328 327 327 328 328 328 329 329
328 329 328 326 327 327 327 330 328 330 330 330 330 330 330 328 331 330 332 332 332 332 332 330 329 328 328 332 327 326 327 325 327 328 326 325 326 326 326 328 327 325 325 324 324 325 325 325 324 322 325 324 323 325 328 327 326 327 327 327 327 327
328 328 328 328 327 327 330 331 329 329 328 328 329 328 326 326 330 331 330 331 332 332 331 329 329 327 328 327 326 326 327 326 327 326 326 326 326 329 328 328 327 324 323 321 322 324 324 323 319 320 319 318 320 322 325 326 326 327 326 328 327 327
327 327 327 328 327 326 329 332 331 330 329 324 327 328 328 329 332 331 329 330 331 331 331 330 329 329 328 326 326 326 326 326 327 328 325 325 325 325 326 326 325 325 322 322 323 324 322 319 319 320 320 317 315 313 316 318 322 325 327 327 326 326
328 327 327 327 327 328 331 332 330 329 326 326 325 328 328 329 329 329 329 331 329 330 330 330 330 329 329 327 326 325 326 326 327 327 325 324 324 324 324 324 323 323 323 320 318 322 323 322 322 321 312 311 312 311 309 313 315 320 324 325 326 326
328 326 326 328 328 329 328 327 325 324 325 325 326 326 326 323 326 328 328 327 329 327 329 330 329 328 329 327 326 326 327 327 327 327 327 325 325 325 326 325 324 323 321 320 319 319 322 323 321 322 319 314 311 309 308 311 316 317 321 322 325 324
327 327 327 328 329 328 327 324 322 321 321 321 321 322 322 323 322 324 326 325 327 327 328 326 326 327 328 328 326 326 325 328 326 327 327 326 326 326 322 324 325 324 320 318 322 319 319 321 321 322 319 317 317 312 311 314 313 310 319 322 323 323
328 328 328 328 329 327 324 323 322 322 322 321 320 319 320 322 324 322 323 324 326 325 327 327 324 325 326 326 324 324 324 326 327 326 328 326 326 327 327 327 326 324 322 322 321 317 319 318 318 319 321 321 322 321 320 316 309 313 312 316 317 319
328 328 328 328 327 326 323 322 321 321 321 320 320 319 321 321 320 321 320 322 324 325 326 326 325 324 324 325 323 323 322 324 325 325 327 327 325 326 328 327 327 325 324 323 322 321 318 318 318 317 320 317 319 320 320 317 317 314 312 311 313 318
327 327 326 327 326 324 323 322 321 320 320 320 320 319 320 321 320 319 319 318 321 321 322 322 322 324 323 324 325 324 322 323 324 324 326 325 324 327 327 326 325 325 323 321 321 321 321 319 318 318 317 316 319 318 318 318 317 316 311 311 309 312
326 326 325 326 326 323 322 322 320 321 320 319 319 318 319 318 318 317 318 318 318 318 319 319 319 320 321 323 323 322 320 321 323 324 325 323 324 324 325 326 326 325 323 322 321 321 320 319 319 320 319 319 317 315 315 315 314 314 315 312 312 312
326 325 325 325 325 322 321 321 321 321 320 317 317 317 317 316 316 317 319 317 317 318 318 319 320 319 320 321 320 322 321 322 323 325 324 323 323 324 324 325 324 323 323 323 320 320 318 318 319 319 318 319 318 318 316 313 313 314 312 310 312 312
324 324 324 324 324 323 323 322 322 320 318 318 318 318 317 316 317 318 318 317 316 317 317 318 318 317 318 320 320 318 320 320 321 321 321 322 323 324 324 324 323 322 322 320 321 321 319 318 318 318 317 318 318 316 316 316 316 315 313 313 314 312
324 323 322 322 323 323 323 322 321 319 318 319 318 317 317 317 317 318 318 317 316 317 316 317 316 317 316 318 319 318 318 317 317 319 321 322 321 322 322 322 321 321 321 321 322 321 319 319 319 319 319 318 319 318 317 316 317 315 314 314 313 310
323 322 320 320 321 322 322 322 320 320 319 318 317 317 317 318 318 318 319 318 317 318 317 316 315 315 315 317 317 318 318 317 316 317 320 320 320 319 320 321 321 320 319 318 319 319 319 317 317 316 317 318 318 317 318 319 318 315 314 312 310 309
321 320 320 320 319 320 320 321 319 319 318 317 317 317 317 318 318 318 319 318 318 318 318 317 317 315 316 316 316 316 315 316 316 316 318 319 320 319 320 321 320 318 318 317 317 317 316 318 318 317 315 317 318 318 318 320 316 316 315 314 312 309
321 320 318 319 319 319 320 322 320 318 318 318 319 318 317 318 317 319 319 319 318 318 318 316 316 316 316 317 315 315 315 315 315 315 316 317 317 317 316 316 315 315 314 317 312 311 311 313 313 313 313 314 318 317 319 319 318 316 315 314 312 309
320 320 319 318 319 321 322 323 321 320 318 318 318 317 318 318 317 318 320 320 319 316 316 316 317 316 315 314 314 315 315 313 313 313 314 315 316 315 314 315 314 312 311 311 313 311 310 310 309 310 311 313 314 315 316 316 317 317 316 314 313 307

ECMWFFLT2_sfc_thetae_045.txt.gz
Theta_e
347 347 347 346 345 345 346 348 348 349 349 348 348 349 347 346 345 346 346 346 344 340 340 342 343 344 346 345 346 345 344 344 343 343 343 343 342 342 342 342 341 340 341 341 341 342 340 339 340 342 342 343 342 331 330 330 330 332 331 333 334 331
346 346 346 345 345 344 344 345 343 345 345 346 346 346 344 344 346 343 345 341 338 340 338 339 342 346 343 345 343 344 344 343 343 343 343 342 342 341 341 341 341 340 340 339 340 328 330 337 339 341 341 340 332 330 330 330 330 331 332 331 333 337
345 345 345 345 345 344 342 341 341 342 345 345 345 344 343 342 337 336 337 337 337 335 337 338 339 343 342 344 344 344 343 343 342 342 342 342 341 340 340 340 340 340 340 338 325 323 324 323 326 340 340 334 330 330 330 330 330 331 330 332 331 340
344 345 344 343 342 341 340 340 340 340 340 340 341 341 339 338 336 334 334 334 335 336 334 334 346 347 346 342 342 343 343 342 342 342 342 342 341 340 340 339 338 337 334 331 322 323 325 325 325 327 330 330 329 330 330 330 330 330 331 336 333 340
344 343 342 342 340 338 339 339 339 340 341 340 339 338 337 336 335 333 333 334 334 336 334 335 337 338 337 337 336 336 335 336 336 337 339 333 332 334 330 327 327 329 325 327 327 326 327 326 327 329 329 330 330 329 330 330 330 329 330 331 334 341
342 342 341 340 338 339 338 338 339 340 339 339 339 337 336 335 334 334 333 335 336 333 332 333 334 333 332 334 334 333 334 334 334 335 336 332 331 329 327 327 328 328 326 327 329 329 328 328 327 327 329 329 329 330 330 330 331 331 329 330 335 340
339 339 339 339 339 338 337 338 339 339 338 338 338 336 335 335 335 334 333 336 334 332 331 330 332 331 332 333 334 333 332 330 330 329 332 330 329 329 328 328 327 326 326 329 330 329 326 325 327 328 329 329 329 330 330 330 331 330 331 331 337 339
338 338 337 339 338 337 337 338 339 341 337 340 338 336 335 334 334 333 333 334 335 331 331 331 330 332 333 332 329 329 329 329 328 329 331 329 329 328 329 327 327 327 329 330 330 328 326 325 326 328 329 328 328 328 329 330 331 331 331 333 335 340
337 337 337 337 337 337 337 338 339 337 338 341 336 336 335 334 333 333 332 334 335 330 329 330 330 330 330 330 327 327 328 327 327 328 328 328 328 327 328 328 329 330 327 328 326 325 326 327 326 327 328 328 329 328 330 330 331 331 331 332 335 338
336 336 336 337 336 336 336 335 336 336 338 339 335 334 334 333 334 334 332 333 333 331 331 330 329 328 329 329 330 329 327 328 330 330 327 327 328 328 328 327 328 329 328 326 325 327 325 327 328 327 328 329 329 330 330 331 331 331 331 332 333 336
336 337 336 335 335 335 335 335 336 336 337 335 335 335 333 333 334 333 332 332 332 332 330 330 330 329 329 330 330 330 328 330 330 330 328 328 330 330 329 328 328 327 326 325 326 325 325 326 327 328 329 329 329 330 331 331 331 332 332 332 332 332
336 336 335 334 335 335 334 335 336 336 335 334 335 333 334 335 335 333 331 331 330 331 332 330 330 329 329 329 329 328 330 329 328 330 329 330 332 332 331 331 331 330 330 327 325 325 326 327 328 329 329 330 330 331 331 331 332 332 331 331 331 332
337 336 334 334 335 335 334 336 335 335 335 336 335 333 333 335 334 333 331 330 329 330 330 330 329 331 332 329 327 326 327 328 327 328 331 333 333 333 333 332 330 330 327 325 325 325 327 326 327 328 329 330 331 331 332 332 331 331 331 330 330 329
336 335 335 335 334 335 335 335 335 335 336 335 334 333 333 332 334 332 330 328 328 329 328 328 329 329 329 328 327 326 325 328 329 330 332 333 332 331 330 329 328 325 329 324 323 324 325 326 327 327 328 329 330 330 331 332 331 331 330 330 329 330
337 335 336 335 335 335 335 335 335 335 335 334 333 332 330 332 334 332 329 327 328 329 327 328 328 329 327 327 326 325 325 329 331 331 332 331 332 332 329 329 328 325 323 323 324 326 325 325 326 327 327 328 329 330 331 330 330 330 330 328 329 328
336 335 335 335 335 335 336 335 335 337 334 333 332 332 330 331 332 330 329 328 327 328 327 328 328 329 328 326 327 326 328 330 332 331 332 331 331 331 329 328 327 324 323 323 324 323 324 325 326 326 327 328 328 329 328 329 330 330 330 330 329 328
334 335 335 335 335 335 335 335 335 336 334 333 332 330 329 330 331 331 329 327 328 329 327 329 328 329 329 328 324 326 327 330 331 331 331 331 330 330 328 328 327 326 322 322 322 323 324 326 327 327 327 327 327 327 328 328 328 328 330 329 328 328
335 335 335 334 334 334 334 334 334 334 335 332 331 329 330 331 331 330 329 327 327 329 330 328 329 329 327 327 327 327 326 325 328 329 329 329 328 329 328 328 327 327 326 323 322 324 325 326 327 327 327 327 327 327 328 328 328 331 328 328 328 329
333 332 331 331 331 330 330 331 331 333 333 331 330 329 329 329 328 330 329 329 329 331 332 329 330 329 327 329 327 326 328 326 326 327 328 329 328 327 327 326 327 325 325 323 323 324 325 326 327 327 326 326 327 327 328 328 327 326 325 329 331 331
330 329 329 328 328 328 329 331 330 331 331 329 328 329 328 329 329 329 330 330 330 330 331 330 328 328 328 328 327 326 327 327 326 327 327 327 326 326 326 327 325 324 324 325 324 323 324 325 325 325 324 324 325 328 328 327 326 326 327 328 328 327
328 328 328 327 327 327 327 329 328 329 329 328 329 328 329 327 328 328 328 329 329 330 330 329 329 328 327 331 327 325 327 327 327 327 326 326 327 327 327 327 324 323 323 322 321 320 322 323 323 321 322 322 323 326 328 328 327 327 326 326 326 325
327 328 327 327 327 327 327 331 329 327 326 328 329 328 325 324 327 329 328 328 329 329 329 328 329 327 328 327 325 325 325 326 326 325 325 325 327 328 327 327 325 322 321 320 318 320 321 318 316 317 318 317 320 322 325 325 326 326 326 326 326 326
327 327 327 327 327 326 327 329 329 327 329 324 326 328 327 327 330 328 326 328 329 329 328 327 327 328 327 325 325 325 325 325 325 327 325 326 327 327 326 326 323 322 321 320 320 321 320 318 315 316 315 316 314 316 318 320 323 325 326 326 326 326
327 327 326 327 327 326 328 329 328 329 327 326 324 327 326 327 327 327 326 328 326 327 327 327 326 327 325 325 324 325 325 324 325 325 324 324 325 325 325 324 323 322 321 318 316 320 323 320 317 318 311 309 312 313 312 315 318 321 326 325 325 325
327 327 326 327 327 327 329 326 325 325 326 326 326 324 325 322 324 326 325 325 325 325 327 326 325 325 326 323 322 324 325 325 324 323 324 323 324 324 323 323 324 323 322 320 317 319 322 321 319 319 315 311 307 308 309 314 318 318 323 324 325 326
326 326 326 326 327 328 329 325 323 323 322 320 320 321 322 323 321 324 326 323 324 325 327 326 325 326 327 325 323 324 324 325 324 323 324 323 323 323 323 322 324 323 320 318 320 318 319 321 320 320 319 315 313 308 310 316 316 311 319 322 323 324
327 326 326 326 327 327 326 325 324 323 323 322 321 318 320 322 324 321 322 322 322 322 324 325 323 323 324 324 323 323 324 325 326 324 324 324 324 324 324 325 324 322 321 321 319 317 317 318 318 319 320 319 319 315 318 317 310 314 312 317 319 319
327 326 326 326 326 327 326 324 322 321 322 321 321 319 319 321 319 320 320 321 322 321 322 321 322 322 322 324 322 322 321 323 324 324 325 324 324 324 324 324 325 324 322 323 321 319 317 316 319 317 319 317 318 317 315 313 315 315 314 313 315 318
326 326 325 326 326 326 325 323 322 321 321 320 321 321 321 320 319 318 318 317 320 320 320 320 320 321 320 322 324 321 320 322 322 323 325 324 321 325 324 323 323 322 322 321 321 320 319 319 316 317 317 315 316 314 314 314 315 313 311 313 313 314
326 326 325 325 325 324 323 322 321 321 320 318 319 319 319 317 316 316 317 315 317 317 316 317 317 318 319 320 321 320 320 321 322 323 325 323 321 323 323 324 324 323 321 320 318 320 320 320 318 316 317 317 313 311 313 312 311 312 313 310 313 314
325 325 324 325 323 322 321 321 321 321 320 318 317 319 317 314 314 314 316 313 315 315 315 315 317 316 317 318 317 319 318 320 320 324 324 321 323 324 323 324 324 322 321 321 319 319 318 318 318 318 316 317 317 317 314 311 312 312 310 310 312 311
324 324 323 324 322 320 321 321 321 321 319 318 318 319 318 315 315 316 315 314 313 314 314 315 315 316 316 317 316 316 318 319 321 318 318 320 321 322 323 322 322 322 322 320 319 319 318 317 317 317 315 316 315 314 313 314 314 314 313 314 315 311
323 321 322 322 320 319 320 320 320 320 319 318 319 319 317 315 315 316 315 315 314 314 314 315 314 317 314 314 316 315 316 318 317 317 317 318 318 319 321 320 321 320 320 320 319 318 317 318 318 318 317 315 316 315 314 314 315 313 313 314 315 311
322 321 320 320 320 319 319 320 320 319 319 319 318 318 316 316 315 316 316 316 315 315 314 315 314 315 315 315 315 315 315 315 316 316 317 316 316 317 318 320 319 319 319 318 318 318 317 316 315 314 315 315 315 315 314 316 314 314 314 314 311 309
321 320 321 320 320 320 320 318 317 317 318 318 318 317 317 318 316 316 315 316 315 314 315 314 315 314 314 314 314 313 313 314 314 315 316 316 318 316 316 317 316 315 315 316 318 317 316 316 316 315 314 315 315 314 315 315 314 314 315 315 312 308
321 321 321 320 320 320 320 318 317 317 317 318 318 317 317 318 317 318 317 317 316 315 315 314 312 314 313 315 313 313 312 312 313 314 315 314 313 315 314 315 312 312 312 315 315 315 316 317 316 315 316 313 315 314 316 316 314 314 313 312 311 308
320 321 320 319 319 320 321 318 317 317 317 317 317 317 317 316 317 318 317 316 317 315 314 313 314 313 313 311 312 311 311 311 312 312 313 313 313 311 312 312 311 309 308 308 312 312 312 315 313 314 314 315 315 314 315 314 314 313 312 310 309 307

ECMWFFLT2_sfc_thetae_048.txt.gz
Theta_e
347 347 347 346 345 345 348 350 348 349 349 348 348 347 348 347 347 347 346 346 345 342 342 343 344 344 347 346 346 345 344 344 343 343 343 343 342 342 342 342 342 341 341 341 339 340 340 342 343 344 344 342 342 334 333 333 333 335 334 337 337 334
346 345 345 345 344 344 344 346 343 344 345 345 345 346 345 344 347 344 346 342 340 342 339 339 342 346 344 345 343 344 344 343 343 343 342 341 341 341 340 340 340 340 339 338 338 328 331 341 343 344 345 343 333 332 332 332 333 334 335 334 335 338
346 345 345 344 343 343 342 343 343 343 343 344 344 345 343 342 338 338 338 339 339 338 339 340 341 344 344 344 344 344 343 343 342 341 341 341 339 339 339 339 341 339 338 335 327 326 326 326 335 344 344 334 331 331 332 332 332 333 333 335 334 340
345 345 344 343 343 343 343 343 343 343 343 342 342 342 340 339 337 336 336 336 337 338 337 339 345 346 347 341 342 343 343 342 342 341 341 341 341 340 340 339 338 337 334 330 327 328 327 327 329 332 332 331 331 331 331 332 332 332 333 338 334 339
345 344 343 342 341 341 342 342 342 342 341 341 339 339 338 336 335 334 335 336 336 336 335 336 337 337 337 337 336 336 335 335 335 336 337 332 331 332 331 329 329 331 327 329 328 327 328 329 330 332 331 331 331 331 331 332 332 332 334 336 338 340
344 343 342 341 340 341 341 340 341 341 340 339 339 338 337 335 335 335 334 336 337 334 334 335 335 335 334 334 334 333 333 333 333 333 334 330 330 330 330 330 330 330 329 329 329 329 330 330 329 331 331 331 331 331 331 332 333 334 334 336 340 340
342 341 341 341 341 340 340 341 340 340 339 338 337 336 335 335 335 335 334 336 334 332 333 334 334 334 334 333 332 331 331 331 331 331 333 330 330 330 330 330 329 329 329 329 329 328 327 327 330 331 331 330 331 331 332 332 333 334 334 336 340 340
341 340 339 340 338 338 339 339 340 341 339 339 337 335 334 334 334 334 334 335 335 332 333 334 333 334 333 332 330 330 330 330 330 330 331 330 330 329 330 329 329 328 329 328 328 327 326 327 329 331 330 330 330 331 332 333 333 334 334 335 338 340
340 339 339 339 337 338 338 339 340 339 338 340 336 335 334 334 332 333 333 335 335 331 331 333 333 333 333 331 329 329 329 328 328 329 329 328 329 329 328 329 328 329 327 326 326 327 328 328 329 330 330 330 331 330 332 333 334 334 335 336 337 340
339 339 338 338 337 337 338 338 338 339 339 338 335 334 334 333 332 332 331 332 333 331 331 331 332 331 331 329 330 330 329 328 330 331 328 328 329 329 328 328 328 327 327 326 328 329 328 328 329 330 330 331 331 332 333 333 334 334 334 335 337 340
339 338 338 337 336 337 338 337 338 339 339 336 336 335 334 333 333 332 331 332 331 332 330 330 331 330 329 329 330 329 328 329 329 329 328 329 330 330 329 328 328 327 326 325 326 328 328 328 328 329 331 331 331 333 333 334 334 334 334 335 335 337
338 337 337 336 337 336 337 337 338 338 336 336 336 334 333 333 333 332 331 330 330 331 332 329 329 328 329 330 329 328 328 328 328 329 329 330 331 331 330 331 331 330 328 327 326 327 328 329 328 329 330 331 332 333 333 333 334 334 334 333 333 335
337 337 336 335 336 337 337 337 337 337 336 336 335 334 333 334 333 333 332 330 329 331 331 329 328 330 331 329 328 327 328 329 329 331 332 333 332 333 332 331 329 328 326 326 327 327 328 328 328 329 331 332 333 333 333 333 332 333 333 332 333 333
337 336 336 336 336 336 336 337 337 336 336 335 333 333 334 334 334 333 332 329 329 331 329 329 329 329 328 327 326 327 328 329 330 332 333 332 331 331 329 329 327 327 328 325 325 326 327 327 328 330 331 332 332 333 333 331 331 332 332 332 332 332
336 335 336 335 335 335 335 336 336 336 335 334 332 332 333 334 334 333 331 329 329 331 329 330 329 329 328 327 326 326 327 329 330 332 332 331 331 330 329 327 327 325 324 325 326 327 327 327 328 329 329 331 331 332 332 331 331 332 332 331 331 331
336 335 334 335 334 334 334 335 336 337 335 334 332 332 333 334 334 333 331 328 329 331 329 330 330 329 328 327 327 327 328 330 332 332 332 332 331 328 328 327 327 325 324 324 325 325 327 327 328 328 329 330 331 331 330 330 330 331 331 331 330 330
334 333 332 333 333 333 334 334 335 336 334 332 331 331 332 334 333 332 330 328 329 331 329 330 330 329 328 327 327 328 329 331 332 333 333 332 330 329 328 327 326 326 324 323 324 325 326 328 328 328 329 329 330 330 329 330 330 330 331 328 329 331
334 334 332 332 333 333 334 334 334 334 334 331 330 331 332 333 333 332 330 327 329 331 330 330 329 328 328 328 327 328 330 330 331 332 333 331 329 329 329 328 325 326 326 324 324 325 325 327 328 328 328 328 328 329 328 330 331 331 329 329 329 332
335 334 332 332 332 332 333 334 334 333 331 330 330 330 331 331 332 333 330 328 329 331 331 330 330 329 328 330 328 328 329 328 328 329 331 330 328 328 328 327 326 325 325 325 326 326 327 327 327 327 327 328 328 328 328 328 328 329 329 329 331 331
334 334 333 332 332 332 333 333 332 332 331 330 329 330 329 330 330 332 331 329 329 330 331 330 329 329 329 330 329 328 328 327 327 328 330 328 326 326 327 326 325 325 325 326 327 327 327 326 326 326 325 326 328 329 328 328 328 328 329 330 329 329
332 332 332 330 331 331 331 331 332 332 331 329 329 329 328 327 328 329 330 330 330 331 330 330 329 329 328 332 329 329 328 326 327 327 330 329 328 328 329 328 325 325 324 324 324 325 326 326 324 322 324 324 325 328 327 326 325 326 326 327 328 328
330 331 331 331 331 331 332 332 332 331 330 329 329 328 325 326 327 329 329 329 330 330 330 329 330 328 329 329 326 328 329 327 327 327 328 327 325 328 328 326 325 323 324 324 323 325 324 321 319 320 319 319 322 324 325 325 325 325 326 326 326 326
329 329 329 329 329 329 330 332 332 330 330 325 325 327 327 328 330 328 327 328 329 329 328 328 329 329 328 328 328 329 329 328 327 328 327 327 326 326 327 325 324 324 322 322 323 322 321 320 318 320 320 319 316 317 320 322 325 326 326 325 326 325
329 329 328 329 328 327 330 330 329 329 327 325 324 327 326 327 326 327 327 328 328 327 327 327 328 329 328 327 327 328 328 328 327 328 328 328 328 327 326 324 323 323 323 321 321 322 323 322 320 320 314 312 314 316 313 316 319 322 326 325 325 324
328 327 328 329 327 328 328 326 326 326 327 326 326 324 324 322 323 326 326 328 328 328 327 327 327 327 327 325 325 326 327 327 327 325 328 327 328 328 327 325 324 323 323 323 319 319 322 323 320 321 317 313 313 313 314 316 319 319 324 323 324 324
327 327 328 327 327 329 328 326 325 325 323 321 321 322 322 323 322 325 325 325 327 328 328 327 326 326 327 325 324 324 326 326 325 324 326 327 327 328 326 324 324 324 322 322 322 319 320 322 323 323 319 318 316 313 314 319 318 312 320 323 323 325
327 327 327 327 327 328 326 325 326 325 324 323 322 319 319 321 324 321 324 325 325 326 327 326 325 325 325 325 324 324 325 326 326 324 327 325 325 327 327 326 325 324 323 322 321 320 319 319 321 321 320 320 321 317 322 319 314 316 313 318 321 321
327 326 326 326 327 328 326 325 324 324 324 322 323 321 321 321 320 323 323 323 324 324 324 324 324 324 324 325 324 323 324 325 325 325 327 325 325 325 325 326 326 325 323 323 322 321 319 319 321 320 320 318 318 319 318 317 320 318 316 313 313 318
326 326 325 326 326 326 326 325 324 323 322 322 322 321 321 322 321 322 321 320 322 322 321 320 322 323 323 325 327 324 323 324 324 325 328 325 324 324 325 325 324 323 322 322 322 322 321 320 320 319 318 316 318 317 317 318 319 319 317 315 314 314
325 325 325 325 326 324 325 324 322 322 322 320 320 319 320 318 318 319 319 318 318 319 317 317 318 320 321 322 324 324 322 324 325 325 328 325 324 324 323 324 325 324 323 322 322 322 321 321 321 320 321 319 316 315 316 316 316 318 318 318 314 313
323 323 324 325 325 323 322 323 323 322 321 319 319 319 317 315 316 317 318 317 317 315 314 315 317 317 318 320 320 323 322 322 323 326 327 324 324 325 324 324 324 323 323 322 321 321 321 320 321 319 318 320 319 318 317 315 315 317 317 316 315 314
324 324 323 324 323 321 322 322 322 321 320 319 320 320 318 316 316 317 316 316 314 315 314 315 316 317 317 317 319 319 321 321 323 323 324 323 323 324 325 324 324 323 323 321 321 321 320 320 319 319 319 319 319 318 315 317 318 318 318 318 317 314
324 324 323 323 322 320 320 320 320 320 319 320 320 319 317 316 316 316 315 315 315 315 313 316 316 317 317 316 317 317 318 320 321 322 321 321 321 322 323 323 323 323 322 321 321 320 320 319 319 320 320 319 319 317 316 318 318 318 319 320 317 312
324 323 322 321 321 319 319 319 320 320 319 320 319 319 317 316 315 316 316 316 316 316 316 317 316 317 316 315 316 317 319 318 318 319 319 319 320 321 322 323 323 322 322 322 320 319 319 319 318 319 319 319 319 318 316 318 318 319 319 318 315 312
320 319 320 319 319 318 318 318 319 319 319 319 319 318 317 317 316 316 316 316 315 315 316 315 317 316 316 315 315 314 316 316 317 318 318 319 320 320 320 321 321 320 320 319 320 320 319 318 318 318 318 320 318 317 317 317 318 320 321 319 316 313
318 318 318 317 317 316 316 316 317 317 317 319 319 317 317 317 317 317 316 316 315 315 316 315 314 315 314 315 314 314 316 315 316 316 317 317 317 318 318 318 317 318 318 319 319 318 318 317 318 317 319 317 318 317 317 317 318 319 320 319 316 314
318 318 319 318 318 317 317 316 316 316 316 317 317 317 317 316 317 316 316 315 315 314 314 314 315 315 314 312 312 312 313 314 315 315 315 315 315 315 316 317 315 314 315 314 318 318 317 318 317 317 318 318 319 317 317 316 316 317 317 316 315 315

ECMWFFLT2_sfc_thetae_051.txt.gz
Theta_e
351 350 348 352 353 351 350 349 350 350 349 349 348 348 349 348 347 346 346 346 346 349 351 350 348 348 347 347 345 344 345 345 345 345 344 343 343 343 343 342 341 341 339 338 340 342 343 344 343 343 343 343 343 342 342 341 340 338 337 337 337 335
350 350 351 351 351 348 349 349 349 349 349 349 348 348 349 350 348 349 346 348 351 351 351 349 348 347 347 345 345 344 344 343 343 343 342 342 341 341 341 340 340 339 337 337 337 342 345 344 344 343 343 343 342 341 342 341 340 337 337 337 339 338
348 350 349 350 349 349 352 351 349 349 349 347 348 348 350 349 350 349 349 348 350 349 346 346 347 345 345 344 344 344 344 343 342 342 341 340 341 341 341 340 339 338 336 334 337 338 342 345 346 343 344 343 341 341 342 341 340 338 337 338 339 338
347 347 347 347 347 348 349 350 349 350 350 349 349 349 348 347 347 348 347 347 347 345 346 347 345 345 344 344 344 343 342 341 341 341 341 341 341 341 340 339 338 337 336 339 338 336 339 344 345 346 345 342 341 342 341 340 338 338 338 338 338 338
347 348 348 347 346 346 348 348 347 348 348 347 346 345 345 346 346 347 346 346 344 345 346 346 346 345 344 343 343 342 342 342 343 341 341 340 340 338 339 337 338 337 337 337 335 337 339 342 344 343 342 341 341 342 340 340 339 338 338 340 340 340
345 347 347 347 346 346 348 345 345 345 345 345 345 344 344 344 345 345 344 344 345 345 345 344 343 343 342 343 341 339 340 342 342 341 342 341 341 341 339 339 338 337 338 339 337 337 338 341 342 341 339 340 341 341 339 338 339 338 340 340 340 340
344 345 345 346 346 345 344 344 344 344 343 343 344 343 343 344 345 344 344 344 345 344 344 342 340 341 340 341 340 340 340 341 340 340 341 340 340 342 342 342 341 339 338 337 336 335 336 339 341 339 339 339 340 339 340 339 339 339 340 341 340 341
343 343 342 345 345 343 343 343 343 344 343 343 342 342 343 345 344 344 344 345 345 345 343 341 339 339 339 340 339 340 340 341 342 340 341 340 340 341 341 339 339 338 337 336 335 335 336 338 341 340 339 339 339 339 341 340 340 340 340 341 340 341
343 342 342 343 342 342 342 342 343 343 342 343 341 341 342 342 342 343 344 344 343 343 343 341 339 338 339 339 340 340 341 341 341 340 341 341 341 341 341 340 340 340 339 338 337 337 337 339 341 341 339 337 337 338 340 341 341 339 340 340 339 339
342 342 342 342 341 341 342 341 342 342 342 342 341 340 341 341 342 342 342 343 343 343 342 341 340 339 338 338 339 340 341 340 340 339 340 341 340 341 341 341 341 340 339 341 337 338 339 339 339 340 339 338 338 338 340 340 340 339 339 339 339 340
342 342 341 340 340 340 342 341 342 342 342 341 339 339 340 341 341 342 342 343 342 342 341 340 339 338 338 338 339 339 340 340 339 339 339 340 341 340 339 338 338 339 340 341 340 338 338 339 338 338 339 338 339 340 340 342 341 340 338 339 339 340
341 341 341 340 340 340 340 341 342 342 341 340 339 339 339 339 340 340 341 342 342 342 342 341 341 340 339 339 339 340 339 340 340 338 339 338 340 339 338 336 336 338 340 341 339 339 340 339 338 337 338 338 339 339 338 339 340 340 338 338 338 339
341 340 340 339 338 340 341 341 341 342 341 339 339 338 337 338 339 340 341 341 342 342 342 342 342 341 340 340 339 339 340 340 339 338 339 339 339 339 337 336 337 339 339 340 340 339 337 340 338 338 338 338 338 336 339 339 341 341 339 339 339 338
340 340 339 339 338 339 340 341 341 341 340 339 338 337 337 338 338 339 340 341 341 341 341 343 342 342 340 339 340 339 339 338 338 338 339 338 337 338 338 338 337 337 336 338 337 338 337 336 335 337 338 338 338 337 339 339 342 341 341 339 339 339
340 339 339 336 335 338 340 339 340 339 339 338 338 338 337 338 338 339 340 340 341 341 342 343 342 341 340 341 338 338 337 337 338 339 338 337 338 338 338 337 336 336 336 335 334 334 334 335 335 334 334 337 335 335 338 337 330 333 335 338 340 338
339 338 338 337 336 337 338 340 340 340 339 339 338 338 338 338 338 339 340 340 341 341 341 341 341 341 340 340 339 337 337 338 339 339 338 337 337 336 336 334 334 336 335 331 332 331 333 334 335 334 335 336 336 336 336 336 334 335 335 335 336 339
338 338 338 337 337 338 339 339 340 339 339 339 338 338 338 338 338 338 339 339 341 341 340 340 341 341 341 340 339 338 337 337 339 340 338 337 336 335 335 334 333 334 334 332 331 331 332 333 333 333 334 335 336 335 334 332 332 334 335 335 336 338
338 338 338 338 338 338 339 339 340 340 339 338 338 338 338 337 337 338 338 339 340 340 340 340 340 341 342 341 340 338 337 337 339 340 339 337 335 334 335 334 332 333 333 332 330 330 330 332 332 332 333 333 333 333 333 333 333 333 333 333 337 339
337 337 338 338 338 338 339 339 340 339 338 338 338 338 338 338 337 338 339 340 339 340 340 339 340 341 340 340 339 339 338 338 339 339 337 336 334 333 333 333 332 331 332 332 331 333 332 332 331 331 330 330 332 333 334 334 334 333 333 335 336 334
337 337 337 337 338 338 338 336 334 336 335 336 337 336 338 337 338 338 340 340 339 339 339 339 340 340 340 339 338 338 337 337 338 338 336 334 333 333 332 331 332 332 330 331 333 332 333 332 330 328 327 328 330 331 333 334 336 334 334 334 335 334
337 338 335 335 336 335 333 334 334 333 333 336 336 337 337 337 337 339 339 339 339 339 338 338 339 339 339 338 338 338 337 336 337 337 336 335 335 334 334 333 331 332 330 328 330 332 332 333 328 326 327 328 329 331 331 331 331 331 332 333 335 333
336 337 336 336 336 336 336 334 333 333 334 334 334 335 335 336 337 338 339 339 339 339 338 338 339 339 339 338 336 336 337 336 336 336 336 335 334 334 334 333 332 330 331 329 328 331 331 331 328 325 323 323 325 325 328 329 329 329 330 331 332 332
336 335 336 336 336 335 337 337 337 336 335 335 338 340 339 338 338 338 339 339 339 339 338 338 338 338 337 337 337 336 336 336 336 336 334 333 333 333 333 332 333 330 327 331 329 330 331 334 326 329 329 325 321 318 321 325 328 328 328 331 331 330
335 335 335 336 336 337 338 338 339 338 338 338 337 338 338 338 337 337 337 338 338 338 338 338 337 337 338 337 337 336 336 336 336 336 334 333 332 332 332 333 333 332 330 325 326 326 331 331 330 326 321 323 321 322 317 319 321 326 330 328 328 329
335 334 335 335 336 337 336 335 337 337 338 337 338 336 335 333 334 335 335 336 336 338 338 338 338 338 337 336 336 336 336 336 336 336 335 334 333 332 332 334 334 333 331 328 325 327 328 331 332 335 327 320 319 319 319 319 322 323 329 327 327 329
334 333 333 335 336 336 335 333 332 331 329 330 330 331 331 330 331 332 333 335 336 337 337 337 337 338 337 337 336 337 336 336 335 335 335 335 334 333 334 333 334 334 333 333 330 327 326 330 331 331 332 332 332 322 319 323 321 314 325 329 326 327
333 332 333 334 335 335 334 333 333 333 332 332 330 332 337 336 335 334 334 334 335 336 337 336 337 337 338 337 337 336 336 335 335 335 334 334 333 333 333 333 335 335 334 333 333 328 327 326 327 328 330 331 331 331 329 323 318 320 316 321 323 323
333 332 333 333 334 335 334 334 334 333 333 334 334 333 335 336 337 335 334 333 333 334 335 336 336 336 337 336 335 335 335 336 335 335 334 333 333 333 334 334 335 335 334 334 334 332 330 328 326 327 328 329 330 332 333 331 327 323 320 316 316 321
332 331 332 333 334 335 336 335 335 334 333 337 338 336 336 335 334 335 333 332 333 333 334 334 335 335 335 335 335 335 336 336 336 336 335 334 335 334 334 334 334 333 333 333 334 336 333 330 332 329 326 328 330 329 329 330 328 328 322 319 316 317
331 331 331 333 334 335 336 336 335 335 335 334 335 334 335 333 333 335 332 331 332 332 333 333 333 334 334 334 335 336 336 336 336 335 335 335 335 334 334 335 334 335 335 335 335 334 333 334 334 331 330 330 327 326 327 327 327 326 325 325 317 316
331 331 331 329 331 331 333 334 334 334 334 333 334 334 334 333 332 334 331 331 331 332 333 333 334 335 335 335 336 336 336 336 336 336 335 335 336 335 336 336 336 336 336 335 335 334 332 333 334 332 332 331 329 328 326 324 325 326 325 322 319 318
329 329 327 327 327 328 331 330 327 324 329 333 334 334 334 333 334 334 334 331 333 333 333 333 335 334 334 335 335 335 336 336 335 336 335 337 337 337 337 336 335 335 335 335 336 334 334 332 332 331 332 332 331 331 331 329 328 328 326 324 322 319
326 328 326 326 326 326 327 325 324 325 326 334 334 335 335 334 334 333 333 333 332 330 331 331 332 333 334 335 336 335 335 334 335 336 337 337 338 337 337 336 335 334 334 333 333 334 332 333 333 330 331 332 332 331 330 331 331 329 330 328 324 320
325 325 325 326 325 324 324 322 324 324 325 331 332 333 334 333 333 333 334 333 332 331 331 331 333 333 334 332 332 334 335 336 337 337 337 338 337 337 336 335 336 335 334 335 334 334 334 334 333 333 333 331 331 330 330 330 331 330 329 327 324 321
320 322 324 324 324 322 321 322 323 325 327 330 330 332 333 333 333 333 334 334 334 333 331 332 331 336 332 332 332 332 333 334 334 335 335 336 336 336 336 334 335 336 335 335 333 333 332 332 332 331 332 332 332 330 328 328 330 330 329 328 326 324
321 322 324 324 323 321 321 322 324 325 328 329 329 330 330 331 333 334 334 334 334 335 334 334 334 333 332 331 331 332 333 333 334 335 335 335 336 335 336 336 335 335 336 333 335 333 332 332 333 333 332 332 332 330 329 328 329 330 329 329 329 326
323 323 324 324 325 324 321 321 322 325 327 328 329 329 330 331 332 333 334 334 333 332 332 333 332 332 331 329 330 331 332 333 334 334 335 335 335 334 335 334 333 334 333 334 334 333 333 333 333 331 331 331 332 331 329 330 330 331 331 331 329 327

ECMWFFLT2_sfc_thetae_054.txt.gz
Theta_e
349 353 350 353 353 353 353 350 351 350 350 349 349 349 349 349 349 348 349 348 348 351 352 352 351 351 347 349 345 346 346 347 346 345 345 344 344 343 343 343 342 341 341 343 345 345 344 343 343 343 342 341 340 346 342 342 342 341 340 339 338 336
347 345 347 352 352 352 349 348 347 351 351 352 350 349 351 352 348 350 347 349 352 351 350 347 348 345 349 348 347 344 344 345 345 345 343 343 343 342 342 341 341 339 338 340 343 346 344 343 343 343 342 343 343 343 342 341 341 340 339 339 339 337
349 349 349 351 351 349 350 349 349 347 350 348 352 351 350 350 350 349 347 348 350 352 351 351 350 343 343 342 346 344 344 344 343 343 342 342 342 342 341 340 339 338 337 335 342 345 345 343 344 344 344 343 343 342 344 342 340 340 338 339 339 336
350 350 348 348 349 348 348 349 348 349 349 349 352 348 350 348 347 347 349 350 351 351 349 349 345 345 345 344 345 344 343 342 342 342 342 341 342 341 340 339 339 337 340 339 341 343 345 345 345 346 346 345 344 343 343 343 338 338 339 338 338 336
351 350 349 348 348 348 350 347 347 346 348 349 346 345 344 343 348 350 351 351 348 348 347 345 344 343 341 342 342 343 344 343 343 343 342 342 340 336 340 337 337 339 340 338 338 341 344 343 346 345 345 345 344 345 343 343 339 338 339 339 339 338
347 350 349 348 348 348 349 346 345 346 345 347 343 345 346 346 350 350 349 348 348 348 346 344 344 344 345 345 343 339 340 341 341 339 341 340 340 338 339 338 339 338 338 340 341 343 343 344 344 345 343 343 343 344 343 341 340 340 341 340 340 338
347 348 348 349 349 346 348 348 348 345 343 343 347 347 347 348 349 349 349 349 347 347 346 343 343 345 343 343 342 340 340 342 342 340 341 341 340 340 339 339 341 341 340 338 337 339 341 342 344 344 343 341 341 340 342 342 341 342 342 340 340 338
347 346 346 347 347 346 349 350 350 349 349 347 346 346 346 347 349 349 349 349 349 348 345 342 344 343 341 342 340 341 341 341 340 339 341 341 339 340 340 340 341 341 336 335 334 337 340 340 344 346 343 342 340 339 340 341 343 343 343 342 340 340
348 347 347 347 347 348 348 349 350 348 348 347 347 347 346 347 347 347 349 350 350 349 345 344 343 343 342 340 340 340 339 340 341 341 342 342 341 340 340 339 339 338 338 336 335 338 338 341 347 347 344 342 341 341 340 340 342 342 343 342 340 340
349 349 348 346 345 346 347 347 347 348 348 346 347 347 349 347 347 347 347 348 348 349 347 341 343 342 342 342 341 342 342 342 342 341 341 342 342 343 342 341 341 341 338 338 336 337 336 341 341 343 342 341 342 342 342 340 339 341 342 343 342 341
348 348 343 344 347 347 348 346 347 348 347 346 347 347 348 348 348 347 347 348 348 348 347 344 342 343 342 341 343 344 343 344 341 343 344 344 345 345 345 343 344 342 341 340 340 338 336 338 341 340 342 340 342 343 343 344 341 342 341 341 341 342
348 350 346 345 347 345 345 345 348 346 345 345 348 346 345 347 345 346 347 347 348 347 347 346 345 344 343 342 342 343 343 343 341 342 344 345 345 345 344 342 344 344 344 343 341 341 342 339 340 338 339 342 344 342 341 341 341 342 341 342 340 340
347 348 347 346 345 344 345 344 345 344 345 346 345 345 344 344 345 346 347 347 348 347 347 346 345 345 343 343 343 344 343 344 343 343 344 344 344 344 342 341 343 342 342 343 343 342 340 342 341 340 340 342 342 339 339 339 340 340 341 341 339 338
344 344 344 345 347 344 345 346 346 344 344 344 344 343 342 342 343 344 346 347 347 346 346 347 346 346 345 345 345 345 344 342 342 344 343 344 344 343 342 343 341 341 340 342 341 342 340 340 339 340 340 343 344 344 341 342 341 339 340 339 339 339
346 346 343 342 344 345 346 345 345 344 344 344 344 342 341 341 342 345 346 345 347 347 348 348 348 347 346 345 344 344 343 343 343 344 342 343 344 344 345 343 341 340 341 340 341 340 340 341 341 339 341 343 342 339 337 337 340 343 341 341 341 338
344 345 344 342 344 345 346 346 345 343 344 344 341 342 340 341 343 345 345 346 348 347 348 348 348 347 346 345 343 342 342 344 343 343 342 344 344 343 344 343 344 343 339 338 339 339 341 340 340 337 339 342 342 338 339 338 340 339 341 341 337 338
342 343 343 343 344 345 347 345 345 342 342 342 341 342 341 342 344 345 345 344 346 347 347 347 347 347 347 345 342 343 341 343 343 342 341 343 341 343 342 340 340 341 340 337 336 337 339 339 338 338 340 341 341 339 340 340 340 340 340 339 340 338
344 345 343 343 342 344 344 343 342 341 342 341 342 341 341 341 343 344 346 345 346 346 345 345 347 346 347 345 344 344 341 344 344 344 343 341 341 341 341 341 338 339 339 338 337 337 337 338 338 337 339 340 340 339 340 340 340 339 339 339 342 337
344 344 344 344 341 342 343 342 341 340 341 341 341 342 342 340 342 344 343 345 346 346 344 344 345 345 347 344 344 344 344 344 344 344 342 340 339 339 339 339 337 336 337 338 338 339 338 337 336 337 337 338 337 338 339 338 338 337 338 340 341 336
345 343 342 340 341 337 337 336 336 338 338 338 339 339 342 342 343 343 344 344 345 345 343 344 345 346 347 345 345 344 345 345 345 344 341 340 337 337 337 336 336 335 334 335 339 340 339 336 335 335 335 336 336 338 338 336 337 335 337 340 339 338
343 342 341 340 338 336 335 334 336 336 334 337 339 339 340 342 343 344 344 344 345 343 344 344 345 345 345 344 345 345 345 345 344 342 342 341 340 338 338 337 335 336 334 334 337 340 340 337 333 331 332 328 332 335 336 336 335 335 336 338 337 337
341 340 341 340 340 338 337 338 336 337 336 337 335 336 338 342 344 345 346 345 345 345 345 345 346 346 346 345 344 343 344 344 343 341 342 342 342 337 338 337 337 333 335 335 336 338 337 336 328 328 325 328 329 332 333 333 334 335 335 336 338 338
341 340 339 342 341 338 341 338 337 337 338 337 340 340 341 343 344 343 346 346 346 346 345 344 345 345 345 345 344 343 343 343 344 342 341 341 341 340 339 338 338 333 332 336 336 339 339 338 329 330 331 327 323 323 326 330 332 333 335 337 338 336
340 340 340 341 339 338 339 338 342 342 338 337 337 337 342 344 343 343 342 344 345 345 344 344 344 343 343 343 344 343 344 342 342 342 342 339 340 340 340 339 338 337 334 330 332 334 339 338 334 330 323 321 323 323 319 320 321 329 334 335 334 334
340 341 339 339 341 339 336 341 341 341 339 340 337 337 340 339 341 341 341 342 343 345 344 343 344 343 341 342 343 344 343 343 342 343 342 340 340 338 339 339 339 336 335 333 330 333 336 337 335 337 329 322 320 319 319 325 325 325 331 331 333 334
333 329 332 335 337 335 341 338 333 332 333 330 327 334 334 336 337 337 338 343 343 342 342 341 340 340 339 339 340 343 344 342 342 342 342 341 339 338 339 338 338 336 335 335 333 329 331 335 336 337 340 335 328 323 322 326 324 316 329 331 331 331
330 332 334 335 335 336 334 334 333 332 333 331 330 336 339 340 340 340 342 341 340 341 340 340 340 340 340 339 340 341 341 340 340 341 341 340 339 339 338 337 338 337 335 335 335 329 332 332 335 336 337 338 336 334 334 327 322 322 317 324 328 327
333 334 336 336 336 334 334 339 338 337 335 336 336 337 339 340 342 341 340 340 340 339 340 340 339 339 339 339 339 338 339 339 338 338 336 337 336 337 338 339 339 339 335 335 336 332 331 332 330 331 335 334 334 336 335 333 329 325 322 319 319 324
330 334 337 335 335 334 338 340 335 332 330 331 332 332 335 340 339 340 340 340 340 339 339 339 339 338 338 337 337 338 338 338 337 336 336 335 338 338 340 340 339 338 336 336 336 333 334 332 334 332 331 333 333 331 331 333 331 327 323 320 319 320
329 335 337 336 336 334 335 333 333 332 329 326 329 334 338 338 338 338 339 339 338 336 336 337 339 338 337 336 337 337 337 337 338 337 335 335 338 340 340 339 339 339 339 337 337 334 332 337 335 335 333 332 329 329 330 330 328 327 325 326 321 321
328 333 337 336 335 333 331 330 327 331 327 327 328 334 336 336 335 336 335 335 335 335 335 335 337 337 337 337 337 337 337 337 338 338 336 336 337 338 339 338 338 338 338 337 336 336 334 332 332 332 333 331 334 330 326 325 326 325 324 323 322 321
328 331 333 331 329 330 331 330 331 331 331 330 330 333 334 332 333 334 333 333 333 334 334 335 335 334 336 336 337 336 338 337 336 337 336 339 341 339 338 337 336 336 335 336 336 335 334 333 331 330 334 332 330 329 330 329 328 327 327 327 323 321
326 330 330 331 329 329 328 330 332 332 333 333 332 335 332 334 335 333 333 333 333 332 333 333 333 334 335 337 336 336 336 335 335 337 338 340 340 339 338 337 335 335 335 335 334 334 332 331 332 331 331 332 334 332 331 331 331 328 328 328 326 322
326 328 329 329 328 329 331 331 332 333 333 336 336 333 334 334 334 334 333 332 333 332 332 333 334 333 335 336 335 336 336 335 335 336 336 336 338 340 340 337 337 337 335 335 335 335 334 334 334 334 333 331 330 332 331 332 332 331 329 328 325 323
326 328 328 328 328 328 330 328 329 331 334 336 336 335 334 334 334 333 333 333 332 332 331 332 332 334 335 336 335 336 335 335 335 335 335 335 335 337 341 337 337 337 337 336 335 334 333 333 332 332 334 331 331 331 332 332 332 332 329 328 329 326
327 328 328 327 328 328 329 328 329 331 333 336 337 337 335 335 335 334 334 332 332 333 333 333 334 334 335 335 334 334 334 334 334 335 335 334 334 333 338 337 337 338 338 336 336 335 335 334 333 333 333 333 331 332 334 334 334 332 333 332 329 329
328 328 327 327 328 329 328 329 330 332 333 335 336 336 335 336 335 334 334 333 333 334 334 334 334 335 335 335 335 334 333 333 334 334 333 332 332 332 334 334 335 338 338 338 337 335 336 335 335 335 334 334 333 334 334 336 335 334 334 335 331 327

ECMWFFLT2_sfc_thetae_057.txt.gz
Theta_e
348 348 348 348 349 350 351 351 351 351 350 350 350 350 350 349 350 349 349 349 348 349 348 350 347 349 347 348 347 346 347 347 346 346 345 345 344 343 343 343 343 344 344 344 345 344 343 343 342 342 341 342 340 344 342 342 342 340 339 338 337 334
347 349 348 348 348 349 351 349 349 351 350 351 350 351 351 350 350 350 349 349 350 350 346 346 346 346 347 347 347 345 345 346 345 345 344 344 344 343 343 342 341 342 344 345 345 345 345 343 343 342 344 341 341 341 342 341 341 338 338 337 337 336
348 349 351 350 349 348 349 348 348 348 350 349 350 349 350 350 347 349 349 348 348 346 346 344 345 346 346 345 346 344 345 345 345 345 344 344 343 342 341 340 340 339 341 345 344 344 344 343 342 343 343 343 345 342 341 340 340 338 337 337 336 336
349 351 350 347 347 347 347 347 345 346 346 346 349 348 347 348 350 346 344 343 345 343 343 346 346 346 346 346 345 344 344 344 344 343 343 343 343 342 341 340 340 339 338 343 344 344 343 344 343 343 345 345 341 340 341 341 336 337 339 336 334 335
348 348 348 347 347 345 347 346 344 347 346 345 345 346 349 351 347 345 341 340 342 341 342 345 345 345 343 344 346 344 344 343 344 344 343 343 341 339 339 337 337 337 338 339 339 343 344 344 344 343 346 343 341 342 340 341 339 339 339 339 337 336
347 348 348 347 346 345 345 344 343 344 347 349 350 351 350 346 345 344 342 340 342 344 342 343 344 342 340 341 340 339 342 341 340 341 341 338 338 336 338 338 335 333 337 339 340 341 343 345 343 343 343 344 342 342 341 341 339 340 340 339 339 338
347 348 348 347 346 345 345 345 348 347 345 343 346 347 346 345 343 344 343 342 342 340 339 337 339 341 340 341 339 338 339 341 340 338 339 338 340 340 339 337 337 338 339 337 339 342 342 345 345 343 344 344 341 342 343 341 341 341 340 339 339 339
349 348 346 348 346 346 349 349 349 347 347 347 347 347 346 345 344 343 342 342 344 344 341 340 342 343 343 345 343 344 343 340 342 341 342 342 340 337 338 339 341 340 337 338 338 341 341 340 343 345 340 342 341 342 343 341 343 342 340 339 339 340
351 348 348 348 347 347 347 348 347 347 346 346 347 346 344 343 342 341 341 342 344 348 342 342 343 343 343 343 343 343 340 339 341 340 341 342 341 342 340 339 340 338 338 337 336 337 337 337 345 344 340 341 339 340 342 343 343 341 338 339 340 340
343 346 346 345 348 344 347 345 347 346 346 346 345 344 343 341 341 342 344 345 348 348 342 342 342 342 339 340 339 341 341 340 341 340 341 341 341 340 338 337 337 337 333 334 334 335 337 337 338 341 341 335 340 340 342 341 341 341 339 340 341 339
344 343 346 345 346 345 344 344 345 347 345 343 343 342 342 343 344 343 344 346 347 346 345 343 343 342 342 341 341 342 342 342 343 343 344 342 344 343 342 341 340 340 338 336 334 334 334 338 342 339 342 339 339 340 339 339 339 339 338 339 339 339
345 344 346 344 346 344 344 344 346 344 344 343 343 343 344 346 345 344 347 349 347 349 346 344 344 343 343 343 342 343 344 344 343 343 345 344 343 345 345 344 345 345 345 342 342 339 335 340 337 342 340 340 339 339 340 340 336 338 339 340 339 338
345 346 346 343 345 346 342 342 343 343 346 344 344 342 341 341 343 345 346 347 348 347 346 346 346 344 343 343 343 344 343 345 344 345 346 346 344 345 344 343 342 344 341 341 341 340 337 339 338 339 341 340 339 337 338 338 340 337 341 340 339 338
340 341 342 345 346 344 344 343 342 344 344 345 344 343 342 346 345 346 346 347 348 347 347 347 346 346 344 343 344 344 343 343 344 345 346 346 343 342 341 340 342 339 339 340 339 339 336 336 336 340 342 340 339 339 341 340 339 338 341 339 342 334
339 341 343 340 345 344 344 343 343 343 345 346 343 342 342 344 343 345 346 346 348 346 347 346 346 346 346 344 343 343 343 344 345 345 343 344 345 342 343 342 340 338 338 337 337 336 336 340 338 340 341 341 339 341 342 343 344 342 339 338 337 334
340 341 341 345 346 345 346 344 343 343 342 345 343 342 342 344 345 344 344 345 346 346 346 346 347 347 346 344 342 343 345 345 345 344 343 344 344 341 341 341 340 342 337 336 338 337 340 339 338 338 338 342 341 341 340 341 341 338 336 339 336 337
344 348 344 342 346 344 346 343 343 342 344 345 343 342 343 344 343 344 342 341 345 345 346 346 347 347 346 344 340 340 346 346 345 344 344 344 342 343 341 340 341 342 341 342 333 333 335 336 338 337 338 338 338 341 341 336 337 339 336 337 335 337
346 346 347 344 344 344 345 343 342 343 345 343 343 342 344 342 342 341 341 341 344 345 345 345 346 347 348 343 341 341 343 344 345 344 347 344 341 342 340 341 339 341 339 338 335 335 335 336 337 335 333 335 336 338 336 336 336 337 335 335 335 337
344 346 345 345 345 345 343 342 344 344 344 344 342 343 344 343 341 340 344 342 343 345 345 346 347 346 347 344 342 341 344 345 344 343 342 342 342 341 341 341 340 339 341 338 335 336 335 335 334 333 331 333 334 335 333 334 338 339 334 335 337 336
347 343 344 344 345 340 340 338 337 340 341 341 342 339 341 341 342 341 342 342 343 344 344 346 346 347 346 343 341 343 344 344 344 342 340 340 339 339 340 341 340 339 338 337 337 338 337 337 332 332 329 333 334 335 332 336 335 334 334 338 336 337
342 346 344 339 338 337 336 337 339 339 338 340 339 341 340 342 341 340 341 342 344 344 344 345 345 346 344 342 342 342 343 343 342 341 340 341 341 340 341 341 339 339 337 335 335 337 337 336 332 331 333 334 333 334 335 333 334 335 333 334 335 335
342 343 342 343 343 340 337 337 337 335 338 338 340 339 339 341 345 341 341 342 343 344 344 345 344 344 344 343 341 342 341 341 341 340 341 342 341 339 340 339 339 336 336 334 334 337 336 336 329 327 327 328 330 333 334 333 335 337 334 334 333 335
341 340 339 338 339 337 338 338 340 340 338 338 341 340 341 343 340 338 340 341 344 344 344 343 344 343 344 342 342 340 340 340 340 340 339 339 339 339 339 338 338 335 333 335 334 335 337 337 331 332 332 326 322 321 327 332 332 333 333 334 333 334
337 339 339 339 337 338 337 337 336 335 337 339 338 342 341 341 339 339 339 343 340 344 342 342 342 342 341 342 342 342 340 339 341 340 339 339 338 338 339 339 339 337 335 331 331 331 338 338 335 329 321 324 324 323 318 322 326 331 333 334 335 334
335 338 338 338 338 338 333 332 333 336 334 334 338 337 336 335 336 336 334 335 340 341 342 340 341 341 340 341 343 342 340 340 339 341 339 338 337 336 337 338 339 337 335 332 330 332 332 334 334 336 330 324 322 319 319 323 325 325 331 329 333 334
340 339 338 338 335 336 332 333 332 330 328 330 330 332 330 329 332 331 331 338 338 341 342 340 340 341 340 340 342 342 342 339 340 340 338 339 336 335 335 335 337 338 336 336 334 329 332 333 334 335 334 336 329 322 321 325 323 317 330 331 330 332
339 333 336 334 333 334 333 334 332 332 332 331 331 331 336 337 333 336 334 336 339 342 342 342 342 342 342 342 343 342 342 341 339 338 339 339 338 336 334 335 337 338 337 336 335 330 331 329 333 335 336 336 337 333 333 326 321 323 318 326 331 330
334 331 330 334 331 333 333 334 334 334 333 330 333 332 334 334 334 334 340 337 340 342 343 343 340 339 339 337 339 342 343 342 340 340 338 339 338 339 337 336 337 339 337 337 336 333 330 330 329 330 333 333 332 333 332 331 329 325 321 320 321 327
332 330 332 335 333 333 334 335 335 334 332 334 335 335 334 333 334 335 332 340 339 340 339 339 339 339 338 338 338 338 338 337 340 340 336 338 339 338 339 336 338 336 338 337 338 337 336 330 329 328 331 332 333 332 333 332 331 328 325 321 319 321
327 332 333 335 334 332 331 333 334 333 334 331 332 332 331 332 332 333 335 336 339 339 339 338 340 339 339 338 338 338 337 337 338 337 335 335 336 337 339 339 339 338 337 336 337 337 335 336 333 330 331 330 332 331 328 329 329 327 328 326 321 319
329 333 333 335 333 331 331 333 333 332 331 330 331 332 331 332 333 331 331 332 337 337 338 338 339 340 339 338 339 339 338 337 338 338 335 336 338 338 339 339 339 339 335 336 337 337 336 336 337 334 333 335 331 328 326 323 327 327 326 324 322 322
328 330 331 332 332 332 332 333 334 333 332 331 332 331 332 331 331 330 329 331 335 337 337 338 339 338 338 338 339 339 339 337 337 338 336 336 341 339 339 339 339 338 337 338 337 335 336 335 336 335 336 335 333 332 331 329 327 330 328 326 325 322
327 329 330 331 330 331 333 333 334 333 333 333 334 333 333 329 330 330 331 330 334 335 334 334 334 336 336 338 337 338 337 335 335 337 337 340 341 339 338 338 337 337 336 337 336 335 333 334 336 334 334 335 334 332 330 332 332 330 331 330 326 321
327 329 329 330 331 331 333 334 335 335 335 334 335 336 334 330 329 331 330 333 334 332 333 333 333 334 336 336 336 336 336 336 335 335 338 341 340 339 339 337 337 336 337 339 336 336 336 336 337 336 336 332 335 332 334 332 331 330 329 328 325 322
328 329 330 331 332 331 331 333 335 336 337 336 336 335 333 331 329 331 331 334 333 333 332 333 333 335 336 336 336 335 335 335 334 335 335 337 339 340 339 336 336 336 334 336 335 337 334 335 334 334 334 333 333 332 331 332 334 330 330 330 327 326
329 330 331 331 332 331 332 333 334 335 335 335 336 335 335 335 333 336 335 332 333 333 333 333 334 333 335 335 335 334 335 334 335 335 334 334 334 336 339 337 335 336 335 335 335 336 336 337 335 335 333 335 334 332 334 332 331 332 331 333 332 328
330 330 331 331 331 332 332 333 332 334 335 335 335 336 334 335 336 336 336 334 332 333 334 334 334 335 334 334 335 335 334 333 334 334 333 333 333 332 337 337 335 335 334 336 337 333 336 335 335 335 335 336 334 334 334 334 332 333 333 333 333 330

ECMWFFLT2_sfc_thetae_060.txt.gz
Theta_e
346 347 347 347 349 349 350 351 351 351 350 351 350 350 350 350 349 350 349 348 348 347 347 347 347 345 347 346 347 347 347 347 346 346 346 345 345 345 346 345 345 345 344 345 345 344 343 343 342 341 343 342 344 338 341 336 336 336 333 333 333 332
346 346 347 347 348 348 349 349 349 350 349 350 350 350 349 349 351 349 349 347 347 347 346 346 346 347 345 345 346 346 346 347 346 346 345 344 344 344 344 344 345 345 345 345 345 342 343 343 344 343 342 343 341 337 343 337 335 334 332 331 333 335
346 347 346 346 347 348 348 348 348 349 348 349 349 349 348 347 347 346 346 345 347 347 346 346 346 347 346 346 346 346 346 346 345 345 345 345 344 343 343 342 343 345 346 345 343 342 340 340 340 343 344 342 338 341 342 338 335 333 331 332 331 337
346 345 345 344 346 347 346 346 346 346 347 347 347 346 347 345 345 346 347 347 347 346 346 346 346 347 346 345 344 345 345 345 345 345 345 343 344 343 343 343 341 342 344 345 341 343 341 339 340 341 342 342 344 338 340 335 333 332 330 331 331 336
346 346 346 345 345 343 344 343 344 345 346 346 345 346 347 346 346 346 345 345 344 344 346 347 344 344 344 344 343 342 342 342 342 342 344 341 340 337 339 337 338 338 335 340 341 341 342 341 343 342 344 344 340 341 338 337 335 333 332 332 333 336
347 342 347 346 342 343 344 342 342 344 344 345 345 345 345 345 345 345 343 344 343 342 343 345 342 341 343 343 342 342 342 341 341 341 342 339 338 338 337 335 334 333 334 336 339 343 345 344 342 342 344 342 342 337 339 336 336 335 335 334 335 336
340 342 342 344 345 344 343 342 343 344 343 343 344 344 344 344 344 343 342 343 342 342 342 343 342 341 341 342 341 339 340 340 341 340 340 339 337 337 336 336 337 336 336 335 337 339 342 344 343 341 342 340 338 334 333 336 337 335 335 335 337 337
341 343 343 341 341 341 344 342 343 344 344 345 345 343 343 344 344 343 342 343 344 341 340 341 341 340 340 340 339 338 338 337 337 337 338 339 337 336 335 336 336 335 334 334 334 338 338 342 344 344 340 340 339 336 338 340 339 336 335 335 337 338
341 342 340 342 342 343 341 341 342 343 346 344 344 344 344 344 344 344 343 343 344 339 340 342 341 340 341 339 341 343 340 340 340 340 337 340 338 337 337 342 340 336 337 339 339 340 337 339 343 341 337 337 338 340 339 336 340 336 336 335 335 338
342 341 341 342 339 339 342 339 341 341 346 345 345 346 346 344 345 343 342 342 342 341 340 338 341 341 342 342 343 343 342 342 342 342 341 341 340 345 343 341 342 341 337 339 336 338 336 334 340 339 338 336 339 337 338 337 341 335 336 336 336 337
341 342 340 341 340 342 342 342 342 343 343 344 344 344 343 343 343 343 343 343 341 342 341 338 339 338 341 341 341 343 343 344 344 344 345 342 346 344 343 340 338 337 338 336 335 336 334 337 337 337 337 337 337 338 337 336 340 337 336 335 335 334
341 343 341 340 341 340 342 343 342 342 343 344 344 342 342 342 342 342 341 342 342 341 339 340 337 338 340 339 338 339 343 343 342 346 346 344 344 344 346 343 344 345 345 344 341 340 343 337 339 338 335 336 338 339 337 337 337 334 334 334 336 333
340 342 340 340 342 344 344 342 342 344 345 344 343 343 343 343 343 343 343 340 340 338 340 338 338 335 338 339 339 344 344 346 346 346 348 347 346 345 347 345 344 345 344 342 342 338 337 342 338 337 338 338 339 337 334 336 335 333 334 334 333 337
340 341 341 342 346 346 344 344 344 344 343 344 344 344 345 346 345 343 342 340 339 339 338 341 338 338 341 345 344 344 344 346 347 347 347 348 346 345 344 343 341 340 340 339 331 334 336 338 339 339 338 337 335 337 335 334 334 332 334 333 333 333
343 341 342 343 342 341 344 345 342 342 344 343 344 343 345 345 343 342 339 339 339 338 338 340 339 343 345 345 342 345 345 344 348 345 344 345 348 346 344 343 344 339 339 337 333 333 336 337 338 337 337 339 336 334 334 334 335 335 333 332 333 333
345 344 343 342 341 341 343 344 346 342 344 345 345 344 344 344 342 342 341 339 337 337 338 338 341 345 347 344 343 342 343 344 346 344 345 345 345 343 342 342 343 343 339 333 330 332 335 334 336 337 338 339 333 333 332 334 335 336 335 336 334 334
344 342 342 342 343 341 340 339 339 338 340 342 341 341 343 343 344 343 341 340 341 339 337 339 342 344 342 345 347 344 344 342 345 345 348 345 342 343 341 341 343 342 342 337 332 332 333 332 331 335 336 335 334 333 333 333 334 334 337 335 334 335
343 343 342 342 341 341 342 341 340 337 340 340 341 343 339 339 341 343 343 342 340 339 340 343 345 343 346 341 343 343 344 341 343 347 344 347 343 343 343 345 340 342 340 338 332 331 331 333 334 335 334 334 335 333 330 331 334 335 335 333 334 334
342 342 343 338 338 339 341 337 339 339 339 338 340 339 343 343 340 338 342 341 343 344 344 345 345 345 345 342 339 341 341 343 343 344 346 344 339 341 342 341 341 340 343 336 331 332 332 335 332 333 332 333 333 331 331 332 333 334 333 335 333 332
341 339 337 337 340 336 335 335 333 333 337 339 340 339 339 341 340 341 340 342 340 347 343 341 344 343 344 344 341 340 342 342 344 343 341 339 340 337 340 339 340 338 336 334 333 333 334 333 332 330 331 332 333 331 332 333 332 333 331 333 331 332
336 335 338 336 338 335 331 331 333 334 335 336 336 340 340 342 343 342 340 338 341 343 342 339 342 345 343 344 343 341 342 343 342 341 341 341 341 341 341 341 340 340 337 332 334 335 334 334 330 328 330 330 330 332 331 333 331 330 331 331 332 332
334 335 336 336 338 337 335 334 333 334 335 335 334 335 336 338 339 341 339 338 340 339 336 337 339 339 342 344 341 345 344 345 344 342 342 342 343 340 340 339 339 336 337 333 332 335 335 333 328 326 324 324 325 328 329 330 328 330 331 332 332 332
334 335 336 337 335 332 337 337 337 337 336 336 340 340 340 341 341 339 338 340 340 338 337 337 338 340 342 342 340 342 340 342 343 341 340 339 341 341 340 338 339 337 332 334 333 337 335 336 326 328 328 323 320 319 323 325 327 329 330 329 331 330
333 333 332 333 334 336 337 337 338 336 341 340 336 341 341 341 341 339 337 340 338 336 338 336 338 339 341 342 342 341 342 342 342 342 339 339 338 338 338 339 339 337 335 329 331 331 337 334 333 327 320 321 321 319 314 318 322 326 330 330 329 328
333 333 335 334 334 335 335 334 336 336 338 338 338 338 338 337 337 338 337 338 338 335 337 337 339 341 340 340 343 343 342 341 341 343 340 337 337 336 337 337 338 336 335 332 329 331 333 336 335 334 328 321 318 316 316 319 321 321 327 327 329 329
333 332 333 335 333 333 333 333 333 331 330 332 332 333 331 333 333 334 335 337 335 337 339 341 342 341 340 340 342 342 342 340 341 341 342 340 339 337 336 336 337 337 333 332 331 329 329 333 334 333 333 331 328 321 319 321 320 314 324 326 327 329
329 330 332 333 331 331 332 332 332 331 332 332 332 333 337 338 336 337 337 336 336 337 336 336 338 338 340 342 342 341 341 341 339 340 339 340 339 339 334 334 336 336 334 333 333 328 328 329 332 333 334 333 331 331 330 322 317 319 315 321 325 325
330 330 332 332 330 331 330 332 331 329 332 333 334 334 336 337 338 337 336 335 335 335 334 334 334 333 335 338 341 341 341 341 340 338 338 339 339 341 339 336 338 339 337 337 334 330 327 330 328 329 333 332 330 332 332 329 325 321 318 315 317 325
329 330 331 331 332 331 332 333 331 330 330 334 337 336 336 337 335 335 333 332 333 334 334 334 334 333 334 337 338 339 339 341 340 340 338 338 339 338 340 337 336 337 335 337 336 333 331 329 331 329 329 331 331 330 330 329 328 326 321 317 316 318
328 330 331 331 332 333 334 335 334 333 331 332 334 334 334 332 333 334 331 332 333 331 333 332 334 335 336 337 338 339 337 337 339 338 338 337 336 339 339 337 337 338 337 336 337 335 332 331 330 330 331 330 325 327 326 326 327 325 324 323 317 318
328 331 332 331 330 329 332 334 335 334 333 332 333 332 331 330 332 332 331 330 330 332 333 333 335 335 337 339 341 339 338 339 338 339 336 335 336 335 340 338 337 337 337 335 334 335 333 331 330 330 331 329 327 327 325 323 322 325 324 321 319 318
328 331 332 331 329 329 330 332 334 334 334 333 333 331 331 330 332 330 331 329 331 332 329 332 333 333 337 342 341 341 342 341 340 340 340 339 339 338 338 338 338 337 335 336 337 335 333 331 331 330 331 330 330 331 329 327 326 327 325 323 321 318
328 330 331 331 328 328 329 331 333 333 334 334 333 333 333 333 333 331 330 329 329 329 330 329 329 332 338 340 340 340 340 340 339 339 339 338 342 338 337 337 337 336 335 335 334 334 332 331 331 329 330 334 335 333 330 331 331 329 327 327 326 319
328 330 331 330 329 328 328 331 333 333 333 333 333 334 334 333 333 332 332 331 330 330 329 329 330 334 337 338 338 339 339 339 338 339 340 341 339 340 340 335 336 335 334 336 335 335 333 333 333 333 333 330 332 329 332 332 330 330 327 325 323 320
328 330 330 330 329 328 329 330 332 333 333 333 333 334 333 332 332 333 332 331 330 331 330 331 333 337 337 339 338 338 338 338 337 337 338 339 342 340 340 338 335 336 335 336 335 334 333 332 334 333 333 332 331 329 330 331 331 330 330 328 326 323
329 329 329 330 329 329 331 332 334 334 333 333 334 335 333 331 331 331 330 330 330 332 334 335 335 335 337 339 337 337 336 336 336 336 336 337 337 337 340 338 336 334 333 334 335 334 334 333 333 333 332 331 331 330 331 330 330 331 330 332 331 326
330 331 330 330 330 331 332 332 334 335 334 334 334 333 331 330 330 330 330 330 331 332 335 335 335 336 336 338 338 336 334 334 337 337 337 336 335 335 339 338 337 335 334 334 334 333 334 333 334 333 331 331 331 331 332 332 332 332 333 331 331 330

ECMWFFLT2_sfc_thetae_063.txt.gz
Theta_e
346 346 346 347 348 348 349 351 351 352 351 351 350 351 350 351 350 350 349 349 348 345 344 345 346 346 348 347 348 348 348 347 347 346 347 347 347 347 346 346 345 345 345 345 345 345 344 344 345 345 346 347 343 335 333 332 332 333 332 332 333 332
344 345 346 347 348 348 349 350 348 348 349 349 350 350 348 348 350 347 349 347 343 345 342 342 343 348 346 347 346 348 347 347 347 346 346 346 346 346 346 346 345 345 345 345 345 337 339 344 344 345 346 347 337 336 333 331 330 330 331 331 334 335
343 343 345 345 347 347 347 347 347 347 348 348 348 348 347 347 345 345 344 343 343 342 342 342 343 346 346 347 346 347 347 346 346 346 345 345 345 345 345 345 346 345 345 346 341 336 335 336 335 345 346 339 337 335 332 331 330 330 329 332 331 337
342 343 343 344 345 345 345 346 346 346 346 346 346 346 344 345 344 343 342 341 340 342 342 341 347 348 346 344 344 346 347 346 346 346 345 345 345 344 344 344 345 346 345 344 337 336 337 335 333 335 335 337 333 331 331 330 329 329 329 333 332 336
342 343 342 343 343 343 344 345 345 345 345 344 344 343 342 342 342 342 341 341 342 342 341 341 341 341 340 341 339 340 342 341 340 339 343 336 335 340 338 337 338 340 335 338 339 337 336 335 334 335 338 333 333 333 332 331 330 329 330 331 334 336
342 342 342 342 342 343 344 343 343 344 344 344 342 341 341 342 342 341 340 341 342 342 341 340 340 340 340 340 339 339 339 338 337 338 340 335 333 334 333 335 337 335 331 335 337 338 338 337 335 337 335 332 332 333 333 332 332 332 332 331 333 336
341 342 341 342 342 342 341 341 342 343 342 341 341 340 340 340 340 339 339 340 340 339 339 338 338 339 339 339 338 338 338 338 336 337 338 334 333 333 332 332 331 330 330 330 333 336 338 338 337 340 336 334 332 334 335 336 334 333 332 333 336 336
340 340 338 339 340 340 338 339 341 344 342 341 340 340 340 340 339 338 339 339 340 338 338 337 338 338 339 339 338 339 338 337 336 336 336 336 333 332 332 332 330 329 329 330 331 336 338 339 338 338 337 336 336 335 334 337 335 335 333 333 335 336
339 340 337 338 337 337 337 337 338 338 337 342 340 340 340 340 339 338 339 340 339 336 337 338 338 338 339 338 338 337 336 335 336 336 334 334 333 332 331 330 330 329 329 329 330 336 338 339 336 335 335 336 337 335 335 336 335 334 334 334 334 334
339 338 337 338 337 336 337 337 337 336 337 341 339 341 341 340 340 339 338 339 338 336 336 334 336 337 337 336 336 335 335 334 335 335 333 332 333 331 330 332 332 331 331 331 331 335 336 338 337 335 334 335 335 335 334 333 334 335 334 335 334 334
339 338 337 337 336 336 337 336 337 337 339 338 338 342 341 341 339 338 338 338 337 337 336 334 335 335 337 336 336 335 333 334 334 334 334 334 336 336 333 333 332 330 330 333 332 333 330 336 334 335 335 334 333 333 332 333 334 336 336 334 333 332
338 337 338 337 337 336 336 337 338 337 336 337 339 340 340 339 339 338 338 336 336 336 336 335 335 335 337 336 335 334 335 334 334 336 336 336 336 337 337 337 339 339 336 335 332 334 337 334 333 333 333 333 333 332 332 332 333 334 335 334 332 331
338 337 337 336 337 336 337 339 338 337 338 338 340 340 339 338 338 337 337 336 335 335 335 334 334 334 336 335 334 334 335 335 336 339 339 338 339 338 338 336 338 337 333 331 331 332 337 335 333 331 331 331 332 332 333 332 332 331 332 333 332 331
338 337 337 337 338 338 336 337 338 337 339 340 339 339 339 339 339 338 337 335 335 335 335 336 336 335 335 337 336 335 336 336 339 339 340 340 337 336 336 335 333 332 335 331 329 332 334 334 332 330 329 331 332 331 331 331 330 331 332 332 332 333
339 337 338 338 340 337 336 336 336 339 338 339 340 341 341 340 339 338 336 334 335 335 335 337 337 335 335 336 337 337 336 339 339 338 339 340 339 338 335 334 332 330 330 330 330 332 332 333 332 330 330 332 332 332 331 331 330 331 331 330 331 333
338 337 337 339 336 335 336 336 336 340 338 340 340 341 340 339 338 336 335 334 334 335 335 334 336 336 334 335 334 336 337 338 339 338 339 338 337 336 334 333 332 330 329 328 329 329 330 331 332 331 330 329 330 330 330 331 331 331 331 331 332 332
337 337 338 337 335 334 334 335 336 336 336 340 340 339 340 339 338 337 336 334 334 335 334 335 335 337 334 336 336 333 334 336 339 338 337 336 334 336 335 333 331 332 331 329 329 327 327 329 331 330 328 328 329 330 329 328 330 331 332 331 331 331
337 335 336 337 335 334 333 333 334 336 338 338 338 338 338 339 338 337 338 335 336 336 335 334 335 337 335 336 336 335 333 335 338 338 337 337 335 335 335 334 331 332 331 329 326 326 328 330 331 331 330 329 328 328 327 328 330 334 331 331 331 330
332 333 336 335 335 333 332 332 332 334 334 335 336 336 336 336 337 336 337 337 337 337 337 335 336 337 336 337 334 334 336 336 337 336 337 335 333 333 334 334 332 331 331 330 328 328 329 330 331 330 328 327 327 326 327 328 329 330 330 330 332 332
332 334 334 333 333 332 332 331 331 333 333 334 334 335 336 336 334 334 337 337 337 337 338 336 336 337 336 335 333 333 336 336 337 337 335 333 330 331 333 332 332 331 329 331 330 331 330 330 329 328 327 327 327 327 327 328 329 329 328 328 328 328
331 332 332 332 332 330 329 328 330 331 332 333 332 332 333 335 334 335 336 335 336 337 336 336 337 336 335 335 334 335 336 335 337 337 334 332 334 333 334 334 332 330 329 328 328 331 331 330 328 326 327 325 326 328 329 327 326 327 326 326 327 327
331 332 332 332 331 331 331 330 330 331 332 332 333 332 332 333 335 335 336 335 335 335 336 334 334 336 337 337 336 335 335 335 336 335 336 336 334 336 333 334 331 329 330 328 327 329 330 328 324 323 322 322 323 325 326 326 326 327 326 327 327 328
332 332 332 331 330 330 332 333 333 332 333 331 334 335 335 334 337 335 334 334 334 334 334 333 333 334 333 336 336 336 336 335 335 336 333 333 334 333 332 333 331 329 327 327 329 331 330 327 322 323 323 321 318 317 322 324 326 326 327 328 327 326
330 331 331 331 331 333 334 333 332 332 334 333 331 337 335 335 335 334 334 334 333 333 333 333 334 336 336 337 335 336 335 335 336 335 333 332 332 332 332 331 331 329 329 326 327 327 331 328 326 323 316 314 315 317 315 318 321 325 327 325 322 324
330 331 332 333 333 333 333 331 331 331 332 333 335 334 332 331 333 333 333 333 332 333 334 333 334 335 336 335 335 333 334 336 335 335 334 332 331 332 332 332 332 330 329 327 325 324 327 328 327 325 320 317 313 311 313 318 321 321 326 324 323 323
330 331 331 332 333 332 332 330 328 327 327 328 329 329 328 330 331 332 331 333 333 333 335 334 335 336 335 334 332 332 333 332 334 335 333 331 333 333 332 332 332 331 329 328 327 326 323 325 327 327 325 321 319 313 315 319 319 313 324 324 321 324
329 330 331 331 332 332 331 330 329 329 329 328 329 330 332 333 332 332 332 331 331 333 334 333 334 334 334 334 333 332 332 331 334 334 336 333 331 331 332 332 332 330 330 329 328 325 324 323 325 327 328 326 326 323 323 319 314 318 315 320 322 320
329 330 331 331 331 331 330 330 329 329 329 329 329 330 331 332 332 333 331 331 331 330 332 332 331 333 334 333 331 330 330 330 334 335 334 333 331 332 332 331 331 330 329 330 329 326 324 325 324 323 325 324 324 325 325 321 321 318 316 314 317 323
328 330 330 330 330 331 331 330 329 330 329 330 331 331 332 333 332 332 330 330 329 329 330 331 332 332 332 332 331 331 332 332 334 334 334 334 333 333 332 330 330 330 329 329 329 328 326 325 324 324 324 323 324 323 321 322 323 321 318 316 316 318
328 329 330 329 330 330 330 329 328 328 328 329 331 331 332 331 330 330 328 327 327 328 328 328 330 332 331 331 331 332 334 334 334 334 333 332 332 331 331 331 330 330 331 330 328 328 327 326 326 326 325 323 320 320 319 319 320 319 319 319 316 317
328 330 330 328 329 329 330 329 328 328 328 328 330 330 330 329 329 327 326 325 325 326 327 328 330 331 330 331 330 332 332 332 331 332 332 329 329 332 332 332 332 332 331 330 328 328 326 325 325 325 324 323 322 322 320 318 319 320 318 316 316 316
327 328 329 328 328 329 330 330 329 328 327 329 330 330 329 328 328 326 325 325 325 327 327 328 329 328 330 332 332 332 331 332 330 330 331 330 330 332 333 333 332 331 331 331 330 328 326 325 325 325 324 323 323 324 322 322 322 321 319 318 318 316
326 328 329 329 327 327 328 329 329 328 329 330 331 330 329 328 328 327 326 324 325 324 325 326 326 327 328 330 332 332 331 331 331 331 332 333 333 334 333 333 332 332 331 330 329 328 326 326 327 325 324 325 325 326 323 323 324 323 321 320 320 317
326 328 329 328 328 327 328 328 329 330 329 329 329 330 328 328 328 327 326 325 325 325 325 325 326 327 329 332 331 331 332 331 331 332 332 331 332 334 334 333 333 332 331 330 330 328 327 326 326 326 327 326 326 325 326 326 325 324 322 320 318 318
325 327 328 328 328 327 326 328 330 331 331 329 328 328 328 329 328 327 326 325 325 326 326 326 327 328 332 331 331 331 331 330 330 332 332 332 332 332 331 332 332 331 331 331 330 328 327 326 327 327 326 326 325 325 325 326 326 325 323 322 320 319
324 324 327 327 326 327 327 329 331 331 332 331 329 328 328 328 329 328 327 326 326 326 327 328 328 330 331 331 330 330 330 330 331 331 332 332 332 332 331 330 329 330 330 333 330 328 327 328 328 328 327 325 324 323 325 326 327 326 324 323 322 321
324 325 325 326 328 329 329 329 331 332 331 331 329 328 328 328 328 328 328 327 327 327 328 329 330 331 330 330 330 328 328 329 329 329 330 330 330 331 331 330 329 329 329 330 330 329 327 328 327 328 327 326 325 325 325 325 324 326 327 325 323 322

ECMWFFLT2_sfc_thetae_066.txt.gz
Theta_e
347 347 347 347 347 348 350 352 351 351 351 351 351 350 350 350 350 349 348 348 347 345 345 346 346 346 348 347 348 348 348 347 347 347 347 347 347 346 346 345 345 345 345 346 345 344 344 345 346 346 342 338 337 329 329 329 329 331 330 331 333 332
346 346 346 346 347 347 349 350 347 348 348 349 350 350 348 347 350 345 347 345 343 345 342 342 344 349 345 347 346 348 347 347 347 347 347 347 347 346 346 345 345 345 345 345 344 333 334 342 345 345 342 338 331 329 329 329 328 329 330 330 332 333
345 345 345 345 346 346 347 346 346 346 347 348 348 348 345 346 344 344 343 342 343 341 341 342 343 346 345 346 346 347 347 346 346 347 347 347 347 346 345 345 345 345 345 345 336 334 332 332 334 343 342 333 329 328 328 328 328 329 329 331 329 335
343 344 344 344 345 345 346 346 345 345 344 344 345 345 344 344 343 342 341 340 340 341 340 340 347 348 348 344 345 347 347 346 346 346 346 345 346 346 346 346 345 345 344 340 334 334 335 333 331 330 329 329 329 329 328 328 328 328 329 333 331 336
343 344 343 344 344 344 345 345 344 344 344 344 344 343 343 343 342 340 340 340 340 340 339 340 340 340 340 340 338 339 341 339 338 338 343 336 337 341 339 335 337 337 332 336 337 333 334 333 332 330 329 327 328 328 328 328 328 327 328 328 330 336
342 342 342 343 344 345 345 343 343 344 344 344 343 341 341 341 340 340 340 340 340 338 338 338 338 338 339 338 338 336 337 337 334 335 338 333 332 334 333 335 335 334 333 335 336 333 334 335 331 330 329 329 329 329 328 328 328 329 329 329 331 335
341 341 341 342 343 344 343 343 343 344 343 342 341 340 340 340 340 340 340 341 338 337 337 337 337 337 337 338 337 336 335 335 334 334 334 332 330 331 332 332 331 330 330 332 333 333 335 335 333 331 331 331 330 329 329 329 330 330 330 331 335 336
340 340 340 341 341 341 340 341 342 344 342 343 340 339 339 340 340 339 340 340 340 338 337 337 337 337 337 337 336 336 335 333 331 331 333 332 331 329 329 329 328 326 328 328 329 332 336 336 333 333 332 332 332 331 331 331 331 331 330 330 331 335
340 340 339 340 339 338 338 340 340 340 339 343 339 338 339 339 338 339 339 340 340 337 336 337 336 337 337 336 336 336 334 332 331 332 331 331 331 329 328 328 328 327 326 326 326 331 336 333 332 332 333 333 332 331 331 331 331 331 331 329 328 333
339 339 339 339 337 336 337 338 338 337 338 341 338 338 338 338 338 338 338 339 339 337 336 336 336 336 336 335 335 334 334 333 333 332 331 332 330 329 327 326 327 326 327 326 327 334 335 332 332 333 333 332 331 331 331 331 331 331 331 330 329 332
339 337 337 337 336 335 336 336 337 337 337 337 338 339 338 337 337 337 338 338 338 338 336 335 336 335 336 336 335 334 332 332 331 333 332 332 331 331 329 328 328 327 326 328 330 334 333 331 332 332 332 331 330 330 330 331 332 332 332 330 329 329
337 336 336 335 335 334 335 337 337 336 336 336 339 338 338 337 337 336 337 337 336 336 335 333 334 335 335 335 335 334 332 331 332 332 333 331 331 332 330 330 334 333 330 331 333 332 331 330 329 330 330 330 330 329 329 331 332 332 331 329 328 329
337 335 335 335 335 335 336 337 336 335 335 338 339 338 337 337 336 336 336 336 336 336 335 333 332 333 335 334 334 333 332 332 333 333 333 333 334 335 335 334 332 331 330 332 333 331 332 329 328 327 328 329 329 329 330 330 330 330 330 328 328 328
335 335 335 335 335 334 335 335 336 336 337 338 338 338 337 336 337 336 335 335 335 335 334 334 332 331 332 332 332 332 333 333 335 335 335 336 334 334 332 331 330 330 332 331 331 330 329 327 326 325 327 327 328 329 329 329 328 329 329 328 328 329
335 335 335 334 334 333 335 335 335 335 336 337 338 338 337 337 336 336 335 334 334 334 334 334 333 332 333 334 332 331 334 335 336 337 336 334 334 331 331 330 329 328 328 329 330 330 328 326 326 326 326 327 328 329 328 327 328 328 329 329 329 329
334 335 334 334 334 333 333 333 334 338 336 337 338 337 337 337 336 335 335 334 334 334 334 334 333 332 332 332 333 333 333 336 336 336 336 335 333 330 330 329 329 328 327 327 329 328 329 328 327 327 325 326 327 329 328 328 328 328 328 329 330 329
333 334 334 333 333 333 332 333 335 337 337 338 338 338 337 336 335 334 333 333 333 335 334 334 334 333 332 332 331 331 332 336 336 336 335 333 331 330 330 329 328 328 329 327 328 328 329 329 327 326 324 325 326 328 328 327 327 327 329 328 328 328
334 333 333 333 332 333 334 335 335 335 337 337 337 337 337 336 334 334 333 332 333 334 334 333 334 333 332 332 332 331 330 332 335 335 334 332 330 330 330 329 328 327 328 327 326 328 328 327 326 326 325 324 324 324 327 327 328 331 327 327 328 327
333 333 332 332 332 332 333 333 333 335 335 335 335 335 336 335 335 334 333 333 334 334 334 333 333 333 331 333 332 332 330 330 333 335 334 332 331 330 330 329 328 327 326 326 326 328 329 330 329 327 326 325 324 326 327 329 329 327 327 327 330 329
332 332 331 331 331 330 331 332 333 333 334 334 333 334 333 334 334 334 335 334 334 333 334 333 333 333 332 332 331 332 331 332 333 334 333 330 329 329 328 329 327 327 326 328 328 329 330 329 327 326 326 326 325 325 329 330 330 329 328 328 328 326
330 330 330 329 329 329 330 330 332 332 332 332 332 331 332 332 333 333 336 334 334 334 334 333 334 333 331 334 331 331 331 332 333 333 332 330 330 330 329 330 329 327 326 326 328 330 328 327 325 324 326 326 326 329 330 329 328 327 326 326 327 326
329 330 330 330 330 330 331 332 332 331 331 331 330 330 330 331 332 333 334 333 334 333 333 333 334 333 332 332 330 330 330 332 333 331 331 331 330 333 329 329 328 326 327 328 327 329 327 326 322 321 320 320 323 325 327 327 327 326 325 326 325 326
329 329 331 331 331 330 331 331 331 330 331 330 331 332 332 332 333 332 332 333 333 333 333 332 333 334 332 332 331 330 330 332 332 332 331 330 331 330 329 328 328 326 325 325 327 328 327 323 321 323 323 320 317 317 321 324 326 327 327 327 327 326
328 330 331 331 332 331 332 331 330 331 332 331 330 333 331 333 333 332 331 332 332 332 332 332 333 334 334 334 332 331 330 330 330 331 332 331 330 328 328 328 328 327 327 325 326 327 328 324 325 322 316 314 317 317 314 318 321 325 327 325 327 326
329 330 331 332 331 331 332 329 330 330 331 330 331 330 329 329 331 331 331 330 330 331 332 332 332 333 334 333 333 330 330 330 329 330 331 331 330 329 329 328 328 328 327 326 324 324 326 325 325 323 319 316 314 314 314 318 321 321 324 323 324 325
329 331 331 331 331 332 330 330 329 329 328 328 328 328 327 327 329 329 330 330 330 331 332 332 332 332 334 333 331 330 330 330 329 330 331 331 331 329 329 328 329 329 327 327 326 324 324 326 326 325 323 319 319 315 316 320 320 313 322 323 322 325
329 330 331 331 332 332 330 330 330 330 330 328 328 328 330 330 330 330 331 330 330 330 332 331 331 333 332 332 330 330 330 329 329 331 332 329 329 330 330 329 330 329 328 327 326 324 324 324 324 324 324 322 322 319 323 320 316 318 314 319 321 320
329 329 330 331 331 332 330 329 329 330 330 329 329 328 329 330 331 330 330 330 329 330 332 332 331 332 332 331 330 330 329 328 329 331 333 330 330 330 329 329 330 330 329 328 327 326 324 324 323 322 321 319 319 322 323 318 321 318 316 314 317 322
328 329 330 330 331 331 331 330 329 329 328 329 329 329 330 331 330 330 329 328 328 329 330 330 331 331 331 331 331 329 329 328 329 331 333 331 330 330 328 328 327 327 328 328 328 327 326 324 323 322 320 317 320 320 319 318 320 318 317 315 315 318
327 329 330 330 330 330 330 330 329 328 328 328 329 328 329 330 329 329 328 327 327 328 328 328 329 330 330 331 330 330 329 329 329 332 333 332 330 329 328 328 328 327 328 327 326 327 326 325 324 323 323 321 318 316 317 317 315 316 316 316 314 316
328 329 330 329 328 326 327 328 327 326 326 325 326 328 329 329 328 326 326 325 325 326 326 327 327 328 329 330 329 330 329 329 330 332 332 331 329 329 328 328 329 328 327 327 326 325 324 324 323 323 322 322 320 320 319 316 316 316 316 314 316 317
327 328 328 329 328 328 328 327 324 324 325 327 329 329 329 329 329 327 326 324 323 323 324 325 326 326 327 328 329 329 330 330 330 331 330 330 330 329 329 329 329 328 327 327 326 325 324 323 323 323 321 321 321 321 318 319 319 318 317 316 317 317
325 327 328 328 327 327 326 324 324 326 327 328 329 330 329 328 328 327 325 323 323 323 323 324 325 326 326 327 328 328 328 329 328 329 329 328 329 331 330 329 329 329 328 326 326 325 324 324 324 324 322 320 322 321 320 320 321 319 317 318 318 316
325 327 328 328 328 327 327 327 329 330 328 327 326 329 329 328 326 325 324 324 324 324 324 325 326 326 328 328 329 329 329 329 329 328 329 328 329 331 330 330 329 328 328 327 326 325 324 324 324 324 323 322 322 323 320 322 322 320 318 318 316 316
325 326 327 327 327 327 326 327 329 330 329 328 327 327 327 327 326 325 324 324 324 326 326 326 326 327 328 329 330 329 329 329 328 328 329 329 330 331 330 330 330 329 328 327 326 325 323 324 324 323 322 323 323 322 322 322 323 321 321 320 319 318
324 326 327 327 327 327 325 327 329 330 331 330 329 328 327 327 327 325 324 324 324 325 326 326 326 327 328 330 329 329 329 329 329 329 329 330 330 330 330 330 328 328 327 330 326 324 323 324 324 323 323 322 323 323 323 324 323 322 322 321 321 320
322 323 323 324 325 326 326 327 329 331 331 330 330 328 327 327 327 326 325 325 325 325 325 326 327 328 329 329 329 329 328 329 329 329 329 329 330 329 329 328 328 327 327 328 327 326 323 324 323 324 322 322 323 323 322 323 323 322 321 321 321 321

ECMWFFLT2_sfc_thetae_069.txt.gz
Theta_e
348 348 348 349 348 347 349 350 349 350 350 351 350 350 349 350 349 349 348 349 347 345 344 346 347 345 348 347 348 347 347 347 346 346 347 346 346 346 345 346 346 346 345 345 345 344 345 342 341 340 340 339 337 328 327 327 327 330 328 329 330 327
347 348 348 348 348 347 348 348 345 346 347 347 349 350 348 346 349 345 348 345 343 345 342 341 343 348 344 346 346 347 347 347 346 346 347 346 346 345 345 345 346 346 346 344 341 332 338 343 341 340 339 336 329 327 327 327 327 328 328 326 329 333
347 347 347 347 347 346 345 344 344 345 346 347 347 346 345 346 342 343 342 342 343 341 341 340 341 345 344 347 346 347 347 346 346 346 346 347 346 345 345 345 346 346 345 340 334 331 332 336 337 340 338 330 326 326 326 326 327 327 327 328 327 335
346 346 346 346 345 345 345 346 344 343 343 343 343 344 342 342 341 341 341 340 339 340 340 340 347 348 347 344 345 347 346 346 346 346 346 345 346 346 345 345 346 345 340 336 333 331 332 333 332 329 327 326 326 326 326 327 326 326 328 331 328 335
346 345 345 345 345 345 346 346 345 344 342 342 341 341 341 341 340 339 339 339 339 339 338 339 339 340 339 340 338 338 341 338 337 337 343 331 333 337 336 332 333 333 331 335 333 330 330 328 328 328 327 326 326 326 327 327 326 325 324 325 330 334
344 345 345 344 345 346 346 344 344 344 344 343 342 341 339 339 340 338 338 339 339 337 337 337 336 337 336 338 338 336 336 336 335 334 335 329 328 328 328 330 330 332 330 333 334 332 330 329 327 326 326 326 326 327 326 326 327 326 325 326 333 336
343 343 344 345 345 345 344 344 344 344 343 343 343 341 339 339 338 338 338 339 337 336 336 335 337 337 337 338 336 334 334 335 334 332 332 331 328 328 328 328 327 327 326 330 331 333 330 327 327 327 327 326 326 326 326 326 326 326 325 328 334 335
341 340 341 342 342 342 342 343 344 343 342 343 342 341 340 339 338 338 338 338 338 337 336 336 337 338 338 336 335 335 334 332 331 331 331 330 328 326 327 326 327 325 327 328 330 333 331 329 328 328 328 327 327 326 327 327 328 327 325 326 329 334
340 340 340 340 340 340 341 341 341 342 341 344 341 341 340 339 338 337 338 338 338 336 335 336 337 337 336 335 334 334 333 332 331 330 330 328 328 326 325 325 326 327 324 324 326 333 332 330 329 329 329 328 328 327 327 327 327 327 326 325 328 332
339 339 338 337 337 338 339 340 341 341 342 343 340 339 339 339 338 338 337 338 338 337 336 336 336 336 336 335 334 333 333 331 330 329 330 330 327 326 325 324 325 325 324 323 327 333 331 330 330 330 329 329 328 328 327 327 327 327 326 326 327 332
339 339 338 336 335 336 337 338 338 339 341 340 340 339 338 339 337 338 337 338 338 337 336 335 336 336 335 335 334 333 332 330 329 329 329 330 327 328 326 325 325 325 323 325 328 332 330 330 329 330 330 329 328 328 328 328 328 328 327 326 326 328
337 337 337 336 337 336 336 336 335 337 338 338 339 338 337 338 338 337 337 336 336 336 336 335 335 335 335 334 334 333 332 330 330 329 330 329 328 328 325 326 327 329 328 329 330 329 329 329 327 328 328 328 328 328 328 329 329 328 327 325 325 325
336 336 335 335 336 336 336 335 333 336 337 338 339 338 337 337 336 336 336 336 335 335 335 334 334 335 336 334 334 332 331 332 331 331 330 329 329 327 328 328 328 329 329 330 329 328 329 327 327 325 327 327 327 328 328 329 328 327 326 324 324 326
335 334 334 334 334 335 335 335 335 336 337 338 338 337 337 336 336 336 336 335 335 335 333 333 333 332 334 332 332 332 332 331 330 330 329 329 329 328 328 328 327 329 332 329 328 327 327 325 324 324 325 326 327 327 328 328 327 326 326 326 324 324
334 333 334 333 333 334 335 334 335 335 335 337 338 337 336 336 336 335 335 335 335 334 333 333 332 332 331 332 331 330 331 332 332 332 331 331 330 330 329 327 328 328 327 327 326 326 325 325 325 326 326 327 328 328 327 327 326 326 326 325 325 325
333 332 334 333 333 333 334 334 334 336 335 336 337 336 336 336 336 335 334 334 334 335 333 332 331 331 331 332 331 330 331 333 333 333 332 330 330 329 327 327 327 329 328 327 327 325 324 324 326 327 328 328 328 328 327 326 326 326 326 326 326 325
331 332 332 332 332 332 332 333 334 335 334 335 336 336 336 336 335 334 334 333 334 334 333 332 332 331 331 331 331 330 330 332 334 333 332 331 329 329 328 327 326 326 330 328 328 326 326 326 326 327 327 328 328 328 328 326 325 326 327 326 324 324
331 332 332 331 331 331 331 332 333 334 336 336 338 338 336 336 335 334 333 333 333 334 333 332 332 331 330 331 331 331 329 332 333 334 331 329 328 328 328 327 325 324 327 328 327 327 326 326 327 326 326 326 327 328 328 326 325 329 326 327 327 324
330 331 331 332 332 331 331 331 332 332 334 333 336 338 336 335 335 334 332 333 333 333 334 332 332 331 331 332 330 329 330 330 332 332 329 328 327 328 328 326 326 325 325 326 329 328 327 327 326 326 325 326 327 328 328 329 328 326 326 327 327 328
330 330 331 332 331 330 331 331 331 333 333 332 334 337 336 334 333 333 333 333 332 332 333 332 331 331 332 332 330 329 329 330 331 331 329 327 327 327 326 326 325 325 326 329 330 329 329 327 326 325 325 327 328 329 330 330 329 328 329 329 326 325
328 330 330 330 329 329 329 329 331 332 332 334 334 336 335 333 332 333 333 333 332 332 332 332 332 331 331 334 330 329 329 330 331 330 329 328 328 327 327 327 326 325 326 327 328 329 327 326 324 324 326 326 326 330 330 329 328 328 327 328 326 325
328 329 330 329 329 330 330 330 330 331 333 334 334 334 333 333 334 333 333 332 332 332 332 332 333 331 331 331 329 329 329 330 332 331 330 329 328 329 327 326 326 323 325 328 327 328 327 326 321 321 320 321 323 326 327 327 326 326 327 327 325 324
328 329 329 330 330 329 330 332 332 332 333 333 335 336 335 334 334 333 333 332 332 332 332 332 332 332 330 330 330 330 329 330 330 332 330 328 328 326 327 326 325 325 326 328 328 328 327 323 321 323 323 320 318 317 321 324 326 326 327 326 325 324
328 329 329 329 330 331 332 333 333 333 333 334 332 334 333 332 331 331 331 332 332 332 332 332 332 332 331 330 329 329 329 330 330 331 330 329 328 326 326 325 325 326 327 325 326 325 327 323 324 322 316 316 317 317 314 317 320 324 327 325 326 325
328 328 329 329 330 330 332 331 332 331 332 331 331 331 330 330 331 331 332 331 331 332 332 332 332 332 331 330 329 329 329 330 330 329 330 330 328 327 326 326 326 325 326 326 324 325 326 325 324 323 320 316 314 314 314 318 320 320 324 324 325 325
328 328 328 329 330 330 330 330 329 329 327 328 328 327 326 328 328 329 330 331 332 332 332 331 332 332 332 332 329 329 329 329 328 328 329 330 329 328 326 326 326 326 325 327 327 325 324 325 324 322 320 316 318 314 314 319 319 312 322 323 324 326
328 328 330 329 330 330 329 330 330 330 329 329 328 329 329 329 330 330 330 329 330 330 331 331 330 332 332 332 330 329 328 329 329 328 330 329 328 327 327 327 327 326 326 326 326 324 324 324 323 321 321 319 319 317 321 318 314 317 314 319 322 322
328 329 330 330 330 331 329 328 329 329 330 329 329 328 328 327 328 329 328 328 328 329 330 330 330 331 332 332 330 329 328 328 328 328 330 329 328 327 327 328 328 328 326 326 325 324 324 325 322 321 320 319 319 319 321 314 318 316 314 313 316 322
326 327 328 329 330 331 330 328 328 328 328 327 327 327 327 328 327 328 327 327 328 329 329 329 330 330 331 331 331 329 328 327 327 328 331 328 328 328 327 326 326 326 325 325 325 324 325 324 323 320 319 314 317 317 316 315 317 315 313 314 315 317
324 325 326 328 330 330 330 329 328 328 328 327 326 325 326 327 326 326 327 326 327 328 328 328 328 330 330 330 329 329 328 327 327 328 330 328 328 328 328 327 327 326 326 325 324 325 324 324 324 321 321 317 314 314 315 314 314 312 313 313 313 315
322 322 324 328 330 329 329 328 328 328 328 326 324 324 325 327 328 328 327 326 326 327 327 327 327 328 329 329 328 329 328 328 328 329 330 328 328 328 328 327 327 326 326 325 324 324 323 323 323 322 320 320 319 319 317 314 315 314 312 310 314 316
321 323 326 328 328 328 329 328 327 327 327 327 328 328 326 327 328 327 327 326 325 325 325 324 326 327 327 328 328 328 329 328 328 328 329 329 329 328 328 328 327 326 326 326 325 324 323 322 321 321 320 319 320 320 318 317 317 317 315 313 316 316
323 324 327 328 327 327 328 327 327 327 327 329 329 330 330 329 329 328 326 325 324 323 324 323 324 325 326 327 327 327 327 328 328 329 330 329 328 329 327 326 327 326 325 325 325 324 323 322 323 322 321 319 320 320 318 317 318 317 315 316 317 316
324 325 326 327 327 327 327 327 327 328 328 329 329 329 329 329 328 327 325 325 324 324 324 325 325 325 326 327 327 328 328 329 329 328 329 328 328 328 327 326 326 326 325 325 324 324 324 323 323 323 322 320 319 320 317 319 319 318 316 316 316 317
323 324 325 326 327 326 325 324 326 327 327 327 328 329 328 328 326 325 324 324 324 325 325 326 326 327 326 326 327 327 327 326 327 327 328 327 328 328 327 327 327 327 326 325 324 324 323 322 323 322 320 321 321 320 318 319 319 319 319 318 317 317
322 322 323 324 325 324 324 325 325 327 328 327 328 327 324 322 325 325 324 324 324 325 326 327 327 325 325 326 326 326 326 327 327 327 327 327 327 328 327 327 326 326 325 327 324 323 322 322 323 322 321 319 321 321 320 320 320 319 319 319 319 318
321 321 321 320 322 323 323 325 325 327 328 328 328 325 324 322 323 324 324 324 324 324 325 326 326 326 325 325 326 326 326 327 326 326 327 327 328 328 327 327 326 325 325 325 324 323 321 322 322 321 320 320 322 321 320 320 321 319 319 319 319 320

ECMWFFLT2_sfc_thetae_072.txt.gz
Theta_e
347 346 347 347 346 347 349 350 348 350 350 349 350 350 349 350 349 348 348 348 347 346 346 346 347 346 348 347 346 346 346 346 346 346 346 346 346 346 345 346 345 344 344 343 343 342 342 341 341 340 339 338 336 329 328 329 331 334 331 332 333 331
347 347 348 348 347 346 347 347 345 345 346 346 348 349 347 346 347 344 346 346 343 346 342 343 344 347 345 347 346 346 346 346 346 346 346 346 345 345 345 345 344 344 344 344 343 340 341 342 341 340 338 336 329 328 328 329 330 331 331 332 334 336
347 347 347 346 347 346 344 343 344 344 345 346 346 346 344 345 342 342 343 343 344 342 341 343 344 345 345 346 346 346 346 346 346 346 346 346 345 346 346 345 344 343 342 340 336 336 336 337 338 340 336 330 328 328 328 329 329 329 329 333 331 336
347 347 346 346 346 345 345 344 343 342 342 342 343 343 341 341 342 341 341 340 341 342 341 341 347 348 347 344 345 346 346 346 346 345 345 345 345 345 346 345 343 341 337 335 334 335 335 333 330 328 328 328 328 328 329 329 329 329 330 335 331 335
346 346 346 346 346 345 345 345 344 342 341 342 340 340 340 339 340 340 340 340 340 340 339 340 342 342 340 341 341 340 340 337 336 336 340 334 336 339 337 336 335 334 333 333 333 333 332 329 329 328 328 328 328 329 329 330 329 328 329 331 335 334
345 345 345 345 345 345 346 344 344 344 343 342 340 339 338 339 338 338 339 340 340 339 338 339 339 339 339 341 340 338 336 335 334 334 336 331 331 333 333 334 334 334 333 332 332 332 331 329 328 328 328 328 328 329 328 328 329 329 330 332 336 334
344 344 344 346 345 345 344 344 344 344 343 342 341 339 338 338 338 338 338 340 339 339 338 338 339 340 340 341 339 337 336 334 333 333 334 330 330 329 331 333 332 331 332 332 331 330 328 328 329 328 328 328 328 328 328 328 329 330 330 332 336 335
343 344 343 344 344 344 344 344 344 344 343 343 342 340 339 338 338 338 338 338 340 338 337 338 339 340 339 340 338 336 336 334 333 332 334 332 330 328 328 329 329 329 331 332 331 330 328 328 328 328 328 327 328 328 328 329 330 329 330 332 335 335
342 342 342 343 342 343 343 343 343 341 341 344 342 341 338 338 338 338 338 338 339 336 335 338 338 339 339 339 337 335 335 334 332 332 332 330 329 327 327 326 327 327 327 330 331 330 329 329 329 328 328 328 328 328 329 329 330 330 329 331 332 335
341 341 341 341 341 342 342 342 341 340 341 343 341 339 336 335 339 338 337 337 338 337 336 337 338 339 338 337 337 335 334 333 332 332 333 331 329 327 325 325 326 326 327 330 331 332 330 329 329 329 329 329 329 329 329 330 330 330 329 330 333 336
340 341 340 340 340 341 342 341 342 341 341 340 341 339 336 336 339 338 338 338 337 337 336 336 338 338 338 337 336 335 333 332 331 331 331 332 330 328 325 325 327 326 326 329 332 332 330 330 330 330 330 329 329 330 330 330 331 331 330 330 331 334
338 340 339 339 340 340 340 340 341 341 341 341 341 339 337 338 338 338 338 337 337 336 337 335 337 337 337 337 336 335 333 331 331 331 331 331 329 328 327 327 328 328 327 330 331 330 331 330 329 329 329 329 330 330 331 331 331 330 330 330 330 331
338 339 337 337 338 339 340 339 339 340 340 341 340 338 337 338 338 338 337 337 336 336 336 335 335 336 338 337 336 334 333 332 332 331 331 330 330 329 330 329 329 330 330 330 330 329 330 329 329 328 329 329 330 330 330 331 330 330 330 329 329 330
337 335 335 336 337 337 337 337 337 339 340 340 339 337 338 338 339 339 338 336 336 336 335 335 335 334 336 335 334 333 332 332 332 331 330 330 330 329 328 328 329 330 331 329 328 328 328 327 327 328 328 329 329 330 330 330 329 329 329 329 329 330
335 334 336 334 335 336 336 336 336 337 339 339 339 338 338 338 338 338 338 337 336 335 335 334 335 334 334 333 333 332 331 332 332 331 331 330 330 329 329 329 330 329 328 328 327 328 327 327 328 328 328 329 329 330 330 329 329 329 329 329 330 330
334 333 334 333 334 335 335 334 335 337 336 338 339 338 336 336 337 337 337 336 336 335 334 334 334 334 333 333 332 332 332 332 333 332 331 330 330 329 328 328 329 330 327 326 326 325 327 327 328 328 328 329 330 330 329 328 329 329 329 330 330 330
333 333 332 332 331 332 332 333 334 336 335 337 338 337 335 334 335 334 334 335 335 335 333 333 333 333 333 332 332 332 331 332 333 333 331 330 330 329 328 328 328 330 330 327 326 325 327 327 327 328 328 328 329 329 329 328 327 328 329 329 328 329
333 332 332 332 332 332 332 332 332 333 335 335 337 337 336 335 334 333 334 334 335 335 334 332 332 332 332 332 332 332 330 332 333 333 331 330 329 328 328 329 327 328 330 328 326 326 326 327 327 327 327 328 328 329 328 326 328 330 329 329 329 329
332 331 331 330 330 329 330 330 330 332 333 333 336 336 335 334 333 333 333 334 333 335 335 332 331 331 330 332 331 330 330 332 333 332 330 329 328 328 328 328 328 328 329 329 328 327 326 327 327 327 327 327 328 328 328 329 329 328 329 329 330 330
331 331 330 328 329 328 329 330 330 332 333 333 334 335 333 333 333 333 333 333 333 333 334 333 331 331 331 332 330 330 331 332 332 331 329 328 327 327 327 327 327 328 328 329 329 328 328 327 327 327 327 328 329 328 329 330 329 328 329 330 330 329
329 329 329 329 329 329 328 329 330 330 330 332 332 334 333 332 332 332 333 333 333 333 333 333 333 331 330 334 331 330 331 331 332 331 330 329 329 328 328 328 328 329 328 326 326 328 327 327 325 324 326 327 328 330 330 330 328 329 329 328 328 325
327 327 328 329 329 329 329 329 328 329 329 331 331 333 332 330 331 332 332 333 333 333 333 333 334 331 331 332 330 329 331 331 331 330 330 329 329 330 328 328 328 327 329 327 325 327 327 327 323 322 321 321 324 326 328 328 327 327 328 327 326 326
326 327 327 329 329 329 330 331 329 328 329 329 333 334 334 331 331 331 332 332 333 333 332 332 333 332 330 331 331 330 330 331 331 331 329 328 328 328 327 327 327 327 326 329 327 328 327 327 322 324 324 321 318 317 321 324 326 326 328 327 326 325
327 326 326 327 329 328 329 331 331 330 330 329 331 336 336 334 332 331 331 332 333 332 332 331 332 332 331 331 331 330 330 331 331 332 330 328 327 327 327 326 326 328 328 325 325 325 328 327 326 323 316 318 318 318 313 317 320 324 327 326 326 326
327 324 324 326 327 327 329 329 331 331 331 330 333 334 333 331 333 332 332 331 332 332 332 331 332 332 332 330 330 331 330 331 331 331 331 329 328 327 327 327 327 328 328 326 324 325 327 327 326 325 321 317 315 313 314 318 320 320 325 324 326 326
327 325 325 325 326 327 328 329 329 328 327 328 328 328 328 328 329 330 331 332 333 332 332 331 331 332 332 331 329 330 330 330 330 331 331 330 329 328 327 326 327 328 327 329 327 325 324 327 326 324 320 319 320 315 315 320 318 312 322 324 325 326
327 327 327 328 328 329 328 330 330 330 330 329 328 329 331 332 331 332 333 332 332 332 332 331 331 331 331 331 329 329 329 330 331 330 331 330 329 327 327 328 328 327 327 328 328 324 324 324 326 325 324 322 323 319 323 320 315 317 314 320 323 323
327 328 328 329 330 330 330 330 329 329 329 329 329 328 329 330 332 331 331 331 331 331 332 331 330 331 331 331 329 328 329 329 329 330 331 330 329 329 328 328 328 327 328 328 328 325 325 326 322 322 323 321 320 320 322 319 322 318 316 313 316 322
327 327 327 329 330 330 330 330 329 329 328 328 329 328 329 330 329 330 329 330 330 330 331 331 331 330 331 331 331 329 328 328 328 329 331 330 330 329 328 327 327 326 326 327 328 326 327 325 324 322 320 317 319 320 320 320 320 318 316 315 315 317
325 325 326 327 330 330 330 329 329 328 328 327 328 327 328 327 328 328 328 328 329 329 329 330 330 330 329 330 331 330 329 328 328 329 331 330 329 328 328 327 328 327 327 327 327 326 326 327 326 323 323 320 318 318 319 319 318 317 318 318 315 316
324 325 326 327 329 329 329 329 328 328 328 327 327 327 327 327 327 327 327 327 328 327 327 328 328 329 329 330 330 330 329 329 329 330 331 329 329 329 328 328 328 327 326 326 326 325 325 326 326 323 322 322 321 320 319 318 318 317 316 314 316 317
324 325 327 327 327 328 329 329 328 328 328 328 328 328 328 327 328 327 327 327 326 325 325 327 328 328 328 329 330 330 330 329 329 329 330 330 330 330 329 328 327 326 326 326 326 326 325 324 325 324 323 322 322 322 321 320 320 320 318 318 317 316
323 325 326 327 326 327 328 328 328 328 329 329 329 329 329 328 329 329 328 326 325 324 324 325 326 327 329 329 329 328 328 328 327 328 329 329 329 330 329 328 327 326 327 326 326 326 324 324 325 324 323 322 323 322 322 321 321 320 318 319 318 316
323 324 325 326 327 326 327 327 328 328 328 329 327 328 327 328 329 328 326 325 325 325 323 324 325 326 329 329 329 329 328 327 327 327 328 329 329 329 329 328 327 326 326 327 327 326 325 325 325 326 325 322 322 322 322 321 321 320 319 319 318 318
322 322 322 324 325 326 325 325 325 326 326 325 325 326 326 327 328 326 325 325 325 325 324 324 325 326 328 328 328 328 327 327 327 328 328 328 328 328 327 327 327 326 326 327 326 326 325 324 324 324 324 323 322 322 321 321 321 321 321 321 320 319
322 322 322 323 323 323 323 324 324 326 326 326 326 325 323 324 326 326 325 325 325 325 324 325 325 326 326 327 327 327 327 327 327 327 328 328 328 327 327 326 327 326 326 327 326 325 325 324 325 324 324 323 323 322 321 321 322 322 322 322 322 322
319 322 322 321 322 322 322 323 324 324 325 325 325 325 325 325 325 325 324 324 325 324 324 325 326 327 326 325 326 326 326 326 327 327 327 327 327 327 326 326 326 326 325 326 326 325 325 325 325 325 324 323 324 323 322 322 322 322 322 322 322 323

ECMWFFLT2_sfc_thetae_075.txt.gz
Theta_e
351 352 352 353 352 351 351 351 350 351 350 350 350 350 350 349 348 348 346 347 348 350 351 349 350 350 348 349 346 346 346 346 345 344 345 346 345 345 346 346 346 346 345 344 343 342 341 340 340 339 339 338 337 337 338 337 338 337 336 336 337 336
350 351 350 351 351 351 351 350 351 350 351 350 350 351 351 349 348 348 347 348 348 349 349 350 350 349 350 348 347 346 346 346 345 344 345 345 345 346 345 345 345 345 344 343 342 342 342 341 340 339 338 336 336 337 338 338 338 336 336 336 337 336
350 350 350 351 350 351 350 351 350 350 350 349 350 350 349 348 348 349 348 348 348 349 349 349 350 348 349 347 347 346 346 346 345 344 345 346 345 345 345 345 345 344 343 343 343 343 342 341 341 338 337 337 338 338 338 337 337 337 337 337 336 336
349 349 349 349 349 349 349 349 348 349 349 349 349 349 349 349 349 350 349 349 349 348 349 349 348 349 349 349 348 346 345 345 345 345 344 345 345 345 345 344 345 344 343 343 344 343 342 342 340 338 338 337 336 337 337 337 335 337 337 335 335 335
350 350 348 348 348 347 348 348 347 347 348 349 349 349 349 349 349 349 351 351 349 348 348 348 347 348 348 348 348 346 346 345 346 345 344 344 344 343 344 343 343 343 344 344 342 343 341 338 338 337 337 337 337 337 336 337 336 337 337 337 336 335
349 348 348 347 347 347 347 346 347 346 347 346 347 346 347 348 348 348 349 349 350 350 348 347 347 347 347 347 346 344 344 344 345 344 344 342 342 343 342 341 342 342 343 344 343 342 341 338 337 336 336 337 337 337 336 336 337 337 337 336 336 334
347 348 348 349 348 347 346 347 347 346 345 345 346 345 345 347 347 347 348 349 349 349 346 345 345 345 345 345 345 344 344 344 343 342 343 342 342 344 343 342 343 344 344 342 341 340 338 337 337 335 336 335 337 336 337 336 337 337 336 337 337 335
347 347 348 349 349 347 348 347 347 347 346 344 344 345 345 347 347 346 347 348 349 348 346 344 344 344 344 345 343 344 344 343 344 342 342 343 341 342 343 342 343 343 342 341 339 338 336 335 336 337 335 336 336 337 337 337 337 337 336 338 337 335
347 346 348 349 347 348 348 348 347 346 346 347 345 344 346 347 345 346 346 347 346 345 345 345 346 346 344 343 344 344 343 344 343 342 342 341 342 342 342 342 342 342 342 340 338 338 336 335 337 337 336 336 337 337 338 338 338 336 336 336 337 334
346 346 348 348 348 346 346 346 346 346 347 347 345 346 346 344 346 345 345 346 346 345 345 346 345 345 343 342 343 343 343 343 343 342 340 339 340 341 341 342 341 341 339 340 338 338 337 336 335 336 337 337 336 336 338 338 338 337 337 337 337 336
347 347 349 346 346 346 346 346 345 345 347 346 346 346 343 345 345 345 346 346 346 345 345 344 344 343 342 342 342 342 342 343 342 341 342 340 340 340 341 341 342 341 340 339 339 338 337 336 336 335 337 337 337 338 338 339 338 338 337 337 337 337
346 347 345 344 346 345 345 345 345 345 345 346 346 344 343 343 344 345 346 345 346 345 344 344 344 342 342 341 340 341 341 342 342 342 342 341 340 339 339 340 342 343 344 342 340 339 339 337 336 336 336 338 338 338 337 338 338 338 337 337 337 336
346 347 345 343 344 345 346 345 345 344 346 345 345 343 342 342 345 344 345 345 345 345 345 344 343 343 342 342 342 342 341 342 344 343 343 344 342 341 339 339 340 341 342 341 340 340 338 340 338 337 337 338 339 338 338 338 337 337 336 337 337 338
344 343 344 344 345 345 345 345 346 346 346 345 344 343 343 343 345 344 345 345 344 343 344 345 343 342 343 341 341 341 340 341 342 344 344 343 341 340 339 339 339 340 340 341 339 339 338 338 337 337 338 337 337 337 337 337 336 337 337 336 337 337
343 343 344 344 343 344 344 345 345 344 344 345 344 344 345 344 343 343 343 342 344 344 343 343 344 343 342 341 340 340 340 341 342 342 341 342 340 341 340 340 340 338 337 338 337 337 337 337 337 336 335 336 335 336 336 336 336 336 336 337 338 337
342 342 342 344 343 343 343 343 344 343 344 345 344 343 344 343 343 344 343 342 342 343 343 343 343 343 343 342 341 340 341 342 342 341 340 341 342 339 340 340 341 339 335 335 335 334 335 335 336 335 335 335 336 336 335 336 334 334 335 336 336 338
341 341 341 343 343 341 341 340 340 342 342 344 343 342 343 343 342 342 343 342 342 342 342 342 343 343 343 342 342 341 342 342 342 341 340 340 340 340 341 339 338 339 340 335 335 333 333 333 334 334 334 334 335 336 335 335 334 334 334 334 336 337
342 342 342 341 340 339 339 339 339 340 341 342 343 343 342 341 339 338 342 341 342 342 342 342 343 342 343 342 343 342 342 342 342 341 340 339 340 342 342 342 336 337 336 335 333 333 332 333 333 333 333 333 334 334 335 335 334 335 334 334 335 335
341 341 341 339 338 338 338 338 338 338 339 340 341 343 341 340 339 339 340 341 342 342 342 342 342 342 342 342 342 342 342 342 342 341 340 339 338 338 340 340 337 335 336 335 334 335 333 333 332 332 331 333 334 334 333 335 334 333 334 335 337 336
340 340 339 337 336 335 336 335 334 335 335 337 340 340 340 339 339 338 339 341 341 341 343 342 341 341 342 342 342 342 342 343 342 341 340 338 337 337 337 337 337 335 333 333 334 334 334 332 331 331 330 332 332 332 333 334 333 333 333 334 337 337
335 337 335 334 334 333 332 333 334 334 333 337 337 340 338 339 339 338 339 339 339 341 342 341 340 340 340 341 342 343 342 343 341 340 340 340 339 338 338 338 336 336 333 331 331 333 333 333 329 328 330 330 331 333 333 333 332 332 332 333 334 334
332 331 333 334 333 333 334 335 334 333 334 335 336 336 336 336 338 338 338 338 338 339 341 341 340 338 339 341 341 340 341 341 340 340 340 341 340 338 338 338 336 333 334 332 330 331 331 331 327 326 324 325 330 331 332 332 330 331 332 333 332 332
329 329 330 331 332 331 332 334 334 334 335 335 338 339 338 339 336 337 336 337 338 339 339 339 340 339 338 340 340 340 339 337 336 337 337 337 337 337 337 337 336 334 331 333 331 332 332 334 329 329 330 326 321 320 323 327 330 330 331 331 332 332
330 330 330 331 331 332 333 333 334 334 336 336 335 339 339 339 337 336 335 337 337 338 338 338 339 339 339 340 341 340 340 337 334 336 337 338 337 335 335 337 337 337 335 329 328 328 332 333 332 328 321 322 323 323 318 321 324 328 331 330 329 329
329 330 333 333 334 335 335 333 333 334 336 336 337 337 336 334 335 334 334 334 334 337 337 338 339 340 339 340 341 341 339 338 337 336 336 339 338 335 335 336 337 337 335 331 328 329 330 332 333 335 329 322 320 318 318 321 324 324 329 328 329 330
330 332 331 332 333 334 334 333 331 330 328 329 329 331 330 331 333 332 332 335 336 336 337 337 338 339 339 340 341 340 340 337 335 336 335 338 338 337 332 332 334 337 336 337 333 329 327 332 333 334 336 335 330 321 321 323 322 317 328 329 329 330
333 332 333 332 333 332 332 332 332 331 332 330 329 333 336 337 337 335 336 335 335 335 335 336 336 338 339 339 340 340 340 338 335 335 336 338 337 333 332 332 335 336 336 335 335 329 328 327 330 331 332 333 332 330 330 324 319 321 317 324 328 328
332 333 333 333 333 333 331 332 331 331 332 331 331 332 335 338 339 334 331 334 333 333 334 335 336 336 338 337 337 337 338 339 337 336 335 337 338 336 335 335 336 337 336 335 335 332 330 329 326 327 331 330 330 331 332 333 329 324 321 318 320 327
333 333 334 333 333 333 332 332 332 332 331 333 334 336 337 334 331 329 329 332 333 333 334 334 335 335 334 333 333 334 334 335 337 338 339 337 338 335 333 333 332 333 333 334 336 336 333 330 330 329 329 327 328 329 330 332 331 328 323 319 319 321
332 332 332 333 334 333 333 333 332 332 332 333 334 334 333 332 332 330 329 331 332 331 330 331 333 333 332 333 333 333 333 333 336 336 338 339 338 334 334 333 332 332 334 334 336 336 335 334 333 333 331 329 327 326 327 327 327 326 326 326 320 319
331 332 332 333 333 333 333 333 332 332 333 332 333 332 329 330 331 329 328 331 329 329 330 331 332 332 333 333 333 334 333 333 334 336 336 338 339 337 335 333 333 332 333 333 334 335 334 335 334 333 331 329 328 327 326 325 326 326 325 322 321 321
330 330 332 333 334 334 334 334 334 333 332 332 334 331 328 330 332 329 331 330 328 328 328 330 330 331 331 332 332 333 333 334 334 335 335 337 338 338 339 334 333 332 332 333 336 335 334 332 332 331 331 331 331 332 332 330 330 329 327 325 324 322
326 327 328 330 331 332 333 333 334 334 334 334 336 332 330 330 331 329 331 331 329 328 329 328 329 329 330 331 332 332 332 333 334 334 335 336 337 337 338 334 333 331 333 332 332 333 331 330 331 330 329 331 332 332 332 333 333 330 329 329 327 322
323 326 326 328 329 330 331 332 333 333 333 333 332 330 330 329 332 334 334 333 332 331 329 328 329 329 331 331 331 332 333 333 334 334 335 335 336 337 335 332 330 330 330 332 331 332 333 333 333 333 334 332 332 332 333 333 332 331 329 328 326 324
318 321 323 325 327 328 330 331 330 332 332 332 333 333 333 332 332 332 333 333 333 333 331 332 331 330 332 331 332 332 332 331 331 332 333 335 334 334 332 331 330 332 332 332 331 331 331 333 332 332 333 333 333 333 334 331 332 332 331 330 328 327
317 318 320 321 323 325 326 328 329 330 331 332 333 334 333 332 331 333 334 334 334 334 334 334 333 332 331 332 331 331 331 331 331 332 332 333 332 332 331 331 331 332 331 331 331 331 331 331 330 333 334 335 335 334 335 332 332 332 331 331 330 329
314 315 316 317 318 320 322 325 326 328 329 330 332 331 332 332 332 333 334 335 334 334 335 334 333 333 332 331 332 332 331 331 330 331 331 332 332 331 331 332 333 332 331 331 330 330 330 330 332 334 335 335 334 335 334 334 333 333 333 332 331 331

ECMWFFLT2_sfc_thetae_078.txt.gz
Theta_e
352 353 354 355 354 352 351 352 351 350 350 350 350 350 349 349 348 347 347 346 347 350 351 352 351 349 348 348 347 346 346 344 344 345 346 346 346 347 348 348 346 345 344 343 343 341 340 340 340 339 338 337 337 343 343 342 342 342 342 340 340 336
352 354 354 354 354 351 353 351 352 351 351 351 350 350 351 350 349 349 346 347 349 349 350 349 350 349 349 349 347 346 345 344 344 345 346 346 346 346 347 347 346 345 344 343 342 342 342 341 340 339 338 337 342 341 345 343 342 339 340 340 339 337
351 353 354 354 353 353 351 352 352 351 350 348 350 351 350 350 351 348 346 346 348 349 350 350 351 348 348 346 347 346 345 343 343 345 346 346 346 346 346 346 346 345 343 342 344 344 343 341 340 338 337 342 343 341 343 343 343 342 340 340 339 336
353 354 352 352 353 351 349 352 350 351 350 350 350 349 350 351 350 350 348 349 348 349 350 353 349 348 348 348 347 346 345 343 343 344 345 347 346 346 346 345 345 344 343 344 347 343 342 342 338 341 343 341 340 341 342 343 340 341 341 338 336 335
354 354 351 353 353 351 351 351 350 350 350 349 348 347 348 350 350 350 350 351 348 349 348 353 352 349 347 346 346 346 346 343 342 345 344 346 346 347 348 347 346 342 345 346 344 346 344 342 343 341 341 340 341 342 342 343 342 340 341 339 338 335
349 350 351 350 352 352 350 349 349 349 349 350 349 347 348 349 350 351 352 350 351 349 348 346 348 347 348 347 345 344 343 343 340 341 344 342 342 345 346 344 342 343 344 347 347 345 344 343 341 341 340 341 341 342 342 341 341 340 340 338 338 335
353 351 353 353 352 350 349 350 350 349 349 348 349 347 347 347 349 353 354 350 349 347 345 344 345 347 346 346 344 343 342 344 341 341 342 342 342 344 345 344 344 345 345 344 344 343 341 342 342 339 340 339 340 341 342 340 339 338 339 338 336 334
351 351 350 352 352 350 351 350 349 349 349 346 347 346 347 348 349 349 350 351 349 347 343 342 345 345 346 346 345 345 345 342 341 338 341 341 341 342 344 344 346 345 343 344 342 341 340 340 341 342 340 340 340 342 342 340 340 339 339 339 338 336
352 351 351 352 350 350 350 350 350 348 348 347 347 347 346 348 349 350 350 352 351 347 345 344 345 344 343 344 344 345 343 342 343 341 340 339 339 342 343 343 343 342 344 343 342 341 339 340 341 342 340 340 341 341 342 342 341 338 337 337 339 336
351 350 350 351 351 349 350 350 350 350 349 349 348 348 348 348 350 347 349 353 349 349 345 344 345 345 343 342 343 345 344 344 342 341 339 339 340 341 342 342 342 342 340 342 341 341 340 340 339 341 340 340 340 341 341 341 341 340 338 339 339 337
350 351 351 349 351 352 351 351 350 351 350 349 348 348 348 350 348 349 351 353 352 351 349 346 347 346 345 343 344 345 343 344 342 341 340 339 339 340 341 342 342 341 341 341 341 341 339 340 341 339 341 340 340 342 341 342 342 342 340 339 338 339
350 351 350 349 351 351 352 351 351 350 350 351 351 349 349 350 348 350 351 350 352 352 350 349 348 348 346 345 343 343 343 343 341 341 341 339 338 340 341 342 343 343 343 343 342 342 342 340 340 340 340 342 342 341 340 342 342 342 341 339 337 337
350 350 349 349 350 350 351 349 350 350 350 351 351 350 349 348 350 349 349 349 349 350 351 349 349 348 344 345 344 343 343 343 343 343 343 343 339 341 341 341 342 341 341 342 342 342 340 342 341 341 341 342 342 340 341 341 341 341 338 337 338 338
349 348 349 350 351 350 351 351 350 350 350 350 349 349 349 349 349 349 348 348 349 348 349 349 349 347 345 345 345 343 342 342 342 344 343 343 340 339 338 338 340 339 339 341 341 342 339 341 339 341 342 342 342 342 340 340 339 339 338 338 339 340
347 348 350 350 350 350 350 350 350 350 350 349 349 349 350 349 348 348 347 347 348 348 348 350 349 348 345 343 342 341 341 342 343 344 342 342 340 339 338 338 338 338 339 339 339 340 339 340 339 338 339 341 340 340 340 340 340 338 338 339 340 341
346 346 347 349 350 350 350 350 350 348 350 350 347 348 349 349 348 348 346 346 347 348 347 348 349 348 347 345 343 341 342 344 343 342 341 342 342 340 338 338 339 339 337 336 337 338 340 338 339 339 339 340 339 339 339 339 340 339 340 340 340 341
342 340 342 346 347 347 350 349 350 350 350 350 348 348 349 350 348 347 347 346 341 340 347 347 348 348 349 345 342 342 342 344 345 342 341 342 341 340 341 339 339 340 339 336 335 337 338 338 338 339 339 339 339 339 339 340 340 340 340 340 341 341
336 339 341 344 343 343 345 347 347 346 349 348 348 346 347 348 348 348 348 348 347 344 341 344 346 347 348 346 345 345 345 344 344 343 342 341 339 341 343 342 338 340 339 338 335 337 337 338 338 338 338 338 339 338 340 342 340 339 338 339 340 339
335 337 340 343 344 343 345 345 346 345 345 347 349 349 348 347 347 347 348 348 343 339 339 340 345 346 346 347 346 347 346 345 345 343 343 341 339 340 343 341 342 340 341 342 336 339 338 337 337 337 336 337 338 342 342 341 339 339 338 340 339 339
336 338 339 341 341 340 341 339 339 341 341 342 344 345 348 346 344 344 344 345 342 337 337 337 343 341 345 346 346 345 346 346 345 344 341 339 337 338 342 342 342 341 340 339 339 340 340 338 337 338 337 338 340 340 339 340 339 338 339 340 339 339
340 339 339 339 339 339 338 339 339 338 338 341 342 343 345 347 347 345 345 345 344 342 341 341 339 341 342 345 345 346 345 346 345 343 341 341 341 339 342 344 343 340 339 337 336 340 340 339 335 334 336 337 338 340 340 339 339 339 338 339 338 337
339 340 341 340 339 338 338 339 338 337 339 339 341 341 341 345 345 345 345 344 344 343 337 338 340 339 341 340 338 342 344 344 345 343 344 345 344 341 341 342 342 340 338 336 336 338 338 337 334 331 329 330 332 335 335 336 337 338 337 338 339 339
339 338 339 340 340 339 341 342 341 340 339 338 341 341 341 342 346 346 347 345 343 343 340 338 339 339 338 341 340 341 338 346 346 346 345 344 342 341 341 339 342 337 335 337 337 339 338 339 332 333 334 328 323 323 329 332 337 338 338 339 338 338
339 340 339 339 339 342 342 342 343 342 341 340 339 342 343 343 343 344 343 342 342 343 341 340 338 338 336 339 340 341 340 344 344 346 344 340 339 341 341 340 341 340 339 333 333 335 339 340 337 331 324 324 326 324 321 326 330 334 338 339 338 337
337 338 338 338 338 339 339 339 340 339 339 340 340 340 339 338 339 341 341 341 340 339 339 341 339 338 338 338 338 339 339 343 345 345 344 342 341 339 339 341 339 339 335 334 332 334 337 340 340 338 329 325 323 320 323 327 330 330 333 335 337 338
336 337 337 337 338 338 337 336 336 333 331 333 333 335 333 332 334 339 339 341 340 340 340 339 339 339 338 339 339 340 338 341 344 344 344 344 341 336 338 341 340 337 334 334 334 333 333 337 338 338 339 334 334 324 324 329 328 322 332 335 336 336
337 336 336 336 338 337 337 336 336 335 335 334 333 337 338 340 335 338 341 341 342 340 339 339 338 338 338 338 339 338 338 339 340 344 344 345 341 339 335 337 339 336 334 338 338 333 331 333 336 337 336 339 339 336 334 330 324 325 323 327 331 333
336 336 337 337 337 336 335 336 335 335 336 335 335 336 338 340 343 339 339 336 338 338 336 338 338 337 338 338 338 337 337 337 339 341 342 342 339 338 337 340 340 338 337 335 338 333 332 333 332 333 337 337 338 336 335 334 332 327 324 323 324 332
335 336 337 337 336 336 336 336 335 335 335 337 337 336 337 339 341 342 339 339 338 339 339 339 338 337 338 338 337 338 337 337 338 341 341 340 337 338 340 339 337 337 333 338 335 334 332 333 334 334 334 335 336 334 333 335 334 331 326 324 324 323
334 335 335 336 337 336 337 337 338 336 335 336 339 338 338 338 339 339 338 339 340 339 338 336 336 336 338 339 338 336 337 338 339 339 341 340 338 337 337 337 337 339 341 339 340 334 332 336 336 336 335 335 333 333 332 332 332 331 330 330 323 322
332 334 336 336 337 336 337 337 337 337 337 337 338 338 336 336 337 339 338 337 336 338 338 335 336 336 337 337 337 336 337 337 338 337 339 338 337 337 338 338 337 339 338 338 336 334 331 335 334 336 334 334 334 332 330 330 331 331 329 327 325 325
327 330 333 334 335 335 337 337 338 339 339 338 338 336 336 336 336 337 338 335 336 337 336 335 336 336 336 337 336 335 336 337 337 337 336 338 336 338 337 338 338 337 337 335 334 333 332 334 332 335 336 335 334 335 334 333 331 332 330 329 327 326
325 327 329 330 331 332 332 334 335 336 339 339 338 338 336 336 338 338 339 338 336 335 335 335 336 334 335 335 335 335 335 336 335 336 337 338 338 335 336 336 336 336 336 333 334 335 332 332 335 334 331 334 334 334 334 335 334 331 332 331 328 325
324 326 327 327 327 327 329 331 333 335 337 337 338 337 337 337 338 338 339 338 337 336 335 335 335 335 336 336 335 335 335 336 336 337 338 340 337 338 336 335 335 335 334 334 336 336 335 335 338 339 338 335 336 335 335 335 334 332 331 330 327 326
322 324 324 324 325 326 326 329 331 333 334 336 336 336 337 338 338 337 338 337 336 337 335 336 335 337 338 337 337 335 335 335 335 336 338 340 339 337 335 333 333 333 334 336 336 335 333 335 337 337 337 335 335 336 335 334 333 332 331 330 330 330
321 322 323 323 324 325 325 327 329 331 332 333 334 335 336 337 337 337 337 338 338 339 339 339 338 338 338 338 336 335 335 334 335 336 337 338 338 338 333 333 333 333 333 335 335 336 336 337 337 337 337 336 335 334 335 333 335 333 332 332 333 332
320 321 321 322 323 324 325 326 327 328 330 331 332 332 333 335 337 337 338 338 338 339 341 341 339 339 338 338 337 335 334 334 334 335 335 335 336 338 338 336 334 333 335 337 335 334 334 336 337 336 336 337 338 334 334 334 334 334 335 334 333 333

ECMWFFLT2_sfc_thetae_081.txt.gz
Theta_e
350 349 348 349 349 349 350 351 350 349 349 349 349 349 349 348 348 348 348 348 349 349 350 350 349 347 348 347 347 346 345 346 345 345 346 347 347 348 348 347 346 345 344 342 341 340 339 339 337 339 337 340 341 342 342 340 340 340 340 339 338 336
350 350 349 350 349 348 351 349 350 350 350 350 350 349 350 348 348 348 347 348 349 348 349 348 348 348 346 347 347 346 345 345 345 345 346 347 347 347 347 346 345 344 344 342 341 339 340 340 339 336 339 339 338 344 345 343 341 340 340 339 338 337
351 351 351 350 350 350 351 350 350 349 348 347 348 349 348 348 347 346 345 344 348 350 349 349 348 347 347 346 346 345 344 344 344 346 346 347 347 346 346 346 345 345 343 342 342 340 337 335 337 339 341 339 344 343 345 344 342 342 340 339 337 336
351 351 350 351 351 350 349 349 350 349 349 347 347 348 349 349 347 346 344 345 348 349 349 350 349 349 347 345 347 346 344 343 344 346 346 347 347 346 346 346 345 344 344 341 345 341 338 336 336 341 343 345 341 342 344 343 339 340 339 337 335 335
351 352 351 351 351 349 349 350 347 348 348 346 346 347 349 349 349 346 345 347 347 349 350 352 348 347 345 345 344 343 344 343 343 343 346 345 347 347 347 346 345 343 343 344 342 343 340 336 340 343 342 341 342 343 342 342 340 339 339 338 336 335
351 351 350 351 350 350 350 349 347 347 347 348 346 347 347 349 350 348 346 348 346 350 351 346 348 346 344 345 343 342 340 340 339 339 341 340 341 347 347 345 342 340 342 344 345 345 343 341 341 339 340 342 342 342 341 340 338 340 339 337 336 334
350 349 350 351 350 350 349 348 346 348 347 349 347 346 346 350 348 351 351 351 350 347 348 352 346 346 343 344 342 342 339 338 339 338 339 339 340 342 344 343 342 342 344 344 342 342 341 341 341 338 339 339 339 340 341 338 340 339 338 337 335 334
349 350 349 350 349 348 348 344 343 346 343 346 349 347 354 351 349 351 350 349 351 349 345 348 348 347 343 345 344 342 342 337 339 339 338 341 338 340 343 343 343 342 342 341 338 340 339 338 340 340 338 339 340 340 341 340 341 340 338 337 335 336
351 348 351 351 348 346 344 343 346 345 345 344 346 349 349 351 350 349 350 350 348 348 346 344 346 346 346 344 343 343 342 339 340 339 336 339 339 340 342 343 342 342 343 341 340 339 338 338 341 341 339 339 340 340 341 340 340 338 338 337 337 335
349 349 348 347 346 348 348 345 346 343 350 345 348 349 348 349 352 351 350 348 346 345 346 350 346 351 345 346 344 344 343 342 340 339 336 340 339 339 342 342 342 342 340 341 339 339 338 338 337 339 340 339 340 340 341 339 338 337 338 338 337 334
346 343 345 346 347 347 345 346 345 345 344 346 347 350 346 347 347 351 349 347 346 343 343 346 346 349 345 345 345 344 344 344 341 339 339 339 341 340 341 341 342 340 342 341 340 338 336 336 337 336 339 339 340 340 340 341 340 340 337 338 338 337
344 345 345 345 344 345 345 344 344 344 347 343 342 344 345 345 348 354 347 344 343 346 344 346 345 343 345 345 349 347 344 343 342 341 339 338 338 340 341 342 342 343 344 344 341 340 339 337 337 336 337 339 340 341 339 340 339 340 340 339 338 338
342 343 344 343 345 347 345 344 346 346 347 345 344 343 345 343 346 349 345 345 346 347 348 343 344 341 342 345 348 346 345 344 345 343 341 341 339 340 340 343 341 341 340 341 342 341 337 339 338 339 339 340 342 340 341 340 341 340 338 338 338 338
342 341 340 344 343 345 346 345 349 345 345 345 347 348 345 348 345 345 348 350 348 348 347 347 343 344 342 343 344 345 346 343 344 345 343 341 338 339 338 341 342 339 339 339 340 341 337 338 337 339 342 341 340 341 339 340 340 340 339 339 340 341
340 339 339 343 344 344 345 345 346 347 347 347 347 348 349 346 346 345 349 347 346 347 346 343 344 345 344 341 342 349 346 344 346 345 342 341 339 339 339 339 341 340 341 340 339 341 338 338 338 339 341 342 340 341 341 340 341 340 339 341 340 340
342 342 343 345 345 346 346 346 348 346 348 348 347 347 349 348 346 346 349 347 344 344 343 344 344 344 343 342 340 341 345 345 344 344 344 343 341 338 338 339 341 341 339 339 339 339 340 339 340 340 342 341 340 341 339 340 340 339 340 339 339 340
344 343 343 345 346 348 348 347 345 345 347 349 348 346 345 347 347 345 345 340 341 340 342 344 344 344 345 343 342 341 344 346 346 343 345 345 340 338 337 337 338 339 341 338 335 337 339 339 340 341 341 341 341 340 340 340 341 340 342 339 338 339
345 345 346 346 345 346 348 349 349 348 348 348 344 343 348 345 344 344 350 344 342 343 343 344 344 344 343 343 342 341 341 341 344 346 345 343 342 341 340 338 336 338 338 339 336 336 338 338 340 339 339 340 339 339 339 341 340 340 339 338 337 337
344 345 345 345 346 347 347 347 348 348 347 348 346 345 345 345 344 349 347 346 341 344 345 345 345 344 342 343 342 341 340 340 340 341 339 339 338 339 341 342 337 336 338 338 337 337 339 338 337 338 336 339 339 340 340 339 340 338 338 338 337 337
344 344 345 345 345 344 344 342 341 344 344 343 345 343 344 345 343 347 346 348 344 344 346 345 344 342 342 340 339 340 339 339 340 338 337 336 336 339 341 342 341 339 337 338 339 338 340 338 338 336 336 340 341 341 339 339 339 338 337 338 339 338
343 343 342 341 342 341 340 340 341 340 340 342 342 343 342 344 343 342 339 343 344 345 346 344 343 343 342 340 339 339 340 339 340 340 337 335 337 339 343 345 345 345 339 338 338 339 340 340 336 336 337 337 338 339 339 338 336 337 337 338 340 336
341 342 342 343 342 342 342 341 340 341 342 341 341 340 341 339 340 342 340 341 344 345 345 344 341 341 341 340 339 339 339 338 340 338 339 339 340 340 341 340 339 338 337 336 335 339 340 339 334 330 328 330 334 335 336 336 337 336 339 336 337 336
341 340 340 341 341 341 342 343 342 341 343 341 343 343 341 342 344 343 341 341 339 345 342 341 342 341 341 341 340 339 338 341 340 340 338 339 339 342 339 340 339 335 334 334 336 340 341 340 329 332 334 329 324 324 329 332 336 334 335 336 336 336
340 340 341 341 340 341 342 343 343 343 343 341 340 342 343 344 345 345 344 342 340 342 342 341 341 340 341 341 341 339 341 341 341 340 339 336 334 335 335 337 338 333 333 328 332 336 337 339 332 333 325 325 326 326 320 325 326 331 335 336 336 336
337 339 341 339 341 341 341 341 342 343 343 341 341 340 339 339 342 342 342 342 339 341 343 343 344 341 340 340 340 341 341 341 340 341 339 337 336 337 339 338 336 334 332 335 331 336 336 340 338 339 332 327 323 320 321 327 329 329 334 334 334 337
338 338 339 340 340 341 340 338 338 336 335 335 334 336 336 337 339 340 340 342 341 341 342 342 343 343 341 340 340 341 340 340 341 340 338 337 337 338 332 337 337 338 340 342 337 334 335 338 339 334 334 339 333 323 324 329 325 319 332 337 335 335
338 338 338 339 340 340 339 338 338 337 337 336 333 336 339 340 341 341 343 342 342 343 342 342 342 341 341 340 340 340 340 340 340 340 339 337 336 337 336 336 340 342 339 341 339 333 332 333 338 335 339 338 335 334 334 329 322 326 323 326 332 334
337 337 339 340 340 340 338 338 338 338 338 336 336 336 338 339 342 341 342 342 342 342 342 341 341 341 341 340 340 340 341 340 339 339 339 338 336 338 339 338 341 341 341 341 339 336 334 333 330 332 336 332 332 333 333 333 331 326 325 321 324 332
336 337 338 339 339 340 339 339 339 338 337 337 338 338 339 341 340 340 340 343 342 340 340 340 340 340 341 340 339 339 340 339 338 339 339 338 336 335 338 337 341 339 341 340 340 337 335 332 333 332 331 332 333 331 333 332 331 330 325 322 323 326
335 336 337 338 339 340 339 339 338 338 337 337 339 341 340 340 341 341 339 340 338 340 340 339 340 339 340 340 340 340 339 340 339 339 339 339 337 338 340 341 339 338 338 338 339 338 337 335 335 336 335 332 329 329 327 326 332 330 329 328 323 323
332 333 333 334 335 337 338 339 337 337 337 337 338 340 337 336 338 339 339 339 339 340 341 339 339 339 339 339 340 340 339 340 340 340 339 338 339 339 339 339 338 335 337 339 337 337 336 335 335 336 335 333 330 329 327 324 328 329 329 328 324 324
329 329 330 331 332 333 334 336 338 338 339 339 338 336 338 336 336 336 338 339 340 340 339 337 339 338 339 339 340 340 340 339 339 339 338 339 340 340 340 340 338 335 336 338 336 334 335 334 334 335 336 336 332 332 330 327 332 331 330 329 327 324
326 327 327 328 329 330 332 333 334 335 336 337 338 338 336 335 335 335 334 335 338 338 339 336 336 337 338 340 339 338 338 337 337 338 338 338 339 340 339 340 339 337 337 335 334 335 334 335 335 335 335 336 334 333 332 332 335 334 332 331 329 325
324 326 326 326 327 328 329 330 331 333 334 334 335 337 337 335 335 335 335 334 335 335 335 339 340 339 339 340 339 338 339 338 338 338 338 338 338 339 338 339 339 338 336 336 337 338 336 336 337 337 337 334 333 333 333 334 335 334 331 330 328 326
323 324 325 325 326 326 327 328 329 331 331 333 334 334 335 336 337 337 333 333 334 335 334 335 338 340 340 339 340 339 339 339 338 338 338 338 339 339 338 338 338 338 338 337 337 336 336 336 335 335 335 335 335 333 333 334 332 334 335 333 332 330
322 323 324 324 325 325 326 327 328 329 329 330 331 333 335 336 336 337 337 337 335 335 337 337 338 337 337 334 336 339 338 338 338 338 337 338 338 338 338 337 336 337 337 337 336 338 337 336 335 335 334 336 332 331 333 335 332 336 333 334 335 334
321 322 323 324 323 324 325 326 327 328 328 328 329 331 332 334 335 337 338 337 339 340 340 339 336 336 335 335 334 334 337 337 337 337 337 337 338 338 338 337 336 336 336 338 337 336 337 334 336 335 333 333 332 333 334 333 334 336 337 337 336 334

ECMWFFLT2_sfc_thetae_084.txt.gz
Theta_e
345 346 345 346 347 347 347 349 349 350 349 348 348 349 350 350 349 349 348 349 349 348 348 347 347 345 348 346 347 348 347 347 347 346 347 347 347 347 348 346 345 344 343 341 340 339 338 337 338 337 341 340 341 338 340 336 335 335 334 334 334 334
346 346 346 347 348 348 348 347 347 348 347 348 348 348 348 348 349 348 348 348 348 347 347 347 346 346 345 345 346 347 347 347 346 345 346 346 347 347 347 346 345 344 342 341 340 336 338 338 338 339 340 339 338 336 345 339 337 336 335 333 334 334
346 347 348 348 349 348 347 348 347 347 347 348 347 346 347 347 345 345 344 344 347 347 347 346 347 347 345 345 346 347 346 346 345 346 346 346 346 347 346 346 345 344 343 341 338 335 333 333 334 340 340 337 337 339 343 339 337 335 333 333 332 336
349 348 347 344 345 347 347 348 347 346 346 347 346 345 345 345 345 345 344 344 345 348 349 348 347 348 346 344 346 346 346 345 345 346 346 346 346 346 346 346 345 345 342 339 337 333 331 332 334 334 335 338 339 340 340 336 334 334 333 334 332 335
347 343 344 344 347 346 345 344 344 346 349 346 345 344 345 346 348 347 345 345 343 346 342 342 341 345 344 346 345 345 345 345 344 344 346 344 344 342 344 343 343 343 339 336 338 333 332 333 336 337 338 340 340 344 338 336 335 333 332 332 333 337
345 346 343 343 343 348 345 342 343 346 346 345 344 345 343 342 341 341 342 343 342 343 342 340 340 340 343 346 341 340 343 341 342 341 344 342 343 344 343 342 341 339 338 339 340 338 334 333 335 340 338 340 342 341 336 336 336 333 332 331 332 335
344 343 342 345 345 345 344 341 344 344 344 345 345 343 344 344 345 343 342 344 342 342 344 341 341 342 337 341 342 341 341 340 337 337 339 341 341 344 344 342 339 338 339 341 341 338 336 336 340 336 338 338 337 339 336 334 335 334 332 331 333 335
343 343 343 343 344 344 343 345 343 345 345 344 344 343 344 343 342 342 343 344 343 344 343 340 340 340 343 344 343 341 340 338 336 335 335 338 339 342 342 342 340 338 338 339 339 339 338 336 339 338 335 337 339 338 339 335 335 333 332 331 332 334
342 342 343 345 342 344 344 344 344 343 344 344 344 344 344 342 343 343 343 343 343 340 342 342 343 344 344 343 342 341 339 337 336 336 334 336 338 339 340 342 340 338 339 340 338 340 336 336 341 341 339 337 339 339 339 334 334 334 332 331 332 334
343 343 343 344 341 343 345 344 344 344 345 346 345 344 344 343 344 343 343 344 346 345 343 346 347 347 343 343 345 344 342 340 337 338 335 334 339 339 340 342 342 340 338 339 337 338 339 336 337 338 339 337 338 339 340 339 335 334 333 332 332 333
343 343 343 344 343 342 345 345 346 345 344 344 344 344 345 343 343 344 345 344 345 345 345 346 346 345 344 342 344 342 342 341 336 338 335 333 339 341 341 341 342 340 339 338 339 337 337 337 336 333 338 337 338 338 336 340 338 334 333 332 332 333
344 344 345 344 345 345 343 344 344 344 343 346 346 343 343 343 343 344 344 343 347 346 345 346 346 344 344 344 343 342 344 343 341 339 336 336 338 341 342 340 341 343 342 346 341 339 335 336 333 333 335 336 337 337 337 339 338 335 334 332 332 331
343 344 344 342 343 345 346 345 345 343 345 345 344 345 341 341 342 345 345 345 344 346 346 346 346 343 343 344 344 343 342 343 343 342 339 336 337 342 343 341 343 342 341 343 341 337 334 335 334 335 334 337 340 337 337 336 337 336 335 335 332 331
343 343 344 345 345 344 346 346 347 347 347 347 346 345 341 342 345 346 345 345 346 346 347 348 346 345 345 343 342 342 343 342 343 343 343 339 337 338 339 340 341 339 340 340 338 340 337 336 333 337 338 336 340 339 339 337 336 337 335 333 334 332
343 343 344 344 344 345 347 346 347 346 345 346 347 347 343 342 344 345 347 345 342 344 348 346 346 346 346 344 342 341 339 342 342 340 339 342 340 335 336 339 342 337 336 337 336 339 336 335 335 333 338 337 338 339 339 337 338 336 337 336 336 336
344 344 344 344 345 347 347 348 349 348 348 349 347 346 347 344 342 343 346 345 344 346 346 346 346 345 345 343 342 341 342 344 343 342 341 341 339 336 334 335 339 342 343 336 335 336 336 336 339 340 341 340 339 339 338 337 337 337 338 336 335 336
344 344 344 346 347 347 349 348 348 348 349 349 345 344 344 344 344 342 344 344 344 344 344 344 345 344 344 343 343 342 342 342 342 341 340 339 338 336 334 335 337 341 338 339 335 334 337 338 337 335 335 340 340 338 337 338 337 336 339 336 336 337
345 346 347 347 347 348 349 349 347 348 349 347 344 343 343 342 341 342 344 343 344 344 344 343 344 344 345 343 342 342 342 341 342 340 338 337 336 339 340 336 334 338 338 335 333 335 336 334 335 332 333 336 340 337 338 338 338 339 336 337 337 335
344 345 346 347 346 346 348 348 348 345 343 345 348 346 348 344 344 344 343 343 341 343 345 344 344 344 343 343 342 342 341 341 341 340 338 336 336 337 338 339 337 335 336 334 336 336 332 333 336 334 333 334 337 338 337 338 337 336 336 337 338 339
344 346 347 346 346 344 344 343 342 345 344 342 345 345 346 345 342 342 341 342 340 340 343 344 344 343 343 342 342 341 341 341 341 339 337 336 336 336 336 338 337 335 333 333 334 335 336 334 332 332 332 331 331 337 338 338 338 338 337 337 336 336
344 346 343 342 343 344 340 340 342 342 342 342 341 342 343 344 342 343 342 341 341 340 341 342 343 342 342 342 342 341 340 340 340 338 336 336 336 337 338 339 336 334 334 332 336 337 335 335 331 329 330 326 332 333 335 337 336 335 336 337 340 334
344 343 343 344 343 344 343 341 341 340 341 342 342 341 341 343 344 344 343 341 341 341 341 342 343 343 342 342 341 340 339 339 339 339 338 338 338 338 337 337 335 333 337 332 332 336 333 334 327 325 324 326 328 330 333 335 335 336 336 335 335 335
342 342 342 342 342 342 344 344 343 344 343 340 346 349 343 343 345 344 343 343 342 340 340 341 342 341 341 341 341 340 339 340 340 339 337 338 338 337 336 334 334 332 332 333 331 334 333 333 328 328 327 324 320 322 328 331 333 334 335 334 335 335
340 341 341 342 341 343 343 345 347 346 345 345 343 347 347 347 345 343 343 343 342 341 340 339 341 340 340 340 340 340 340 340 339 340 338 337 336 335 335 334 334 334 334 330 328 330 333 332 332 329 319 321 322 321 318 322 326 331 335 334 335 334
339 340 341 341 343 343 343 343 343 344 345 345 344 343 342 342 342 342 341 342 342 341 340 340 340 340 339 339 340 340 340 340 340 340 339 338 336 335 334 334 335 335 333 330 329 331 333 333 331 335 327 322 320 317 318 324 326 326 332 331 332 334
339 340 340 341 343 341 343 340 340 338 338 338 337 338 339 339 340 339 340 342 343 342 341 340 340 340 340 339 339 339 340 340 340 340 339 337 337 336 335 332 334 334 331 331 330 330 329 334 333 331 331 329 327 320 320 323 324 317 330 331 331 333
338 339 340 340 341 342 341 340 340 338 338 338 336 339 344 343 342 344 347 343 343 343 341 341 341 340 341 340 340 339 339 340 340 340 339 338 336 335 335 334 335 333 331 330 330 328 328 329 333 332 331 331 330 332 330 323 319 323 318 326 329 329
337 338 339 339 339 340 338 339 339 338 339 338 338 338 339 342 342 343 344 344 343 343 342 341 342 341 341 340 340 339 340 339 339 340 339 337 336 337 336 335 335 334 333 332 331 328 327 328 326 329 331 331 333 334 333 331 330 326 323 318 322 328
332 334 334 336 335 337 338 338 338 338 337 338 339 339 340 339 340 340 339 343 343 343 343 342 342 342 341 340 339 340 339 339 338 338 339 338 338 338 336 334 333 334 333 332 332 332 330 327 328 330 330 331 332 331 331 331 331 329 323 320 320 323
328 330 331 331 332 333 334 335 336 337 336 336 337 339 340 338 337 339 338 339 338 339 340 339 340 341 337 339 338 338 338 338 338 338 338 338 338 337 337 335 334 335 336 334 336 335 333 333 333 333 333 332 328 329 329 328 327 326 325 324 319 320
327 328 329 329 330 330 332 332 332 333 333 334 335 336 336 338 337 337 335 335 337 336 338 336 337 335 336 336 337 336 337 337 336 338 338 337 336 337 337 337 336 335 336 336 335 336 333 334 333 333 333 333 330 329 326 324 324 324 323 321 321 321
326 327 327 328 329 329 330 330 330 331 331 332 333 333 334 334 335 334 334 335 336 335 333 334 335 335 332 336 338 337 336 335 333 335 336 336 337 337 337 337 336 336 335 336 337 336 334 333 333 333 333 333 331 331 330 328 328 328 325 323 322 321
323 325 326 327 327 327 327 328 328 328 329 330 331 332 332 333 335 334 334 333 333 332 333 332 332 331 334 334 335 336 335 334 333 333 336 336 336 336 336 337 336 336 335 334 333 335 334 333 333 332 332 334 333 332 330 331 330 328 327 328 325 322
322 324 324 325 325 325 326 326 328 328 328 329 329 329 330 331 334 335 335 334 333 332 332 331 330 331 334 332 333 335 334 333 334 337 338 336 335 335 335 334 335 334 334 334 335 334 334 334 334 333 334 333 333 332 331 331 330 329 328 326 325 323
320 322 323 323 324 324 325 326 327 327 327 327 327 327 328 330 331 333 334 335 332 331 332 332 333 333 334 334 333 335 334 333 335 336 336 337 337 336 333 334 331 332 333 333 334 334 334 334 333 333 333 333 333 333 332 332 331 331 330 328 326 325
321 322 322 322 323 323 324 325 326 326 326 326 326 327 327 329 330 331 333 334 333 335 333 332 332 334 334 335 333 332 331 330 332 334 333 333 334 334 334 333 332 332 333 335 333 331 333 334 333 333 334 335 333 332 333 333 332 331 331 330 328 327
320 322 321 322 322 323 323 323 324 323 324 324 325 325 326 328 329 330 331 333 335 335 334 334 334 335 334 335 336 334 332 332 333 333 333 333 333 333 334 331 331 333 333 335 334 332 332 332 334 334 334 333 333 333 332 333 333 332 331 330 330 329

ECMWFFLT2_sfc_thetae_087.txt.gz
Theta_e
343 344 344 344 345 345 347 349 348 348 348 349 349 350 350 349 349 348 348 349 348 345 344 344 344 345 347 344 346 347 347 346 346 346 345 346 346 346 346 344 344 343 342 341 340 340 340 341 340 342 343 345 343 334 334 332 332 332 331 332 334 334
342 343 343 345 346 346 347 348 346 345 346 347 348 350 348 347 350 346 348 347 345 346 343 343 343 348 343 345 345 347 346 346 346 345 346 345 345 346 346 345 344 343 342 341 340 333 335 339 341 341 342 344 335 334 336 332 332 332 332 331 334 336
341 342 343 344 346 346 345 345 345 345 346 348 347 348 346 347 345 344 344 344 344 343 343 343 344 345 345 346 345 347 346 346 345 345 345 344 345 346 346 345 344 344 342 342 336 332 329 329 328 338 341 336 333 335 334 332 331 331 330 331 330 337
343 344 343 344 345 345 344 343 344 344 343 343 344 345 343 344 343 343 342 341 341 339 338 337 347 347 346 343 345 346 346 346 345 345 345 345 346 345 346 345 345 344 344 341 334 331 329 327 327 329 331 331 333 336 332 331 330 330 330 333 331 336
342 342 342 344 345 343 343 343 343 343 343 342 342 341 342 342 342 342 341 340 339 339 338 338 339 338 341 341 341 339 341 341 340 339 345 339 338 342 342 340 339 340 334 335 332 332 329 327 331 332 331 332 336 334 331 331 330 329 329 330 332 336
341 341 341 342 342 345 342 340 339 341 343 342 342 342 339 339 340 340 341 340 340 338 337 338 336 337 339 339 339 338 338 339 339 339 344 340 339 338 338 340 339 339 338 336 333 333 332 331 329 331 332 334 336 333 330 330 329 329 329 329 334 336
340 339 340 342 343 342 340 340 340 341 341 340 340 340 340 341 340 340 341 341 339 338 337 336 336 338 338 337 339 336 336 336 337 338 341 339 338 340 339 339 338 337 337 336 335 335 336 333 330 332 333 335 335 332 331 330 329 329 328 329 335 336
339 339 339 342 342 340 339 340 341 344 341 342 339 340 340 340 340 340 341 340 341 340 338 337 337 336 338 338 339 339 336 335 335 336 338 337 335 338 339 339 339 337 336 336 335 337 337 335 330 332 333 333 333 332 331 330 329 329 328 329 331 335
340 340 340 341 340 340 340 340 341 340 339 344 338 339 339 339 339 340 341 342 340 337 337 336 336 336 337 338 339 338 337 337 334 333 334 334 333 336 339 339 339 337 335 334 335 336 336 334 330 333 332 332 335 333 331 330 329 329 328 328 329 333
340 341 341 340 340 340 341 340 340 340 341 341 339 339 340 338 339 340 339 341 340 338 339 338 337 338 337 338 338 338 338 336 338 335 332 331 331 334 337 337 338 338 336 335 334 335 334 332 333 333 332 334 332 332 331 330 329 328 329 329 330 333
340 342 341 339 339 340 341 340 341 341 341 340 340 340 341 339 339 339 339 341 341 341 339 339 340 341 339 338 338 338 338 337 336 337 336 332 332 333 336 336 336 337 336 335 335 334 333 332 331 331 334 333 332 331 331 331 329 329 329 329 330 330
340 340 341 340 341 341 341 342 341 340 340 341 341 339 338 339 340 340 340 340 339 338 339 338 337 339 339 337 337 338 337 337 336 337 337 336 336 335 334 333 335 337 338 337 337 333 333 332 330 331 334 333 333 331 330 331 330 330 329 329 329 330
339 340 340 340 340 340 341 342 340 339 341 343 340 339 338 338 339 340 340 340 341 339 338 336 337 339 341 338 337 336 337 338 337 338 337 337 338 335 335 333 333 334 336 336 336 333 333 333 329 329 332 332 332 333 332 331 330 329 329 330 329 328
340 339 339 339 340 340 341 341 341 341 343 341 340 339 338 338 340 340 340 340 340 340 341 340 340 339 338 338 338 337 337 337 338 337 338 338 337 336 333 332 332 334 334 335 333 333 332 329 329 330 331 332 331 332 332 331 330 329 329 329 328 328
341 339 342 340 340 340 341 341 341 341 341 341 341 337 338 339 340 340 340 340 339 339 341 342 341 338 339 338 337 336 336 337 338 337 337 338 337 335 333 332 332 331 333 333 334 333 334 330 330 330 329 329 329 331 333 333 331 330 329 328 328 328
339 338 338 339 339 341 341 342 343 345 342 340 339 338 337 337 336 338 340 338 339 339 341 342 339 340 339 338 337 335 334 336 338 337 335 336 337 335 333 333 333 333 332 334 331 331 330 331 330 328 329 331 332 333 330 331 331 331 330 329 328 328
339 339 339 340 339 340 341 341 342 342 339 338 337 336 336 338 338 337 337 338 338 339 341 340 341 341 338 338 337 336 336 338 338 337 336 335 335 334 333 333 332 334 335 333 332 332 330 329 329 330 329 331 332 332 332 331 331 332 332 330 330 329
341 341 340 340 341 342 342 342 341 341 341 336 337 337 337 338 337 337 337 338 339 340 339 337 339 339 338 338 338 337 337 337 337 336 335 335 334 334 333 333 331 332 335 333 331 330 329 328 329 328 329 330 332 332 333 332 331 335 331 331 331 331
339 340 340 341 341 341 342 342 341 338 337 338 338 338 338 335 335 337 338 339 339 339 341 339 340 340 339 339 337 337 336 336 336 335 333 333 332 333 334 333 332 332 334 334 331 331 327 328 330 331 331 332 331 330 332 332 331 330 330 332 332 334
336 338 339 338 338 337 338 337 335 336 335 337 338 337 336 334 336 337 338 339 337 335 338 339 339 339 339 338 336 337 336 336 335 334 332 331 331 332 332 333 333 333 332 332 332 331 330 329 329 328 328 328 329 330 331 331 330 332 332 331 333 333
335 337 336 336 335 334 333 334 334 336 334 335 338 338 338 337 336 336 337 338 337 335 336 338 339 338 337 340 338 338 337 336 335 334 332 331 332 333 333 333 334 332 331 330 331 331 330 330 327 325 325 325 326 331 332 332 329 331 332 331 331 330
335 336 336 336 336 335 334 334 333 333 334 334 336 336 336 337 337 337 337 337 336 335 336 336 338 336 337 337 336 336 337 336 335 333 333 332 331 334 334 334 334 330 331 330 328 329 331 328 323 322 320 319 321 325 328 329 330 331 333 332 331 330
336 335 333 334 333 333 335 336 335 335 334 334 335 337 338 339 339 338 337 337 337 336 336 336 336 337 336 336 336 335 335 335 334 334 332 331 332 332 332 333 332 330 329 329 328 329 329 329 323 325 324 320 316 316 321 324 328 331 333 331 331 330
334 333 332 334 333 334 334 335 336 336 336 335 334 337 338 338 338 337 336 337 337 336 335 336 337 337 337 336 335 335 335 334 334 334 333 331 332 332 331 331 332 331 331 327 326 327 329 330 327 324 316 317 317 318 313 319 323 327 331 331 330 331
335 333 333 333 332 333 332 332 331 333 334 335 335 334 333 333 335 335 335 335 336 336 335 335 335 336 336 335 335 336 335 335 334 335 334 332 332 332 332 332 331 331 331 329 326 326 328 330 328 328 322 318 315 313 314 317 322 321 328 328 329 330
335 334 335 335 335 335 332 330 329 328 327 326 327 329 329 328 331 330 333 334 336 337 336 334 335 335 335 335 334 335 335 335 335 336 336 335 333 331 331 332 332 332 331 332 329 326 326 329 329 328 328 325 323 317 316 319 320 315 326 328 328 330
333 330 331 331 333 333 333 333 331 329 329 328 328 330 332 333 333 333 335 334 335 335 336 335 335 335 335 336 335 335 334 335 335 337 338 336 334 332 332 332 333 332 332 332 329 326 326 327 328 328 329 328 327 326 324 321 317 317 317 323 326 327
328 327 327 328 329 330 329 330 332 332 332 331 331 331 332 334 334 333 333 334 335 335 336 336 336 336 336 337 336 335 335 334 334 336 336 336 335 334 333 333 333 333 333 330 329 327 327 328 325 325 328 327 326 327 326 323 323 321 317 316 320 325
324 325 326 328 328 329 330 330 330 329 330 333 334 333 334 333 334 333 331 332 331 333 334 334 335 335 335 335 334 334 334 334 334 333 332 332 333 334 333 331 331 331 331 330 329 329 327 326 328 326 326 325 326 326 327 325 326 323 316 315 315 320
322 323 324 325 327 327 328 328 327 327 327 328 329 332 334 331 330 331 330 330 330 330 330 330 331 331 330 331 331 332 333 334 332 332 332 332 332 333 333 332 331 331 331 330 330 329 327 327 327 327 328 326 325 327 327 326 324 323 321 319 315 319
321 322 322 323 324 324 325 326 325 326 326 326 327 327 327 330 333 333 330 328 329 329 328 329 328 329 329 329 329 332 331 329 329 331 332 332 332 332 333 334 333 331 331 330 329 329 328 328 327 326 329 328 327 328 326 325 325 325 321 317 317 318
319 320 320 321 322 322 322 323 324 325 325 325 324 325 326 326 329 331 331 330 328 327 327 328 327 326 327 329 330 330 330 328 329 328 329 331 332 333 332 331 332 332 331 330 330 331 331 330 329 328 328 330 329 329 328 327 326 326 324 321 320 319
317 318 319 320 320 320 321 321 322 322 322 322 321 323 325 325 327 328 330 331 329 328 327 327 327 326 326 327 328 327 327 327 327 328 329 329 331 333 331 329 330 329 330 330 331 331 330 329 330 328 329 331 331 329 328 328 326 326 325 323 321 318
316 317 317 318 319 319 319 321 322 322 321 321 320 322 323 324 325 327 328 329 330 330 328 326 327 326 327 328 327 328 328 328 329 329 330 330 331 330 329 328 330 331 331 331 330 328 329 330 329 328 330 329 330 330 329 329 328 326 324 323 320 320
315 316 316 317 318 317 318 319 320 321 320 320 321 322 322 323 324 324 325 327 328 330 328 327 326 327 329 328 328 328 329 329 329 329 330 330 331 330 329 328 329 329 329 330 332 330 329 329 328 328 329 329 329 329 329 329 328 326 326 325 324 322
315 315 316 316 316 316 317 319 319 320 320 321 320 320 321 321 320 321 322 323 325 327 330 329 328 327 328 329 329 329 329 329 328 328 328 327 328 328 330 330 329 329 328 330 328 327 328 328 327 327 327 329 329 329 330 330 329 328 327 327 325 325
315 314 315 315 316 316 317 317 318 319 318 319 319 319 319 319 319 319 320 320 321 322 324 327 329 330 329 328 328 329 329 329 328 328 328 329 328 326 327 327 328 328 328 329 328 328 329 328 328 328 327 327 328 328 327 327 328 329 328 327 327 326

ECMWFFLT2_sfc_thetae_090.txt.gz
Theta_e
343 343 343 343 343 343 346 347 347 347 347 347 348 349 349 348 348 348 347 348 348 345 343 344 345 343 348 345 348 347 347 346 346 345 346 346 346 346 345 344 343 342 342 342 341 341 340 340 341 342 343 343 340 330 329 328 329 331 331 333 334 332
342 342 343 343 344 345 346 346 343 343 345 346 348 349 347 344 349 343 348 346 342 344 341 339 341 348 343 346 345 347 347 347 345 346 345 345 345 346 346 344 343 343 342 342 342 332 333 336 338 340 343 340 333 330 329 329 329 329 331 330 333 335
342 342 343 343 344 345 345 343 342 343 345 347 347 347 344 346 341 342 343 341 341 339 338 338 340 345 344 347 345 347 347 346 346 345 345 345 345 345 346 345 344 343 343 342 336 331 329 326 326 338 338 333 332 330 330 329 329 329 329 331 329 336
341 341 342 342 343 343 342 342 342 343 343 343 343 344 342 341 341 340 341 339 335 336 334 334 349 348 347 344 343 347 347 347 346 346 345 345 345 345 346 345 344 344 344 338 330 330 330 326 325 325 328 330 331 330 329 329 329 328 329 334 330 336
341 342 342 344 342 341 341 341 340 341 341 340 340 340 339 338 339 338 338 338 336 336 335 335 335 335 337 338 339 339 341 339 340 339 345 336 336 340 340 335 334 337 330 332 332 329 329 328 327 328 329 332 331 329 329 329 328 328 329 330 331 336
340 341 342 342 341 344 341 339 339 340 340 340 339 338 337 336 336 337 336 336 337 335 334 334 333 334 336 336 337 336 337 336 334 335 340 337 335 334 334 335 332 332 332 332 332 331 329 332 331 329 329 333 331 329 328 327 328 328 328 329 334 336
338 339 341 342 341 339 338 339 340 340 339 338 338 337 337 336 336 337 337 339 335 334 333 332 333 335 335 335 335 334 334 335 335 334 336 336 335 334 334 334 332 331 332 333 333 333 331 331 331 331 329 332 330 329 327 327 327 327 327 329 335 337
337 338 339 340 339 338 337 339 341 344 340 340 338 337 337 337 337 337 338 338 338 335 333 332 332 333 334 334 336 337 334 332 332 334 337 335 335 335 335 334 333 332 334 334 334 333 332 333 333 331 331 331 330 328 327 327 327 327 328 329 331 335
337 338 339 339 338 337 338 338 340 338 337 343 337 337 337 337 337 338 338 338 340 335 334 332 333 334 334 334 335 336 334 333 331 330 332 334 334 333 336 335 335 335 335 335 334 333 333 333 333 332 331 330 330 328 327 327 327 327 327 327 329 333
337 338 339 338 337 337 338 338 338 337 338 341 336 337 337 336 336 337 337 337 338 335 335 334 333 333 333 334 335 335 333 332 332 330 330 332 333 331 335 337 336 336 335 334 334 333 333 332 333 332 331 330 330 329 328 327 327 327 327 328 328 333
338 340 338 337 337 337 338 337 337 337 338 337 336 337 335 336 335 336 336 337 337 337 335 335 335 334 333 334 334 334 334 333 332 333 332 330 329 330 332 336 337 336 335 334 333 333 333 332 332 331 331 331 330 329 328 327 327 327 327 327 327 328
338 339 338 337 339 337 337 337 337 337 337 336 338 336 335 336 338 336 336 337 337 337 338 335 335 336 337 335 334 335 334 333 333 333 333 332 331 331 333 335 336 334 334 335 334 334 333 331 329 328 331 330 329 329 328 327 327 327 327 327 327 327
338 338 336 337 338 338 337 338 337 337 338 339 337 336 336 336 336 335 335 336 336 336 336 335 334 334 338 335 334 334 334 335 334 334 334 333 333 331 332 333 332 332 332 332 332 333 334 330 329 328 329 330 329 329 329 328 327 327 327 328 327 328
337 337 337 335 336 336 336 336 337 335 340 338 336 335 336 334 336 335 336 336 337 337 337 335 334 333 334 335 334 334 334 334 335 334 334 334 333 331 331 332 331 330 333 331 330 331 329 329 330 330 329 330 330 329 329 328 328 327 327 327 327 327
338 336 340 338 337 335 336 338 336 336 338 336 337 335 333 334 335 336 337 337 337 338 338 337 337 336 335 335 334 333 333 334 334 334 334 334 333 331 331 331 332 329 328 328 331 331 329 328 329 327 327 329 329 330 330 330 330 329 328 327 326 327
338 336 336 337 335 336 338 337 336 340 336 336 335 334 333 334 335 335 338 337 337 337 338 338 339 338 335 335 334 333 333 332 334 334 333 333 333 332 330 330 331 330 326 327 330 328 328 328 327 327 328 330 330 330 330 330 331 330 329 327 326 326
336 337 337 337 336 336 336 337 336 337 337 336 334 334 333 334 335 335 335 336 336 336 337 337 337 337 335 335 335 333 332 332 333 333 332 331 332 331 330 330 330 332 330 329 330 328 327 328 327 327 327 327 329 330 329 330 331 331 330 326 326 326
337 337 336 336 337 336 336 336 336 335 338 333 332 332 333 335 334 334 333 335 336 336 337 336 336 337 335 335 334 334 333 332 333 332 332 331 331 330 330 330 329 331 332 331 329 327 326 327 325 325 326 327 328 329 330 330 330 333 330 328 326 326
337 336 336 336 336 336 337 336 335 333 333 332 333 333 333 333 334 334 333 334 335 336 338 335 335 336 335 335 334 334 333 332 332 334 333 332 330 330 330 329 328 329 332 333 330 329 328 327 327 326 326 328 329 328 328 329 329 329 329 329 328 328
335 335 335 334 337 333 334 333 331 331 330 332 333 334 334 333 333 332 334 334 335 335 335 336 334 334 335 335 335 335 334 331 332 333 332 331 330 330 329 329 329 329 329 330 331 330 328 328 327 325 324 325 326 327 328 329 328 328 329 329 329 329
333 334 335 335 333 333 332 332 331 329 329 330 333 333 334 333 332 332 333 335 335 334 332 335 336 334 334 337 335 333 333 332 331 332 331 330 331 330 330 330 329 329 329 328 328 328 328 328 325 322 322 322 323 326 330 330 326 326 328 330 330 330
331 331 333 335 335 334 332 332 330 331 331 330 331 332 334 334 334 334 334 334 334 332 332 333 335 332 334 333 334 334 335 335 334 334 332 330 328 331 329 329 328 326 328 328 326 328 328 326 321 320 319 317 319 322 326 326 325 326 327 329 330 330
331 332 332 333 330 331 332 332 331 331 331 329 332 336 336 336 335 334 333 334 334 333 332 332 333 333 334 333 333 332 335 337 336 335 333 331 329 328 329 329 329 328 326 326 326 328 328 327 321 322 321 318 314 316 318 321 324 326 328 329 328 328
331 331 330 333 331 331 332 332 332 332 333 331 331 334 333 334 333 333 334 334 334 333 333 332 331 333 335 333 333 333 332 333 335 336 334 331 329 328 327 328 329 329 328 324 325 326 328 328 325 323 315 316 315 314 311 316 320 324 329 329 328 328
328 328 328 330 331 331 332 328 328 329 328 328 328 328 330 331 330 332 333 331 333 333 333 333 332 333 335 333 333 333 333 332 333 335 335 333 332 330 329 328 329 328 328 327 325 324 326 328 327 328 322 316 313 312 313 316 320 321 326 326 327 327
325 326 327 327 329 329 330 329 328 327 325 323 325 325 325 325 328 331 332 331 331 333 334 333 332 333 333 334 332 333 333 332 332 334 335 334 334 333 331 330 329 329 328 329 327 324 324 327 328 328 327 323 321 316 315 318 319 314 322 326 324 326
325 325 327 328 328 328 327 327 327 327 326 325 324 325 327 330 329 330 331 331 332 331 333 333 332 332 333 334 333 333 332 331 333 332 333 334 334 334 334 333 332 330 329 328 326 324 324 325 327 327 328 327 325 324 323 320 317 316 316 322 325 325
324 325 327 327 327 328 326 325 326 326 327 326 328 329 330 330 329 330 330 330 331 331 333 335 334 332 334 334 333 332 332 332 331 332 332 332 333 334 335 334 333 333 332 329 326 326 326 324 323 324 327 326 325 326 326 324 321 321 318 316 321 326
324 324 325 327 326 325 326 325 325 325 324 325 327 328 331 332 331 330 328 328 329 329 331 331 331 331 331 331 332 332 331 330 331 331 332 332 330 331 333 333 333 332 331 330 329 328 327 324 324 324 324 325 325 324 324 324 323 322 316 315 315 320
320 322 323 324 325 325 326 326 324 324 323 323 325 326 328 327 328 331 330 330 330 329 328 328 329 330 330 329 329 330 331 331 330 329 330 329 328 328 329 331 333 331 331 330 330 329 328 327 326 326 325 325 324 323 322 322 322 321 318 317 315 318
318 319 320 321 323 323 324 324 323 323 322 322 323 324 324 324 325 326 327 328 330 330 330 330 328 328 328 329 329 330 329 328 329 330 329 328 327 328 328 329 331 332 331 330 329 327 326 327 327 326 325 325 324 324 323 321 322 322 322 319 317 318
315 316 318 319 320 321 321 321 321 320 320 321 321 322 322 322 323 323 324 325 327 328 329 329 328 327 327 327 327 326 327 327 328 328 327 328 329 329 329 329 329 329 330 331 330 328 327 327 327 325 325 326 326 326 326 325 325 325 323 322 320 318
314 315 316 317 317 318 320 319 319 318 319 320 319 320 320 320 320 320 321 323 324 323 325 326 327 327 326 326 326 325 325 324 325 326 327 327 328 329 329 330 330 329 328 327 328 328 326 327 327 325 325 326 326 326 326 327 326 323 324 323 320 318
314 314 315 315 315 316 317 317 318 317 318 318 318 319 319 318 319 320 320 320 321 321 322 323 324 326 327 327 327 326 326 326 326 327 328 328 328 327 327 328 328 328 327 327 328 327 326 326 328 328 327 327 326 327 328 327 327 326 324 323 320 319
313 313 313 313 314 314 315 316 317 317 317 318 318 317 317 318 318 319 319 319 319 321 321 321 323 326 328 329 328 327 326 327 328 328 329 329 329 328 327 328 328 327 327 327 328 328 327 326 326 326 326 326 326 326 327 328 327 326 326 325 323 322
312 312 313 314 313 313 314 315 314 314 315 316 317 315 315 316 316 317 318 318 318 320 321 322 323 324 326 327 328 328 327 327 329 329 328 328 328 327 326 325 326 327 327 329 328 327 326 326 326 326 326 326 326 326 327 328 328 327 327 326 325 324
311 312 312 312 312 312 312 312 312 312 312 312 312 312 313 313 314 315 315 316 317 318 320 321 322 324 325 324 325 328 328 329 329 328 327 326 326 327 326 324 324 325 326 328 328 327 326 325 326 326 326 326 325 326 326 327 328 328 328 327 326 326

ECMWFFLT2_sfc_thetae_093.txt.gz
Theta_e
341 340 340 341 341 342 345 347 346 347 347 348 348 349 349 349 348 348 347 348 348 343 340 341 343 341 348 344 346 346 346 345 345 345 345 346 345 344 343 343 342 342 342 342 342 342 341 341 342 343 341 341 339 329 328 327 327 330 330 333 334 328
340 340 341 343 343 343 345 345 340 340 342 345 347 348 346 343 348 341 347 345 341 343 338 336 338 347 341 344 345 347 346 345 345 345 345 345 345 345 344 343 343 343 342 342 342 330 330 337 342 343 340 338 328 326 327 327 328 329 331 329 332 334
340 340 341 343 344 344 342 341 340 341 343 346 347 346 341 342 339 339 342 340 340 338 337 337 338 343 342 346 344 347 347 346 345 345 345 345 345 345 345 344 343 342 342 342 329 326 325 323 326 341 340 332 327 327 327 327 328 329 329 328 328 337
340 340 341 342 343 342 340 340 340 341 341 341 342 343 340 338 337 337 338 336 334 336 333 332 347 346 346 341 341 346 347 346 346 345 345 344 345 345 345 345 344 343 337 332 328 325 327 325 323 324 328 327 327 327 327 327 328 328 328 332 328 337
339 339 339 341 341 340 340 340 339 340 340 338 339 339 337 335 335 335 335 335 334 335 332 334 334 334 335 335 336 336 339 337 336 336 344 333 335 337 338 333 330 331 327 330 328 325 327 327 326 327 329 328 328 327 327 328 328 327 328 327 329 337
340 339 340 340 340 342 342 338 338 338 338 337 338 335 334 335 333 334 334 335 335 332 332 331 330 332 334 333 335 335 334 333 333 332 337 331 332 331 330 330 329 329 330 329 329 328 327 331 327 326 330 329 328 327 327 327 327 327 327 327 332 337
339 339 339 340 340 341 338 338 337 338 337 336 335 334 333 333 333 334 334 337 333 331 331 331 331 332 332 332 332 332 332 332 330 330 333 331 331 331 330 330 328 327 327 329 330 330 328 329 328 328 328 330 328 327 327 326 327 326 326 326 334 337
338 340 340 339 338 337 336 337 338 342 337 338 336 334 333 333 334 333 334 335 336 331 331 330 331 331 332 332 332 332 331 330 330 332 333 332 333 331 330 329 328 328 331 331 331 331 329 330 329 329 329 330 328 327 326 326 326 326 326 326 329 336
338 339 338 337 336 335 336 336 338 336 334 341 333 334 333 334 333 335 335 335 337 331 330 329 329 331 332 331 332 333 332 331 331 332 330 332 331 330 330 330 330 331 331 331 329 329 330 331 330 329 329 329 328 326 326 326 326 326 326 326 328 334
337 337 337 336 334 334 335 336 335 334 334 340 333 333 335 333 333 334 333 334 336 332 331 331 330 330 330 331 331 332 332 331 331 330 330 332 331 328 329 330 331 332 335 333 332 331 332 331 331 330 329 328 328 327 326 326 326 326 326 327 327 331
336 339 335 334 333 333 333 333 335 334 334 334 334 334 333 332 333 333 333 334 334 335 332 332 330 330 330 330 331 331 332 331 331 332 330 330 328 329 328 331 333 333 335 335 334 331 331 330 329 328 328 329 328 327 326 326 326 326 326 326 327 328
335 335 334 333 334 332 332 333 334 334 334 332 334 332 331 332 335 332 333 333 334 333 336 331 331 331 331 330 330 331 332 332 333 332 332 330 329 329 328 330 333 335 336 335 334 331 331 330 326 326 328 328 328 326 326 326 326 326 326 326 326 327
334 335 333 333 336 332 332 335 335 334 334 336 334 333 332 332 331 332 333 332 333 333 334 332 331 332 337 336 334 331 331 333 333 333 332 332 332 328 329 328 328 331 333 334 333 330 330 326 326 326 327 327 327 327 326 326 326 326 326 326 326 326
339 338 336 337 339 337 335 334 334 333 337 335 333 333 334 331 333 334 333 333 334 335 335 332 331 330 330 335 336 335 333 332 334 333 332 331 331 329 328 328 327 327 332 331 329 327 326 325 326 326 326 327 327 327 326 326 326 326 326 326 326 326
339 338 339 338 339 338 338 338 336 332 336 338 335 333 332 331 332 334 334 335 335 337 338 336 333 332 331 332 333 334 333 333 332 331 332 332 331 329 328 328 327 326 327 328 329 328 325 325 326 326 326 327 327 327 327 326 326 326 326 326 326 326
339 338 337 338 335 335 338 337 336 338 335 336 336 333 331 331 332 332 335 335 334 336 339 339 338 337 334 335 335 334 333 332 332 331 331 330 331 330 328 327 327 327 326 326 327 325 324 325 325 325 325 327 327 328 326 326 326 327 327 326 326 326
336 335 333 335 333 333 335 333 332 336 336 335 333 331 329 329 330 332 333 336 336 335 334 336 338 339 338 337 336 335 333 331 330 330 329 328 330 330 328 328 325 327 326 324 325 324 323 324 324 325 326 325 327 328 326 326 327 327 327 326 326 325
334 333 333 334 333 333 334 335 335 335 340 334 332 330 330 330 331 330 330 332 333 335 335 332 333 336 337 337 337 335 332 331 331 331 330 328 327 327 328 328 327 327 328 327 326 324 322 322 323 324 325 326 326 326 326 326 327 331 327 326 326 325
333 332 333 332 335 335 335 335 333 332 331 330 329 329 330 331 331 330 331 331 330 332 334 333 333 335 337 336 336 334 333 331 331 333 333 332 330 330 328 326 327 327 327 329 327 326 325 324 323 323 325 326 327 327 326 326 327 328 327 327 327 328
331 332 332 332 333 331 329 330 329 327 328 329 329 331 330 331 332 331 332 331 331 330 332 332 331 332 335 336 335 334 333 330 329 332 332 331 331 330 329 327 326 325 325 326 327 326 325 324 323 323 325 325 326 325 326 326 325 326 327 328 327 327
330 331 331 330 329 328 326 326 327 326 326 326 328 330 332 331 331 331 331 331 331 331 330 331 333 332 332 336 338 336 336 334 331 333 332 331 331 330 329 327 327 325 325 324 323 324 325 326 323 320 322 322 324 325 327 328 326 325 326 327 326 326
330 331 331 330 331 329 326 326 325 325 326 327 327 329 331 331 331 331 330 331 331 330 329 330 331 332 335 335 335 335 336 335 335 334 333 333 332 332 331 330 329 326 325 324 322 325 326 326 321 319 318 318 318 322 324 326 325 326 327 327 327 327
330 330 330 332 329 328 328 329 328 326 327 327 328 331 332 331 332 331 329 329 330 329 329 328 328 331 334 335 335 335 336 336 336 335 334 333 331 329 328 329 329 327 325 324 323 324 326 327 323 321 320 318 316 315 318 321 323 324 326 327 327 327
327 327 327 329 330 328 330 328 328 329 328 328 328 332 329 329 330 330 330 329 329 329 329 329 328 329 329 331 333 334 334 334 335 335 333 332 332 330 329 328 329 329 328 325 323 323 326 327 325 321 315 316 316 314 313 316 319 322 325 326 326 327
325 326 326 327 327 328 329 328 328 328 329 327 325 327 328 329 330 331 333 331 332 330 330 331 330 329 329 329 327 329 331 333 334 334 334 333 332 332 332 330 329 327 328 327 326 324 325 327 326 326 322 317 313 312 314 315 318 318 323 324 326 327
324 325 325 325 326 326 325 325 325 324 324 324 324 326 326 327 329 328 329 330 331 331 332 333 333 333 332 333 332 330 329 331 332 333 332 332 333 333 332 331 331 330 329 329 327 326 325 327 327 327 326 324 320 316 315 316 317 313 318 324 324 327
323 325 326 326 327 327 324 324 323 323 322 323 322 324 328 330 330 330 330 332 331 331 333 334 334 334 333 333 332 332 332 332 332 331 332 331 329 330 332 331 333 332 331 330 328 324 325 325 325 325 326 326 325 324 322 319 316 315 313 319 325 325
323 325 325 326 326 327 324 323 323 323 324 322 324 325 327 328 329 330 329 329 330 331 333 334 334 333 333 334 333 331 330 330 330 330 331 329 328 329 329 331 334 333 333 331 329 326 325 325 323 323 326 325 325 326 325 322 321 318 315 313 317 324
320 322 323 325 325 325 326 323 322 322 321 323 324 325 326 327 326 327 327 328 329 330 331 331 332 332 332 332 331 329 328 327 328 329 331 331 330 329 328 329 330 331 330 330 329 329 326 325 325 323 322 322 322 322 324 324 324 323 317 314 315 319
318 320 322 323 323 322 322 322 321 321 320 320 322 323 324 322 323 324 323 325 326 326 328 329 330 330 330 330 330 329 327 326 326 327 330 328 328 327 326 326 326 327 330 330 331 329 327 327 326 325 324 324 322 322 321 322 322 321 321 320 316 316
318 319 320 320 321 320 320 320 320 320 319 319 320 320 319 319 320 320 320 321 323 323 325 326 327 327 328 328 328 329 327 325 326 328 328 326 326 326 325 326 327 328 328 329 330 330 327 327 326 325 326 325 323 322 320 319 319 321 320 318 317 317
316 316 316 317 317 318 319 319 319 319 319 319 318 318 317 317 318 318 318 319 321 321 322 323 324 325 325 326 327 326 326 325 325 324 325 326 327 327 328 329 330 329 329 330 330 329 328 326 326 324 325 325 324 324 323 322 323 322 321 320 319 318
314 314 313 314 314 314 315 316 316 317 317 318 316 316 316 316 317 317 317 318 318 318 320 319 321 322 323 325 326 325 325 324 325 325 325 326 328 329 329 329 329 329 329 329 328 327 326 326 326 325 325 326 326 324 323 325 325 323 323 323 321 318
312 312 312 313 313 312 312 313 313 313 314 314 314 314 314 315 316 317 318 317 318 318 318 319 320 321 323 325 325 326 326 326 326 326 326 325 327 329 329 328 328 327 327 328 328 327 326 326 326 326 327 326 325 325 325 326 326 325 323 322 320 319
311 311 311 311 312 311 311 312 312 313 313 314 313 313 314 316 316 316 316 317 317 318 318 319 320 321 324 322 323 325 324 325 326 326 326 327 328 329 329 328 328 328 328 328 327 327 327 326 325 325 325 326 326 326 326 326 326 326 325 324 323 322
310 309 311 312 311 311 310 311 311 311 311 313 315 313 313 313 313 313 314 314 314 315 315 316 318 318 318 319 320 320 321 323 325 325 325 323 324 326 327 326 326 327 326 328 327 327 327 327 326 326 326 326 326 325 326 327 327 327 327 326 325 324
309 309 310 310 310 311 311 311 311 311 310 310 310 310 310 311 311 311 311 310 310 311 312 312 312 313 313 315 316 317 318 319 322 318 315 314 315 316 318 323 324 325 325 326 326 326 327 326 326 326 326 326 325 325 326 326 326 326 326 326 326 325

ECMWFFLT2_sfc_thetae_096.txt.gz
Theta_e
340 341 340 339 339 340 344 347 346 347 347 348 348 349 349 349 348 348 348 348 346 342 341 342 343 344 348 346 346 345 346 345 345 344 345 345 344 344 343 343 343 343 342 343 341 342 343 343 343 343 342 342 341 331 330 331 330 333 333 337 337 332
338 339 339 340 340 341 343 345 339 340 341 345 347 348 346 345 348 343 348 344 343 344 338 338 342 347 345 346 345 346 344 345 345 345 344 344 344 344 344 343 343 343 343 340 335 328 334 344 343 343 342 339 330 329 330 330 331 332 335 334 334 336
338 338 339 338 339 338 338 338 336 337 341 346 346 345 342 342 338 340 341 341 340 338 337 338 338 344 344 347 346 346 346 345 344 345 344 344 344 344 344 344 343 343 340 336 328 327 326 327 337 343 341 332 329 329 329 330 331 333 332 333 331 337
339 339 339 338 338 338 337 337 337 337 339 340 340 341 339 338 338 338 338 337 336 337 334 331 345 347 348 340 338 345 346 345 344 345 343 344 345 345 344 344 343 342 336 331 329 328 326 326 329 331 329 329 329 329 329 330 331 331 331 335 330 338
340 341 341 342 342 339 337 336 336 337 339 342 340 337 337 335 335 335 335 335 335 335 332 331 331 335 339 335 333 334 337 336 335 335 343 332 333 334 335 330 332 334 330 331 329 328 328 328 330 331 329 329 329 329 329 331 331 331 331 334 334 338
341 341 341 342 341 342 339 336 336 337 338 341 339 336 335 334 333 334 333 334 337 331 331 330 328 330 332 332 332 332 333 333 333 334 340 334 332 332 333 332 331 331 331 333 331 329 332 331 330 330 330 329 329 329 329 330 330 331 331 332 335 338
340 340 341 342 341 341 337 335 335 337 339 338 336 336 336 333 332 332 333 337 332 329 329 328 329 330 330 332 333 332 333 332 333 333 337 334 332 332 332 334 332 331 329 333 331 331 329 329 330 330 330 329 329 329 329 329 330 330 330 331 334 338
339 341 341 341 341 340 337 335 337 343 340 341 337 334 333 332 334 333 334 336 335 330 330 331 331 331 331 331 333 333 332 332 332 332 333 335 334 333 333 334 333 332 332 332 332 332 330 330 330 331 331 330 329 329 329 329 329 329 329 330 332 337
340 341 340 340 339 338 338 336 338 338 337 342 333 332 332 333 333 335 335 336 337 330 330 330 330 331 331 331 332 333 333 333 332 332 332 333 333 331 331 333 334 334 333 333 332 332 332 331 331 331 331 331 329 328 328 328 329 329 329 329 331 335
339 340 339 338 336 337 337 337 336 335 334 340 332 332 333 332 332 334 334 335 336 331 331 331 330 330 331 332 332 332 333 332 332 332 331 332 333 331 331 331 333 334 335 334 334 334 334 331 331 332 330 331 329 329 329 328 328 328 328 329 330 332
339 340 338 337 335 336 337 337 337 333 333 333 334 335 333 331 332 332 333 334 335 336 332 331 330 330 330 330 331 331 331 332 333 333 332 331 331 332 330 331 332 334 335 336 336 335 334 333 330 330 331 331 330 329 328 329 329 329 328 329 330 331
337 339 338 336 337 335 335 336 335 333 333 333 334 332 332 333 335 333 335 333 334 334 337 332 332 331 332 331 331 331 331 332 333 334 333 332 331 330 330 330 332 334 335 336 336 335 334 333 330 328 329 330 330 329 328 328 328 328 329 329 329 330
338 338 336 337 336 334 332 334 335 333 336 337 334 333 331 332 333 333 334 334 334 335 336 334 332 333 336 336 336 335 334 333 333 334 334 333 333 332 331 331 330 332 332 334 334 333 332 329 329 328 329 329 330 329 328 328 328 328 328 329 329 330
339 338 337 338 338 336 335 334 333 332 337 336 333 333 333 332 334 335 335 335 336 337 338 336 334 332 333 335 336 336 335 335 335 334 334 334 333 332 331 329 329 330 333 332 330 330 330 330 330 329 328 329 329 329 328 328 328 328 329 329 329 329
338 338 339 338 338 337 338 338 338 335 337 339 338 335 332 332 333 334 335 336 337 337 338 338 337 334 332 332 333 334 334 335 335 334 333 333 333 332 331 330 331 329 328 328 329 330 330 330 329 329 329 329 328 329 328 328 329 328 328 329 329 329
338 338 338 338 337 338 338 338 338 339 337 339 339 337 334 332 332 334 335 336 336 337 338 338 338 338 336 336 335 335 335 334 334 334 333 332 333 332 331 330 330 329 329 328 327 328 329 328 328 329 328 329 329 330 328 328 328 328 328 329 328 329
337 337 337 338 336 337 337 337 337 339 338 338 337 336 333 331 331 333 334 335 336 337 338 338 339 339 338 338 338 337 337 334 332 333 333 332 332 332 331 330 330 330 328 328 327 327 327 327 328 328 328 328 329 330 328 328 328 329 329 328 328 328
337 336 336 336 336 336 337 338 338 338 340 337 336 334 333 332 332 332 331 333 335 337 338 337 337 338 338 338 338 336 334 333 332 332 332 332 332 331 331 330 330 329 328 328 328 327 327 327 327 327 327 328 329 329 329 329 328 331 329 328 328 328
335 335 335 337 338 336 336 335 335 335 336 335 334 333 332 331 331 331 330 330 331 334 337 337 336 337 337 337 337 336 334 333 333 334 333 332 332 331 331 330 329 330 330 329 328 328 328 328 326 326 326 327 328 329 328 329 329 329 329 328 328 329
333 334 336 336 336 333 331 332 331 329 328 328 329 332 332 331 331 331 332 332 331 330 332 335 334 334 336 337 336 335 334 334 333 334 333 332 331 331 330 329 329 329 329 329 330 329 328 327 326 324 326 326 327 327 328 328 328 328 329 328 328 330
330 333 332 332 332 330 328 327 327 326 327 327 328 330 331 330 330 330 331 331 332 331 330 332 335 334 334 336 337 337 336 335 333 333 333 333 333 332 331 331 330 330 329 328 327 327 327 327 326 324 324 325 326 326 329 330 327 327 328 329 329 328
330 331 332 333 332 331 328 330 326 326 326 327 328 328 330 331 332 332 332 331 331 332 332 333 335 334 337 336 336 337 337 336 336 334 334 334 334 334 333 331 330 328 330 329 327 326 327 327 323 322 322 321 322 324 326 327 327 327 327 328 329 328
327 328 329 332 328 328 330 331 330 329 328 327 328 331 331 332 333 332 330 330 332 332 333 332 332 334 335 335 336 336 336 337 337 336 334 334 334 333 332 331 330 328 327 328 328 328 328 328 324 322 322 321 319 318 320 323 325 326 327 328 328 328
326 326 326 329 330 330 332 331 330 330 329 331 330 332 331 331 330 331 331 331 332 331 332 332 333 333 334 334 334 335 335 335 336 336 335 333 333 332 332 330 330 329 329 325 326 327 329 328 327 325 319 318 318 316 314 317 319 323 326 327 327 327
324 324 324 326 326 327 328 327 327 327 328 327 328 329 329 328 329 330 331 331 332 333 333 334 333 333 334 333 333 333 333 334 334 335 335 333 331 332 333 332 331 329 328 326 325 327 327 328 328 329 325 319 316 314 315 318 318 320 323 324 325 326
323 323 324 325 325 325 324 322 322 322 322 322 322 324 325 325 327 328 329 331 333 333 334 335 335 335 334 334 332 332 332 333 333 333 333 332 331 332 332 331 332 330 329 329 328 327 326 328 328 328 328 327 325 319 317 319 319 315 320 324 324 326
322 323 324 325 325 324 322 322 322 322 322 322 321 323 327 327 327 328 329 329 330 331 332 332 333 333 333 333 331 330 330 330 330 329 332 331 331 330 330 331 332 331 331 331 330 326 325 327 327 327 328 327 327 325 324 319 316 319 315 319 324 324
322 323 324 324 324 325 322 322 322 322 323 323 323 323 324 325 326 327 325 326 327 328 329 330 330 330 331 331 332 331 329 327 327 328 331 331 330 331 330 331 331 332 332 331 329 327 327 328 325 325 326 325 325 326 326 324 323 319 317 314 318 324
318 319 320 322 322 322 323 322 321 321 321 322 323 323 323 323 322 323 322 323 324 325 326 327 328 328 328 329 330 330 329 328 328 328 330 330 330 330 330 329 329 329 329 330 330 330 328 327 327 325 325 324 325 324 324 324 324 323 318 316 316 318
316 317 318 318 319 320 321 321 320 319 319 319 320 320 320 319 319 320 319 321 322 323 324 325 325 326 326 327 328 329 328 328 328 328 330 329 329 329 329 328 328 328 329 328 329 330 328 329 329 329 327 325 322 322 322 321 321 321 321 321 316 318
315 315 315 315 316 316 318 319 319 319 318 317 318 318 317 317 318 318 318 318 319 320 322 323 324 324 325 325 327 328 328 327 328 328 329 328 328 329 329 329 329 329 328 328 328 329 329 329 328 327 325 325 323 323 321 319 320 321 320 318 318 318
314 313 313 313 313 313 314 315 316 317 316 316 316 316 315 315 316 316 317 317 318 318 319 321 322 322 322 323 325 325 326 326 327 327 327 328 328 329 329 329 329 329 329 330 330 329 329 328 328 327 326 326 325 325 324 322 323 323 321 320 320 319
312 312 312 312 311 311 311 312 313 313 314 315 314 314 314 313 314 314 315 315 315 315 317 317 318 319 319 320 322 322 323 324 324 323 322 322 323 325 327 329 329 329 329 328 328 328 327 327 327 326 326 327 327 326 325 326 325 324 324 323 322 319
311 312 312 310 310 310 310 310 311 311 312 312 312 312 311 311 311 311 312 311 311 312 312 313 314 314 316 318 318 320 322 320 316 315 315 316 317 317 318 322 326 327 327 328 328 328 327 327 327 327 327 326 326 326 326 327 326 325 323 322 321 320
311 311 311 310 310 309 309 310 310 310 311 312 311 310 310 310 309 308 308 308 309 309 309 310 311 312 312 313 314 316 318 315 313 311 312 313 313 313 314 315 316 319 321 323 322 325 326 326 326 326 326 326 326 326 326 327 327 325 325 324 323 322
310 310 310 310 309 309 309 309 309 309 309 311 311 309 308 308 308 308 307 307 307 307 308 308 309 310 309 310 311 312 314 313 310 309 309 309 309 309 311 312 312 312 313 314 314 316 320 324 326 327 327 327 326 326 327 327 327 326 326 326 325 324
309 309 309 309 308 308 308 307 307 308 308 308 308 307 306 306 306 307 307 306 306 307 307 308 308 309 308 308 309 309 310 311 308 307 306 306 306 305 306 308 308 309 310 310 310 311 314 316 319 324 326 326 326 326 327 327 327 327 327 327 326 326

ECMWFFLT2_sfc_thetae_099.txt.gz
Theta_e
347 348 348 348 348 347 347 347 348 348 348 348 349 350 350 349 350 350 350 349 348 349 350 349 349 349 346 347 346 345 345 345 345 345 345 345 344 344 343 343 343 343 342 343 344 345 345 345 343 343 343 343 343 342 342 341 340 338 338 338 338 336
346 347 346 346 346 347 347 347 347 347 348 348 348 348 350 351 351 351 349 349 350 349 349 349 349 348 348 348 347 345 345 344 345 345 345 345 345 345 344 343 343 340 337 339 341 346 347 345 344 343 343 342 342 341 342 341 340 338 337 338 338 338
345 345 344 345 345 346 347 347 347 347 347 348 349 349 350 350 350 349 349 348 349 349 348 348 347 347 348 347 347 346 345 344 344 344 344 344 345 345 344 344 341 338 336 334 342 344 345 345 345 344 344 343 342 341 341 341 340 339 338 338 338 338
344 344 342 344 344 345 346 346 345 346 347 348 348 348 349 349 348 349 348 348 349 348 348 348 346 347 347 347 347 346 346 346 346 345 344 345 345 345 343 342 340 338 338 340 340 339 341 343 345 347 346 342 341 340 340 340 338 339 339 337 337 338
345 344 344 344 344 345 344 346 346 346 346 347 347 347 347 347 347 347 347 347 346 347 347 347 347 347 346 346 345 347 347 346 347 346 343 344 345 343 344 343 341 339 340 339 338 340 341 343 345 344 342 341 341 341 340 341 339 338 339 339 339 338
344 344 343 343 344 345 344 344 345 346 346 347 346 347 346 346 346 346 346 346 346 346 346 345 346 346 345 346 345 343 345 345 344 344 344 344 344 345 343 342 341 339 339 341 340 340 341 342 343 342 341 341 340 340 340 339 339 339 340 340 340 338
342 343 343 345 345 345 345 345 345 346 344 345 347 344 345 346 346 345 345 346 346 346 345 345 345 346 346 346 346 345 345 346 344 343 343 343 344 345 344 342 343 341 340 339 339 339 339 340 342 340 340 339 340 340 341 339 339 339 339 340 340 337
342 342 343 344 344 344 345 344 344 346 345 345 345 344 345 346 345 346 345 347 346 345 345 346 344 345 345 345 345 345 346 344 344 345 344 343 343 343 343 343 344 342 341 339 338 338 338 336 338 340 339 340 340 341 341 340 340 340 340 340 339 338
342 343 343 343 342 344 344 344 346 345 344 344 343 344 344 345 345 346 346 346 346 345 346 344 344 345 345 344 344 344 346 344 345 345 345 344 344 344 343 343 343 341 342 341 339 340 338 337 339 338 338 339 340 340 341 341 340 339 339 339 340 339
343 343 343 343 342 342 343 343 344 344 344 345 344 345 345 345 345 346 345 345 346 346 346 345 345 346 344 344 345 345 345 345 345 345 345 345 344 344 343 342 342 341 338 339 338 340 339 339 338 339 338 338 340 341 341 340 340 339 339 340 340 340
343 343 342 341 342 341 342 342 343 344 344 344 344 344 345 346 344 345 345 345 345 345 344 344 345 345 344 344 344 344 344 345 346 345 344 345 346 345 344 344 343 341 340 339 339 341 340 340 340 340 340 338 338 341 341 342 341 341 339 339 340 340
342 343 342 342 342 342 342 342 343 344 343 344 345 343 344 344 344 345 344 344 344 344 344 344 343 343 342 342 341 341 341 342 343 344 344 344 344 345 344 343 343 343 343 342 341 340 342 340 340 339 340 339 340 339 338 341 340 340 340 340 340 340
342 342 343 342 341 341 342 342 342 343 343 343 344 344 343 344 344 343 343 342 343 342 342 342 342 341 342 343 342 340 340 339 340 342 344 344 344 344 344 343 344 343 342 341 341 340 338 340 339 339 340 340 341 339 339 339 339 340 339 340 339 339
341 341 342 342 342 341 342 343 343 344 344 343 343 344 343 343 343 343 343 342 342 342 342 342 340 340 340 341 341 341 339 339 339 339 341 344 343 343 342 342 342 342 340 340 339 339 337 338 337 338 339 341 341 342 340 338 338 339 339 339 339 340
341 342 342 342 342 342 343 343 342 342 342 343 343 342 341 341 342 343 343 342 341 342 342 342 342 342 341 341 341 341 342 340 339 340 340 342 342 342 342 341 342 340 341 341 339 339 338 339 338 337 339 342 340 341 340 339 340 338 338 338 339 339
341 342 342 342 342 341 341 341 342 342 342 342 342 341 341 341 342 343 343 342 342 342 343 343 342 342 342 342 343 342 343 343 341 342 341 341 341 340 341 340 342 340 337 338 337 337 339 337 337 338 340 341 342 340 339 339 339 338 338 338 337 338
339 341 341 341 341 341 341 341 342 343 342 342 342 341 342 342 342 342 343 343 342 342 342 342 342 342 343 342 342 343 342 341 341 341 343 341 340 340 339 339 340 340 339 337 336 335 336 336 336 337 339 340 342 341 338 338 339 338 337 336 337 337
339 340 341 340 340 341 341 342 342 342 344 343 342 342 342 342 343 343 343 344 342 342 343 342 343 343 344 342 343 342 342 341 340 340 341 341 338 339 339 338 337 339 337 336 336 335 335 335 335 336 337 339 341 341 341 340 338 337 337 336 336 336
339 340 341 341 342 343 343 342 343 343 343 343 344 343 343 343 344 344 344 342 342 342 342 342 341 342 342 342 341 342 342 341 341 341 339 337 338 337 337 336 334 335 335 336 337 336 336 336 337 336 335 336 338 339 341 340 337 335 335 336 335 335
340 341 342 341 341 341 341 341 340 342 341 341 342 342 343 342 343 343 342 342 341 341 341 341 341 341 341 340 340 341 340 340 340 340 339 337 338 337 335 334 334 334 334 334 335 335 336 335 334 335 334 336 338 337 338 337 336 336 336 334 333 334
339 341 341 340 339 339 338 338 339 339 339 340 340 341 341 342 342 343 342 341 342 342 341 340 341 341 341 340 340 341 341 341 341 339 338 338 338 339 338 336 335 335 333 333 334 335 336 336 333 331 333 333 334 336 337 337 337 336 336 336 334 332
338 339 340 341 340 340 341 341 340 339 339 338 339 338 337 339 340 340 341 341 341 340 339 339 341 342 341 340 339 340 340 340 341 340 340 342 340 340 341 339 336 334 335 333 331 334 334 333 329 328 328 330 331 334 336 336 336 336 337 338 337 334
337 338 339 340 341 339 340 341 341 339 339 335 337 338 337 337 338 338 339 340 341 340 340 339 339 340 341 341 341 340 339 341 340 340 341 340 340 339 339 338 336 333 334 335 333 334 333 333 327 331 330 325 323 323 330 331 334 335 335 337 337 334
335 336 337 338 338 339 339 339 339 338 338 337 334 334 335 337 337 336 336 339 339 339 339 340 340 339 340 340 340 339 340 340 340 340 339 338 339 338 338 338 336 334 333 331 331 331 335 334 333 329 323 324 325 323 318 324 329 333 338 336 335 334
334 335 336 336 337 339 338 337 337 336 336 334 334 334 333 332 333 335 335 336 337 338 338 338 339 339 338 338 338 338 338 338 338 339 339 337 336 335 335 336 335 334 333 331 330 333 334 335 334 335 328 323 322 319 320 324 326 327 335 335 334 334
333 334 334 335 336 337 337 336 335 333 330 330 327 328 327 327 329 330 330 333 334 335 335 336 337 338 338 337 337 336 337 337 338 337 337 336 335 335 333 334 334 334 333 335 334 330 331 337 336 336 335 332 330 323 323 327 326 319 332 334 335 336
331 331 333 334 335 335 335 334 333 331 330 328 325 325 327 328 328 329 330 329 330 332 332 332 334 335 335 335 336 336 336 336 336 336 336 335 334 333 333 333 334 335 334 334 333 328 329 330 334 334 335 335 335 333 331 326 322 323 319 327 334 332
329 329 330 332 332 333 331 332 332 330 328 327 326 325 326 326 328 329 328 328 329 329 330 330 330 331 333 333 333 333 334 334 335 335 336 334 333 334 334 334 335 335 334 334 333 330 329 331 327 329 334 332 332 332 332 331 330 323 321 318 322 331
326 327 328 329 330 330 330 329 328 328 325 326 326 325 325 325 326 328 327 327 327 328 328 328 329 329 330 331 332 332 332 332 332 332 333 332 333 334 335 333 332 333 333 333 335 334 331 329 330 328 328 331 332 331 330 330 329 328 322 320 319 322
323 324 325 326 327 327 328 328 326 325 323 322 323 324 324 323 324 326 324 325 325 326 326 326 327 327 327 329 330 330 330 330 331 332 331 331 331 331 331 331 332 333 333 332 335 333 330 330 330 330 330 329 326 328 327 327 328 326 325 322 318 320
321 321 322 322 323 323 324 325 324 324 323 323 322 322 322 323 323 324 323 323 323 323 324 324 325 325 324 325 327 328 327 327 327 328 328 329 327 327 328 329 331 331 332 331 334 332 331 332 332 330 330 329 327 326 324 323 323 324 324 322 322 321
319 320 320 321 321 321 321 321 321 322 321 321 321 321 320 319 319 319 319 320 321 321 321 321 321 321 321 322 324 324 323 323 322 322 322 324 324 323 324 326 327 328 330 333 332 332 332 330 330 330 329 331 331 329 328 326 326 326 323 323 323 321
317 319 319 320 319 319 319 319 319 319 319 318 317 317 316 316 317 316 317 316 317 317 317 317 317 317 318 320 321 320 319 318 318 318 319 320 319 319 321 322 321 321 323 322 323 324 325 326 328 327 328 330 330 330 330 330 329 327 326 326 322 321
317 318 318 318 318 317 317 318 318 317 317 316 316 316 315 314 315 315 315 314 314 314 314 314 315 314 315 317 318 318 316 316 315 315 315 315 315 315 317 318 318 317 318 320 320 320 321 322 324 326 328 328 331 332 331 332 331 329 326 325 323 322
316 316 316 316 316 316 315 316 316 317 316 316 315 314 313 314 313 313 313 313 313 313 313 313 313 314 315 315 315 316 315 313 313 313 312 312 312 312 314 315 314 313 315 316 315 316 316 317 317 318 320 323 326 330 330 331 331 330 329 327 324 325
315 315 315 315 315 315 315 315 316 315 315 315 314 314 313 313 312 312 312 312 311 312 312 312 313 313 313 313 314 314 314 312 311 310 310 309 309 309 309 310 310 310 311 311 310 312 313 315 315 315 317 320 321 324 328 330 331 331 331 330 329 327
313 314 314 314 314 314 315 314 314 314 314 314 313 313 312 312 312 312 312 311 311 311 312 311 311 311 311 312 312 312 311 310 310 309 309 308 308 307 307 307 306 306 307 308 309 310 311 311 313 313 314 315 316 319 322 325 328 330 330 330 330 330

ECMWFFLT2_sfc_thetae_102.txt.gz
Theta_e
350 350 350 351 350 349 348 348 349 348 349 350 351 351 351 350 350 350 350 349 349 350 351 351 349 350 347 348 345 345 345 345 345 345 344 344 343 342 342 342 342 342 344 345 346 346 346 344 343 343 343 342 343 343 344 344 344 341 341 338 343 340
349 350 348 349 349 349 348 346 346 350 352 352 351 352 353 352 352 353 348 351 352 350 349 350 350 347 349 349 347 345 345 344 345 345 345 344 344 343 343 341 339 339 340 343 346 349 348 345 343 343 343 343 343 343 345 345 345 342 341 340 341 340
348 349 347 347 346 346 347 346 346 346 349 349 352 352 350 351 351 350 350 348 349 350 348 348 349 349 348 345 347 346 345 344 344 344 344 344 345 344 343 340 338 337 337 339 347 347 348 347 347 344 343 345 345 344 345 345 345 344 342 341 341 338
346 347 343 343 344 345 346 347 344 345 345 348 349 348 350 349 349 350 350 349 348 349 348 350 347 347 350 348 348 347 346 346 345 344 342 345 343 345 342 340 339 337 338 342 343 343 343 345 346 347 348 346 344 344 345 345 342 342 343 338 340 338
346 345 342 342 345 343 344 344 343 344 345 346 346 346 347 348 349 349 348 349 347 349 348 347 346 346 345 345 345 346 348 347 347 346 344 345 344 345 348 342 336 338 341 341 340 342 343 344 347 347 346 345 344 345 344 345 342 341 343 344 344 339
345 344 343 342 344 344 344 342 343 343 346 347 344 345 347 347 346 348 346 345 347 347 347 346 347 346 347 347 345 344 343 344 343 344 344 345 344 344 343 339 338 337 338 341 342 342 344 344 345 343 343 344 343 344 343 344 342 342 344 343 345 340
343 344 344 345 345 344 343 343 344 344 345 345 344 343 343 344 346 346 346 346 345 344 343 345 346 347 347 348 347 346 345 345 343 342 344 344 344 344 342 342 339 338 337 338 341 341 341 342 345 342 343 341 342 341 343 342 341 342 343 342 344 340
343 343 344 345 345 343 344 344 344 345 345 344 343 343 343 344 346 344 346 347 345 344 344 344 346 346 346 347 346 348 348 346 347 345 345 343 342 340 341 342 343 342 334 333 336 340 339 338 341 343 342 342 342 343 343 342 344 342 343 344 344 340
344 344 344 345 344 343 344 345 345 344 343 344 345 344 345 346 345 345 347 348 347 346 345 345 346 347 348 349 349 351 350 349 350 349 350 348 348 345 342 341 342 341 341 336 332 338 339 338 340 342 341 341 342 341 343 344 343 342 343 343 345 342
344 344 344 345 344 343 343 344 344 345 345 346 345 346 347 345 346 346 345 347 347 347 347 348 349 350 349 348 349 352 351 349 348 349 350 348 347 348 346 344 341 341 338 339 335 335 339 339 339 340 339 340 340 341 343 342 342 342 343 344 345 344
345 346 344 343 343 344 344 343 344 345 345 345 345 346 346 346 346 347 348 350 349 349 350 350 349 349 349 349 349 349 350 351 348 348 350 348 349 348 348 347 344 341 341 340 338 337 337 338 338 339 341 340 340 342 341 342 342 343 341 343 345 346
346 346 344 344 344 344 344 343 345 345 344 346 347 345 345 346 346 346 348 349 351 350 348 350 348 347 348 349 349 348 348 349 348 349 350 348 347 348 348 347 349 348 345 343 340 339 341 337 337 338 340 341 342 341 340 340 340 340 341 342 341 344
346 347 345 343 343 344 345 345 346 345 346 346 347 346 346 346 350 351 350 350 350 350 348 349 347 346 346 349 348 348 348 348 348 350 351 350 348 348 348 348 347 348 345 343 341 340 338 339 338 338 340 342 344 342 341 339 339 341 340 342 341 341
346 346 346 346 346 346 347 348 348 350 350 350 350 350 350 350 349 349 349 350 349 348 347 347 347 346 346 346 346 345 345 345 346 348 349 349 346 348 347 347 345 345 343 344 342 341 339 339 337 337 339 340 342 343 342 341 339 339 341 341 341 342
345 346 349 349 348 348 349 348 349 349 350 351 349 350 351 350 350 350 349 347 347 347 347 346 347 347 346 346 345 346 345 344 345 346 346 348 348 348 348 347 345 344 344 343 343 344 342 340 339 337 340 343 341 342 343 343 342 341 340 342 343 342
346 347 348 348 348 348 346 348 348 346 348 349 349 349 349 349 349 347 347 347 347 347 347 347 346 346 347 346 344 345 345 346 345 347 347 346 347 346 347 346 345 346 343 341 343 343 344 343 343 341 340 341 342 343 342 341 342 342 342 342 341 342
345 347 347 348 347 346 347 347 348 348 347 348 347 347 346 348 348 348 349 348 347 347 347 346 348 347 346 346 345 346 345 346 347 345 344 344 344 344 345 344 345 345 345 342 341 342 343 343 344 344 345 345 343 343 343 342 342 343 345 343 343 341
347 347 348 347 347 347 347 347 346 347 348 348 348 346 347 349 349 349 351 348 347 347 347 346 346 346 347 346 345 345 345 345 345 345 347 344 342 342 342 342 341 344 342 342 341 341 341 341 342 343 343 344 345 343 342 343 345 343 343 343 342 341
346 346 345 346 347 348 347 348 348 347 350 350 351 348 350 349 349 350 349 348 346 347 346 346 346 346 346 344 345 344 345 345 345 344 343 343 343 343 342 341 339 340 343 342 340 341 341 339 339 339 341 343 344 345 345 345 345 344 343 345 344 344
346 348 347 347 345 345 345 344 344 348 346 346 348 346 349 348 349 347 348 349 348 347 345 346 345 346 346 345 344 344 345 345 344 344 342 341 342 342 341 341 343 340 339 341 341 341 342 340 339 339 339 341 342 344 344 344 345 345 344 344 344 344
346 348 345 343 343 344 343 344 345 344 343 346 346 347 348 349 348 347 349 348 348 347 346 346 344 345 344 343 345 344 347 345 345 345 344 343 344 344 345 344 342 341 340 339 339 342 343 342 338 336 335 336 338 342 343 343 343 343 343 342 343 341
345 347 346 345 346 346 345 345 344 343 344 344 344 342 344 346 346 347 349 349 349 346 346 347 346 346 346 343 343 343 345 345 345 345 345 345 345 342 340 340 339 337 338 337 338 341 341 340 334 331 329 329 332 335 340 342 343 343 342 343 343 342
344 345 345 346 345 344 346 347 345 343 343 341 343 344 344 342 342 342 344 346 347 346 345 344 345 343 343 343 343 344 345 345 344 344 342 341 342 339 339 339 338 336 334 336 336 340 341 341 332 333 333 330 327 327 332 336 341 341 342 342 342 343
341 341 341 343 343 344 345 345 344 344 343 342 339 341 341 341 340 341 341 343 343 342 342 342 342 341 341 342 343 343 344 343 342 343 341 339 338 338 339 339 339 338 336 332 332 334 339 340 337 333 327 326 326 326 322 324 329 334 341 342 342 342
340 341 342 343 343 344 344 343 342 342 341 340 339 338 337 336 337 338 339 340 340 341 341 341 341 340 340 340 340 341 341 342 340 340 339 339 338 338 338 339 339 339 337 334 332 334 335 335 336 336 330 326 324 322 323 327 329 329 334 337 340 342
340 340 340 342 342 342 341 340 338 336 332 331 331 332 330 332 334 335 335 340 340 339 339 339 339 340 340 340 340 340 340 338 338 337 337 337 337 338 337 337 338 338 337 338 335 334 334 337 338 336 337 334 329 323 322 327 326 320 332 334 337 337
338 338 338 339 340 339 338 338 337 334 332 332 330 331 333 335 336 335 337 337 336 337 336 336 337 338 338 338 339 339 339 339 338 338 337 336 335 336 335 336 337 337 337 337 337 333 332 332 335 336 336 335 332 332 333 328 323 324 321 328 333 334
335 334 336 338 338 338 336 335 334 333 333 331 331 330 332 333 334 333 332 333 334 333 333 333 334 334 335 335 336 337 337 337 335 336 336 335 334 335 335 336 337 338 337 337 336 334 332 333 331 331 336 334 334 333 335 333 327 324 324 320 324 332
334 334 335 335 336 336 336 335 333 332 330 330 331 330 330 331 330 331 331 330 331 331 331 331 332 332 333 333 333 334 334 334 333 333 333 334 334 334 334 334 334 334 335 335 336 335 333 331 332 331 331 332 332 331 332 333 332 331 326 324 322 324
330 331 333 334 334 333 333 333 332 332 331 329 330 330 330 328 329 331 329 329 329 328 329 329 330 330 330 331 330 328 329 330 331 331 331 331 331 331 331 331 332 334 335 333 335 335 333 333 333 333 333 331 329 329 329 328 329 330 327 327 322 324
327 327 330 330 331 330 330 330 330 330 329 328 328 329 328 327 326 327 326 326 326 326 327 326 327 328 327 328 328 328 328 327 328 328 328 328 328 328 329 330 331 331 331 329 328 330 332 332 332 332 333 331 330 329 329 325 326 327 327 324 323 323
326 326 327 327 328 328 327 327 327 327 326 326 326 324 324 323 323 324 323 323 323 324 323 323 324 323 323 324 324 325 326 326 324 324 322 323 324 324 325 327 328 327 327 327 327 326 329 329 330 329 331 330 330 331 331 329 328 329 326 325 323 322
323 324 324 325 325 325 325 324 323 323 324 324 323 323 322 321 322 321 321 321 320 319 320 320 320 320 320 321 322 322 323 322 321 322 321 320 320 321 322 324 324 324 323 323 322 324 325 326 327 326 325 327 327 328 329 332 332 329 330 330 328 324
322 323 323 324 324 322 322 322 322 321 322 321 321 321 320 320 320 320 319 319 319 318 318 318 317 317 318 319 319 320 320 319 319 320 320 321 320 320 321 321 323 321 320 321 321 322 322 324 325 325 323 321 323 324 327 331 330 330 327 328 324 325
321 321 322 322 321 321 319 320 320 320 320 320 319 318 318 318 318 318 318 318 317 318 317 316 315 316 317 317 317 317 317 317 317 317 317 317 317 318 318 319 319 318 318 319 319 320 320 321 320 321 321 320 320 321 323 326 327 329 329 327 326 327
321 321 320 320 319 319 319 319 319 319 319 319 318 318 316 316 316 317 317 316 316 316 316 315 315 315 315 315 315 316 316 315 315 316 316 315 316 316 316 316 315 316 315 315 315 317 317 318 318 318 319 320 320 320 322 323 325 326 327 328 327 327
320 320 319 319 319 319 318 317 317 317 317 317 316 316 315 315 315 316 317 316 315 314 314 314 314 314 313 314 315 315 314 314 314 314 314 314 314 315 315 315 314 313 313 313 314 315 315 315 316 316 316 317 317 318 321 321 321 322 323 324 326 326

ECMWFFLT2_sfc_thetae_105.txt.gz
Theta_e
350 350 350 350 348 347 349 350 350 351 351 351 351 351 350 350 350 350 350 349 349 349 351 349 350 347 348 346 345 345 345 345 345 345 343 341 341 342 342 342 342 344 344 346 346 347 346 345 344 343 344 344 344 342 347 343 341 338 338 336 342 334
349 350 350 349 349 347 349 347 350 352 352 353 352 352 353 352 353 353 350 349 353 349 349 351 350 349 348 347 346 345 344 344 344 344 343 342 342 342 341 341 340 341 343 345 347 348 348 346 344 344 344 344 343 345 345 343 342 340 336 338 339 338
349 348 347 347 346 343 344 344 347 348 350 350 354 353 351 351 351 350 350 352 352 348 346 347 349 347 348 347 347 345 345 344 344 345 344 344 342 342 342 339 341 339 341 342 346 348 347 346 345 345 345 345 344 346 345 343 342 340 340 340 337 341
348 347 345 346 345 342 344 344 342 347 348 350 351 349 349 348 351 348 349 349 347 347 347 349 345 348 349 348 348 346 345 344 344 345 346 345 344 343 341 340 338 340 340 342 345 345 345 347 346 345 346 344 345 343 342 343 339 341 343 338 337 341
347 346 343 342 344 342 343 341 341 343 346 346 346 346 347 348 348 348 347 347 345 347 346 346 345 346 345 345 346 348 348 347 347 346 346 349 346 343 340 332 334 336 337 337 339 341 343 344 348 345 345 345 344 346 343 343 339 341 342 342 341 341
343 341 341 341 342 341 343 340 341 341 343 343 345 345 345 347 346 348 344 344 347 346 345 343 344 344 343 343 343 343 345 345 345 344 346 345 341 344 346 339 335 332 334 340 340 340 341 341 343 346 344 344 342 343 341 342 342 338 343 343 342 341
341 342 342 342 344 341 340 341 341 344 344 342 342 344 343 342 345 346 346 347 346 342 342 342 345 345 343 345 345 344 342 342 342 342 341 344 344 342 341 339 337 338 336 337 337 339 338 339 341 340 342 341 341 339 341 339 340 340 341 342 344 343
342 341 341 343 343 341 342 342 343 344 344 341 341 341 340 341 344 342 344 344 344 342 342 343 348 347 347 348 347 350 348 346 345 345 343 341 341 341 341 341 341 340 335 332 331 336 336 338 339 340 341 341 342 341 342 339 339 342 341 342 343 344
341 342 341 343 342 340 342 343 344 342 343 341 342 342 341 343 343 342 344 345 345 346 344 348 347 347 354 348 349 349 348 350 348 349 349 347 344 344 342 343 343 340 341 336 332 333 334 335 340 341 338 339 340 341 342 341 341 338 340 341 342 343
341 341 343 343 342 342 342 343 343 343 343 343 343 344 344 342 342 343 345 347 349 350 349 348 348 354 350 349 348 347 348 350 347 350 349 347 348 346 349 343 344 341 337 340 337 334 332 334 334 338 339 337 338 339 340 337 338 339 339 341 342 348
342 344 343 341 343 344 345 344 344 344 345 345 345 345 345 345 347 348 349 350 350 350 351 350 348 348 348 346 348 345 347 347 347 346 348 346 346 347 349 343 344 345 343 341 341 341 335 335 334 335 339 338 338 340 339 339 339 341 338 340 341 345
343 344 345 343 344 344 344 344 345 345 344 345 347 348 347 348 348 349 350 352 351 348 347 350 350 347 346 346 348 347 345 345 345 346 346 349 349 348 346 344 345 346 345 343 341 339 340 339 337 335 335 339 341 341 340 340 339 337 339 340 340 341
344 346 346 344 344 344 345 344 345 347 346 345 347 345 346 348 349 348 350 349 347 351 351 348 350 350 349 346 347 347 345 347 348 347 348 349 349 348 346 346 344 346 344 344 342 342 338 339 339 338 337 338 339 340 342 342 341 341 340 341 342 342
346 345 345 345 345 345 346 347 348 348 348 348 348 348 349 347 350 349 347 352 351 351 350 351 350 350 349 348 348 346 348 348 349 351 350 351 346 344 344 344 344 343 342 342 340 340 340 340 337 339 338 338 337 338 340 340 342 341 339 339 341 343
345 346 346 347 346 348 348 347 347 345 346 347 347 346 345 347 352 346 348 349 351 351 350 351 351 351 349 347 346 346 346 347 350 351 348 349 348 346 344 343 343 342 342 341 340 341 340 339 342 338 340 342 338 338 339 339 341 343 342 341 340 340
346 347 348 349 349 346 350 347 344 345 346 345 348 344 346 346 346 347 348 349 350 350 351 351 351 350 350 348 346 345 347 349 348 349 348 348 348 344 345 344 344 343 342 340 339 338 340 340 342 342 345 343 341 341 339 341 339 340 342 343 340 340
345 348 349 349 344 344 345 345 347 346 345 344 346 344 348 348 348 348 348 347 351 350 351 350 351 350 350 349 347 347 347 349 350 348 348 348 346 344 344 344 344 344 344 340 339 338 339 340 340 340 342 344 343 344 341 340 343 343 340 339 342 341
341 344 345 343 343 343 342 345 345 346 345 345 344 347 348 348 346 349 349 348 348 349 349 349 349 347 350 349 348 348 348 349 348 347 348 346 345 345 345 344 342 343 343 340 339 338 339 339 339 339 340 341 342 344 344 344 339 341 344 339 340 342
337 341 343 340 339 344 347 345 345 343 341 346 346 349 346 346 349 347 347 348 348 350 349 347 347 348 347 346 347 347 348 347 348 347 346 346 345 345 345 345 342 343 344 344 342 342 341 339 339 338 339 340 342 342 342 343 341 342 342 341 342 340
337 341 342 342 343 342 344 341 340 341 341 341 345 343 345 347 347 344 347 348 347 347 346 345 346 349 349 347 346 346 346 347 346 345 346 344 342 340 343 343 344 343 342 342 342 341 340 339 339 338 338 339 340 341 342 343 342 343 342 340 341 341
337 338 339 340 337 339 338 340 338 338 339 344 341 342 345 344 342 349 346 345 347 348 348 345 347 349 348 346 347 347 347 346 346 345 341 340 341 343 343 344 342 343 341 339 340 341 340 340 336 335 336 337 338 341 343 342 343 343 342 340 339 341
336 334 337 338 339 342 341 342 338 339 340 341 339 340 339 343 345 347 347 347 349 349 349 349 348 346 347 345 345 344 344 344 343 341 342 342 341 340 341 343 342 340 342 339 337 340 339 339 333 330 328 331 333 336 340 341 341 340 340 341 340 340
335 335 336 337 337 341 341 342 344 342 339 342 342 342 342 344 346 345 346 347 348 347 346 346 345 343 344 345 344 343 342 343 343 342 342 341 341 339 338 340 340 339 336 338 336 338 339 340 332 335 334 330 327 326 331 336 338 340 340 341 341 340
336 336 339 339 342 341 342 345 347 343 344 342 341 342 343 343 343 343 342 344 345 342 342 342 341 341 342 343 344 342 342 342 341 341 341 339 341 339 338 338 341 341 338 333 335 335 340 340 338 332 325 325 326 325 321 324 330 336 341 341 340 338
333 335 336 338 341 340 342 345 344 343 343 341 341 340 339 338 340 341 340 341 341 341 341 341 341 339 339 340 341 341 342 340 339 339 338 337 338 337 339 338 339 337 337 334 333 334 337 341 338 339 332 326 323 321 321 325 328 329 334 335 338 341
336 339 339 342 343 343 341 340 340 337 335 335 333 334 334 335 336 336 336 340 340 340 339 338 338 339 339 338 339 339 339 339 338 337 337 337 337 337 337 337 337 337 336 337 335 333 332 338 339 339 338 336 333 324 323 327 326 320 332 334 334 333
337 337 339 340 342 341 340 340 338 337 336 334 332 333 336 337 336 336 338 337 337 338 337 337 337 336 335 336 336 337 338 338 338 337 337 337 336 336 335 335 335 336 336 335 336 331 331 332 334 337 339 338 336 335 336 329 323 325 321 328 332 332
336 336 338 339 339 340 338 337 337 336 335 335 333 333 334 335 336 336 335 335 335 334 334 334 334 333 333 334 334 334 334 334 333 334 332 333 331 330 331 333 334 334 335 335 334 332 332 331 329 330 334 333 333 334 336 336 335 326 323 321 323 330
334 334 335 336 335 336 336 336 334 334 333 334 334 332 332 333 333 334 332 333 333 333 333 333 331 331 332 332 332 332 331 330 330 329 329 329 328 328 328 331 331 330 330 330 331 331 330 330 332 330 330 331 332 330 330 331 332 332 327 324 321 324
331 332 333 333 333 334 335 336 334 333 331 330 331 331 332 331 331 332 330 330 331 329 328 328 329 329 329 328 328 329 328 327 327 326 325 326 327 326 326 327 328 328 328 328 330 329 328 329 330 331 330 330 328 328 328 328 328 327 327 327 322 322
330 330 330 331 331 331 333 333 333 332 332 331 330 330 329 328 328 329 328 327 328 327 327 326 327 327 326 326 327 327 326 326 326 326 325 324 325 324 325 325 326 327 326 325 326 327 328 328 327 326 327 327 326 326 325 324 325 326 326 323 322 323
329 329 329 329 329 329 329 330 330 329 328 328 327 326 326 325 325 324 324 324 325 324 324 324 323 323 323 324 324 322 324 324 323 323 322 324 324 323 324 325 325 324 325 325 325 325 326 325 324 324 324 324 323 325 325 325 326 326 326 324 324 323
326 327 327 327 326 326 325 326 326 326 325 325 325 325 324 323 323 323 322 322 323 322 321 320 320 319 320 320 321 320 320 320 321 322 322 322 322 322 323 323 324 323 322 322 322 323 322 323 322 321 321 323 323 323 323 324 325 324 325 326 325 322
324 325 325 325 324 323 323 323 324 323 323 323 323 323 322 322 322 321 321 320 321 320 319 318 318 317 318 319 319 319 320 320 320 320 320 320 320 321 321 320 321 320 320 320 321 321 321 320 321 321 320 319 320 320 322 324 324 323 322 321 320 320
323 324 324 323 322 321 321 321 321 322 322 322 321 320 319 320 320 319 319 319 319 318 317 317 316 317 317 318 318 319 319 319 318 318 319 319 319 319 320 320 319 319 319 318 319 319 319 319 318 318 319 319 318 320 320 321 321 321 321 320 319 319
322 322 321 321 320 320 319 320 320 320 320 320 320 319 318 318 319 319 318 317 316 317 317 317 316 316 317 318 318 318 318 317 317 317 317 317 317 317 318 317 317 318 316 317 317 318 317 318 317 317 317 318 318 318 319 320 320 320 320 320 320 320
321 321 320 319 318 318 318 318 318 318 318 318 318 317 316 317 318 318 318 316 316 316 316 316 316 316 317 317 317 317 316 316 315 315 315 315 315 316 316 316 316 315 314 315 316 316 316 316 316 316 316 316 316 316 317 318 318 318 318 319 319 318

ECMWFFLT2_sfc_thetae_108.txt.gz
Theta_e
345 346 345 344 347 348 350 352 352 352 351 351 352 352 351 351 351 351 350 349 349 346 347 346 347 345 347 345 346 345 345 343 342 341 341 341 341 342 341 342 342 343 345 344 345 347 347 346 346 345 346 346 346 342 340 341 341 335 330 335 335 335
347 346 344 344 345 348 350 350 350 350 350 351 352 352 351 350 353 349 349 348 349 349 349 347 349 349 345 344 345 345 345 345 343 342 341 341 341 341 343 341 343 342 344 344 346 346 346 347 346 346 346 346 343 339 341 343 338 336 335 334 336 339
347 347 345 344 344 347 348 349 349 350 350 351 352 351 350 350 349 348 347 347 351 350 350 348 349 348 346 346 345 345 345 344 344 343 342 342 342 343 341 342 341 342 342 343 343 344 345 343 343 346 347 344 340 340 342 342 339 338 336 335 334 342
347 346 345 343 344 345 346 343 348 348 350 350 351 350 350 349 349 349 348 350 352 349 348 351 347 349 351 345 344 345 345 345 345 345 344 342 341 344 343 343 341 342 341 338 338 343 344 343 342 343 341 340 342 342 343 340 334 335 342 339 336 344
347 347 345 342 341 342 343 342 345 347 349 349 350 350 348 350 351 348 350 350 348 351 348 345 348 348 346 346 344 343 343 343 343 343 345 343 341 336 341 333 333 338 336 335 335 339 342 347 344 342 340 341 341 342 340 339 338 336 337 337 339 344
346 346 344 340 340 342 343 341 344 345 346 347 347 346 346 349 350 349 348 347 348 352 351 345 346 346 346 345 346 345 343 344 343 343 344 345 343 340 334 330 329 329 331 332 333 336 340 343 342 342 341 342 342 342 340 338 339 336 341 337 340 345
344 345 344 343 341 340 340 345 343 345 344 344 347 348 347 349 349 354 354 349 350 351 351 347 351 350 348 347 348 348 347 350 346 344 345 342 343 341 339 339 332 331 330 331 333 335 335 337 338 336 339 338 338 337 339 335 335 340 339 340 340 347
343 342 343 345 341 340 342 343 347 346 345 344 343 344 343 345 347 354 350 352 351 352 349 346 346 347 346 345 346 349 348 345 346 344 352 347 342 346 343 345 343 342 338 336 331 329 330 332 335 334 334 335 339 337 340 340 339 336 340 342 338 345
342 345 345 343 342 348 345 345 345 346 350 348 343 345 346 346 346 347 349 351 352 351 346 348 347 348 349 346 347 349 351 350 349 351 352 351 349 347 347 345 345 343 341 340 336 335 329 328 332 339 334 335 336 339 341 341 338 336 335 337 338 341
343 343 344 344 348 343 345 345 343 347 349 349 350 347 344 345 350 347 348 351 351 349 349 350 349 348 347 349 349 348 350 351 352 353 352 351 349 351 351 349 347 346 341 341 339 338 338 334 328 329 335 334 336 337 338 337 338 336 333 335 341 341
343 344 342 342 345 343 346 344 347 344 343 344 348 344 347 350 347 347 347 349 349 351 352 350 349 348 348 348 346 347 348 348 351 351 352 349 349 350 350 348 347 345 343 343 342 340 338 336 335 334 334 336 335 337 337 338 337 337 337 337 339 340
344 347 347 345 343 344 345 345 348 343 343 348 348 346 345 343 345 347 347 349 350 352 350 350 347 349 347 346 345 345 346 347 348 348 348 348 348 349 348 345 348 346 348 346 343 340 338 336 336 336 334 337 337 340 341 339 337 336 336 337 339 341
346 348 346 343 343 344 343 343 344 347 351 346 346 343 344 343 345 348 347 349 350 349 349 349 349 346 346 347 345 344 345 345 345 346 350 352 351 350 348 346 347 348 346 343 342 342 341 340 338 337 338 338 340 339 343 345 338 336 338 337 336 340
345 345 344 341 339 339 340 341 343 345 347 346 345 342 341 345 346 346 348 347 346 349 347 349 348 347 345 344 344 343 345 347 349 351 354 354 350 347 345 346 344 344 344 341 340 341 340 339 339 341 343 342 338 340 344 343 340 341 338 336 335 338
343 338 338 338 338 337 339 341 339 343 347 347 347 344 345 345 344 344 346 346 344 345 344 344 344 349 344 344 342 347 346 348 349 351 348 351 351 346 345 344 344 341 344 340 338 339 339 340 341 340 340 345 341 342 345 341 340 342 339 337 338 337
337 337 336 337 336 339 341 339 340 345 346 346 344 345 345 345 345 345 344 345 345 343 342 342 342 343 344 345 345 343 350 349 349 349 354 353 351 347 346 346 346 344 342 340 341 339 343 337 339 339 341 342 343 342 340 343 342 344 343 340 339 338
335 336 334 337 339 338 341 342 342 343 345 345 344 342 343 344 343 339 342 343 341 343 342 342 341 341 347 350 348 348 347 351 353 351 354 350 347 346 346 345 344 344 344 340 338 337 340 338 338 337 339 339 340 340 341 342 340 341 343 340 340 341
337 338 339 341 339 339 338 341 342 343 343 343 343 343 342 342 341 342 342 340 340 342 342 339 341 349 352 346 348 347 349 351 351 351 348 346 345 343 343 344 342 344 343 342 339 338 336 337 339 337 337 339 339 340 341 341 341 341 342 339 339 337
337 337 339 339 338 338 338 339 340 337 337 340 341 342 342 341 342 342 342 340 339 340 341 346 351 350 351 351 347 344 350 346 345 345 346 343 344 343 343 343 341 341 344 342 339 339 338 338 338 337 337 337 338 338 339 340 341 340 340 340 341 341
339 339 339 337 336 336 338 337 338 339 340 340 341 338 340 339 339 341 341 341 342 348 348 346 346 349 351 348 348 347 344 346 344 344 343 341 341 340 340 340 340 340 339 339 339 339 337 337 336 336 335 337 337 338 339 339 339 339 340 340 340 340
339 340 338 335 333 335 334 333 335 336 337 337 339 341 339 342 341 340 341 343 344 350 349 350 348 349 345 346 345 344 344 345 346 344 344 343 342 342 342 341 340 339 338 336 336 339 339 338 334 331 334 335 336 339 338 339 338 339 339 338 340 339
337 337 338 336 335 336 336 336 334 335 336 338 337 335 336 336 342 344 346 347 345 343 345 346 344 345 345 344 343 345 343 343 343 342 342 340 342 342 340 339 339 336 338 336 334 337 338 336 331 329 327 328 329 334 337 337 338 339 339 339 339 339
337 336 337 338 337 336 337 338 338 338 336 337 340 339 341 340 342 343 343 345 345 345 342 341 341 341 341 341 341 341 341 343 342 342 341 342 340 339 338 338 337 334 333 336 335 338 339 339 330 331 330 327 323 322 331 335 338 336 338 338 338 338
335 337 338 337 337 338 337 338 340 340 338 337 334 338 338 343 341 342 342 342 341 341 340 339 339 338 339 339 339 338 339 339 338 338 337 335 336 335 336 336 335 335 334 330 331 332 336 339 336 331 322 323 323 323 318 326 326 330 335 336 338 339
334 335 337 338 336 337 338 336 338 337 339 336 336 335 335 335 339 339 338 338 338 338 337 337 336 335 335 336 337 337 336 337 337 336 336 335 333 333 333 333 333 333 332 331 329 331 333 335 335 338 331 324 322 319 319 322 325 325 333 332 336 338
335 336 335 337 338 337 335 334 331 330 327 328 329 329 331 333 335 335 334 336 336 335 336 335 333 333 334 334 334 334 334 333 334 333 334 331 329 329 328 329 331 331 330 331 329 328 327 331 332 334 336 332 327 320 321 324 323 316 327 330 332 333
335 337 336 337 338 337 332 334 333 331 330 328 329 332 337 339 336 335 337 335 334 335 333 332 331 331 331 332 333 332 331 330 329 328 330 328 327 326 327 327 329 329 328 329 329 325 324 325 329 331 331 331 331 331 331 325 320 323 319 324 328 329
335 336 336 337 334 334 334 334 331 329 331 331 333 334 335 335 337 335 333 333 333 332 331 330 329 328 328 328 329 329 328 327 326 326 326 325 325 325 326 326 327 328 327 326 326 325 323 325 324 324 327 326 326 328 327 327 327 323 321 317 320 326
335 335 336 334 334 335 334 332 333 331 332 334 334 333 333 333 333 334 331 332 331 330 329 328 326 326 326 326 327 326 326 325 324 324 324 324 324 324 323 324 324 325 324 324 324 326 324 323 324 323 322 322 323 322 322 323 324 325 321 318 318 319
330 331 333 335 334 334 336 336 335 334 332 333 333 333 332 331 331 332 329 329 329 329 327 325 324 324 324 324 324 323 323 323 322 323 324 323 322 322 322 322 324 324 324 322 323 323 322 324 323 322 321 321 319 318 318 318 319 319 320 320 317 317
329 330 331 331 332 332 335 335 334 334 333 331 331 331 329 328 329 329 327 327 326 326 324 322 322 322 322 321 321 321 321 321 322 322 321 321 320 320 321 322 324 322 321 321 321 320 321 321 320 319 319 318 317 317 316 316 316 318 317 316 315 315
328 328 329 329 330 329 330 331 331 330 329 329 329 327 327 325 326 325 326 325 325 323 320 320 320 319 320 319 320 321 322 321 320 320 319 320 320 319 320 321 321 320 320 319 320 319 320 318 318 317 317 317 317 317 317 317 318 319 317 315 315 313
324 326 326 327 327 327 327 327 328 327 327 328 327 327 326 324 324 323 323 322 321 318 318 316 316 316 318 319 321 320 319 318 318 318 318 318 319 319 319 319 319 317 317 316 317 318 318 317 317 315 315 317 316 316 317 318 319 317 317 316 315 311
323 324 324 324 324 324 324 324 325 325 325 324 323 323 322 321 321 321 321 320 319 317 315 315 315 316 318 322 319 318 318 317 317 317 317 317 317 318 318 317 317 315 315 315 317 317 317 316 316 316 316 314 314 315 316 317 316 315 314 313 312 311
321 322 322 322 322 321 321 322 323 323 322 322 321 320 319 319 319 318 318 317 317 317 315 314 315 318 320 320 318 317 316 315 315 315 316 316 316 316 317 316 316 314 315 315 315 316 315 315 314 314 314 313 314 313 314 313 313 313 313 313 312 312
320 320 320 319 319 319 319 320 320 320 320 320 320 320 319 319 318 318 317 316 316 316 316 316 319 319 317 317 316 316 315 314 314 314 314 314 314 314 315 315 315 314 312 315 314 314 313 313 313 313 313 313 312 311 313 312 312 312 312 312 312 312
319 319 318 318 318 317 318 318 318 318 318 318 318 317 317 317 316 317 316 316 315 315 317 318 318 317 316 315 315 314 313 313 312 312 312 312 312 312 313 313 313 312 311 313 314 313 313 312 312 312 311 312 312 312 311 311 311 311 311 311 311 311

ECMWFFLT2_sfc_thetae_111.txt.gz
Theta_e
342 343 343 344 345 347 350 352 351 352 352 352 351 352 351 351 350 350 349 349 347 344 343 343 343 342 346 343 345 344 343 342 342 342 342 342 342 341 341 342 342 342 343 344 346 346 346 347 347 347 347 347 347 340 337 336 338 338 335 335 336 334
340 340 342 345 347 348 350 350 348 349 349 350 351 352 350 349 351 346 349 347 344 346 343 343 343 348 344 344 344 345 344 343 342 342 341 342 342 342 341 343 343 343 343 344 345 338 342 348 348 348 347 347 341 338 337 336 337 333 333 332 335 339
340 340 342 344 347 348 348 348 348 348 349 350 351 350 348 349 345 345 346 345 347 346 343 344 345 347 344 346 345 346 345 345 343 342 342 342 342 343 343 343 344 344 344 344 339 338 339 339 341 349 349 345 339 337 337 337 338 333 332 334 335 343
340 340 340 342 345 345 346 347 347 347 346 346 347 348 347 346 345 344 344 345 346 347 347 344 352 351 347 345 344 345 345 345 344 343 343 341 343 342 344 343 344 343 344 341 334 335 339 340 339 339 339 338 337 337 338 338 339 330 333 339 336 345
341 340 339 341 343 343 343 345 345 346 346 346 346 345 346 346 345 344 344 345 346 345 345 343 343 344 341 340 338 338 339 339 339 339 343 338 335 338 339 337 336 337 332 332 331 332 335 338 340 339 338 337 336 336 337 339 338 332 334 336 338 345
342 340 339 339 340 343 342 343 342 345 345 345 346 345 345 344 345 345 345 344 346 344 341 340 340 340 341 340 339 338 337 338 338 341 342 340 338 335 333 334 329 328 329 330 330 331 332 337 339 338 337 337 337 337 338 338 335 334 334 334 340 346
341 338 338 339 338 340 337 341 343 344 343 343 344 342 342 342 343 343 343 344 341 339 339 336 338 340 340 341 341 339 339 340 339 338 342 340 340 337 332 328 327 326 326 327 327 328 328 331 336 340 338 337 337 338 337 337 334 334 333 334 341 348
339 337 336 337 337 336 336 340 342 348 343 343 342 340 341 340 342 342 342 342 346 341 339 340 342 340 341 339 339 340 341 340 340 340 343 340 339 339 334 330 329 327 327 327 327 327 325 327 332 335 336 337 337 337 336 335 336 335 334 334 337 346
341 338 336 336 334 333 336 339 342 341 338 347 337 338 339 340 340 341 341 342 348 340 340 341 341 341 339 339 340 340 341 342 340 341 343 341 340 340 340 339 339 339 338 338 336 335 336 335 333 330 330 328 330 332 334 334 334 335 333 334 335 341
337 336 335 335 337 337 337 337 338 339 341 346 338 339 339 338 337 337 341 344 344 341 342 342 342 341 340 340 340 341 343 341 341 341 342 342 340 341 339 339 339 339 340 338 339 338 338 335 333 332 329 331 331 331 330 332 332 332 333 332 335 336
337 338 336 336 337 337 337 336 338 337 337 338 337 340 340 341 341 342 342 343 345 346 344 344 343 340 341 339 338 338 340 340 340 341 342 342 340 341 341 340 339 338 338 338 340 339 337 334 333 333 333 332 333 333 333 335 334 334 333 333 337 337
337 339 339 337 338 337 338 340 338 338 341 341 341 339 339 340 342 342 343 344 343 344 345 342 341 342 341 338 337 336 337 338 340 341 340 340 339 340 340 340 341 341 340 340 340 339 338 336 335 335 335 335 334 334 336 336 334 334 334 334 334 336
340 339 337 337 336 337 337 339 340 341 342 341 339 340 339 340 342 343 343 342 343 343 343 343 342 341 342 338 338 338 338 339 341 341 341 343 344 341 341 340 339 340 339 339 338 337 339 338 335 336 337 338 334 335 338 338 333 334 333 334 334 334
337 337 337 337 337 336 336 338 341 342 343 340 338 338 341 340 341 342 343 340 341 343 341 341 342 342 340 338 338 338 337 338 340 343 342 341 340 338 337 338 338 337 342 337 335 335 335 335 336 337 337 339 336 334 337 337 334 334 333 333 333 332
336 334 335 335 336 336 336 337 339 341 341 339 340 341 341 340 340 341 342 341 340 342 342 340 341 343 339 338 337 337 340 340 342 342 341 342 342 340 337 337 337 336 337 336 337 336 336 335 334 335 335 337 338 336 336 334 333 334 334 334 333 334
335 335 333 335 335 336 335 335 337 339 338 339 340 340 339 339 339 339 340 338 340 342 341 340 341 340 339 340 339 339 339 342 344 341 341 343 342 340 339 338 338 337 334 335 335 335 335 335 334 334 335 336 337 337 336 335 336 336 336 335 334 334
333 333 334 334 335 336 337 339 338 337 337 337 337 338 339 339 338 338 338 338 338 341 341 339 338 338 338 339 340 337 337 340 342 342 342 338 338 338 337 339 336 338 335 334 334 334 334 334 334 334 333 333 334 335 335 336 337 337 339 336 334 333
336 336 335 334 334 334 336 337 336 336 338 339 339 340 338 337 338 338 339 337 337 339 341 338 336 337 337 338 339 339 338 339 342 343 340 337 336 337 337 336 335 336 338 336 334 334 333 333 334 334 333 333 333 334 334 336 337 338 336 336 335 334
336 337 336 334 334 334 336 334 333 333 335 337 337 337 337 336 338 338 338 338 339 338 337 338 338 339 337 337 335 337 339 340 340 338 338 336 336 336 336 335 334 335 337 336 334 334 333 333 333 332 333 333 333 333 334 334 336 336 336 336 337 338
335 335 334 332 333 333 333 333 333 333 332 335 336 337 337 336 337 338 339 339 338 337 338 338 337 339 336 335 335 337 338 338 338 336 334 333 331 332 333 333 333 333 333 334 335 334 334 333 331 330 330 331 332 333 333 334 333 333 333 334 336 337
336 336 333 332 332 331 329 330 332 331 331 333 335 337 335 337 337 338 338 337 338 337 336 336 338 339 338 337 335 335 337 336 337 336 334 333 334 334 334 333 332 331 331 331 331 333 333 333 328 325 326 327 328 330 332 333 331 331 334 334 334 334
336 334 332 331 332 332 331 330 330 330 332 332 332 333 333 333 334 336 336 337 337 336 336 336 336 338 338 337 336 336 336 335 334 334 336 336 336 337 334 333 332 328 330 328 328 332 332 331 324 323 322 323 322 326 327 330 331 331 333 334 334 334
334 332 332 333 333 333 333 332 331 331 332 332 335 336 336 336 336 335 333 335 336 336 338 338 336 336 335 334 333 333 334 332 333 334 331 330 329 329 330 329 330 328 326 327 327 331 329 330 324 327 325 319 316 318 320 324 327 328 329 331 332 333
333 333 333 334 334 334 335 336 334 333 333 332 331 333 333 335 334 333 334 337 337 334 333 332 332 333 332 331 331 330 331 331 330 331 327 325 325 325 326 327 327 327 326 323 324 325 327 327 327 325 319 319 317 316 313 317 322 326 326 328 329 332
333 333 332 334 334 334 335 333 334 332 331 330 331 331 330 330 332 334 333 332 331 331 330 329 330 330 331 329 328 327 327 326 326 327 326 324 323 323 324 324 325 324 323 321 321 321 323 326 327 329 325 320 317 316 317 320 322 322 325 325 326 327
332 332 332 332 333 333 332 330 328 326 325 325 324 324 326 328 330 331 330 330 330 329 327 326 326 326 326 328 326 326 325 324 323 324 324 322 322 322 322 322 324 323 321 322 320 318 319 323 325 326 327 329 326 319 317 320 320 314 323 323 325 326
331 331 333 333 332 332 330 329 327 326 326 325 324 326 330 333 332 331 330 328 326 325 325 324 324 323 323 324 323 323 323 322 322 322 325 321 319 319 321 322 324 321 321 321 320 317 317 319 320 322 322 322 323 322 322 319 315 317 313 318 321 321
332 332 333 333 331 331 329 328 327 327 327 327 327 328 331 332 331 330 328 326 324 322 322 322 321 321 321 321 321 320 320 319 319 321 322 319 318 318 319 321 322 320 320 320 318 316 316 317 316 315 319 317 318 318 318 318 318 315 315 312 312 317
331 331 331 331 331 331 330 328 328 328 327 328 330 329 330 330 329 328 326 325 322 320 320 319 319 319 319 319 320 319 318 318 318 318 321 318 317 317 317 317 317 317 317 316 317 318 315 314 315 314 314 314 314 313 314 315 315 315 312 310 310 311
329 329 329 330 331 331 331 330 328 328 327 327 328 327 327 326 326 326 323 320 319 318 318 317 317 317 317 317 317 318 317 317 316 318 320 316 315 315 316 317 316 315 315 314 315 316 315 315 314 314 313 313 311 311 311 311 312 312 311 312 310 310
326 327 327 328 329 329 329 330 329 328 328 327 326 325 324 325 324 322 320 318 316 315 316 315 316 316 316 316 316 319 316 316 317 318 316 315 314 314 315 315 315 314 313 312 313 314 314 314 313 312 312 311 310 310 310 309 310 310 310 308 308 308
323 323 324 324 324 325 325 325 325 325 324 324 324 324 323 322 323 322 320 317 315 314 313 314 314 314 314 315 317 314 315 313 314 313 313 314 314 314 314 314 313 312 311 312 313 314 312 311 310 310 310 310 310 311 310 309 310 310 308 307 307 306
320 321 321 322 321 321 322 322 323 322 323 323 321 321 320 318 319 318 317 315 313 312 312 312 312 313 312 313 313 312 312 311 311 313 313 312 313 313 313 311 311 310 311 311 311 311 310 309 309 309 308 309 309 310 309 310 310 308 308 308 307 304
318 319 319 318 318 319 319 319 319 319 319 318 317 317 317 316 316 316 316 314 313 312 311 312 311 311 313 314 312 312 311 310 311 311 312 312 312 312 312 311 309 309 310 310 310 309 309 309 309 308 308 307 307 308 307 308 308 307 306 305 304 304
317 317 317 316 316 316 317 318 318 318 318 318 317 316 316 316 315 315 315 314 313 312 311 312 311 312 313 312 311 311 311 309 309 309 309 309 311 310 310 311 309 309 310 310 309 309 308 307 308 307 306 307 308 307 307 308 307 306 307 305 303 303
316 316 316 316 315 315 315 316 317 317 318 318 318 316 315 315 315 315 314 313 312 312 312 311 311 310 311 310 309 308 308 307 308 308 308 308 308 308 309 308 307 307 307 312 308 307 307 307 306 306 306 307 306 305 306 305 305 305 304 304 302 302
315 314 314 314 314 314 313 314 314 315 316 316 315 314 313 313 314 314 313 312 312 312 313 311 312 311 309 309 309 308 307 306 307 306 306 307 307 307 308 307 306 306 306 306 308 306 306 305 305 305 305 305 304 303 303 303 303 303 303 302 301 301

ECMWFFLT2_sfc_thetae_114.txt.gz
Theta_e
346 345 343 344 346 348 351 352 351 352 352 351 351 351 351 351 350 349 348 348 347 342 339 340 340 339 344 339 343 342 341 341 341 341 342 341 341 341 342 342 342 342 343 344 345 346 347 348 348 348 348 348 348 340 332 332 335 336 332 334 336 330
344 344 343 344 346 348 349 350 347 348 349 349 351 351 349 347 349 342 348 345 340 342 338 337 338 347 340 340 341 344 343 341 341 342 342 342 342 342 342 342 344 343 343 344 345 336 339 343 346 348 349 350 344 336 332 332 334 330 334 333 335 333
341 340 341 342 346 348 347 346 346 346 347 350 350 350 346 347 341 341 342 341 342 340 339 339 340 345 343 346 342 345 344 343 341 341 341 342 342 343 343 343 344 344 345 345 336 332 333 333 335 345 346 340 337 335 334 332 333 329 333 331 333 337
340 341 342 342 346 347 346 345 344 345 344 345 345 346 343 343 342 341 343 341 341 341 341 339 349 351 347 341 339 345 345 344 343 342 343 341 343 344 343 344 344 344 344 338 332 330 332 334 337 337 337 336 336 335 334 333 334 329 330 334 334 340
340 341 341 342 344 345 345 344 343 344 343 342 343 343 342 341 342 341 341 342 342 342 341 339 341 340 339 337 336 335 335 335 335 333 344 333 332 334 336 333 332 332 327 328 329 329 329 330 334 337 337 337 336 334 333 334 335 329 330 333 336 342
339 340 341 341 342 345 344 342 342 343 343 342 342 341 340 341 340 341 340 342 343 341 338 337 337 337 336 335 336 335 334 334 334 336 339 334 334 332 330 331 331 329 326 326 327 327 327 333 331 332 335 336 336 335 333 333 335 333 331 332 335 343
339 339 340 341 342 343 341 342 342 343 342 340 341 341 340 341 342 341 341 342 342 337 335 334 335 336 336 337 337 336 335 336 335 335 338 336 335 335 333 331 327 326 324 324 325 325 325 326 327 330 333 336 336 335 334 334 334 332 331 332 336 345
338 338 339 340 341 340 340 341 342 347 344 344 344 342 340 342 342 342 343 340 343 337 336 336 336 335 336 336 336 336 338 336 337 337 339 339 337 335 336 332 329 328 328 326 325 327 328 329 325 328 333 335 336 335 335 335 334 331 331 331 334 344
339 338 338 339 339 337 337 340 341 343 342 348 343 340 340 340 339 339 339 342 342 337 337 338 336 336 334 335 335 336 337 337 336 336 337 337 337 335 334 333 332 332 333 333 334 334 336 335 331 328 328 328 328 330 331 332 331 331 332 331 332 338
339 337 337 337 337 334 336 338 340 341 339 346 337 337 338 336 335 339 338 341 342 339 338 338 338 337 335 335 335 336 337 336 336 337 337 337 337 337 335 335 335 336 337 334 336 338 338 336 335 333 331 329 330 330 328 328 330 330 332 332 332 335
337 338 335 335 334 335 337 337 338 337 338 336 336 338 338 338 338 339 340 340 341 344 339 338 337 335 335 334 334 335 335 336 335 336 337 337 336 336 336 335 336 336 335 335 336 337 337 336 335 335 333 331 332 331 332 332 332 332 331 332 333 334
337 336 336 335 337 337 336 337 337 338 337 337 338 337 338 338 340 338 340 339 340 341 340 337 336 337 336 334 334 333 334 335 335 336 336 335 336 336 337 337 336 338 337 335 334 335 336 335 334 335 334 333 332 331 333 334 333 332 332 331 331 333
338 337 336 336 336 337 338 339 338 337 338 339 338 338 338 338 339 339 338 339 339 338 337 337 336 335 338 333 333 333 333 334 336 338 337 340 337 334 334 334 333 335 335 335 334 335 336 334 332 334 334 334 333 333 333 336 334 333 332 332 330 331
336 336 336 336 336 337 338 339 338 337 338 337 337 337 338 337 339 339 339 338 338 338 336 336 336 337 334 333 332 332 333 336 337 338 336 336 337 335 335 334 335 334 338 334 333 334 333 333 333 333 333 333 333 335 333 334 332 332 331 332 330 329
337 336 336 336 336 336 337 337 337 336 336 338 338 337 336 337 336 337 337 337 338 339 337 337 337 335 333 334 334 333 334 335 337 336 336 338 337 336 335 335 334 334 333 333 332 334 333 332 332 332 332 333 333 335 334 334 333 332 332 332 331 331
335 334 334 335 335 335 335 335 336 338 336 337 337 336 334 334 335 336 336 334 336 339 337 336 335 334 333 335 334 332 333 336 337 339 337 337 336 335 334 334 333 333 332 332 333 333 332 331 331 332 332 332 331 332 332 332 334 334 334 332 332 332
333 334 334 334 334 335 335 335 335 335 335 335 336 335 335 335 336 335 334 334 335 339 335 333 334 333 333 332 333 333 334 334 337 337 334 333 333 333 333 334 333 334 332 329 331 331 331 331 331 332 332 331 331 332 331 332 332 333 335 333 333 333
334 334 334 335 335 335 335 335 335 335 338 336 335 335 334 335 335 335 334 334 336 337 336 333 333 334 332 334 333 334 334 336 338 336 333 332 331 332 333 332 331 332 333 331 330 330 329 330 331 331 331 330 330 330 331 331 332 335 333 333 333 333
334 334 334 334 335 334 333 333 333 334 334 334 334 334 333 334 333 334 334 335 336 336 337 334 335 335 332 331 330 333 334 335 336 333 331 331 332 332 332 330 330 330 331 330 329 330 329 329 330 330 329 329 329 329 330 329 331 330 331 333 334 336
335 334 333 333 333 332 331 332 332 332 332 332 333 334 333 333 332 334 336 335 334 333 334 334 333 335 333 332 331 332 335 335 332 331 332 332 331 331 330 330 329 328 328 329 330 329 327 327 327 325 326 327 328 327 328 328 328 328 331 331 332 332
334 333 332 332 331 331 330 330 330 330 332 332 332 332 333 334 334 334 334 335 335 333 332 333 335 335 333 336 333 333 332 331 332 330 328 328 329 329 329 328 327 327 327 325 326 326 326 326 324 323 323 324 324 326 326 327 327 327 328 329 330 331
333 332 331 332 332 331 331 331 329 329 331 331 330 330 329 330 332 333 334 334 331 330 332 333 334 332 331 330 330 330 328 327 327 326 326 326 327 329 326 326 325 324 325 324 324 325 325 324 320 318 318 320 319 323 323 324 325 325 327 327 327 329
332 331 331 332 331 330 329 330 330 329 330 330 332 332 331 332 333 331 332 333 333 332 332 330 330 330 328 327 326 325 325 325 324 325 322 322 322 322 323 323 323 322 321 322 323 325 323 324 317 319 317 313 311 316 317 319 321 323 325 325 325 326
332 330 331 333 332 331 332 332 332 332 331 329 329 333 332 332 331 331 329 328 328 327 326 326 327 327 325 324 324 323 323 323 323 323 321 320 320 320 321 321 321 321 320 318 319 320 323 324 322 320 313 313 312 313 311 310 315 319 321 323 323 324
331 331 331 334 333 333 332 330 330 330 330 330 330 330 329 329 329 329 326 324 324 324 323 323 323 323 324 322 322 322 322 321 321 321 320 319 318 319 320 320 320 319 318 316 317 316 319 322 320 323 319 315 313 314 311 313 315 313 317 319 321 321
331 330 331 332 333 332 330 328 327 326 325 325 325 326 325 325 325 323 322 323 323 323 322 321 320 320 321 321 319 320 320 320 320 320 319 317 317 318 319 319 319 318 317 317 315 314 314 318 319 319 319 322 321 315 313 314 312 309 315 318 317 318
331 330 330 332 332 331 328 327 326 326 326 325 325 325 327 327 324 323 321 319 319 320 319 318 318 319 319 319 318 318 318 319 319 318 319 316 315 316 317 318 318 316 316 316 315 312 311 312 313 315 316 317 317 318 318 315 310 312 308 311 314 315
331 331 331 331 330 330 328 326 326 326 326 325 327 327 328 326 324 321 319 318 317 317 317 317 317 317 318 319 318 316 316 316 317 318 317 314 314 315 315 316 316 315 315 315 314 311 310 311 309 310 314 312 313 314 314 314 313 310 309 307 308 311
331 331 330 330 330 329 329 327 327 327 326 328 330 329 328 326 321 320 317 316 316 315 315 316 316 316 316 317 319 316 315 315 315 316 317 314 314 314 313 312 311 311 311 313 314 313 310 309 309 308 309 308 309 309 310 311 310 309 307 305 304 305
329 329 329 330 330 329 329 328 327 327 327 327 328 326 325 322 319 318 315 314 314 314 314 314 314 315 315 315 314 314 314 313 313 316 316 312 313 312 312 311 311 311 311 311 311 311 310 308 309 308 308 307 306 305 305 305 305 305 305 306 303 303
328 328 329 329 329 329 328 328 327 327 326 325 325 324 322 318 316 314 313 312 312 312 313 313 314 314 313 313 313 315 312 313 313 315 313 312 311 311 310 310 310 310 310 310 309 308 308 308 307 307 307 306 305 305 303 302 303 304 304 302 302 301
322 324 325 327 328 327 327 327 328 327 325 325 324 323 320 316 314 312 312 311 312 312 311 312 312 311 310 311 311 310 312 310 312 310 310 311 311 310 309 309 309 309 308 308 309 309 307 306 306 306 306 306 305 305 304 303 303 303 301 301 300 298
319 320 322 323 323 323 323 323 324 323 321 320 318 317 317 315 314 312 311 311 310 310 310 311 310 310 309 309 310 309 308 308 308 310 310 310 310 310 308 308 308 308 307 307 306 306 305 305 305 305 304 304 304 303 303 303 302 301 300 300 298 295
317 318 319 319 319 318 318 318 318 317 317 317 315 315 315 314 313 312 311 311 310 310 310 309 309 309 309 309 308 308 307 307 307 308 309 309 308 309 308 307 307 307 306 306 306 305 305 305 304 304 303 301 301 301 301 301 300 300 298 297 296 295
316 316 316 316 316 316 316 316 316 316 316 315 314 314 314 314 313 312 311 311 311 311 310 309 308 309 309 307 307 307 307 305 306 306 307 307 308 307 306 306 307 306 307 306 305 304 303 302 302 301 301 300 301 300 300 300 299 298 298 298 297 296
315 315 315 315 314 314 315 316 316 315 315 316 316 314 314 314 313 313 311 311 311 311 311 309 308 308 307 306 305 304 305 304 305 305 306 306 305 305 305 305 304 304 304 307 303 302 302 301 300 300 300 299 299 298 299 298 298 298 297 298 297 297
313 313 313 313 313 313 314 314 314 314 314 313 312 312 312 312 312 313 312 312 312 311 310 308 308 308 306 306 305 303 303 303 303 304 304 305 305 304 304 303 303 302 302 303 304 301 301 300 300 299 299 298 298 298 298 298 297 298 297 297 297 296

ECMWFFLT2_sfc_thetae_117.txt.gz
Theta_e
342 343 347 349 348 347 350 352 351 352 351 351 351 350 350 350 349 349 347 348 346 338 337 338 336 335 344 337 342 341 340 341 341 341 341 341 342 341 342 342 342 343 344 344 345 345 342 342 343 345 347 349 349 332 330 329 329 332 331 332 337 329
341 342 347 348 348 347 349 350 348 348 348 349 350 350 348 345 348 341 347 344 338 341 336 333 335 345 339 340 341 343 341 341 341 341 342 342 342 342 342 343 344 345 345 345 344 333 334 337 339 343 345 346 336 330 328 328 328 327 332 331 336 332
340 343 346 347 348 348 347 346 345 345 347 350 350 349 345 345 338 338 339 338 340 338 336 338 338 341 342 346 341 345 343 342 340 341 341 341 342 342 343 343 344 344 343 341 330 326 327 326 329 340 341 336 334 335 331 329 328 327 332 331 334 336
341 344 345 346 347 347 347 347 346 345 345 345 344 345 342 339 338 338 338 336 337 338 339 335 347 349 349 339 336 345 344 344 343 344 343 339 341 342 342 341 340 341 336 331 325 325 327 327 328 330 331 332 333 334 334 332 330 330 329 333 334 337
341 342 345 346 346 346 346 346 345 345 345 344 343 341 340 337 337 337 337 338 337 340 337 334 335 337 334 334 332 330 330 330 331 330 341 328 328 331 330 328 327 330 322 323 324 325 325 325 326 327 328 330 332 333 334 334 331 331 328 329 335 339
340 340 343 345 345 346 346 344 344 345 345 343 341 340 338 339 336 336 337 338 340 338 335 337 334 334 335 333 333 332 332 331 331 333 336 333 332 331 330 329 327 328 326 323 324 325 324 330 327 326 326 328 331 332 333 333 331 332 331 329 331 341
339 340 342 345 345 345 344 344 344 344 344 343 341 339 338 337 338 337 337 338 339 335 334 334 333 333 333 333 332 333 333 333 332 333 335 333 333 333 333 331 329 327 323 323 323 323 323 324 324 325 326 328 331 333 333 333 331 332 332 331 333 340
339 340 341 344 343 343 343 342 343 346 344 344 341 339 337 338 339 338 339 339 341 337 335 333 335 334 334 332 334 334 334 334 334 334 335 335 335 332 332 332 330 328 328 328 326 328 326 328 327 324 327 329 329 329 331 331 332 333 331 329 331 338
339 340 341 342 342 341 340 340 342 343 342 346 341 339 339 338 339 338 339 340 342 336 333 335 335 334 332 333 333 336 337 337 336 335 334 334 333 333 332 330 329 330 329 330 331 333 334 335 331 328 327 328 327 327 328 327 327 327 328 328 328 333
339 340 340 341 340 338 339 339 340 342 341 345 340 339 336 336 334 335 336 339 339 335 334 335 334 333 334 334 335 336 336 334 333 334 334 335 334 333 332 331 331 332 334 331 332 335 336 333 333 331 330 328 328 328 327 326 327 327 328 329 328 332
339 341 340 339 338 337 338 338 339 340 340 341 338 338 336 335 335 336 337 336 337 338 336 335 334 334 335 334 333 332 331 332 331 332 333 336 333 334 333 333 333 331 331 331 332 333 333 332 332 333 331 330 331 330 329 329 328 329 329 329 329 330
338 339 338 338 339 336 336 338 338 338 338 337 337 335 335 336 338 335 336 336 336 337 338 335 335 335 334 333 331 329 330 330 331 332 334 334 334 335 333 332 333 333 333 331 332 331 331 330 331 332 331 331 331 332 331 331 330 329 329 328 328 329
336 338 336 336 337 335 335 337 337 336 337 337 336 336 336 336 335 335 334 335 335 335 335 336 334 335 335 330 330 329 330 332 332 333 334 336 334 331 331 330 330 332 332 330 329 330 334 329 329 331 331 331 330 331 332 332 332 330 330 329 328 329
335 335 335 335 336 335 336 337 337 336 339 336 336 336 337 336 337 335 334 334 334 335 334 333 334 332 331 330 329 330 331 331 333 333 333 333 332 331 331 332 331 329 334 329 329 328 329 330 329 329 329 329 330 331 330 331 330 330 329 331 330 327
336 334 336 335 336 336 337 337 336 336 336 336 336 335 335 334 334 334 335 335 335 336 335 334 333 333 331 330 329 329 330 332 335 332 332 332 331 332 331 330 331 330 328 330 328 329 328 326 326 329 329 330 330 330 330 330 330 330 330 331 330 330
333 334 335 336 336 337 336 336 336 338 336 336 335 334 333 332 333 332 334 335 335 335 333 332 332 331 331 330 329 330 330 332 335 333 333 332 333 332 329 330 330 329 327 329 329 328 328 327 328 328 328 328 328 328 328 328 329 330 331 330 331 331
332 333 334 336 336 335 335 335 336 336 335 334 333 332 333 333 333 332 332 334 333 335 331 332 331 331 331 330 331 331 332 333 335 333 332 330 331 331 329 330 329 331 326 325 326 326 326 327 327 328 328 328 327 328 327 328 328 329 331 330 331 331
330 332 334 334 335 335 335 335 335 335 336 334 333 333 333 333 332 332 332 333 333 333 333 331 331 331 332 335 331 331 333 334 334 333 331 330 329 329 329 328 327 328 328 326 324 324 324 325 327 328 327 326 326 326 326 326 328 331 328 329 330 331
331 330 333 335 335 334 334 334 334 334 333 333 333 333 333 333 333 332 332 333 332 333 332 330 332 333 331 331 331 332 333 333 333 331 330 328 327 328 328 327 326 325 326 326 323 323 323 324 325 325 325 325 324 324 325 325 326 326 327 327 330 331
330 332 334 334 333 332 332 332 331 332 331 332 332 333 333 333 332 333 333 332 331 330 332 333 332 332 332 331 330 330 330 329 329 328 327 325 324 325 324 324 324 323 322 323 324 324 323 323 322 319 322 323 321 321 323 323 323 324 325 326 326 327
332 333 333 332 330 331 330 330 330 330 330 330 332 332 332 332 332 332 332 332 332 331 331 332 332 331 330 331 327 327 326 326 326 326 324 323 323 323 324 323 322 322 322 321 321 322 323 321 319 319 319 320 320 321 323 321 321 322 323 324 324 322
332 330 330 330 330 330 329 329 329 330 331 332 331 329 329 329 330 331 332 332 331 329 329 329 329 327 326 325 324 323 323 323 323 323 323 324 324 325 321 321 320 319 321 320 319 321 321 320 316 316 316 317 315 319 318 318 319 321 322 323 322 318
330 329 329 330 330 329 327 329 331 331 331 330 332 331 331 332 331 328 327 327 327 326 326 325 325 326 324 323 322 322 321 321 321 323 321 321 321 319 319 318 318 317 317 318 319 320 318 319 313 315 316 314 308 312 315 315 315 319 320 321 319 316
331 329 329 331 331 329 331 331 331 331 331 330 330 332 330 329 326 325 323 323 323 323 323 323 324 324 323 323 322 320 320 320 320 322 321 319 318 317 317 317 317 318 315 315 314 316 319 316 316 315 312 312 312 312 310 307 311 315 316 318 317 314
330 330 330 333 331 331 331 330 330 331 331 330 330 329 327 325 325 324 322 321 321 321 320 320 320 321 321 319 319 319 319 319 318 318 318 317 316 315 315 315 316 316 315 312 311 312 314 316 314 317 315 313 310 310 310 310 311 309 312 314 314 313
330 330 331 331 331 330 330 329 328 327 326 326 325 324 322 321 320 318 317 319 320 320 320 319 319 318 319 319 317 318 318 317 316 316 317 315 315 314 314 314 314 314 313 313 311 310 309 313 314 313 313 315 316 310 309 310 307 306 313 310 312 312
331 330 331 331 331 329 328 328 328 328 327 326 324 324 324 322 319 318 317 317 317 318 318 318 318 317 317 317 316 316 316 316 315 315 317 314 312 312 313 314 315 313 313 312 310 307 307 307 308 310 311 311 313 312 311 308 304 307 305 309 310 309
331 330 332 332 329 328 327 327 326 327 327 327 325 322 321 319 319 318 316 316 316 316 316 316 315 315 316 316 315 314 314 314 314 315 315 312 311 311 312 313 314 312 313 312 309 307 306 307 305 305 309 307 308 308 307 306 305 304 305 302 302 305
329 329 330 330 329 329 328 327 327 327 326 327 325 322 321 320 318 317 315 315 315 314 313 314 313 313 313 314 316 313 313 313 312 313 314 311 311 311 310 310 309 309 308 309 310 308 306 305 305 304 304 304 304 304 304 304 303 303 302 299 299 299
327 328 330 330 329 328 328 327 326 327 327 326 324 321 319 317 316 316 314 314 313 312 312 312 311 311 312 312 312 312 311 311 312 313 313 309 309 309 309 309 309 308 308 306 307 307 306 305 305 304 303 302 301 301 300 300 299 299 299 300 296 296
327 328 330 329 329 328 328 328 327 327 327 325 322 319 316 314 314 313 312 312 311 311 311 310 310 310 310 310 310 313 310 310 311 313 310 308 308 308 308 308 307 307 306 306 305 305 305 304 303 302 301 301 300 299 298 296 296 297 297 295 294 294
326 327 329 329 328 328 328 327 328 328 325 323 321 318 315 313 313 312 312 311 310 310 309 309 308 308 307 308 309 308 310 309 310 308 308 308 308 308 308 307 306 306 304 304 304 304 302 301 300 300 299 299 299 299 298 297 297 297 295 294 294 292
325 326 327 327 327 327 327 327 327 325 324 323 320 317 314 312 312 311 310 309 309 307 307 307 306 306 306 307 307 306 307 307 307 308 308 307 307 307 306 306 305 303 303 302 301 301 299 299 299 298 297 298 298 297 296 297 297 296 296 296 294 291
322 323 323 323 323 323 323 322 321 320 320 320 317 315 314 312 312 311 310 309 308 307 306 306 305 305 305 306 306 306 306 306 306 307 308 306 306 306 306 305 303 302 301 301 300 299 299 299 298 298 298 296 296 296 296 296 295 295 294 293 292 291
317 318 319 318 319 318 318 317 317 317 318 317 315 314 313 313 311 310 309 309 308 307 306 306 305 305 305 304 305 306 306 305 305 305 305 305 305 304 304 304 303 302 301 300 299 299 298 297 297 296 296 296 297 295 295 296 295 295 295 294 293 292
316 316 317 316 316 316 316 316 316 316 316 316 316 314 313 313 311 311 310 309 308 307 307 306 305 304 303 303 303 303 303 303 304 304 304 304 303 303 303 302 301 301 300 302 298 297 297 296 296 296 296 295 295 295 296 295 296 295 295 295 294 293
315 315 315 315 315 316 316 315 315 315 315 314 313 312 312 311 311 311 311 310 308 307 306 305 304 304 302 303 302 302 302 302 302 303 303 303 302 302 302 301 300 299 299 299 299 297 297 296 296 295 295 295 295 295 295 295 295 295 295 294 294 293